<?xml version='1.0' encoding='UTF-8'?><gpx version="1.1" creator="JPX - https://github.com/jenetics/jpx" xmlns="http://www.topografix.com/GPX/1/1"><trk><trkseg><trkpt lat="14.559293769010507" lon="120.99623795432595"><ele>9.0</ele><time>2026-04-25T03:39:48.707Z</time></trkpt><trkpt lat="14.55942207974382" lon="120.9961739586117"><ele>9.0</ele><time>2026-04-25T03:39:49.707Z</time></trkpt><trkpt lat="14.559543231548075" lon="120.99613485446119"><ele>9.0</ele><time>2026-04-25T03:39:50.707Z</time></trkpt><trkpt lat="14.559643944028005" lon="120.99611430786106"><ele>9.0</ele><time>2026-04-25T03:39:51.707Z</time></trkpt><trkpt lat="14.559737666618794" lon="120.99609529002446"><ele>8.666666666666666</ele><time>2026-04-25T03:39:52.707Z</time></trkpt><trkpt lat="14.559831389209617" lon="120.99607627217976"><ele>8.333333333333332</ele><time>2026-04-25T03:39:53.707Z</time></trkpt><trkpt lat="14.559925111800473" lon="120.99605725432698"><ele>8.0</ele><time>2026-04-25T03:39:54.707Z</time></trkpt><trkpt lat="14.560318595833085" lon="120.99582885574245"><ele>7.800000000000001</ele><time>2026-04-25T03:39:55.707Z</time></trkpt><trkpt lat="14.560434306350128" lon="120.99579668909873"><ele>7.6000000000000005</ele><time>2026-04-25T03:39:56.707Z</time></trkpt><trkpt lat="14.560519799440677" lon="120.99578458718906"><ele>7.3999999999999995</ele><time>2026-04-25T03:39:57.707Z</time></trkpt><trkpt lat="14.560644331107166" lon="120.99573337635982"><ele>7.199999999999999</ele><time>2026-04-25T03:39:59.707Z</time></trkpt><trkpt lat="14.560720377333327" lon="120.99571338127306"><ele>7.0</ele><time>2026-04-25T03:40:00.707Z</time></trkpt><trkpt lat="14.560810428373687" lon="120.99569390621375"><ele>7.0</ele><time>2026-04-25T03:40:01.707Z</time></trkpt><trkpt lat="14.560898888434131" lon="120.99567489030231"><ele>7.0</ele><time>2026-04-25T03:40:02.707Z</time></trkpt><trkpt lat="14.560987348494555" lon="120.99565587438326"><ele>7.0</ele><time>2026-04-25T03:40:03.707Z</time></trkpt><trkpt lat="14.561075808554957" lon="120.99563685845658"><ele>7.0</ele><time>2026-04-25T03:40:04.707Z</time></trkpt><trkpt lat="14.56273570960747" lon="120.99538644876944"><ele>7.500000000000001</ele><time>2026-04-25T03:41:22.707Z</time></trkpt><trkpt lat="14.562758055054761" lon="120.99548244879904"><ele>8.0</ele><time>2026-04-25T03:41:23.707Z</time></trkpt><trkpt lat="14.562831234399821" lon="120.99551836328502"><ele>8.5</ele><time>2026-04-25T03:41:28.707Z</time></trkpt><trkpt lat="14.562880445932224" lon="120.9955646914375"><ele>9.0</ele><time>2026-04-25T03:41:30.707Z</time></trkpt><trkpt lat="14.562929351663762" lon="120.99561763160582"><ele>9.5</ele><time>2026-04-25T03:41:32.707Z</time></trkpt><trkpt lat="14.562952239317024" lon="120.99569908276737"><ele>10.0</ele><time>2026-04-25T03:41:35.707Z</time></trkpt><trkpt lat="14.562931003678823" lon="120.9957958221762"><ele>9.8</ele><time>2026-04-25T03:41:37.707Z</time></trkpt><trkpt lat="14.562977954204728" lon="120.99586884806249"><ele>9.6</ele><time>2026-04-25T03:41:41.707Z</time></trkpt><trkpt lat="14.563031619473444" lon="120.99592179734492"><ele>9.4</ele><time>2026-04-25T03:41:44.707Z</time></trkpt><trkpt lat="14.563009975011553" lon="120.99604767799744"><ele>9.2</ele><time>2026-04-25T03:41:46.001Z</time></trkpt><trkpt lat="14.563007202625462" lon="120.99613432290278"><ele>9.0</ele><time>2026-04-25T03:41:48.001Z</time></trkpt><trkpt lat="14.56308734112378" lon="120.99618776332699"><ele>9.0</ele><time>2026-04-25T03:41:50.001Z</time></trkpt><trkpt lat="14.56312963448593" lon="120.99630286479645"><ele>9.0</ele><time>2026-04-25T03:41:52.001Z</time></trkpt><trkpt lat="14.563185001233208" lon="120.99641788715421"><ele>9.0</ele><time>2026-04-25T03:41:54.001Z</time></trkpt><trkpt lat="14.56321216402978" lon="120.99647722739456"><ele>9.0</ele><time>2026-04-25T03:41:55.001Z</time></trkpt><trkpt lat="14.563263197555372" lon="120.99658706910549"><ele>9.0</ele><time>2026-04-25T03:41:57Z</time></trkpt><trkpt lat="14.563309192987832" lon="120.9966897875018"><ele>8.6</ele><time>2026-04-25T03:41:59Z</time></trkpt><trkpt lat="14.563353934964574" lon="120.99678208813552"><ele>8.2</ele><time>2026-04-25T03:42:01Z</time></trkpt><trkpt lat="14.563397494402246" lon="120.99686922388966"><ele>7.799999999999999</ele><time>2026-04-25T03:42:03Z</time></trkpt><trkpt lat="14.563441736701213" lon="120.99695332317691"><ele>7.3999999999999995</ele><time>2026-04-25T03:42:05Z</time></trkpt><trkpt lat="14.563491428535766" lon="120.99704666020763"><ele>7.0</ele><time>2026-04-25T03:42:07Z</time></trkpt><trkpt lat="14.563535065420536" lon="120.99714428799071"><ele>7.0</ele><time>2026-04-25T03:42:09Z</time></trkpt><trkpt lat="14.563564723969755" lon="120.99725740829561"><ele>6.999999999999999</ele><time>2026-04-25T03:42:11Z</time></trkpt><trkpt lat="14.56361014575599" lon="120.9973662427315"><ele>6.999999999999999</ele><time>2026-04-25T03:42:13Z</time></trkpt><trkpt lat="14.563657159825738" lon="120.99746075499192"><ele>7.0</ele><time>2026-04-25T03:42:15Z</time></trkpt><trkpt lat="14.563686766382556" lon="120.99753311899006"><ele>7.0</ele><time>2026-04-25T03:42:17Z</time></trkpt><trkpt lat="14.56371514931751" lon="120.99759644308915"><ele>7.000000000000001</ele><time>2026-04-25T03:42:19Z</time></trkpt><trkpt lat="14.56375472819926" lon="120.99767947772187"><ele>7.0</ele><time>2026-04-25T03:42:22Z</time></trkpt><trkpt lat="14.563796784507709" lon="120.99776738355867"><ele>7.0</ele><time>2026-04-25T03:42:25Z</time></trkpt><trkpt lat="14.563836152574545" lon="120.99784876804475"><ele>7.0</ele><time>2026-04-25T03:42:28Z</time></trkpt><trkpt lat="14.563879738555075" lon="120.99793164013596"><ele>7.000000000000001</ele><time>2026-04-25T03:42:31Z</time></trkpt><trkpt lat="14.563912445332843" lon="120.99799625808373"><ele>7.0</ele><time>2026-04-25T03:42:33Z</time></trkpt><trkpt lat="14.563941571135393" lon="120.99806200136163"><ele>7.000000000000001</ele><time>2026-04-25T03:42:36Z</time></trkpt><trkpt lat="14.563977605684315" lon="120.99813262231142"><ele>7.0</ele><time>2026-04-25T03:42:40Z</time></trkpt><trkpt lat="14.56400486422774" lon="120.99819250540538"><ele>7.0</ele><time>2026-04-25T03:42:43Z</time></trkpt><trkpt lat="14.564020815994498" lon="120.99826010418992"><ele>7.0</ele><time>2026-04-25T03:42:47Z</time></trkpt><trkpt lat="14.563930180590807" lon="120.99834534792998"><ele>7.000000000000001</ele><time>2026-04-25T03:42:52Z</time></trkpt><trkpt lat="14.563816219994592" lon="120.99836602149985"><ele>7.0</ele><time>2026-04-25T03:42:54Z</time></trkpt><trkpt lat="14.563735046932312" lon="120.99839032699722"><ele>7.0</ele><time>2026-04-25T03:42:56Z</time></trkpt><trkpt lat="14.56364793313792" lon="120.99839949434958"><ele>6.999999999999999</ele><time>2026-04-25T03:42:58Z</time></trkpt><trkpt lat="14.563546075450198" lon="120.99842357175264"><ele>6.999999999999999</ele><time>2026-04-25T03:43:00Z</time></trkpt><trkpt lat="14.56344312379741" lon="120.99845159679042"><ele>7.0</ele><time>2026-04-25T03:43:02Z</time></trkpt><trkpt lat="14.56335210928135" lon="120.99847044020885"><ele>7.0</ele><time>2026-04-25T03:43:04Z</time></trkpt><trkpt lat="14.563262581798428" lon="120.99849026113732"><ele>7.0</ele><time>2026-04-25T03:43:06Z</time></trkpt><trkpt lat="14.563143186700769" lon="120.99852193261655"><ele>6.999999999999999</ele><time>2026-04-25T03:43:08Z</time></trkpt><trkpt lat="14.563035167673917" lon="120.99856888885913"><ele>6.999999999999999</ele><time>2026-04-25T03:43:10Z</time></trkpt><trkpt lat="14.562927962959893" lon="120.9986087917128"><ele>7.0</ele><time>2026-04-25T03:43:12Z</time></trkpt><trkpt lat="14.562867526295323" lon="120.9986339431041"><ele>7.0</ele><time>2026-04-25T03:43:13Z</time></trkpt><trkpt lat="14.562756174676856" lon="120.99865194531647"><ele>7.3999999999999995</ele><time>2026-04-25T03:43:15Z</time></trkpt><trkpt lat="14.562649576852548" lon="120.99868722591556"><ele>7.799999999999999</ele><time>2026-04-25T03:43:17Z</time></trkpt><trkpt lat="14.562539627616847" lon="120.99873017338781"><ele>8.2</ele><time>2026-04-25T03:43:19Z</time></trkpt><trkpt lat="14.5624382964762" lon="120.99876905462386"><ele>8.6</ele><time>2026-04-25T03:43:21Z</time></trkpt><trkpt lat="14.562357476733013" lon="120.9988019615502"><ele>9.0</ele><time>2026-04-25T03:43:23Z</time></trkpt><trkpt lat="14.56228230238196" lon="120.99883643297203"><ele>9.000000000000002</ele><time>2026-04-25T03:43:25Z</time></trkpt><trkpt lat="14.56221586027416" lon="120.99886806458994"><ele>9.0</ele><time>2026-04-25T03:43:27Z</time></trkpt><trkpt lat="14.56215653898589" lon="120.99889670128952"><ele>9.0</ele><time>2026-04-25T03:43:29Z</time></trkpt><trkpt lat="14.562072329323547" lon="120.99893565294406"><ele>9.0</ele><time>2026-04-25T03:43:32Z</time></trkpt><trkpt lat="14.562004693954796" lon="120.99896721102657"><ele>9.0</ele><time>2026-04-25T03:43:36Z</time></trkpt><trkpt lat="14.561948775364867" lon="120.99900928180007"><ele>9.000000000000002</ele><time>2026-04-25T03:43:40Z</time></trkpt><trkpt lat="14.561961630179345" lon="120.99908008525529"><ele>9.0</ele><time>2026-04-25T03:43:43Z</time></trkpt><trkpt lat="14.562040465523973" lon="120.99914660007471"><ele>8.833333333333334</ele><time>2026-04-25T03:43:45Z</time></trkpt><trkpt lat="14.562090307593477" lon="120.99919665880262"><ele>8.666666666666666</ele><time>2026-04-25T03:43:47Z</time></trkpt><trkpt lat="14.562146272707787" lon="120.99924662674361"><ele>8.5</ele><time>2026-04-25T03:43:49Z</time></trkpt><trkpt lat="14.56221846625618" lon="120.99931241040575"><ele>8.333333333333332</ele><time>2026-04-25T03:43:51Z</time></trkpt><trkpt lat="14.562308401806478" lon="120.99938245435992"><ele>8.166666666666666</ele><time>2026-04-25T03:43:53Z</time></trkpt><trkpt lat="14.562365316464286" lon="120.99942474183585"><ele>8.0</ele><time>2026-04-25T03:43:54Z</time></trkpt><trkpt lat="14.562420543099144" lon="120.99947612607976"><ele>7.999999999999999</ele><time>2026-04-25T03:43:55Z</time></trkpt><trkpt lat="14.562474824168474" lon="120.99952973024546"><ele>8.0</ele><time>2026-04-25T03:43:56Z</time></trkpt><trkpt lat="14.562536376080931" lon="120.99960157105447"><ele>8.0</ele><time>2026-04-25T03:43:57Z</time></trkpt><trkpt lat="14.56259342409039" lon="120.99966700139753"><ele>8.0</ele><time>2026-04-25T03:43:58Z</time></trkpt><trkpt lat="14.562646238303556" lon="120.99972683146294"><ele>7.999999999999999</ele><time>2026-04-25T03:43:59Z</time></trkpt><trkpt lat="14.562701915934014" lon="120.99978469209222"><ele>8.0</ele><time>2026-04-25T03:44:00Z</time></trkpt><trkpt lat="14.562755005623101" lon="120.99984289448135"><ele>7.999999999999999</ele><time>2026-04-25T03:44:01Z</time></trkpt><trkpt lat="14.562808331663561" lon="120.99990150348751"><ele>8.0</ele><time>2026-04-25T03:44:02Z</time></trkpt><trkpt lat="14.562874423901702" lon="120.9999620045125"><ele>8.0</ele><time>2026-04-25T03:44:03Z</time></trkpt><trkpt lat="14.562935232251043" lon="121.00002460525428"><ele>8.0</ele><time>2026-04-25T03:44:04Z</time></trkpt><trkpt lat="14.56299656821302" lon="121.00008804004946"><ele>7.999999999999999</ele><time>2026-04-25T03:44:05Z</time></trkpt><trkpt lat="14.563059448452256" lon="121.00015244024144"><ele>8.0</ele><time>2026-04-25T03:44:06Z</time></trkpt><trkpt lat="14.563125055853943" lon="121.00021818989245"><ele>7.800000000000001</ele><time>2026-04-25T03:44:07Z</time></trkpt><trkpt lat="14.563197778724922" lon="121.00029456946454"><ele>7.6000000000000005</ele><time>2026-04-25T03:44:08Z</time></trkpt><trkpt lat="14.563263867258662" lon="121.00035579363664"><ele>7.3999999999999995</ele><time>2026-04-25T03:44:09Z</time></trkpt><trkpt lat="14.563332811480883" lon="121.00042118408943"><ele>7.199999999999999</ele><time>2026-04-25T03:44:10Z</time></trkpt><trkpt lat="14.563393589521603" lon="121.00048420980796"><ele>7.0</ele><time>2026-04-25T03:44:11Z</time></trkpt><trkpt lat="14.563451088304273" lon="121.00054767681512"><ele>7.0</ele><time>2026-04-25T03:44:12Z</time></trkpt><trkpt lat="14.563504770484172" lon="121.0006076590447"><ele>7.0</ele><time>2026-04-25T03:44:13Z</time></trkpt><trkpt lat="14.563563744672598" lon="121.00066222131025"><ele>7.0</ele><time>2026-04-25T03:44:14Z</time></trkpt><trkpt lat="14.563615757272352" lon="121.0007210933824"><ele>7.0</ele><time>2026-04-25T03:44:15Z</time></trkpt><trkpt lat="14.563668220021722" lon="121.00077440140589"><ele>7.0</ele><time>2026-04-25T03:44:16Z</time></trkpt><trkpt lat="14.563716424846296" lon="121.00082480743212"><ele>7.0</ele><time>2026-04-25T03:44:17Z</time></trkpt><trkpt lat="14.563765690660698" lon="121.00087419741791"><ele>7.0</ele><time>2026-04-25T03:44:18Z</time></trkpt><trkpt lat="14.563813170765693" lon="121.0009224582858"><ele>7.199999999999999</ele><time>2026-04-25T03:44:19Z</time></trkpt><trkpt lat="14.563858229603865" lon="121.00096794261427"><ele>7.3999999999999995</ele><time>2026-04-25T03:44:20Z</time></trkpt><trkpt lat="14.563942486422478" lon="121.00106007148332"><ele>7.6000000000000005</ele><time>2026-04-25T03:44:22Z</time></trkpt><trkpt lat="14.563990036502656" lon="121.00110395174222"><ele>7.800000000000001</ele><time>2026-04-25T03:44:23Z</time></trkpt><trkpt lat="14.564075525001076" lon="121.0011924278068"><ele>8.0</ele><time>2026-04-25T03:44:25Z</time></trkpt><trkpt lat="14.564130431053412" lon="121.00125277184756"><ele>8.0</ele><time>2026-04-25T03:44:26Z</time></trkpt><trkpt lat="14.564233431754342" lon="121.00137072236394"><ele>8.0</ele><time>2026-04-25T03:44:28Z</time></trkpt><trkpt lat="14.5642909128962" lon="121.00143481572157"><ele>8.0</ele><time>2026-04-25T03:44:29Z</time></trkpt><trkpt lat="14.564359846980466" lon="121.00151453170098"><ele>8.0</ele><time>2026-04-25T03:44:30Z</time></trkpt><trkpt lat="14.56441657118101" lon="121.00157092992842"><ele>8.0</ele><time>2026-04-25T03:44:31Z</time></trkpt><trkpt lat="14.564470785021113" lon="121.00162792793874"><ele>7.666666666666666</ele><time>2026-04-25T03:44:32Z</time></trkpt><trkpt lat="14.564525710225213" lon="121.00168357298135"><ele>7.333333333333333</ele><time>2026-04-25T03:44:33Z</time></trkpt><trkpt lat="14.564576971684735" lon="121.0017375990847"><ele>7.0</ele><time>2026-04-25T03:44:34Z</time></trkpt><trkpt lat="14.564625396118274" lon="121.00178333416521"><ele>6.666666666666666</ele><time>2026-04-25T03:44:35Z</time></trkpt><trkpt lat="14.564705950804651" lon="121.00186212612417"><ele>6.333333333333333</ele><time>2026-04-25T03:44:37Z</time></trkpt><trkpt lat="14.564773115729212" lon="121.00192662408624"><ele>6.0</ele><time>2026-04-25T03:44:39Z</time></trkpt><trkpt lat="14.56484210271827" lon="121.00199223758653"><ele>6.0</ele><time>2026-04-25T03:44:41Z</time></trkpt><trkpt lat="14.564925256159269" lon="121.00208124696147"><ele>6.0</ele><time>2026-04-25T03:44:43Z</time></trkpt><trkpt lat="14.564983239663894" lon="121.00211857919494"><ele>6.0</ele><time>2026-04-25T03:44:44Z</time></trkpt><trkpt lat="14.565033997754114" lon="121.00216889834165"><ele>6.0</ele><time>2026-04-25T03:44:45Z</time></trkpt><trkpt lat="14.565088710883453" lon="121.00222313832191"><ele>6.0</ele><time>2026-04-25T03:44:46Z</time></trkpt><trkpt lat="14.565145848082533" lon="121.00227940713548"><ele>6.0</ele><time>2026-04-25T03:44:47Z</time></trkpt><trkpt lat="14.565205246621732" lon="121.00233655986365"><ele>6.0</ele><time>2026-04-25T03:44:48Z</time></trkpt><trkpt lat="14.565261712581991" lon="121.00240062665073"><ele>6.0</ele><time>2026-04-25T03:44:49Z</time></trkpt><trkpt lat="14.565323345399628" lon="121.00245279851701"><ele>6.0</ele><time>2026-04-25T03:44:50Z</time></trkpt><trkpt lat="14.565378802093685" lon="121.00251777910479"><ele>6.0</ele><time>2026-04-25T03:44:51Z</time></trkpt><trkpt lat="14.565442419506224" lon="121.00257305856373"><ele>6.0</ele><time>2026-04-25T03:44:52Z</time></trkpt><trkpt lat="14.565496274414189" lon="121.00262997763168"><ele>6.0</ele><time>2026-04-25T03:44:53Z</time></trkpt><trkpt lat="14.565558643448899" lon="121.00267010791086"><ele>6.333333333333333</ele><time>2026-04-25T03:44:54Z</time></trkpt><trkpt lat="14.56561153384627" lon="121.00271858694286"><ele>6.666666666666666</ele><time>2026-04-25T03:44:55Z</time></trkpt><trkpt lat="14.565658765822526" lon="121.00276187950124"><ele>7.0</ele><time>2026-04-25T03:44:56Z</time></trkpt><trkpt lat="14.565738833888421" lon="121.00283526943831"><ele>7.333333333333333</ele><time>2026-04-25T03:44:58Z</time></trkpt><trkpt lat="14.565794510229976" lon="121.00288630206649"><ele>7.666666666666666</ele><time>2026-04-25T03:45:00Z</time></trkpt><trkpt lat="14.565777090880427" lon="121.00301818098404"><ele>8.0</ele><time>2026-04-25T03:45:02Z</time></trkpt><trkpt lat="14.565704273479792" lon="121.0031254851074"><ele>8.0</ele><time>2026-04-25T03:45:04Z</time></trkpt><trkpt lat="14.565623967962614" lon="121.00317608174436"><ele>8.0</ele><time>2026-04-25T03:45:06Z</time></trkpt><trkpt lat="14.56554165854924" lon="121.00323274387539"><ele>8.0</ele><time>2026-04-25T03:45:08Z</time></trkpt><trkpt lat="14.565439393616131" lon="121.00331692624651"><ele>8.0</ele><time>2026-04-25T03:45:10Z</time></trkpt><trkpt lat="14.56538404089814" lon="121.00335990084906"><ele>8.0</ele><time>2026-04-25T03:45:11Z</time></trkpt><trkpt lat="14.565328730003559" lon="121.00340143947527"><ele>7.666666666666666</ele><time>2026-04-25T03:45:12Z</time></trkpt><trkpt lat="14.565264163613831" lon="121.0034532411438"><ele>7.333333333333333</ele><time>2026-04-25T03:45:13.086Z</time></trkpt><trkpt lat="14.565209174621831" lon="121.00349685338195"><ele>7.0</ele><time>2026-04-25T03:45:14.048Z</time></trkpt><trkpt lat="14.565151830646181" lon="121.00354417870003"><ele>6.666666666666666</ele><time>2026-04-25T03:45:15.042Z</time></trkpt><trkpt lat="14.565078648093614" lon="121.00356616473745"><ele>6.333333333333333</ele><time>2026-04-25T03:45:16.036Z</time></trkpt><trkpt lat="14.565014389037035" lon="121.00360119638323"><ele>6.0</ele><time>2026-04-25T03:45:17.034Z</time></trkpt><trkpt lat="14.564920155346066" lon="121.00360991645465"><ele>6.0</ele><time>2026-04-25T03:45:18.035Z</time></trkpt><trkpt lat="14.564846451567535" lon="121.0036416409538"><ele>6.0</ele><time>2026-04-25T03:45:19.034Z</time></trkpt><trkpt lat="14.564765872938219" lon="121.00368134588845"><ele>6.0</ele><time>2026-04-25T03:45:20.034Z</time></trkpt><trkpt lat="14.564688552177463" lon="121.0037174989343"><ele>6.0</ele><time>2026-04-25T03:45:21.032Z</time></trkpt><trkpt lat="14.564606362302385" lon="121.00376411817614"><ele>6.0</ele><time>2026-04-25T03:45:22.031Z</time></trkpt><trkpt lat="14.564528813955832" lon="121.00380913255806"><ele>6.0</ele><time>2026-04-25T03:45:23.031Z</time></trkpt><trkpt lat="14.564461680251801" lon="121.0038495991827"><ele>6.0</ele><time>2026-04-25T03:45:24.031Z</time></trkpt><trkpt lat="14.564379622852597" lon="121.00389505409957"><ele>6.0</ele><time>2026-04-25T03:45:25.03Z</time></trkpt><trkpt lat="14.56406018417254" lon="121.00406387452271"><ele>6.0</ele><time>2026-04-25T03:45:26.029Z</time></trkpt><trkpt lat="14.563772694493935" lon="121.00421353292359"><ele>6.0</ele><time>2026-04-25T03:45:27.029Z</time></trkpt><trkpt lat="14.563585149611473" lon="121.00430504140304"><ele>6.25</ele><time>2026-04-25T03:45:28.028Z</time></trkpt><trkpt lat="14.563448322552949" lon="121.00436246389624"><ele>6.5</ele><time>2026-04-25T03:45:29.028Z</time></trkpt><trkpt lat="14.563382125239858" lon="121.00438260043954"><ele>6.75</ele><time>2026-04-25T03:45:30.027Z</time></trkpt><trkpt lat="14.563261201091942" lon="121.00442344489682"><ele>7.0</ele><time>2026-04-25T03:45:31.026Z</time></trkpt><trkpt lat="14.562849980247075" lon="121.00460767709468"><ele>6.0</ele><time>2026-04-25T03:45:32.027Z</time></trkpt><trkpt lat="14.562667572299581" lon="121.00467605469096"><ele>5.0</ele><time>2026-04-25T03:45:33.028Z</time></trkpt><trkpt lat="14.56234884832338" lon="121.00487180328783"><ele>5.0</ele><time>2026-04-25T03:45:34.028Z</time></trkpt><trkpt lat="14.562180541266455" lon="121.00495936027889"><ele>5.0</ele><time>2026-04-25T03:45:35.029Z</time></trkpt><trkpt lat="14.56202956976877" lon="121.00504221673944"><ele>5.0</ele><time>2026-04-25T03:45:36.029Z</time></trkpt><trkpt lat="14.561925461346549" lon="121.00509871243676"><ele>5.333333333333334</ele><time>2026-04-25T03:45:37.026Z</time></trkpt><trkpt lat="14.561768441787121" lon="121.00518392101972"><ele>5.666666666666667</ele><time>2026-04-25T03:45:38.029Z</time></trkpt><trkpt lat="14.56161343923445" lon="121.00526771577154"><ele>6.0</ele><time>2026-04-25T03:45:39.028Z</time></trkpt><trkpt lat="14.561464883533704" lon="121.00534808529066"><ele>6.0</ele><time>2026-04-25T03:45:40.028Z</time></trkpt><trkpt lat="14.561309231527192" lon="121.00543229395596"><ele>6.0</ele><time>2026-04-25T03:45:41.027Z</time></trkpt><trkpt lat="14.561155099976173" lon="121.00551704331086"><ele>6.0</ele><time>2026-04-25T03:45:42.028Z</time></trkpt><trkpt lat="14.561006060034503" lon="121.00559864402172"><ele>6.333333333333334</ele><time>2026-04-25T03:45:43.025Z</time></trkpt><trkpt lat="14.560856594882676" lon="121.00567911166428"><ele>6.666666666666667</ele><time>2026-04-25T03:45:44.027Z</time></trkpt><trkpt lat="14.560686245958637" lon="121.00577042066816"><ele>7.0</ele><time>2026-04-25T03:45:45.026Z</time></trkpt><trkpt lat="14.560538447401175" lon="121.00584964242098"><ele>6.75</ele><time>2026-04-25T03:45:46.026Z</time></trkpt><trkpt lat="14.56042276742471" lon="121.00593902559854"><ele>6.5</ele><time>2026-04-25T03:45:47.024Z</time></trkpt><trkpt lat="14.56027752915723" lon="121.00601880515862"><ele>6.25</ele><time>2026-04-25T03:45:48.025Z</time></trkpt><trkpt lat="14.560352189884318" lon="121.00598124623666"><ele>6.0</ele><time>2026-04-25T03:45:49.025Z</time></trkpt><trkpt lat="14.56023999691643" lon="121.00604686709653"><ele>6.0</ele><time>2026-04-25T03:45:50.025Z</time></trkpt><trkpt lat="14.56011652228371" lon="121.00611822918944"><ele>6.0</ele><time>2026-04-25T03:45:51.023Z</time></trkpt><trkpt lat="14.55996276268259" lon="121.00620517009048"><ele>6.0</ele><time>2026-04-25T03:45:52.024Z</time></trkpt><trkpt lat="14.559829524693821" lon="121.00627765908276"><ele>6.0</ele><time>2026-04-25T03:45:53.022Z</time></trkpt><trkpt lat="14.559661569814303" lon="121.00636856181482"><ele>6.0</ele><time>2026-04-25T03:45:54.021Z</time></trkpt><trkpt lat="14.559523235449728" lon="121.00644214089763"><ele>6.0</ele><time>2026-04-25T03:45:55.021Z</time></trkpt><trkpt lat="14.559381984991585" lon="121.00651681789238"><ele>6.333333333333334</ele><time>2026-04-25T03:45:56.022Z</time></trkpt><trkpt lat="14.559241999816736" lon="121.0065917183313"><ele>6.666666666666667</ele><time>2026-04-25T03:45:57.02Z</time></trkpt><trkpt lat="14.559104415771499" lon="121.00666690882663"><ele>7.0</ele><time>2026-04-25T03:45:58.02Z</time></trkpt><trkpt lat="14.558970504182033" lon="121.00673943142432"><ele>7.0</ele><time>2026-04-25T03:45:59.02Z</time></trkpt><trkpt lat="14.558837148148479" lon="121.00681147250894"><ele>7.0</ele><time>2026-04-25T03:46:00.021Z</time></trkpt><trkpt lat="14.558710361762703" lon="121.00688012152587"><ele>7.0</ele><time>2026-04-25T03:46:01.02Z</time></trkpt><trkpt lat="14.55858470381111" lon="121.00694941764813"><ele>7.0</ele><time>2026-04-25T03:46:02.014Z</time></trkpt><trkpt lat="14.558466870775788" lon="121.00701440927278"><ele>7.666666666666667</ele><time>2026-04-25T03:46:03.014Z</time></trkpt><trkpt lat="14.558353820180505" lon="121.0070769999894"><ele>8.333333333333334</ele><time>2026-04-25T03:46:04.013Z</time></trkpt><trkpt lat="14.558143620965792" lon="121.00720271244387"><ele>9.0</ele><time>2026-04-25T03:46:05.011Z</time></trkpt><trkpt lat="14.557942429799546" lon="121.0073238046891"><ele>8.666666666666666</ele><time>2026-04-25T03:46:06.01Z</time></trkpt><trkpt lat="14.557778950275765" lon="121.00741909985553"><ele>8.333333333333332</ele><time>2026-04-25T03:46:07.011Z</time></trkpt><trkpt lat="14.557639239802354" lon="121.00749890058725"><ele>8.0</ele><time>2026-04-25T03:46:08.01Z</time></trkpt><trkpt lat="14.557511361563124" lon="121.00756859486161"><ele>7.666666666666666</ele><time>2026-04-25T03:46:09.01Z</time></trkpt><trkpt lat="14.557387383612182" lon="121.00763386935814"><ele>7.333333333333334</ele><time>2026-04-25T03:46:10.01Z</time></trkpt><trkpt lat="14.557252660599417" lon="121.00770867761311"><ele>7.0</ele><time>2026-04-25T03:46:11.009Z</time></trkpt><trkpt lat="14.557100732135906" lon="121.00779362459879"><ele>6.333333333333334</ele><time>2026-04-25T03:46:12.011Z</time></trkpt><trkpt lat="14.556953404533727" lon="121.00787779367072"><ele>5.666666666666667</ele><time>2026-04-25T03:46:13.008Z</time></trkpt><trkpt lat="14.556816505233039" lon="121.00795301491199"><ele>5.0</ele><time>2026-04-25T03:46:14.011Z</time></trkpt><trkpt lat="14.556695204562093" lon="121.00801184234831"><ele>5.0</ele><time>2026-04-25T03:46:15.01Z</time></trkpt><trkpt lat="14.556569235502975" lon="121.00807627634103"><ele>5.0</ele><time>2026-04-25T03:46:16.01Z</time></trkpt><trkpt lat="14.556443359684808" lon="121.00813528346636"><ele>5.0</ele><time>2026-04-25T03:46:17.011Z</time></trkpt><trkpt lat="14.556320792495939" lon="121.00820381782276"><ele>5.0</ele><time>2026-04-25T03:46:18.011Z</time></trkpt><trkpt lat="14.556192089125698" lon="121.00826524594292"><ele>5.75</ele><time>2026-04-25T03:46:19.01Z</time></trkpt><trkpt lat="14.55607002298044" lon="121.00833397492347"><ele>6.5</ele><time>2026-04-25T03:46:20.01Z</time></trkpt><trkpt lat="14.55594294572412" lon="121.00839906372848"><ele>7.25</ele><time>2026-04-25T03:46:21.008Z</time></trkpt><trkpt lat="14.555815627609954" lon="121.00846266460535"><ele>8.0</ele><time>2026-04-25T03:46:22.01Z</time></trkpt><trkpt lat="14.555691680554645" lon="121.00853100869797"><ele>8.0</ele><time>2026-04-25T03:46:23.01Z</time></trkpt><trkpt lat="14.555566492889357" lon="121.00858509605207"><ele>8.0</ele><time>2026-04-25T03:46:24.01Z</time></trkpt><trkpt lat="14.555442576038992" lon="121.00865325966089"><ele>8.0</ele><time>2026-04-25T03:46:25.011Z</time></trkpt><trkpt lat="14.555318573855413" lon="121.00872237177946"><ele>8.0</ele><time>2026-04-25T03:46:26.012Z</time></trkpt><trkpt lat="14.555193640621336" lon="121.00878903979726"><ele>7.25</ele><time>2026-04-25T03:46:27.01Z</time></trkpt><trkpt lat="14.555068010709869" lon="121.00885725322733"><ele>6.5</ele><time>2026-04-25T03:46:28.009Z</time></trkpt><trkpt lat="14.55494038584908" lon="121.00892156533043"><ele>5.75</ele><time>2026-04-25T03:46:29.01Z</time></trkpt><trkpt lat="14.554811669832619" lon="121.00898514836156"><ele>5.0</ele><time>2026-04-25T03:46:30.01Z</time></trkpt><trkpt lat="14.554682756772234" lon="121.00904817093729"><ele>5.0</ele><time>2026-04-25T03:46:31.009Z</time></trkpt><trkpt lat="14.554554966492937" lon="121.00911215465445"><ele>5.0</ele><time>2026-04-25T03:46:32.01Z</time></trkpt><trkpt lat="14.554427839239017" lon="121.00917664976765"><ele>5.0</ele><time>2026-04-25T03:46:33.009Z</time></trkpt><trkpt lat="14.554305880965332" lon="121.00924002136551"><ele>5.0</ele><time>2026-04-25T03:46:34.009Z</time></trkpt><trkpt lat="14.554185428352397" lon="121.00930274619486"><ele>6.0</ele><time>2026-04-25T03:46:35.011Z</time></trkpt><trkpt lat="14.554065644417864" lon="121.00936515057467"><ele>7.0</ele><time>2026-04-25T03:46:36.01Z</time></trkpt><trkpt lat="14.552919839795909" lon="121.00996686996434"><ele>17.0</ele><time>2026-04-25T03:46:46.665Z</time></trkpt><trkpt lat="14.54235790257951" lon="121.01576286596674"><ele>17.0</ele><time>2026-04-25T03:49:40.001Z</time></trkpt><trkpt lat="14.542255042478798" lon="121.0158004636852"><ele>17.0</ele><time>2026-04-25T03:49:41.001Z</time></trkpt><trkpt lat="14.542015385962802" lon="121.01596509747655"><ele>17.0</ele><time>2026-04-25T03:49:43.001Z</time></trkpt><trkpt lat="14.54180617310304" lon="121.01601883892856"><ele>15.8</ele><time>2026-04-25T03:49:44.001Z</time></trkpt><trkpt lat="14.541663243474021" lon="121.01605696519678"><ele>14.6</ele><time>2026-04-25T03:49:45.001Z</time></trkpt><trkpt lat="14.54153658317087" lon="121.01608119811713"><ele>13.4</ele><time>2026-04-25T03:49:47Z</time></trkpt><trkpt lat="14.541463746813273" lon="121.01611413626897"><ele>12.200000000000001</ele><time>2026-04-25T03:49:48Z</time></trkpt><trkpt lat="14.541390076504307" lon="121.01614247812351"><ele>11.0</ele><time>2026-04-25T03:49:49Z</time></trkpt><trkpt lat="14.541308353323918" lon="121.01616512469472"><ele>11.0</ele><time>2026-04-25T03:49:50Z</time></trkpt><trkpt lat="14.541222478121083" lon="121.0161905762641"><ele>11.0</ele><time>2026-04-25T03:49:51Z</time></trkpt><trkpt lat="14.541137776844177" lon="121.01621140370888"><ele>11.0</ele><time>2026-04-25T03:49:52Z</time></trkpt><trkpt lat="14.541055151257847" lon="121.01623563661882"><ele>11.0</ele><time>2026-04-25T03:49:53Z</time></trkpt><trkpt lat="14.540977216668944" lon="121.0162618766725"><ele>11.0</ele><time>2026-04-25T03:49:54Z</time></trkpt><trkpt lat="14.540896184657546" lon="121.01628612573555"><ele>11.0</ele><time>2026-04-25T03:49:55Z</time></trkpt><trkpt lat="14.540819105645845" lon="121.01631245384166"><ele>11.166666666666666</ele><time>2026-04-25T03:49:56Z</time></trkpt><trkpt lat="14.540742169875001" lon="121.01634220931838"><ele>11.333333333333332</ele><time>2026-04-25T03:49:57Z</time></trkpt><trkpt lat="14.540666335603245" lon="121.01637260940238"><ele>11.5</ele><time>2026-04-25T03:49:58Z</time></trkpt><trkpt lat="14.540588527084463" lon="121.01640356634753"><ele>11.666666666666666</ele><time>2026-04-25T03:49:59Z</time></trkpt><trkpt lat="14.540516732540196" lon="121.01643641025252"><ele>11.833333333333334</ele><time>2026-04-25T03:50:00Z</time></trkpt><trkpt lat="14.540445358127238" lon="121.01647094650254"><ele>12.0</ele><time>2026-04-25T03:50:01Z</time></trkpt><trkpt lat="14.540372305657584" lon="121.01650695595836"><ele>12.0</ele><time>2026-04-25T03:50:02Z</time></trkpt><trkpt lat="14.540308564465331" lon="121.0165526562683"><ele>12.0</ele><time>2026-04-25T03:50:03Z</time></trkpt><trkpt lat="14.540243801697136" lon="121.01659747917166"><ele>12.0</ele><time>2026-04-25T03:50:04Z</time></trkpt><trkpt lat="14.5401772040995" lon="121.01664698569274"><ele>12.0</ele><time>2026-04-25T03:50:05Z</time></trkpt><trkpt lat="14.540114656966589" lon="121.01669593904136"><ele>12.0</ele><time>2026-04-25T03:50:06Z</time></trkpt><trkpt lat="14.540050999818066" lon="121.01673381845924"><ele>12.0</ele><time>2026-04-25T03:50:07Z</time></trkpt><trkpt lat="14.539949396056594" lon="121.01678187192046"><ele>11.8</ele><time>2026-04-25T03:50:09Z</time></trkpt><trkpt lat="14.539890158165084" lon="121.0168155852623"><ele>11.6</ele><time>2026-04-25T03:50:11Z</time></trkpt><trkpt lat="14.53983731951173" lon="121.01685267450891"><ele>11.4</ele><time>2026-04-25T03:50:13Z</time></trkpt><trkpt lat="14.53976763313496" lon="121.01690472146842"><ele>11.200000000000001</ele><time>2026-04-25T03:50:15Z</time></trkpt><trkpt lat="14.539679503901692" lon="121.01697544517165"><ele>11.0</ele><time>2026-04-25T03:50:17Z</time></trkpt><trkpt lat="14.539582259689876" lon="121.01705680211374"><ele>11.285714285714286</ele><time>2026-04-25T03:50:19Z</time></trkpt><trkpt lat="14.539526543789698" lon="121.01710316856993"><ele>11.571428571428571</ele><time>2026-04-25T03:50:20Z</time></trkpt><trkpt lat="14.539470834906647" lon="121.01714934527608"><ele>11.857142857142858</ele><time>2026-04-25T03:50:21Z</time></trkpt><trkpt lat="14.539411357197688" lon="121.01719588397823"><ele>12.142857142857142</ele><time>2026-04-25T03:50:22Z</time></trkpt><trkpt lat="14.539353960181632" lon="121.0172412379951"><ele>12.428571428571429</ele><time>2026-04-25T03:50:23Z</time></trkpt><trkpt lat="14.53929776881155" lon="121.01728673123806"><ele>12.714285714285714</ele><time>2026-04-25T03:50:24Z</time></trkpt><trkpt lat="14.539237858542482" lon="121.01733558911837"><ele>13.0</ele><time>2026-04-25T03:50:25Z</time></trkpt><trkpt lat="14.539175452826406" lon="121.01738563835775"><ele>12.999999999999998</ele><time>2026-04-25T03:50:26Z</time></trkpt><trkpt lat="14.539110951685604" lon="121.01743588932308"><ele>13.0</ele><time>2026-04-25T03:50:27Z</time></trkpt><trkpt lat="14.539042948777093" lon="121.01748554863312"><ele>13.0</ele><time>2026-04-25T03:50:28Z</time></trkpt><trkpt lat="14.538974226472961" lon="121.01753641245726"><ele>13.0</ele><time>2026-04-25T03:50:29Z</time></trkpt><trkpt lat="14.538909068173282" lon="121.01758399471149"><ele>12.999999999999998</ele><time>2026-04-25T03:50:30Z</time></trkpt><trkpt lat="14.538836686954019" lon="121.01763003522352"><ele>13.0</ele><time>2026-04-25T03:50:31Z</time></trkpt><trkpt lat="14.538757142034827" lon="121.01767796743873"><ele>12.600000000000001</ele><time>2026-04-25T03:50:32Z</time></trkpt><trkpt lat="14.538674198417874" lon="121.01772706006449"><ele>12.200000000000001</ele><time>2026-04-25T03:50:33Z</time></trkpt><trkpt lat="14.538583556795253" lon="121.01777996049836"><ele>11.8</ele><time>2026-04-25T03:50:34Z</time></trkpt><trkpt lat="14.53849571639469" lon="121.01782901944843"><ele>11.4</ele><time>2026-04-25T03:50:35Z</time></trkpt><trkpt lat="14.538407799879634" lon="121.01787917554559"><ele>11.0</ele><time>2026-04-25T03:50:36Z</time></trkpt><trkpt lat="14.538318583610915" lon="121.01792983527241"><ele>11.0</ele><time>2026-04-25T03:50:37Z</time></trkpt><trkpt lat="14.538228039711695" lon="121.01798103469989"><ele>11.0</ele><time>2026-04-25T03:50:38Z</time></trkpt><trkpt lat="14.538137876346461" lon="121.01803104126574"><ele>11.0</ele><time>2026-04-25T03:50:39Z</time></trkpt><trkpt lat="14.538047439124496" lon="121.01808322057255"><ele>11.0</ele><time>2026-04-25T03:50:40Z</time></trkpt><trkpt lat="14.537954554033892" lon="121.01813782084834"><ele>11.0</ele><time>2026-04-25T03:50:41Z</time></trkpt><trkpt lat="14.537855155570789" lon="121.01819549580793"><ele>11.0</ele><time>2026-04-25T03:50:42Z</time></trkpt><trkpt lat="14.53774479729586" lon="121.01823235537903"><ele>11.0</ele><time>2026-04-25T03:50:43Z</time></trkpt><trkpt lat="14.537650248863605" lon="121.01830809490455"><ele>11.0</ele><time>2026-04-25T03:50:44Z</time></trkpt><trkpt lat="14.53754406953963" lon="121.01836842186982"><ele>11.0</ele><time>2026-04-25T03:50:45Z</time></trkpt><trkpt lat="14.537434566031722" lon="121.0184347392651"><ele>11.0</ele><time>2026-04-25T03:50:46Z</time></trkpt><trkpt lat="14.53732344394827" lon="121.01849750659406"><ele>11.0</ele><time>2026-04-25T03:50:47Z</time></trkpt><trkpt lat="14.5372085914528" lon="121.01856088944879"><ele>11.0</ele><time>2026-04-25T03:50:48Z</time></trkpt><trkpt lat="14.537092301561584" lon="121.01862528212804"><ele>11.0</ele><time>2026-04-25T03:50:49Z</time></trkpt><trkpt lat="14.536975512709972" lon="121.01869017828176"><ele>11.0</ele><time>2026-04-25T03:50:50Z</time></trkpt><trkpt lat="14.536858236472382" lon="121.01875441228162"><ele>11.0</ele><time>2026-04-25T03:50:51Z</time></trkpt><trkpt lat="14.536740417103918" lon="121.01881748850809"><ele>11.0</ele><time>2026-04-25T03:50:52Z</time></trkpt><trkpt lat="14.53662343063123" lon="121.01887784772909"><ele>11.0</ele><time>2026-04-25T03:50:53Z</time></trkpt><trkpt lat="14.536510281434682" lon="121.01893959523942"><ele>11.0</ele><time>2026-04-25T03:50:54Z</time></trkpt><trkpt lat="14.536389194694033" lon="121.0190063385017"><ele>11.0</ele><time>2026-04-25T03:50:55Z</time></trkpt><trkpt lat="14.536257202979032" lon="121.01908194975671"><ele>11.0</ele><time>2026-04-25T03:50:56Z</time></trkpt><trkpt lat="14.536134264137273" lon="121.01914863128692"><ele>11.0</ele><time>2026-04-25T03:50:57Z</time></trkpt><trkpt lat="14.536011903871369" lon="121.01921967783615"><ele>12.0</ele><time>2026-04-25T03:50:58Z</time></trkpt><trkpt lat="14.535887340309833" lon="121.01928819171454"><ele>13.0</ele><time>2026-04-25T03:50:59Z</time></trkpt><trkpt lat="14.53576344643997" lon="121.01936163526415"><ele>14.0</ele><time>2026-04-25T03:51:00Z</time></trkpt><trkpt lat="14.535638043372865" lon="121.0194348387381"><ele>15.0</ele><time>2026-04-25T03:51:01Z</time></trkpt><trkpt lat="14.535511607322254" lon="121.01950880772213"><ele>15.0</ele><time>2026-04-25T03:51:02Z</time></trkpt><trkpt lat="14.535387590070677" lon="121.01958145702565"><ele>15.0</ele><time>2026-04-25T03:51:03Z</time></trkpt><trkpt lat="14.53526287424529" lon="121.01965436937418"><ele>15.0</ele><time>2026-04-25T03:51:04Z</time></trkpt><trkpt lat="14.535116195667078" lon="121.0197091699742"><ele>15.0</ele><time>2026-04-25T03:51:05Z</time></trkpt><trkpt lat="14.534982246347615" lon="121.01978654022265"><ele>14.333333333333332</ele><time>2026-04-25T03:51:06Z</time></trkpt><trkpt lat="14.53484917706577" lon="121.01986186291134"><ele>13.666666666666666</ele><time>2026-04-25T03:51:07Z</time></trkpt><trkpt lat="14.53470328713893" lon="121.01992793111863"><ele>13.0</ele><time>2026-04-25T03:51:08Z</time></trkpt><trkpt lat="14.534563796220356" lon="121.02000382238569"><ele>14.0</ele><time>2026-04-25T03:51:09Z</time></trkpt><trkpt lat="14.534424948926423" lon="121.02008545513286"><ele>15.0</ele><time>2026-04-25T03:51:10Z</time></trkpt><trkpt lat="14.534290891243955" lon="121.02015570802058"><ele>16.0</ele><time>2026-04-25T03:51:11Z</time></trkpt><trkpt lat="14.534161460712234" lon="121.02022064954798"><ele>16.0</ele><time>2026-04-25T03:51:12Z</time></trkpt><trkpt lat="14.534022152729497" lon="121.0202993854453"><ele>16.0</ele><time>2026-04-25T03:51:13Z</time></trkpt><trkpt lat="14.533882710077947" lon="121.020378328119"><ele>16.0</ele><time>2026-04-25T03:51:14Z</time></trkpt><trkpt lat="14.53374368685723" lon="121.02045748568088"><ele>16.333333333333332</ele><time>2026-04-25T03:51:15Z</time></trkpt><trkpt lat="14.533603652397412" lon="121.02053737286548"><ele>16.666666666666668</ele><time>2026-04-25T03:51:16Z</time></trkpt><trkpt lat="14.533462029861594" lon="121.02061848868809"><ele>17.0</ele><time>2026-04-25T03:51:17Z</time></trkpt><trkpt lat="14.533315887677993" lon="121.02070416774939"><ele>17.0</ele><time>2026-04-25T03:51:18Z</time></trkpt><trkpt lat="14.533170641323098" lon="121.02078819869189"><ele>17.0</ele><time>2026-04-25T03:51:19Z</time></trkpt><trkpt lat="14.533021753875587" lon="121.0208718470816"><ele>17.0</ele><time>2026-04-25T03:51:20Z</time></trkpt><trkpt lat="14.532869907663049" lon="121.0209566196796"><ele>15.333333333333334</ele><time>2026-04-25T03:51:21Z</time></trkpt><trkpt lat="14.532715125541243" lon="121.02104778064893"><ele>13.666666666666668</ele><time>2026-04-25T03:51:22Z</time></trkpt><trkpt lat="14.532561769183594" lon="121.02113502237471"><ele>12.0</ele><time>2026-04-25T03:51:23Z</time></trkpt><trkpt lat="14.532400113810063" lon="121.02121861910305"><ele>12.0</ele><time>2026-04-25T03:51:24Z</time></trkpt><trkpt lat="14.532231735081545" lon="121.02130678066808"><ele>12.0</ele><time>2026-04-25T03:51:25Z</time></trkpt><trkpt lat="14.532078309747726" lon="121.02139497728407"><ele>12.0</ele><time>2026-04-25T03:51:26Z</time></trkpt><trkpt lat="14.531924210538097" lon="121.02148434993708"><ele>12.0</ele><time>2026-04-25T03:51:27Z</time></trkpt><trkpt lat="14.531748970291362" lon="121.02156366995958"><ele>12.0</ele><time>2026-04-25T03:51:28Z</time></trkpt><trkpt lat="14.531591937556524" lon="121.02165491177603"><ele>12.0</ele><time>2026-04-25T03:51:29Z</time></trkpt><trkpt lat="14.531431050917519" lon="121.02174088907466"><ele>12.0</ele><time>2026-04-25T03:51:30Z</time></trkpt><trkpt lat="14.53127813286949" lon="121.02183184304464"><ele>12.0</ele><time>2026-04-25T03:51:31Z</time></trkpt><trkpt lat="14.53112732337526" lon="121.02192108523761"><ele>12.0</ele><time>2026-04-25T03:51:32Z</time></trkpt><trkpt lat="14.530979643984052" lon="121.02200900935104"><ele>11.0</ele><time>2026-04-25T03:51:33Z</time></trkpt><trkpt lat="14.530833431855006" lon="121.02209644015824"><ele>10.0</ele><time>2026-04-25T03:51:34Z</time></trkpt><trkpt lat="14.530688355680107" lon="121.02218213159867"><ele>9.0</ele><time>2026-04-25T03:51:35Z</time></trkpt><trkpt lat="14.530531473201581" lon="121.02228649239024"><ele>8.666666666666666</ele><time>2026-04-25T03:51:36Z</time></trkpt><trkpt lat="14.530385172801541" lon="121.022371800032"><ele>8.333333333333332</ele><time>2026-04-25T03:51:37Z</time></trkpt><trkpt lat="14.530239728253354" lon="121.02245754410339"><ele>8.0</ele><time>2026-04-25T03:51:38Z</time></trkpt><trkpt lat="14.530096546221513" lon="121.0225381294711"><ele>9.0</ele><time>2026-04-25T03:51:39Z</time></trkpt><trkpt lat="14.529951984579714" lon="121.02262215260069"><ele>10.0</ele><time>2026-04-25T03:51:40Z</time></trkpt><trkpt lat="14.529804816125901" lon="121.02270832542611"><ele>11.0</ele><time>2026-04-25T03:51:41Z</time></trkpt><trkpt lat="14.529655491041842" lon="121.0227950013684"><ele>10.666666666666666</ele><time>2026-04-25T03:51:42Z</time></trkpt><trkpt lat="14.529504887375591" lon="121.02288242529406"><ele>10.333333333333334</ele><time>2026-04-25T03:51:43Z</time></trkpt><trkpt lat="14.529359827962253" lon="121.02296580031854"><ele>10.0</ele><time>2026-04-25T03:51:44Z</time></trkpt><trkpt lat="14.52921845578832" lon="121.02304736525247"><ele>10.0</ele><time>2026-04-25T03:51:45Z</time></trkpt><trkpt lat="14.529080625480384" lon="121.02312771026733"><ele>10.0</ele><time>2026-04-25T03:51:46Z</time></trkpt><trkpt lat="14.528946177547015" lon="121.0232066262379"><ele>10.0</ele><time>2026-04-25T03:51:47Z</time></trkpt><trkpt lat="14.528815090192156" lon="121.02328190329392"><ele>10.0</ele><time>2026-04-25T03:51:48Z</time></trkpt><trkpt lat="14.52869045284112" lon="121.02335301140339"><ele>10.0</ele><time>2026-04-25T03:51:49Z</time></trkpt><trkpt lat="14.528574837881276" lon="121.02341875953759"><ele>10.0</ele><time>2026-04-25T03:51:50Z</time></trkpt><trkpt lat="14.52846364448977" lon="121.02348148186684"><ele>10.0</ele><time>2026-04-25T03:51:51Z</time></trkpt><trkpt lat="14.528355495533036" lon="121.02355292937348"><ele>10.0</ele><time>2026-04-25T03:51:52Z</time></trkpt><trkpt lat="14.528237975212885" lon="121.02361517866527"><ele>10.0</ele><time>2026-04-25T03:51:53Z</time></trkpt><trkpt lat="14.528119268191777" lon="121.02367866902235"><ele>10.0</ele><time>2026-04-25T03:51:54Z</time></trkpt><trkpt lat="14.528004225638986" lon="121.02374357468007"><ele>10.0</ele><time>2026-04-25T03:51:55Z</time></trkpt><trkpt lat="14.527881698554927" lon="121.02381389863949"><ele>10.25</ele><time>2026-04-25T03:51:56Z</time></trkpt><trkpt lat="14.527739858379736" lon="121.02389540272414"><ele>10.5</ele><time>2026-04-25T03:51:57Z</time></trkpt><trkpt lat="14.527613163886755" lon="121.02397088344135"><ele>10.75</ele><time>2026-04-25T03:51:58Z</time></trkpt><trkpt lat="14.527512556355468" lon="121.02403216903576"><ele>11.0</ele><time>2026-04-25T03:51:59Z</time></trkpt><trkpt lat="14.52737837142499" lon="121.02410865881245"><ele>11.0</ele><time>2026-04-25T03:52:00Z</time></trkpt><trkpt lat="14.527265331187355" lon="121.02417490202787"><ele>11.0</ele><time>2026-04-25T03:52:01Z</time></trkpt><trkpt lat="14.527148926716707" lon="121.02424341509199"><ele>11.0</ele><time>2026-04-25T03:52:02Z</time></trkpt><trkpt lat="14.52702362910694" lon="121.02431796072428"><ele>11.0</ele><time>2026-04-25T03:52:03Z</time></trkpt><trkpt lat="14.526905823241776" lon="121.02438745258785"><ele>11.333333333333332</ele><time>2026-04-25T03:52:04Z</time></trkpt><trkpt lat="14.526782998327803" lon="121.02446014154212"><ele>11.666666666666666</ele><time>2026-04-25T03:52:05Z</time></trkpt><trkpt lat="14.526583925815293" lon="121.024421626411"><ele>12.0</ele><time>2026-04-25T03:52:06Z</time></trkpt><trkpt lat="14.526433235938978" lon="121.02446701474473"><ele>12.0</ele><time>2026-04-25T03:52:07Z</time></trkpt><trkpt lat="14.526283288140329" lon="121.02451753216693"><ele>12.0</ele><time>2026-04-25T03:52:08Z</time></trkpt><trkpt lat="14.526150697344356" lon="121.02457054182395"><ele>12.0</ele><time>2026-04-25T03:52:09Z</time></trkpt><trkpt lat="14.526055602945329" lon="121.02468727157667"><ele>12.0</ele><time>2026-04-25T03:52:10Z</time></trkpt><trkpt lat="14.525905514337262" lon="121.0247969173835"><ele>11.333333333333334</ele><time>2026-04-25T03:52:11.071Z</time></trkpt><trkpt lat="14.525760857153177" lon="121.02486680800108"><ele>10.666666666666668</ele><time>2026-04-25T03:52:12.072Z</time></trkpt><trkpt lat="14.525623536268895" lon="121.0249780074226"><ele>10.0</ele><time>2026-04-25T03:52:13.07Z</time></trkpt><trkpt lat="14.525491191862523" lon="121.02508674143915"><ele>10.333333333333334</ele><time>2026-04-25T03:52:14.069Z</time></trkpt><trkpt lat="14.525358290637685" lon="121.02519586598316"><ele>10.666666666666666</ele><time>2026-04-25T03:52:15.071Z</time></trkpt><trkpt lat="14.525240965149592" lon="121.02529220134299"><ele>11.0</ele><time>2026-04-25T03:52:16Z</time></trkpt><trkpt lat="14.525132848725985" lon="121.02538090415672"><ele>11.0</ele><time>2026-04-25T03:52:17Z</time></trkpt><trkpt lat="14.524985982371218" lon="121.02547970207179"><ele>11.0</ele><time>2026-04-25T03:52:18Z</time></trkpt><trkpt lat="14.524831995881408" lon="121.025550421925"><ele>11.0</ele><time>2026-04-25T03:52:19Z</time></trkpt><trkpt lat="14.52459495624812" lon="121.02541418198282"><ele>12.333333333333332</ele><time>2026-04-25T03:52:20Z</time></trkpt><trkpt lat="14.524458951875925" lon="121.02548126393354"><ele>13.666666666666666</ele><time>2026-04-25T03:52:21Z</time></trkpt><trkpt lat="14.524322917723163" lon="121.02554975198728"><ele>15.0</ele><time>2026-04-25T03:52:22Z</time></trkpt><trkpt lat="14.524189123380783" lon="121.02561891964551"><ele>15.0</ele><time>2026-04-25T03:52:23Z</time></trkpt><trkpt lat="14.524053216067667" lon="121.02569224457592"><ele>15.0</ele><time>2026-04-25T03:52:24Z</time></trkpt><trkpt lat="14.5241052277889" lon="121.02606554033267"><ele>15.333333333333332</ele><time>2026-04-25T03:52:25Z</time></trkpt><trkpt lat="14.523966057949497" lon="121.026154263936"><ele>15.666666666666666</ele><time>2026-04-25T03:52:26Z</time></trkpt><trkpt lat="14.523829021820971" lon="121.02624095113116"><ele>16.0</ele><time>2026-04-25T03:52:27Z</time></trkpt><trkpt lat="14.523684216251603" lon="121.02632883687708"><ele>16.0</ele><time>2026-04-25T03:52:28Z</time></trkpt><trkpt lat="14.523540566838104" lon="121.0264130349238"><ele>16.0</ele><time>2026-04-25T03:52:29Z</time></trkpt><trkpt lat="14.5233693254041" lon="121.02650439729862"><ele>16.0</ele><time>2026-04-25T03:52:30Z</time></trkpt><trkpt lat="14.52321776973614" lon="121.02658238300417"><ele>15.666666666666666</ele><time>2026-04-25T03:52:31Z</time></trkpt><trkpt lat="14.523065052719256" lon="121.02666096768044"><ele>15.333333333333332</ele><time>2026-04-25T03:52:32Z</time></trkpt><trkpt lat="14.52290251755812" lon="121.02674460309842"><ele>15.0</ele><time>2026-04-25T03:52:33Z</time></trkpt><trkpt lat="14.522746744581859" lon="121.0268247588586"><ele>15.666666666666668</ele><time>2026-04-25T03:52:34Z</time></trkpt><trkpt lat="14.522585995135001" lon="121.0269074754337"><ele>16.333333333333336</ele><time>2026-04-25T03:52:35Z</time></trkpt><trkpt lat="14.522425052120408" lon="121.0269902915348"><ele>17.0</ele><time>2026-04-25T03:52:36Z</time></trkpt><trkpt lat="14.52226339247398" lon="121.02707347643495"><ele>17.0</ele><time>2026-04-25T03:52:37Z</time></trkpt><trkpt lat="14.522100252288837" lon="121.02715742315101"><ele>17.0</ele><time>2026-04-25T03:52:38Z</time></trkpt><trkpt lat="14.52194846687685" lon="121.02723885024307"><ele>17.0</ele><time>2026-04-25T03:52:39Z</time></trkpt><trkpt lat="14.521788602642358" lon="121.02732495514877"><ele>17.0</ele><time>2026-04-25T03:52:40Z</time></trkpt><trkpt lat="14.521631098044253" lon="121.02740978914954"><ele>17.0</ele><time>2026-04-25T03:52:41Z</time></trkpt><trkpt lat="14.521458630708205" lon="121.02746604358973"><ele>17.0</ele><time>2026-04-25T03:52:42Z</time></trkpt><trkpt lat="14.521285404537712" lon="121.02752028661038"><ele>16.666666666666668</ele><time>2026-04-25T03:52:43Z</time></trkpt><trkpt lat="14.52110980751391" lon="121.02757393583661"><ele>16.333333333333332</ele><time>2026-04-25T03:52:44Z</time></trkpt><trkpt lat="14.52093274210237" lon="121.0276275778606"><ele>16.0</ele><time>2026-04-25T03:52:45Z</time></trkpt><trkpt lat="14.520755627460833" lon="121.0276805585172"><ele>16.0</ele><time>2026-04-25T03:52:46Z</time></trkpt><trkpt lat="14.520577530400361" lon="121.02773413252781"><ele>16.0</ele><time>2026-04-25T03:52:47Z</time></trkpt><trkpt lat="14.520396036107096" lon="121.02778891933562"><ele>16.0</ele><time>2026-04-25T03:52:48Z</time></trkpt><trkpt lat="14.520219412016303" lon="121.02784169152068"><ele>16.333333333333332</ele><time>2026-04-25T03:52:49Z</time></trkpt><trkpt lat="14.5200445865091" lon="121.02789350376803"><ele>16.666666666666668</ele><time>2026-04-25T03:52:50Z</time></trkpt><trkpt lat="14.519871049710584" lon="121.02794463324265"><ele>17.0</ele><time>2026-04-25T03:52:51Z</time></trkpt><trkpt lat="14.519699478138918" lon="121.02799511256744"><ele>17.0</ele><time>2026-04-25T03:52:52Z</time></trkpt><trkpt lat="14.519524112498338" lon="121.0280475245875"><ele>17.0</ele><time>2026-04-25T03:52:53Z</time></trkpt><trkpt lat="14.519359170845267" lon="121.02809601047015"><ele>17.0</ele><time>2026-04-25T03:52:54Z</time></trkpt><trkpt lat="14.519188896804527" lon="121.0281481523398"><ele>17.0</ele><time>2026-04-25T03:52:55Z</time></trkpt><trkpt lat="14.519016705154955" lon="121.02819921389526"><ele>17.0</ele><time>2026-04-25T03:52:56Z</time></trkpt><trkpt lat="14.518862258056421" lon="121.02828344162505"><ele>17.0</ele><time>2026-04-25T03:52:57Z</time></trkpt><trkpt lat="14.518710744507338" lon="121.02836571443046"><ele>18.333333333333336</ele><time>2026-04-25T03:52:58Z</time></trkpt><trkpt lat="14.51856275457994" lon="121.02844980767321"><ele>19.666666666666668</ele><time>2026-04-25T03:52:59Z</time></trkpt><trkpt lat="14.518416390920724" lon="121.0285374596643"><ele>21.0</ele><time>2026-04-25T03:53:00Z</time></trkpt><trkpt lat="14.51827286190965" lon="121.02862969735529"><ele>21.0</ele><time>2026-04-25T03:53:01Z</time></trkpt><trkpt lat="14.518132119882155" lon="121.02872629711884"><ele>21.0</ele><time>2026-04-25T03:53:02Z</time></trkpt><trkpt lat="14.517990563855065" lon="121.0288243471776"><ele>21.0</ele><time>2026-04-25T03:53:03Z</time></trkpt><trkpt lat="14.517852657207754" lon="121.02893814562087"><ele>21.0</ele><time>2026-04-25T03:53:04Z</time></trkpt><trkpt lat="14.517716177971337" lon="121.02904837121831"><ele>21.0</ele><time>2026-04-25T03:53:05Z</time></trkpt><trkpt lat="14.51758108631894" lon="121.02916007980767"><ele>21.0</ele><time>2026-04-25T03:53:06Z</time></trkpt><trkpt lat="14.51744385706205" lon="121.02926906610256"><ele>21.0</ele><time>2026-04-25T03:53:07Z</time></trkpt><trkpt lat="14.517303556109702" lon="121.02937990249978"><ele>21.0</ele><time>2026-04-25T03:53:08Z</time></trkpt><trkpt lat="14.517164214147085" lon="121.02948776942438"><ele>21.0</ele><time>2026-04-25T03:53:09Z</time></trkpt><trkpt lat="14.517024616953085" lon="121.02959440503881"><ele>22.333333333333336</ele><time>2026-04-25T03:53:10Z</time></trkpt><trkpt lat="14.516884501015149" lon="121.02969696642066"><ele>23.666666666666668</ele><time>2026-04-25T03:53:11Z</time></trkpt><trkpt lat="14.516741047404803" lon="121.02979721361426"><ele>25.0</ele><time>2026-04-25T03:53:12Z</time></trkpt><trkpt lat="14.516595317742725" lon="121.02989596979057"><ele>24.333333333333336</ele><time>2026-04-25T03:53:13Z</time></trkpt><trkpt lat="14.516447998520377" lon="121.02999085570409"><ele>23.666666666666668</ele><time>2026-04-25T03:53:14Z</time></trkpt><trkpt lat="14.51629937485377" lon="121.03008384075952"><ele>23.0</ele><time>2026-04-25T03:53:15Z</time></trkpt><trkpt lat="14.516227764336746" lon="121.03033410497112"><ele>22.333333333333336</ele><time>2026-04-25T03:53:16Z</time></trkpt><trkpt lat="14.516072571739784" lon="121.03041729375492"><ele>21.666666666666668</ele><time>2026-04-25T03:53:17Z</time></trkpt><trkpt lat="14.515921288002737" lon="121.03049838728107"><ele>21.0</ele><time>2026-04-25T03:53:18Z</time></trkpt><trkpt lat="14.51577756815378" lon="121.03057542624876"><ele>21.0</ele><time>2026-04-25T03:53:19Z</time></trkpt><trkpt lat="14.515640094261647" lon="121.03064911717776"><ele>21.0</ele><time>2026-04-25T03:53:20Z</time></trkpt><trkpt lat="14.515504957727215" lon="121.03072155519719"><ele>21.0</ele><time>2026-04-25T03:53:21Z</time></trkpt><trkpt lat="14.515369534260808" lon="121.0307941470266"><ele>22.0</ele><time>2026-04-25T03:53:22Z</time></trkpt><trkpt lat="14.515234495099742" lon="121.03086653285644"><ele>23.0</ele><time>2026-04-25T03:53:23Z</time></trkpt><trkpt lat="14.515100049276553" lon="121.03093860063481"><ele>24.0</ele><time>2026-04-25T03:53:24Z</time></trkpt><trkpt lat="14.514966035436226" lon="121.03101043684498"><ele>24.0</ele><time>2026-04-25T03:53:25Z</time></trkpt><trkpt lat="14.514833578338566" lon="121.03108143860028"><ele>24.0</ele><time>2026-04-25T03:53:26Z</time></trkpt><trkpt lat="14.514704076609698" lon="121.03115085616884"><ele>24.0</ele><time>2026-04-25T03:53:27Z</time></trkpt><trkpt lat="14.514579945602843" lon="121.03121739482404"><ele>24.0</ele><time>2026-04-25T03:53:28Z</time></trkpt><trkpt lat="14.514458746344335" lon="121.03128236196969"><ele>24.0</ele><time>2026-04-25T03:53:29Z</time></trkpt><trkpt lat="14.51434280991154" lon="121.0313445080541"><ele>24.0</ele><time>2026-04-25T03:53:30Z</time></trkpt><trkpt lat="14.514239958557834" lon="121.03140098980322"><ele>24.0</ele><time>2026-04-25T03:53:31Z</time></trkpt><trkpt lat="14.5141315532779" lon="121.031463240493"><ele>24.0</ele><time>2026-04-25T03:53:32Z</time></trkpt><trkpt lat="14.514024868492168" lon="121.0315245032055"><ele>24.0</ele><time>2026-04-25T03:53:33Z</time></trkpt><trkpt lat="14.513925328472798" lon="121.03158278693328"><ele>24.0</ele><time>2026-04-25T03:53:34Z</time></trkpt><trkpt lat="14.513822897332876" lon="121.03164355449469"><ele>24.0</ele><time>2026-04-25T03:53:35Z</time></trkpt><trkpt lat="14.513722243211681" lon="121.03170326781877"><ele>24.0</ele><time>2026-04-25T03:53:36Z</time></trkpt><trkpt lat="14.513644345880737" lon="121.03175117387765"><ele>24.0</ele><time>2026-04-25T03:53:37Z</time></trkpt><trkpt lat="14.513557021584157" lon="121.03180912914796"><ele>24.0</ele><time>2026-04-25T03:53:38Z</time></trkpt><trkpt lat="14.513482231556111" lon="121.03185876568523"><ele>24.0</ele><time>2026-04-25T03:53:39Z</time></trkpt><trkpt lat="14.513412011701476" lon="121.03190536911232"><ele>24.0</ele><time>2026-04-25T03:53:40Z</time></trkpt><trkpt lat="14.513337091330381" lon="121.03195414048632"><ele>24.0</ele><time>2026-04-25T03:53:41Z</time></trkpt><trkpt lat="14.513272874278359" lon="121.03199467637944"><ele>24.0</ele><time>2026-04-25T03:53:42Z</time></trkpt><trkpt lat="14.513208150368438" lon="121.03203553357824"><ele>24.0</ele><time>2026-04-25T03:53:43Z</time></trkpt><trkpt lat="14.513145573196912" lon="121.03207503431076"><ele>24.0</ele><time>2026-04-25T03:53:44Z</time></trkpt><trkpt lat="14.513084333342873" lon="121.03211369088876"><ele>24.0</ele><time>2026-04-25T03:53:45Z</time></trkpt><trkpt lat="14.513018924964966" lon="121.03215497880691"><ele>24.0</ele><time>2026-04-25T03:53:46Z</time></trkpt><trkpt lat="14.512949334844842" lon="121.0321989063219"><ele>24.0</ele><time>2026-04-25T03:53:47Z</time></trkpt><trkpt lat="14.512874462947083" lon="121.03224616799272"><ele>24.0</ele><time>2026-04-25T03:53:48Z</time></trkpt><trkpt lat="14.512792828805948" lon="121.03229769804366"><ele>24.0</ele><time>2026-04-25T03:53:49Z</time></trkpt><trkpt lat="14.51268384832699" lon="121.03236066922476"><ele>24.2</ele><time>2026-04-25T03:53:50Z</time></trkpt><trkpt lat="14.512596190163444" lon="121.0324093829472"><ele>24.4</ele><time>2026-04-25T03:53:51Z</time></trkpt><trkpt lat="14.512508913047013" lon="121.03245788491274"><ele>24.6</ele><time>2026-04-25T03:53:52Z</time></trkpt><trkpt lat="14.512423427048617" lon="121.03250539150937"><ele>24.8</ele><time>2026-04-25T03:53:53Z</time></trkpt><trkpt lat="14.512336057427026" lon="121.03255394488238"><ele>25.0</ele><time>2026-04-25T03:53:54Z</time></trkpt><trkpt lat="14.512247223769563" lon="121.03260331185326"><ele>25.4</ele><time>2026-04-25T03:53:55Z</time></trkpt><trkpt lat="14.512157447233903" lon="121.03265340822854"><ele>25.8</ele><time>2026-04-25T03:53:56Z</time></trkpt><trkpt lat="14.512062512541936" lon="121.03270638385625"><ele>26.200000000000003</ele><time>2026-04-25T03:53:57Z</time></trkpt><trkpt lat="14.511962863418018" lon="121.03276189397785"><ele>26.6</ele><time>2026-04-25T03:53:58Z</time></trkpt><trkpt lat="14.511859462305745" lon="121.03281930564646"><ele>27.0</ele><time>2026-04-25T03:53:59Z</time></trkpt><trkpt lat="14.511753542712617" lon="121.03287805417467"><ele>27.0</ele><time>2026-04-25T03:54:00Z</time></trkpt><trkpt lat="14.511631692555076" lon="121.0329156911874"><ele>27.0</ele><time>2026-04-25T03:54:01Z</time></trkpt><trkpt lat="14.51152425140803" lon="121.03299025894029"><ele>27.0</ele><time>2026-04-25T03:54:02Z</time></trkpt><trkpt lat="14.511412599983688" lon="121.03306714739416"><ele>27.0</ele><time>2026-04-25T03:54:03Z</time></trkpt><trkpt lat="14.511292235752862" lon="121.0331339036396"><ele>27.0</ele><time>2026-04-25T03:54:04Z</time></trkpt><trkpt lat="14.511168709822444" lon="121.0332024134288"><ele>27.0</ele><time>2026-04-25T03:54:05Z</time></trkpt><trkpt lat="14.511042618322223" lon="121.03327234613604"><ele>27.0</ele><time>2026-04-25T03:54:06Z</time></trkpt><trkpt lat="14.510908301757611" lon="121.03334684060646"><ele>27.0</ele><time>2026-04-25T03:54:07Z</time></trkpt><trkpt lat="14.510766867525707" lon="121.03342528267702"><ele>27.0</ele><time>2026-04-25T03:54:08Z</time></trkpt><trkpt lat="14.510622364027096" lon="121.03350542701455"><ele>27.0</ele><time>2026-04-25T03:54:09Z</time></trkpt><trkpt lat="14.510473302272933" lon="121.03358809944844"><ele>27.0</ele><time>2026-04-25T03:54:10Z</time></trkpt><trkpt lat="14.510321087067808" lon="121.03367252083598"><ele>25.666666666666668</ele><time>2026-04-25T03:54:11Z</time></trkpt><trkpt lat="14.510149973967506" lon="121.0337634769408"><ele>24.333333333333336</ele><time>2026-04-25T03:54:12Z</time></trkpt><trkpt lat="14.509986717925015" lon="121.03384779647428"><ele>23.0</ele><time>2026-04-25T03:54:13Z</time></trkpt><trkpt lat="14.509821802385979" lon="121.03393309781913"><ele>23.0</ele><time>2026-04-25T03:54:14Z</time></trkpt><trkpt lat="14.509650642298894" lon="121.03402189955143"><ele>23.0</ele><time>2026-04-25T03:54:15Z</time></trkpt><trkpt lat="14.509447268094025" lon="121.03411696811833"><ele>23.0</ele><time>2026-04-25T03:54:16Z</time></trkpt><trkpt lat="14.50926267113893" lon="121.03419874214973"><ele>23.666666666666668</ele><time>2026-04-25T03:54:17Z</time></trkpt><trkpt lat="14.509075790119727" lon="121.03427976032123"><ele>24.333333333333336</ele><time>2026-04-25T03:54:18Z</time></trkpt><trkpt lat="14.50887749720455" lon="121.0343605707704"><ele>25.0</ele><time>2026-04-25T03:54:19Z</time></trkpt><trkpt lat="14.508690289637702" lon="121.03443535919013"><ele>23.0</ele><time>2026-04-25T03:54:20Z</time></trkpt><trkpt lat="14.508487965201716" lon="121.03451241929493"><ele>21.0</ele><time>2026-04-25T03:54:21Z</time></trkpt><trkpt lat="14.508302633056008" lon="121.03457640255247"><ele>19.0</ele><time>2026-04-25T03:54:22Z</time></trkpt><trkpt lat="14.508116498281334" lon="121.03464066432355"><ele>19.0</ele><time>2026-04-25T03:54:23Z</time></trkpt><trkpt lat="14.507911340886011" lon="121.0347009661941"><ele>19.0</ele><time>2026-04-25T03:54:24Z</time></trkpt><trkpt lat="14.507729855977155" lon="121.03475382908141"><ele>19.0</ele><time>2026-04-25T03:54:25Z</time></trkpt><trkpt lat="14.50754085200569" lon="121.0348137603119"><ele>19.0</ele><time>2026-04-25T03:54:26Z</time></trkpt><trkpt lat="14.507354419629602" lon="121.03487293725793"><ele>19.0</ele><time>2026-04-25T03:54:27Z</time></trkpt><trkpt lat="14.507169162308543" lon="121.03493213607743"><ele>19.0</ele><time>2026-04-25T03:54:28Z</time></trkpt><trkpt lat="14.50698375919706" lon="121.03499372249375"><ele>19.0</ele><time>2026-04-25T03:54:29Z</time></trkpt><trkpt lat="14.50680008085361" lon="121.03505473598659"><ele>19.0</ele><time>2026-04-25T03:54:30Z</time></trkpt><trkpt lat="14.506620817057645" lon="121.03511428306662"><ele>19.0</ele><time>2026-04-25T03:54:31Z</time></trkpt><trkpt lat="14.506444683752257" lon="121.03517643827114"><ele>19.0</ele><time>2026-04-25T03:54:32Z</time></trkpt><trkpt lat="14.506272115795577" lon="121.03524322181246"><ele>19.0</ele><time>2026-04-25T03:54:33Z</time></trkpt><trkpt lat="14.506108290956732" lon="121.03532859175014"><ele>19.0</ele><time>2026-04-25T03:54:34Z</time></trkpt><trkpt lat="14.505942725229634" lon="121.03541562789238"><ele>17.666666666666664</ele><time>2026-04-25T03:54:35Z</time></trkpt><trkpt lat="14.505786632628501" lon="121.03550598874253"><ele>16.333333333333332</ele><time>2026-04-25T03:54:36Z</time></trkpt><trkpt lat="14.505628748891326" lon="121.0355927030624"><ele>15.0</ele><time>2026-04-25T03:54:37Z</time></trkpt><trkpt lat="14.505471559905775" lon="121.0356802854434"><ele>15.0</ele><time>2026-04-25T03:54:38Z</time></trkpt><trkpt lat="14.505312244517345" lon="121.03576774703367"><ele>15.0</ele><time>2026-04-25T03:54:39Z</time></trkpt><trkpt lat="14.50515275081462" lon="121.03585557906494"><ele>15.0</ele><time>2026-04-25T03:54:40Z</time></trkpt><trkpt lat="14.504997408312846" lon="121.03594021789507"><ele>16.333333333333332</ele><time>2026-04-25T03:54:41Z</time></trkpt><trkpt lat="14.504838394163263" lon="121.03603099952932"><ele>17.666666666666664</ele><time>2026-04-25T03:54:42Z</time></trkpt><trkpt lat="14.504677389021104" lon="121.03611729809768"><ele>19.0</ele><time>2026-04-25T03:54:43Z</time></trkpt><trkpt lat="14.504518320274506" lon="121.03620587920965"><ele>19.666666666666664</ele><time>2026-04-25T03:54:44Z</time></trkpt><trkpt lat="14.504357231707582" lon="121.03629062257123"><ele>20.333333333333332</ele><time>2026-04-25T03:54:45Z</time></trkpt><trkpt lat="14.504196078517605" lon="121.03637520094803"><ele>21.0</ele><time>2026-04-25T03:54:46Z</time></trkpt><trkpt lat="14.504034393642016" lon="121.03646045148207"><ele>21.0</ele><time>2026-04-25T03:54:47Z</time></trkpt><trkpt lat="14.503868940034812" lon="121.0365383171713"><ele>21.0</ele><time>2026-04-25T03:54:48Z</time></trkpt><trkpt lat="14.503708346604375" lon="121.03662285673592"><ele>21.0</ele><time>2026-04-25T03:54:49Z</time></trkpt><trkpt lat="14.503546063047438" lon="121.03670485144423"><ele>21.666666666666668</ele><time>2026-04-25T03:54:50Z</time></trkpt><trkpt lat="14.5033835534225" lon="121.03678464751528"><ele>22.333333333333336</ele><time>2026-04-25T03:54:51Z</time></trkpt><trkpt lat="14.503223729336723" lon="121.03686248852634"><ele>23.0</ele><time>2026-04-25T03:54:52Z</time></trkpt><trkpt lat="14.503063319722669" lon="121.03693437815443"><ele>22.666666666666668</ele><time>2026-04-25T03:54:53Z</time></trkpt><trkpt lat="14.502912188934133" lon="121.03700735846414"><ele>22.333333333333332</ele><time>2026-04-25T03:54:54Z</time></trkpt><trkpt lat="14.502766580765494" lon="121.0370769422682"><ele>22.0</ele><time>2026-04-25T03:54:55Z</time></trkpt><trkpt lat="14.502629367144536" lon="121.03714950456887"><ele>22.0</ele><time>2026-04-25T03:54:56Z</time></trkpt><trkpt lat="14.502495931960153" lon="121.03721819080494"><ele>22.0</ele><time>2026-04-25T03:54:57Z</time></trkpt><trkpt lat="14.502359895504222" lon="121.03728031899969"><ele>22.0</ele><time>2026-04-25T03:54:58Z</time></trkpt><trkpt lat="14.502219705319176" lon="121.03734629124615"><ele>22.0</ele><time>2026-04-25T03:54:59Z</time></trkpt><trkpt lat="14.502092572380805" lon="121.03742345274063"><ele>22.0</ele><time>2026-04-25T03:55:00Z</time></trkpt><trkpt lat="14.501989956574393" lon="121.0375325368877"><ele>22.0</ele><time>2026-04-25T03:55:01Z</time></trkpt><trkpt lat="14.501861182207294" lon="121.03759668620593"><ele>22.0</ele><time>2026-04-25T03:55:02Z</time></trkpt><trkpt lat="14.50172953516422" lon="121.03766623847731"><ele>22.5</ele><time>2026-04-25T03:55:03Z</time></trkpt><trkpt lat="14.501598218499756" lon="121.03773812827095"><ele>23.0</ele><time>2026-04-25T03:55:04Z</time></trkpt><trkpt lat="14.501464694584243" lon="121.03780640782163"><ele>23.5</ele><time>2026-04-25T03:55:05Z</time></trkpt><trkpt lat="14.501330349385633" lon="121.03787577226318"><ele>24.0</ele><time>2026-04-25T03:55:06Z</time></trkpt><trkpt lat="14.501193209763759" lon="121.03794375787638"><ele>24.0</ele><time>2026-04-25T03:55:07Z</time></trkpt><trkpt lat="14.501054596978266" lon="121.03801156745915"><ele>24.0</ele><time>2026-04-25T03:55:08Z</time></trkpt><trkpt lat="14.500911662228042" lon="121.03808240975437"><ele>24.0</ele><time>2026-04-25T03:55:09Z</time></trkpt><trkpt lat="14.500771069685314" lon="121.03815233561063"><ele>24.0</ele><time>2026-04-25T03:55:10Z</time></trkpt><trkpt lat="14.500631392823957" lon="121.0382219005582"><ele>24.0</ele><time>2026-04-25T03:55:11Z</time></trkpt><trkpt lat="14.500489594517202" lon="121.03828966387962"><ele>24.0</ele><time>2026-04-25T03:55:12Z</time></trkpt><trkpt lat="14.500346013173335" lon="121.038357820388"><ele>24.666666666666664</ele><time>2026-04-25T03:55:13Z</time></trkpt><trkpt lat="14.500200791087776" lon="121.03842481760721"><ele>25.333333333333332</ele><time>2026-04-25T03:55:14Z</time></trkpt><trkpt lat="14.500055539258682" lon="121.03849271392417"><ele>26.0</ele><time>2026-04-25T03:55:15Z</time></trkpt><trkpt lat="14.499910277816774" lon="121.03855801568784"><ele>26.0</ele><time>2026-04-25T03:55:16Z</time></trkpt><trkpt lat="14.499766014647744" lon="121.03862188626789"><ele>26.0</ele><time>2026-04-25T03:55:17Z</time></trkpt><trkpt lat="14.499634590214352" lon="121.03870779217043"><ele>26.0</ele><time>2026-04-25T03:55:18Z</time></trkpt><trkpt lat="14.499498333906915" lon="121.03878150403953"><ele>26.0</ele><time>2026-04-25T03:55:19Z</time></trkpt><trkpt lat="14.49936575628954" lon="121.03885322581297"><ele>26.0</ele><time>2026-04-25T03:55:20Z</time></trkpt><trkpt lat="14.499230074192958" lon="121.03892662705427"><ele>26.0</ele><time>2026-04-25T03:55:21Z</time></trkpt><trkpt lat="14.499094290628454" lon="121.03900008317704"><ele>26.0</ele><time>2026-04-25T03:55:22Z</time></trkpt><trkpt lat="14.498973286017574" lon="121.03906554420124"><ele>26.0</ele><time>2026-04-25T03:55:23Z</time></trkpt><trkpt lat="14.498855837190925" lon="121.03912908160744"><ele>26.0</ele><time>2026-04-25T03:55:24Z</time></trkpt><trkpt lat="14.49874457035258" lon="121.03919864145512"><ele>26.0</ele><time>2026-04-25T03:55:25Z</time></trkpt><trkpt lat="14.498624274010082" lon="121.03925804263912"><ele>27.25</ele><time>2026-04-25T03:55:26Z</time></trkpt><trkpt lat="14.498503489045035" lon="121.03931394214885"><ele>28.5</ele><time>2026-04-25T03:55:27Z</time></trkpt><trkpt lat="14.498387640483976" lon="121.03936705984368"><ele>29.75</ele><time>2026-04-25T03:55:28Z</time></trkpt><trkpt lat="14.49832827747717" lon="121.03948865398468"><ele>31.0</ele><time>2026-04-25T03:55:29Z</time></trkpt><trkpt lat="14.498221344826781" lon="121.0395469458342"><ele>31.0</ele><time>2026-04-25T03:55:30Z</time></trkpt><trkpt lat="14.49811527309525" lon="121.0396032781544"><ele>31.0</ele><time>2026-04-25T03:55:31Z</time></trkpt><trkpt lat="14.498007804183533" lon="121.03965947360338"><ele>31.0</ele><time>2026-04-25T03:55:32Z</time></trkpt><trkpt lat="14.497901254868479" lon="121.0397134496578"><ele>31.0</ele><time>2026-04-25T03:55:33Z</time></trkpt><trkpt lat="14.497778553534618" lon="121.03978361755266"><ele>31.25</ele><time>2026-04-25T03:55:34Z</time></trkpt><trkpt lat="14.497668145554918" lon="121.03984015625711"><ele>31.5</ele><time>2026-04-25T03:55:35Z</time></trkpt><trkpt lat="14.497559188939212" lon="121.0398952098979"><ele>31.75</ele><time>2026-04-25T03:55:36Z</time></trkpt><trkpt lat="14.497449983599674" lon="121.0399479351005"><ele>32.0</ele><time>2026-04-25T03:55:37Z</time></trkpt><trkpt lat="14.497341889933939" lon="121.03999701061129"><ele>32.0</ele><time>2026-04-25T03:55:38Z</time></trkpt><trkpt lat="14.49723706184523" lon="121.04003640169937"><ele>32.0</ele><time>2026-04-25T03:55:39Z</time></trkpt><trkpt lat="14.497123057197395" lon="121.04008878029217"><ele>32.0</ele><time>2026-04-25T03:55:40Z</time></trkpt><trkpt lat="14.497009013139365" lon="121.04014407937022"><ele>32.0</ele><time>2026-04-25T03:55:41Z</time></trkpt><trkpt lat="14.496929309553488" lon="121.04024438433576"><ele>30.75</ele><time>2026-04-25T03:55:42Z</time></trkpt><trkpt lat="14.496810637149506" lon="121.04030050222563"><ele>29.5</ele><time>2026-04-25T03:55:43Z</time></trkpt><trkpt lat="14.496690449744817" lon="121.04036617588724"><ele>28.25</ele><time>2026-04-25T03:55:44Z</time></trkpt><trkpt lat="14.49658161904584" lon="121.04045069389441"><ele>27.0</ele><time>2026-04-25T03:55:45Z</time></trkpt><trkpt lat="14.496450856871151" lon="121.04050977424048"><ele>27.0</ele><time>2026-04-25T03:55:46Z</time></trkpt><trkpt lat="14.496314230968595" lon="121.04056619547376"><ele>27.0</ele><time>2026-04-25T03:55:47Z</time></trkpt><trkpt lat="14.496177437955494" lon="121.04062573547442"><ele>27.0</ele><time>2026-04-25T03:55:48Z</time></trkpt><trkpt lat="14.496040414560204" lon="121.04068683725723"><ele>27.0</ele><time>2026-04-25T03:55:49Z</time></trkpt><trkpt lat="14.495908037256841" lon="121.04075681738962"><ele>27.666666666666664</ele><time>2026-04-25T03:55:50Z</time></trkpt><trkpt lat="14.495771054920116" lon="121.0408209910606"><ele>28.333333333333332</ele><time>2026-04-25T03:55:51Z</time></trkpt><trkpt lat="14.495716754885802" lon="121.04099297771353"><ele>29.0</ele><time>2026-04-25T03:55:52Z</time></trkpt><trkpt lat="14.495590010566966" lon="121.04107494288012"><ele>29.0</ele><time>2026-04-25T03:55:53Z</time></trkpt><trkpt lat="14.495454653855202" lon="121.04112924359744"><ele>29.0</ele><time>2026-04-25T03:55:54Z</time></trkpt><trkpt lat="14.495269737414398" lon="121.04116371599008"><ele>29.0</ele><time>2026-04-25T03:55:55Z</time></trkpt><trkpt lat="14.495131233924731" lon="121.04123061881555"><ele>28.0</ele><time>2026-04-25T03:55:56Z</time></trkpt><trkpt lat="14.49499543994399" lon="121.0413001065896"><ele>27.0</ele><time>2026-04-25T03:55:57Z</time></trkpt><trkpt lat="14.494863137487572" lon="121.0413730576427"><ele>26.0</ele><time>2026-04-25T03:55:58Z</time></trkpt><trkpt lat="14.494731400101786" lon="121.04144543504718"><ele>26.0</ele><time>2026-04-25T03:55:59Z</time></trkpt><trkpt lat="14.494601228505585" lon="121.04152156671715"><ele>26.0</ele><time>2026-04-25T03:56:00Z</time></trkpt><trkpt lat="14.4944902988499" lon="121.04162053227287"><ele>26.0</ele><time>2026-04-25T03:56:01Z</time></trkpt><trkpt lat="14.49434866631392" lon="121.0416828166106"><ele>26.333333333333332</ele><time>2026-04-25T03:56:02Z</time></trkpt><trkpt lat="14.494214910576" lon="121.0417581612722"><ele>26.666666666666664</ele><time>2026-04-25T03:56:03Z</time></trkpt><trkpt lat="14.494066498095618" lon="121.04181463266373"><ele>27.0</ele><time>2026-04-25T03:56:04Z</time></trkpt><trkpt lat="14.49393212153741" lon="121.04188745886789"><ele>27.0</ele><time>2026-04-25T03:56:05Z</time></trkpt><trkpt lat="14.493799132065664" lon="121.04196002546557"><ele>27.0</ele><time>2026-04-25T03:56:06Z</time></trkpt><trkpt lat="14.493666566277666" lon="121.04203080833673"><ele>27.0</ele><time>2026-04-25T03:56:07Z</time></trkpt><trkpt lat="14.493534878148626" lon="121.0421031223653"><ele>27.0</ele><time>2026-04-25T03:56:08Z</time></trkpt><trkpt lat="14.493410585170414" lon="121.04217088173506"><ele>27.333333333333336</ele><time>2026-04-25T03:56:09Z</time></trkpt><trkpt lat="14.493279623901019" lon="121.04224066306482"><ele>27.666666666666668</ele><time>2026-04-25T03:56:10Z</time></trkpt><trkpt lat="14.493149263546128" lon="121.04231007882717"><ele>28.0</ele><time>2026-04-25T03:56:11Z</time></trkpt><trkpt lat="14.493002510635197" lon="121.04238884493634"><ele>30.333333333333336</ele><time>2026-04-25T03:56:12Z</time></trkpt><trkpt lat="14.492859242740503" lon="121.04246391367545"><ele>32.666666666666664</ele><time>2026-04-25T03:56:13Z</time></trkpt><trkpt lat="14.492721755011509" lon="121.04253426504648"><ele>35.0</ele><time>2026-04-25T03:56:14Z</time></trkpt><trkpt lat="14.492587345865324" lon="121.04260460719"><ele>35.5</ele><time>2026-04-25T03:56:15Z</time></trkpt><trkpt lat="14.492453500514161" lon="121.04267209730043"><ele>36.0</ele><time>2026-04-25T03:56:16Z</time></trkpt><trkpt lat="14.492326471668653" lon="121.04273998879688"><ele>36.5</ele><time>2026-04-25T03:56:17Z</time></trkpt><trkpt lat="14.49219100104016" lon="121.04280366625643"><ele>37.0</ele><time>2026-04-25T03:56:18Z</time></trkpt><trkpt lat="14.492054129845032" lon="121.04286742202056"><ele>37.25</ele><time>2026-04-25T03:56:19Z</time></trkpt><trkpt lat="14.491914920931196" lon="121.04292568509376"><ele>37.5</ele><time>2026-04-25T03:56:20Z</time></trkpt><trkpt lat="14.491778910151167" lon="121.0429867142639"><ele>37.75</ele><time>2026-04-25T03:56:21Z</time></trkpt><trkpt lat="14.49164461566553" lon="121.04304944056611"><ele>38.0</ele><time>2026-04-25T03:56:22Z</time></trkpt><trkpt lat="14.491512205293693" lon="121.0431150917241"><ele>38.0</ele><time>2026-04-25T03:56:23Z</time></trkpt><trkpt lat="14.491378062025223" lon="121.04317682527096"><ele>38.0</ele><time>2026-04-25T03:56:24Z</time></trkpt><trkpt lat="14.491243129249854" lon="121.04323464683617"><ele>38.0</ele><time>2026-04-25T03:56:25Z</time></trkpt><trkpt lat="14.491111674231961" lon="121.0432998568098"><ele>38.0</ele><time>2026-04-25T03:56:26Z</time></trkpt><trkpt lat="14.490976242154755" lon="121.04335794671518"><ele>37.33333333333333</ele><time>2026-04-25T03:56:27Z</time></trkpt><trkpt lat="14.49084725516065" lon="121.04342724682508"><ele>36.666666666666664</ele><time>2026-04-25T03:56:28Z</time></trkpt><trkpt lat="14.49071317292018" lon="121.04352892608705"><ele>36.0</ele><time>2026-04-25T03:56:29Z</time></trkpt><trkpt lat="14.490572481411682" lon="121.0436037029906"><ele>36.0</ele><time>2026-04-25T03:56:30Z</time></trkpt><trkpt lat="14.490435755012072" lon="121.04366638687134"><ele>36.0</ele><time>2026-04-25T03:56:31Z</time></trkpt><trkpt lat="14.490358334986784" lon="121.0438305152866"><ele>36.0</ele><time>2026-04-25T03:56:32Z</time></trkpt><trkpt lat="14.49019991214441" lon="121.04389259872777"><ele>35.5</ele><time>2026-04-25T03:56:33Z</time></trkpt><trkpt lat="14.49006324801691" lon="121.04394791933075"><ele>35.0</ele><time>2026-04-25T03:56:34Z</time></trkpt><trkpt lat="14.489950174403644" lon="121.04399661281228"><ele>34.5</ele><time>2026-04-25T03:56:35Z</time></trkpt><trkpt lat="14.489825747764712" lon="121.04404785222653"><ele>34.0</ele><time>2026-04-25T03:56:36Z</time></trkpt><trkpt lat="14.489700655493417" lon="121.04411138950942"><ele>32.75</ele><time>2026-04-25T03:56:37Z</time></trkpt><trkpt lat="14.489570978003565" lon="121.04416776196558"><ele>31.5</ele><time>2026-04-25T03:56:38Z</time></trkpt><trkpt lat="14.489453197124089" lon="121.04421963887847"><ele>30.25</ele><time>2026-04-25T03:56:39Z</time></trkpt><trkpt lat="14.489334159463278" lon="121.04427046965462"><ele>29.0</ele><time>2026-04-25T03:56:40Z</time></trkpt><trkpt lat="14.489211280618665" lon="121.04432448948874"><ele>29.0</ele><time>2026-04-25T03:56:41Z</time></trkpt><trkpt lat="14.489080267482272" lon="121.04438922407962"><ele>29.0</ele><time>2026-04-25T03:56:42Z</time></trkpt><trkpt lat="14.488949575251432" lon="121.04443807904268"><ele>29.0</ele><time>2026-04-25T03:56:43Z</time></trkpt><trkpt lat="14.488820403652367" lon="121.04448658679908"><ele>29.0</ele><time>2026-04-25T03:56:44Z</time></trkpt><trkpt lat="14.488696803730356" lon="121.04452193729519"><ele>30.5</ele><time>2026-04-25T03:56:45Z</time></trkpt><trkpt lat="14.488564193824267" lon="121.04456158659237"><ele>32.0</ele><time>2026-04-25T03:56:46Z</time></trkpt><trkpt lat="14.4884288596313" lon="121.04460558349405"><ele>33.5</ele><time>2026-04-25T03:56:47Z</time></trkpt><trkpt lat="14.48828771519245" lon="121.04464821903191"><ele>35.0</ele><time>2026-04-25T03:56:48Z</time></trkpt><trkpt lat="14.48814241001757" lon="121.04468211644117"><ele>35.0</ele><time>2026-04-25T03:56:49Z</time></trkpt><trkpt lat="14.487996501704185" lon="121.04472401996684"><ele>35.0</ele><time>2026-04-25T03:56:50Z</time></trkpt><trkpt lat="14.487851340090263" lon="121.04476648280115"><ele>35.0</ele><time>2026-04-25T03:56:51Z</time></trkpt><trkpt lat="14.487704733422149" lon="121.04480588038933"><ele>34.0</ele><time>2026-04-25T03:56:52Z</time></trkpt><trkpt lat="14.487552469727483" lon="121.04484270627658"><ele>33.0</ele><time>2026-04-25T03:56:53Z</time></trkpt><trkpt lat="14.487400859654203" lon="121.04487745865616"><ele>32.0</ele><time>2026-04-25T03:56:54Z</time></trkpt><trkpt lat="14.48725004439586" lon="121.04491057477743"><ele>32.0</ele><time>2026-04-25T03:56:55Z</time></trkpt><trkpt lat="14.487103616004195" lon="121.04494146797131"><ele>32.0</ele><time>2026-04-25T03:56:56Z</time></trkpt><trkpt lat="14.486956725165877" lon="121.04497290402722"><ele>32.0</ele><time>2026-04-25T03:56:57Z</time></trkpt><trkpt lat="14.486814582874834" lon="121.04499881388683"><ele>32.0</ele><time>2026-04-25T03:56:58Z</time></trkpt><trkpt lat="14.486670122274672" lon="121.04502207148214"><ele>32.5</ele><time>2026-04-25T03:56:59Z</time></trkpt><trkpt lat="14.486525977854157" lon="121.04504228327558"><ele>33.0</ele><time>2026-04-25T03:57:00Z</time></trkpt><trkpt lat="14.486380097736653" lon="121.04506066128242"><ele>33.5</ele><time>2026-04-25T03:57:01Z</time></trkpt><trkpt lat="14.48623597245663" lon="121.04508006859186"><ele>34.0</ele><time>2026-04-25T03:57:02Z</time></trkpt><trkpt lat="14.486089253267822" lon="121.04509730022659"><ele>34.333333333333336</ele><time>2026-04-25T03:57:03Z</time></trkpt><trkpt lat="14.485941147184677" lon="121.04511689114231"><ele>34.666666666666664</ele><time>2026-04-25T03:57:04Z</time></trkpt><trkpt lat="14.485791519783533" lon="121.04513242170322"><ele>35.0</ele><time>2026-04-25T03:57:05Z</time></trkpt><trkpt lat="14.485641943412931" lon="121.04514554096468"><ele>35.0</ele><time>2026-04-25T03:57:06Z</time></trkpt><trkpt lat="14.485492953350953" lon="121.0451583877709"><ele>35.0</ele><time>2026-04-25T03:57:07Z</time></trkpt><trkpt lat="14.485344642359445" lon="121.04516467407403"><ele>35.0</ele><time>2026-04-25T03:57:08Z</time></trkpt><trkpt lat="14.485202983709225" lon="121.04518022734885"><ele>35.0</ele><time>2026-04-25T03:57:09Z</time></trkpt><trkpt lat="14.485061728154612" lon="121.04518567222445"><ele>34.0</ele><time>2026-04-25T03:57:10Z</time></trkpt><trkpt lat="14.484920874634263" lon="121.0451918513991"><ele>33.0</ele><time>2026-04-25T03:57:11Z</time></trkpt><trkpt lat="14.484772753624675" lon="121.0451880007994"><ele>32.0</ele><time>2026-04-25T03:57:12Z</time></trkpt><trkpt lat="14.484628377078291" lon="121.04518835658668"><ele>31.0</ele><time>2026-04-25T03:57:13Z</time></trkpt><trkpt lat="14.484482868106943" lon="121.04518906589671"><ele>31.0</ele><time>2026-04-25T03:57:14Z</time></trkpt><trkpt lat="14.48433742870796" lon="121.04519041397786"><ele>31.0</ele><time>2026-04-25T03:57:15Z</time></trkpt><trkpt lat="14.484190837855081" lon="121.04519111596213"><ele>31.0</ele><time>2026-04-25T03:57:16Z</time></trkpt><trkpt lat="14.484019462768" lon="121.0451664620923"><ele>31.0</ele><time>2026-04-25T03:57:17Z</time></trkpt><trkpt lat="14.483869777220452" lon="121.04516143838404"><ele>31.0</ele><time>2026-04-25T03:57:18Z</time></trkpt><trkpt lat="14.483723202849907" lon="121.04515758235462"><ele>31.0</ele><time>2026-04-25T03:57:19Z</time></trkpt><trkpt lat="14.483577497373943" lon="121.04515330418133"><ele>31.0</ele><time>2026-04-25T03:57:20Z</time></trkpt><trkpt lat="14.483432058628175" lon="121.04515009098522"><ele>31.25</ele><time>2026-04-25T03:57:21Z</time></trkpt><trkpt lat="14.483287756986604" lon="121.04514637538891"><ele>31.5</ele><time>2026-04-25T03:57:22Z</time></trkpt><trkpt lat="14.48314501106041" lon="121.04514421098509"><ele>31.75</ele><time>2026-04-25T03:57:23Z</time></trkpt><trkpt lat="14.483000918431758" lon="121.04513816230654"><ele>32.0</ele><time>2026-04-25T03:57:24Z</time></trkpt><trkpt lat="14.482860675804403" lon="121.04513827257894"><ele>32.33333333333333</ele><time>2026-04-25T03:57:25Z</time></trkpt><trkpt lat="14.48270195268016" lon="121.0451965073374"><ele>32.666666666666664</ele><time>2026-04-25T03:57:27Z</time></trkpt><trkpt lat="14.482559644143707" lon="121.04519765797865"><ele>33.0</ele><time>2026-04-25T03:57:28Z</time></trkpt><trkpt lat="14.482414976689425" lon="121.04519957149115"><ele>33.0</ele><time>2026-04-25T03:57:29Z</time></trkpt><trkpt lat="14.48226773407438" lon="121.04520107482749"><ele>33.0</ele><time>2026-04-25T03:57:30Z</time></trkpt><trkpt lat="14.48211816341369" lon="121.04520280354889"><ele>33.0</ele><time>2026-04-25T03:57:31Z</time></trkpt><trkpt lat="14.481968071254137" lon="121.04520482505765"><ele>33.0</ele><time>2026-04-25T03:57:32Z</time></trkpt><trkpt lat="14.481812472580858" lon="121.04520691003"><ele>33.0</ele><time>2026-04-25T03:57:33Z</time></trkpt><trkpt lat="14.481640573032445" lon="121.04520851758312"><ele>33.0</ele><time>2026-04-25T03:57:34.065Z</time></trkpt><trkpt lat="14.481261845312746" lon="121.04517555610465"><ele>32.666666666666664</ele><time>2026-04-25T03:57:37.049Z</time></trkpt><trkpt lat="14.481065960862178" lon="121.04517529182145"><ele>32.33333333333333</ele><time>2026-04-25T03:57:38.047Z</time></trkpt><trkpt lat="14.480907697985849" lon="121.04517179789758"><ele>32.0</ele><time>2026-04-25T03:57:39.048Z</time></trkpt><trkpt lat="14.480585921921893" lon="121.0451687979682"><ele>32.25</ele><time>2026-04-25T03:57:41Z</time></trkpt><trkpt lat="14.480428038881696" lon="121.04517169208378"><ele>32.5</ele><time>2026-04-25T03:57:42Z</time></trkpt><trkpt lat="14.480282291046816" lon="121.04518104901793"><ele>32.75</ele><time>2026-04-25T03:57:43Z</time></trkpt><trkpt lat="14.480142185200405" lon="121.04518598606121"><ele>33.0</ele><time>2026-04-25T03:57:44Z</time></trkpt><trkpt lat="14.479993482740758" lon="121.04518121566502"><ele>33.0</ele><time>2026-04-25T03:57:45Z</time></trkpt><trkpt lat="14.479866614002402" lon="121.04520919414006"><ele>33.0</ele><time>2026-04-25T03:57:46Z</time></trkpt><trkpt lat="14.479719481127482" lon="121.045196698676"><ele>33.0</ele><time>2026-04-25T03:57:47Z</time></trkpt><trkpt lat="14.479577252488918" lon="121.04519918004985"><ele>33.0</ele><time>2026-04-25T03:57:48Z</time></trkpt><trkpt lat="14.47943635129866" lon="121.04519963139124"><ele>33.5</ele><time>2026-04-25T03:57:49Z</time></trkpt><trkpt lat="14.479290847716682" lon="121.04519901825822"><ele>34.0</ele><time>2026-04-25T03:57:50Z</time></trkpt><trkpt lat="14.479145698713905" lon="121.04520298079206"><ele>34.5</ele><time>2026-04-25T03:57:51Z</time></trkpt><trkpt lat="14.478990537511178" lon="121.0451995783804"><ele>35.0</ele><time>2026-04-25T03:57:52Z</time></trkpt><trkpt lat="14.478836315886673" lon="121.04520197472912"><ele>35.0</ele><time>2026-04-25T03:57:53Z</time></trkpt><trkpt lat="14.478680542811594" lon="121.04520438098889"><ele>35.0</ele><time>2026-04-25T03:57:54Z</time></trkpt><trkpt lat="14.478526540072231" lon="121.04520875664379"><ele>35.0</ele><time>2026-04-25T03:57:55Z</time></trkpt><trkpt lat="14.47837225731799" lon="121.0452122234526"><ele>35.0</ele><time>2026-04-25T03:57:56Z</time></trkpt><trkpt lat="14.47821841666268" lon="121.04520964854875"><ele>35.0</ele><time>2026-04-25T03:57:57Z</time></trkpt><trkpt lat="14.478064153209942" lon="121.04521016226708"><ele>35.0</ele><time>2026-04-25T03:57:58Z</time></trkpt><trkpt lat="14.477908166654947" lon="121.0452145275093"><ele>34.33333333333333</ele><time>2026-04-25T03:57:59Z</time></trkpt><trkpt lat="14.477748502990847" lon="121.04521491254079"><ele>33.666666666666664</ele><time>2026-04-25T03:58:00Z</time></trkpt><trkpt lat="14.477590718730557" lon="121.04522068497296"><ele>33.0</ele><time>2026-04-25T03:58:01Z</time></trkpt><trkpt lat="14.477430769721048" lon="121.04522937580177"><ele>33.0</ele><time>2026-04-25T03:58:02Z</time></trkpt><trkpt lat="14.477242615510548" lon="121.04522347469862"><ele>33.0</ele><time>2026-04-25T03:58:03Z</time></trkpt><trkpt lat="14.477059223803822" lon="121.04522568623291"><ele>33.0</ele><time>2026-04-25T03:58:04Z</time></trkpt><trkpt lat="14.47688695880051" lon="121.04522683142147"><ele>34.0</ele><time>2026-04-25T03:58:05Z</time></trkpt><trkpt lat="14.476725117349101" lon="121.04521219516265"><ele>35.0</ele><time>2026-04-25T03:58:06Z</time></trkpt><trkpt lat="14.476560856286374" lon="121.04521125967476"><ele>36.0</ele><time>2026-04-25T03:58:07Z</time></trkpt><trkpt lat="14.476389109567474" lon="121.04522437653442"><ele>36.333333333333336</ele><time>2026-04-25T03:58:08Z</time></trkpt><trkpt lat="14.476220853062152" lon="121.04522523089192"><ele>36.66666666666667</ele><time>2026-04-25T03:58:09Z</time></trkpt><trkpt lat="14.476051448383465" lon="121.04522513008028"><ele>37.0</ele><time>2026-04-25T03:58:10Z</time></trkpt><trkpt lat="14.475875521386312" lon="121.0452393167531"><ele>37.0</ele><time>2026-04-25T03:58:11Z</time></trkpt><trkpt lat="14.475704968175826" lon="121.04524045253541"><ele>37.0</ele><time>2026-04-25T03:58:12Z</time></trkpt><trkpt lat="14.47553166633811" lon="121.045238142397"><ele>37.0</ele><time>2026-04-25T03:58:13Z</time></trkpt><trkpt lat="14.475357386133775" lon="121.04524023793695"><ele>36.66666666666667</ele><time>2026-04-25T03:58:14Z</time></trkpt><trkpt lat="14.475181710177107" lon="121.04524250412351"><ele>36.333333333333336</ele><time>2026-04-25T03:58:15Z</time></trkpt><trkpt lat="14.475005410604346" lon="121.04524358640835"><ele>36.0</ele><time>2026-04-25T03:58:16Z</time></trkpt><trkpt lat="14.474822959879685" lon="121.04524753243713"><ele>36.0</ele><time>2026-04-25T03:58:17Z</time></trkpt><trkpt lat="14.474643891100541" lon="121.04525073145959"><ele>36.0</ele><time>2026-04-25T03:58:18Z</time></trkpt><trkpt lat="14.474464344305558" lon="121.04525413384478"><ele>36.0</ele><time>2026-04-25T03:58:19Z</time></trkpt><trkpt lat="14.474285285282642" lon="121.04523846501651"><ele>35.666666666666664</ele><time>2026-04-25T03:58:20Z</time></trkpt><trkpt lat="14.47410341060277" lon="121.04523913474061"><ele>35.33333333333333</ele><time>2026-04-25T03:58:21Z</time></trkpt><trkpt lat="14.473917436906062" lon="121.04523981955889"><ele>35.0</ele><time>2026-04-25T03:58:22Z</time></trkpt><trkpt lat="14.473733600487904" lon="121.0452404965042"><ele>34.0</ele><time>2026-04-25T03:58:23Z</time></trkpt><trkpt lat="14.473546508548178" lon="121.04524118544462"><ele>33.0</ele><time>2026-04-25T03:58:24Z</time></trkpt><trkpt lat="14.473352888894034" lon="121.04525730101864"><ele>32.0</ele><time>2026-04-25T03:58:25Z</time></trkpt><trkpt lat="14.473157003247362" lon="121.04525875359073"><ele>32.0</ele><time>2026-04-25T03:58:26Z</time></trkpt><trkpt lat="14.472962763034193" lon="121.04526018216262"><ele>32.0</ele><time>2026-04-25T03:58:27Z</time></trkpt><trkpt lat="14.472747661884139" lon="121.04524412707157"><ele>32.0</ele><time>2026-04-25T03:58:28Z</time></trkpt><trkpt lat="14.47256239965023" lon="121.04524480927581"><ele>31.333333333333332</ele><time>2026-04-25T03:58:29Z</time></trkpt><trkpt lat="14.47237516073512" lon="121.04524549875651"><ele>30.666666666666664</ele><time>2026-04-25T03:58:30Z</time></trkpt><trkpt lat="14.472193909166595" lon="121.04526154920187"><ele>30.0</ele><time>2026-04-25T03:58:31Z</time></trkpt><trkpt lat="14.472008334210344" lon="121.04525492993027"><ele>30.0</ele><time>2026-04-25T03:58:32Z</time></trkpt><trkpt lat="14.471824368501892" lon="121.045251555929"><ele>30.0</ele><time>2026-04-25T03:58:33Z</time></trkpt><trkpt lat="14.471640370880904" lon="121.04525470377023"><ele>30.0</ele><time>2026-04-25T03:58:34Z</time></trkpt><trkpt lat="14.471460475439002" lon="121.04525284727649"><ele>30.333333333333336</ele><time>2026-04-25T03:58:35Z</time></trkpt><trkpt lat="14.471272606696878" lon="121.0452629507584"><ele>30.666666666666668</ele><time>2026-04-25T03:58:36Z</time></trkpt><trkpt lat="14.471102497323256" lon="121.04525225642217"><ele>31.0</ele><time>2026-04-25T03:58:37Z</time></trkpt><trkpt lat="14.47092174416345" lon="121.0452484371173"><ele>31.0</ele><time>2026-04-25T03:58:38Z</time></trkpt><trkpt lat="14.47074862566019" lon="121.04524877934958"><ele>31.0</ele><time>2026-04-25T03:58:39Z</time></trkpt><trkpt lat="14.470586616251207" lon="121.04526131651788"><ele>31.0</ele><time>2026-04-25T03:58:40Z</time></trkpt><trkpt lat="14.470408644095567" lon="121.04526321574218"><ele>31.0</ele><time>2026-04-25T03:58:41Z</time></trkpt><trkpt lat="14.470227141040215" lon="121.04525036136025"><ele>31.0</ele><time>2026-04-25T03:58:42Z</time></trkpt><trkpt lat="14.47005449351457" lon="121.04525180141968"><ele>31.0</ele><time>2026-04-25T03:58:43Z</time></trkpt><trkpt lat="14.469877447668246" lon="121.0452532781462"><ele>31.0</ele><time>2026-04-25T03:58:44Z</time></trkpt><trkpt lat="14.469705964476182" lon="121.04525470850213"><ele>31.0</ele><time>2026-04-25T03:58:45Z</time></trkpt><trkpt lat="14.469533266702179" lon="121.04525614752993"><ele>31.0</ele><time>2026-04-25T03:58:46Z</time></trkpt><trkpt lat="14.469362704440254" lon="121.04525757019742"><ele>31.333333333333336</ele><time>2026-04-25T03:58:47Z</time></trkpt><trkpt lat="14.469197538089123" lon="121.04525894785017"><ele>31.666666666666664</ele><time>2026-04-25T03:58:48Z</time></trkpt><trkpt lat="14.469032859804669" lon="121.04526032144317"><ele>32.0</ele><time>2026-04-25T03:58:49Z</time></trkpt><trkpt lat="14.468876836544288" lon="121.04526053368807"><ele>32.33333333333333</ele><time>2026-04-25T03:58:50Z</time></trkpt><trkpt lat="14.468718849814437" lon="121.04526064018584"><ele>32.666666666666664</ele><time>2026-04-25T03:58:51Z</time></trkpt><trkpt lat="14.468563169446284" lon="121.04526074512131"><ele>33.0</ele><time>2026-04-25T03:58:52Z</time></trkpt><trkpt lat="14.468410767353035" lon="121.04526084784852"><ele>33.0</ele><time>2026-04-25T03:58:53Z</time></trkpt><trkpt lat="14.468258796857715" lon="121.04526095028399"><ele>33.0</ele><time>2026-04-25T03:58:54Z</time></trkpt><trkpt lat="14.468115554958205" lon="121.04526104683383"><ele>33.0</ele><time>2026-04-25T03:58:55Z</time></trkpt><trkpt lat="14.467947197149794" lon="121.04526116030952"><ele>33.75</ele><time>2026-04-25T03:58:56Z</time></trkpt><trkpt lat="14.467801638447202" lon="121.045261258423"><ele>34.5</ele><time>2026-04-25T03:58:57Z</time></trkpt><trkpt lat="14.467665060037026" lon="121.04526135049166"><ele>35.25</ele><time>2026-04-25T03:58:58Z</time></trkpt><trkpt lat="14.46752673819984" lon="121.04526144372419"><ele>36.0</ele><time>2026-04-25T03:58:59Z</time></trkpt><trkpt lat="14.467385789899792" lon="121.04526153873144"><ele>36.0</ele><time>2026-04-25T03:59:00Z</time></trkpt><trkpt lat="14.467244008683704" lon="121.0452616343019"><ele>36.0</ele><time>2026-04-25T03:59:01Z</time></trkpt><trkpt lat="14.467102786122274" lon="121.04526172948994"><ele>36.0</ele><time>2026-04-25T03:59:02Z</time></trkpt><trkpt lat="14.46697171052045" lon="121.04526335005794"><ele>36.0</ele><time>2026-04-25T03:59:03Z</time></trkpt><trkpt lat="14.466835257468246" lon="121.04526520260397"><ele>36.5</ele><time>2026-04-25T03:59:04Z</time></trkpt><trkpt lat="14.466702074842107" lon="121.0452670107523"><ele>37.0</ele><time>2026-04-25T03:59:05Z</time></trkpt><trkpt lat="14.466570410931466" lon="121.04526880380637"><ele>37.5</ele><time>2026-04-25T03:59:06Z</time></trkpt><trkpt lat="14.466438974575274" lon="121.04527061516612"><ele>38.0</ele><time>2026-04-25T03:59:07Z</time></trkpt><trkpt lat="14.466311563007787" lon="121.04527237105832"><ele>38.0</ele><time>2026-04-25T03:59:08Z</time></trkpt><trkpt lat="14.466227512510283" lon="121.04520506328667"><ele>38.0</ele><time>2026-04-25T03:59:09Z</time></trkpt><trkpt lat="14.46609376316754" lon="121.04520342440267"><ele>38.0</ele><time>2026-04-25T03:59:10Z</time></trkpt><trkpt lat="14.465936869997233" lon="121.04523590086224"><ele>38.0</ele><time>2026-04-25T03:59:11Z</time></trkpt><trkpt lat="14.465812025308445" lon="121.04522962218832"><ele>38.0</ele><time>2026-04-25T03:59:12Z</time></trkpt><trkpt lat="14.465680414129078" lon="121.0452364731586"><ele>38.0</ele><time>2026-04-25T03:59:13Z</time></trkpt><trkpt lat="14.465550226869492" lon="121.04524229609116"><ele>38.0</ele><time>2026-04-25T03:59:14Z</time></trkpt><trkpt lat="14.46541736055956" lon="121.04524804317103"><ele>38.0</ele><time>2026-04-25T03:59:15Z</time></trkpt><trkpt lat="14.465301937540186" lon="121.0452102855473"><ele>38.0</ele><time>2026-04-25T03:59:16Z</time></trkpt><trkpt lat="14.465166186438678" lon="121.0452073462346"><ele>38.0</ele><time>2026-04-25T03:59:17Z</time></trkpt><trkpt lat="14.465026982127807" lon="121.04520379523082"><ele>38.0</ele><time>2026-04-25T03:59:18Z</time></trkpt><trkpt lat="14.464884701830444" lon="121.04520194636443"><ele>38.0</ele><time>2026-04-25T03:59:19Z</time></trkpt><trkpt lat="14.464739958168444" lon="121.04519942880523"><ele>38.0</ele><time>2026-04-25T03:59:20Z</time></trkpt><trkpt lat="14.464589568619875" lon="121.04519686605926"><ele>38.0</ele><time>2026-04-25T03:59:21Z</time></trkpt><trkpt lat="14.464419519896092" lon="121.04523324164529"><ele>38.0</ele><time>2026-04-25T03:59:22Z</time></trkpt><trkpt lat="14.46425818252354" lon="121.04523642767084"><ele>38.0</ele><time>2026-04-25T03:59:23Z</time></trkpt><trkpt lat="14.464098437937666" lon="121.04522525292037"><ele>38.0</ele><time>2026-04-25T03:59:24Z</time></trkpt><trkpt lat="14.463933156082742" lon="121.04522267919673"><ele>38.0</ele><time>2026-04-25T03:59:25Z</time></trkpt><trkpt lat="14.463771009425441" lon="121.04522139068031"><ele>37.33333333333333</ele><time>2026-04-25T03:59:26Z</time></trkpt><trkpt lat="14.463604701204199" lon="121.04522600618067"><ele>36.666666666666664</ele><time>2026-04-25T03:59:27Z</time></trkpt><trkpt lat="14.463439343592508" lon="121.0452253162645"><ele>36.0</ele><time>2026-04-25T03:59:28Z</time></trkpt><trkpt lat="14.463269164029787" lon="121.04522985979348"><ele>36.0</ele><time>2026-04-25T03:59:29Z</time></trkpt><trkpt lat="14.463096752533406" lon="121.04523876645992"><ele>36.0</ele><time>2026-04-25T03:59:30Z</time></trkpt><trkpt lat="14.46292472538468" lon="121.04524027790416"><ele>36.0</ele><time>2026-04-25T03:59:31Z</time></trkpt><trkpt lat="14.462746065650474" lon="121.04523910906296"><ele>36.333333333333336</ele><time>2026-04-25T03:59:32Z</time></trkpt><trkpt lat="14.462563069579918" lon="121.04523703051429"><ele>36.66666666666667</ele><time>2026-04-25T03:59:33Z</time></trkpt><trkpt lat="14.462380556977969" lon="121.04522947798212"><ele>37.0</ele><time>2026-04-25T03:59:34Z</time></trkpt><trkpt lat="14.462191332194694" lon="121.04522460008029"><ele>37.333333333333336</ele><time>2026-04-25T03:59:35Z</time></trkpt><trkpt lat="14.462001338187966" lon="121.04522226642074"><ele>37.666666666666664</ele><time>2026-04-25T03:59:36Z</time></trkpt><trkpt lat="14.461807937647931" lon="121.04522084214942"><ele>38.0</ele><time>2026-04-25T03:59:37Z</time></trkpt><trkpt lat="14.461610447368676" lon="121.04522406943285"><ele>38.0</ele><time>2026-04-25T03:59:38Z</time></trkpt><trkpt lat="14.46140991568465" lon="121.04522582008961"><ele>38.0</ele><time>2026-04-25T03:59:39Z</time></trkpt><trkpt lat="14.461203186845673" lon="121.04524654866951"><ele>38.0</ele><time>2026-04-25T03:59:40Z</time></trkpt><trkpt lat="14.461002539863944" lon="121.04527146205105"><ele>38.666666666666664</ele><time>2026-04-25T03:59:41Z</time></trkpt><trkpt lat="14.460804640574672" lon="121.04528019094728"><ele>39.333333333333336</ele><time>2026-04-25T03:59:42Z</time></trkpt><trkpt lat="14.460624031907521" lon="121.04529255988066"><ele>40.0</ele><time>2026-04-25T03:59:43Z</time></trkpt><trkpt lat="14.460432337079254" lon="121.0452945426313"><ele>40.66666666666667</ele><time>2026-04-25T03:59:44Z</time></trkpt><trkpt lat="14.460263536901984" lon="121.04530735912707"><ele>41.333333333333336</ele><time>2026-04-25T03:59:45Z</time></trkpt><trkpt lat="14.460070684815907" lon="121.04529735137939"><ele>42.0</ele><time>2026-04-25T03:59:46Z</time></trkpt><trkpt lat="14.459900148820287" lon="121.04530297937413"><ele>42.0</ele><time>2026-04-25T03:59:47Z</time></trkpt><trkpt lat="14.459733932601319" lon="121.0453113841985"><ele>42.0</ele><time>2026-04-25T03:59:48Z</time></trkpt><trkpt lat="14.459578086211256" lon="121.04532459915252"><ele>42.0</ele><time>2026-04-25T03:59:49Z</time></trkpt><trkpt lat="14.459436935312432" lon="121.0452792545213"><ele>42.0</ele><time>2026-04-25T03:59:50Z</time></trkpt><trkpt lat="14.45928074782411" lon="121.04528420523127"><ele>42.0</ele><time>2026-04-25T03:59:51Z</time></trkpt><trkpt lat="14.459123366183968" lon="121.04528810678617"><ele>42.0</ele><time>2026-04-25T03:59:52Z</time></trkpt><trkpt lat="14.45896916687111" lon="121.04528555154218"><ele>42.0</ele><time>2026-04-25T03:59:53Z</time></trkpt><trkpt lat="14.458819705146666" lon="121.04528259102474"><ele>42.0</ele><time>2026-04-25T03:59:54Z</time></trkpt><trkpt lat="14.458700750314163" lon="121.04525642380398"><ele>42.0</ele><time>2026-04-25T03:59:55Z</time></trkpt><trkpt lat="14.458567710009326" lon="121.04525689882304"><ele>42.0</ele><time>2026-04-25T03:59:56Z</time></trkpt><trkpt lat="14.458455400601068" lon="121.04525901438497"><ele>41.75</ele><time>2026-04-25T03:59:57Z</time></trkpt><trkpt lat="14.45831271732134" lon="121.04526405379455"><ele>41.5</ele><time>2026-04-25T03:59:58Z</time></trkpt><trkpt lat="14.458172640715176" lon="121.0452644930101"><ele>41.25</ele><time>2026-04-25T03:59:59Z</time></trkpt><trkpt lat="14.458028567665567" lon="121.04526593569456"><ele>41.0</ele><time>2026-04-25T04:00:00Z</time></trkpt><trkpt lat="14.457874848130443" lon="121.04526816821136"><ele>40.0</ele><time>2026-04-25T04:00:01Z</time></trkpt><trkpt lat="14.457728896310584" lon="121.04526810340481"><ele>39.0</ele><time>2026-04-25T04:00:02Z</time></trkpt><trkpt lat="14.457594241471377" lon="121.04527224170175"><ele>38.0</ele><time>2026-04-25T04:00:03Z</time></trkpt><trkpt lat="14.457465556083978" lon="121.04527477593221"><ele>37.0</ele><time>2026-04-25T04:00:04Z</time></trkpt><trkpt lat="14.457312750333053" lon="121.04527721256397"><ele>37.0</ele><time>2026-04-25T04:00:05Z</time></trkpt><trkpt lat="14.457135769928797" lon="121.04527923720026"><ele>37.0</ele><time>2026-04-25T04:00:06Z</time></trkpt><trkpt lat="14.456986368822122" lon="121.0452731239583"><ele>37.0</ele><time>2026-04-25T04:00:07Z</time></trkpt><trkpt lat="14.456832835095504" lon="121.04527370360275"><ele>36.66666666666667</ele><time>2026-04-25T04:00:08Z</time></trkpt><trkpt lat="14.456674929054733" lon="121.04527122684009"><ele>36.333333333333336</ele><time>2026-04-25T04:00:09Z</time></trkpt><trkpt lat="14.456518474061237" lon="121.04527117329347"><ele>36.0</ele><time>2026-04-25T04:00:10Z</time></trkpt><trkpt lat="14.456362918407672" lon="121.04527116368222"><ele>36.666666666666664</ele><time>2026-04-25T04:00:11Z</time></trkpt><trkpt lat="14.4562089512971" lon="121.0452715147724"><ele>37.33333333333333</ele><time>2026-04-25T04:00:12Z</time></trkpt><trkpt lat="14.456055124129342" lon="121.04527190560728"><ele>38.0</ele><time>2026-04-25T04:00:13Z</time></trkpt><trkpt lat="14.455901268584899" lon="121.04527173161641"><ele>38.0</ele><time>2026-04-25T04:00:14Z</time></trkpt><trkpt lat="14.455744367720351" lon="121.04527210367308"><ele>38.0</ele><time>2026-04-25T04:00:15Z</time></trkpt><trkpt lat="14.455589460459628" lon="121.04527235477951"><ele>38.0</ele><time>2026-04-25T04:00:16Z</time></trkpt><trkpt lat="14.455435256049999" lon="121.04527820299904"><ele>36.0</ele><time>2026-04-25T04:00:17Z</time></trkpt><trkpt lat="14.455278933883676" lon="121.04528353475258"><ele>34.0</ele><time>2026-04-25T04:00:18Z</time></trkpt><trkpt lat="14.455122928602922" lon="121.04528669481752"><ele>32.0</ele><time>2026-04-25T04:00:19Z</time></trkpt><trkpt lat="14.454967615009357" lon="121.04528747196619"><ele>32.0</ele><time>2026-04-25T04:00:20Z</time></trkpt><trkpt lat="14.454814751218365" lon="121.04528722490119"><ele>32.0</ele><time>2026-04-25T04:00:21Z</time></trkpt><trkpt lat="14.454657587384663" lon="121.04528474587626"><ele>32.0</ele><time>2026-04-25T04:00:22Z</time></trkpt><trkpt lat="14.454501854229992" lon="121.04527981455755"><ele>30.75</ele><time>2026-04-25T04:00:23Z</time></trkpt><trkpt lat="14.454349470528575" lon="121.04527635240655"><ele>29.5</ele><time>2026-04-25T04:00:24Z</time></trkpt><trkpt lat="14.454210819109342" lon="121.04527828333063"><ele>28.25</ele><time>2026-04-25T04:00:25Z</time></trkpt><trkpt lat="14.454081321085232" lon="121.04528009047553"><ele>27.0</ele><time>2026-04-25T04:00:26Z</time></trkpt><trkpt lat="14.453951576795129" lon="121.04528380188378"><ele>27.0</ele><time>2026-04-25T04:00:27Z</time></trkpt><trkpt lat="14.453821946431402" lon="121.04528268696447"><ele>27.0</ele><time>2026-04-25T04:00:28Z</time></trkpt><trkpt lat="14.453693037221559" lon="121.04528508286188"><ele>27.0</ele><time>2026-04-25T04:00:29Z</time></trkpt><trkpt lat="14.453562348360196" lon="121.04528995011384"><ele>27.0</ele><time>2026-04-25T04:00:30Z</time></trkpt><trkpt lat="14.453419731013328" lon="121.04528735118379"><ele>26.0</ele><time>2026-04-25T04:00:31Z</time></trkpt><trkpt lat="14.453288082712353" lon="121.04528568945113"><ele>25.0</ele><time>2026-04-25T04:00:32Z</time></trkpt><trkpt lat="14.453152599793944" lon="121.04528680442844"><ele>24.0</ele><time>2026-04-25T04:00:33Z</time></trkpt><trkpt lat="14.453012662802198" lon="121.04528392615201"><ele>23.0</ele><time>2026-04-25T04:00:34Z</time></trkpt><trkpt lat="14.452879658149014" lon="121.0452850054402"><ele>22.0</ele><time>2026-04-25T04:00:35Z</time></trkpt><trkpt lat="14.452749474325708" lon="121.04529074568346"><ele>21.0</ele><time>2026-04-25T04:00:36Z</time></trkpt><trkpt lat="14.452612004249989" lon="121.04529535114087"><ele>20.0</ele><time>2026-04-25T04:00:37Z</time></trkpt><trkpt lat="14.452452370744123" lon="121.0453072518801"><ele>19.0</ele><time>2026-04-25T04:00:38Z</time></trkpt><trkpt lat="14.452299852911151" lon="121.04531129639041"><ele>19.0</ele><time>2026-04-25T04:00:39Z</time></trkpt><trkpt lat="14.452138629570333" lon="121.04531113318802"><ele>19.0</ele><time>2026-04-25T04:00:40Z</time></trkpt><trkpt lat="14.45197271149578" lon="121.04530782901023"><ele>19.0</ele><time>2026-04-25T04:00:41Z</time></trkpt><trkpt lat="14.45180597214436" lon="121.04530731194578"><ele>17.0</ele><time>2026-04-25T04:00:42Z</time></trkpt><trkpt lat="14.451639413574554" lon="121.0453066007279"><ele>15.0</ele><time>2026-04-25T04:00:43Z</time></trkpt><trkpt lat="14.45146880546549" lon="121.0453038590222"><ele>13.0</ele><time>2026-04-25T04:00:44Z</time></trkpt><trkpt lat="14.451298080478152" lon="121.04530223090478"><ele>15.333333333333332</ele><time>2026-04-25T04:00:45Z</time></trkpt><trkpt lat="14.451127501524962" lon="121.0453001924364"><ele>17.666666666666668</ele><time>2026-04-25T04:00:46Z</time></trkpt><trkpt lat="14.45095699755762" lon="121.04529771730401"><ele>20.0</ele><time>2026-04-25T04:00:47Z</time></trkpt><trkpt lat="14.45078705360627" lon="121.04529613029901"><ele>20.0</ele><time>2026-04-25T04:00:48Z</time></trkpt><trkpt lat="14.450619218387864" lon="121.04529389755186"><ele>20.0</ele><time>2026-04-25T04:00:49Z</time></trkpt><trkpt lat="14.450451102722715" lon="121.04529264640281"><ele>20.0</ele><time>2026-04-25T04:00:50Z</time></trkpt><trkpt lat="14.450282429260493" lon="121.04529106033556"><ele>19.666666666666668</ele><time>2026-04-25T04:00:51Z</time></trkpt><trkpt lat="14.450117485423036" lon="121.04529179340503"><ele>19.333333333333332</ele><time>2026-04-25T04:00:52Z</time></trkpt><trkpt lat="14.449955113192921" lon="121.04529154425815"><ele>19.0</ele><time>2026-04-25T04:00:53Z</time></trkpt><trkpt lat="14.449796276580745" lon="121.04529131937484"><ele>19.0</ele><time>2026-04-25T04:00:54Z</time></trkpt><trkpt lat="14.449641124374269" lon="121.04529129261496"><ele>19.0</ele><time>2026-04-25T04:00:55Z</time></trkpt><trkpt lat="14.44949057559802" lon="121.04529117101553"><ele>19.0</ele><time>2026-04-25T04:00:56Z</time></trkpt><trkpt lat="14.449341762178586" lon="121.04529163545018"><ele>18.5</ele><time>2026-04-25T04:00:57Z</time></trkpt><trkpt lat="14.449194417616786" lon="121.04529260256561"><ele>18.0</ele><time>2026-04-25T04:00:58Z</time></trkpt><trkpt lat="14.449048067437774" lon="121.04529772380512"><ele>17.5</ele><time>2026-04-25T04:00:59Z</time></trkpt><trkpt lat="14.448900789543725" lon="121.04530071776108"><ele>17.0</ele><time>2026-04-25T04:01:00Z</time></trkpt><trkpt lat="14.448752414621506" lon="121.04530181949197"><ele>16.25</ele><time>2026-04-25T04:01:01Z</time></trkpt><trkpt lat="14.448603120506826" lon="121.04530585894717"><ele>15.5</ele><time>2026-04-25T04:01:02Z</time></trkpt><trkpt lat="14.448455257720346" lon="121.04530924423165"><ele>14.75</ele><time>2026-04-25T04:01:03Z</time></trkpt><trkpt lat="14.448308379583308" lon="121.04531225463664"><ele>14.0</ele><time>2026-04-25T04:01:04Z</time></trkpt><trkpt lat="14.448165360750272" lon="121.04531281891198"><ele>14.0</ele><time>2026-04-25T04:01:05Z</time></trkpt><trkpt lat="14.44802514083077" lon="121.04532118686538"><ele>14.0</ele><time>2026-04-25T04:01:06Z</time></trkpt><trkpt lat="14.447877969506427" lon="121.04532925516224"><ele>14.0</ele><time>2026-04-25T04:01:07Z</time></trkpt><trkpt lat="14.447729898909316" lon="121.04533363755812"><ele>14.0</ele><time>2026-04-25T04:01:08Z</time></trkpt><trkpt lat="14.447580381857309" lon="121.0453428597463"><ele>14.25</ele><time>2026-04-25T04:01:09Z</time></trkpt><trkpt lat="14.44743196909818" lon="121.0453505182915"><ele>14.5</ele><time>2026-04-25T04:01:10Z</time></trkpt><trkpt lat="14.447284122055239" lon="121.04535871692018"><ele>14.75</ele><time>2026-04-25T04:01:11Z</time></trkpt><trkpt lat="14.44714116910349" lon="121.0453637961615"><ele>15.0</ele><time>2026-04-25T04:01:12Z</time></trkpt><trkpt lat="14.446999701542111" lon="121.04537362834293"><ele>15.5</ele><time>2026-04-25T04:01:13Z</time></trkpt><trkpt lat="14.446859133353167" lon="121.0453780444576"><ele>16.0</ele><time>2026-04-25T04:01:14Z</time></trkpt><trkpt lat="14.446733809109496" lon="121.04536440454555"><ele>16.5</ele><time>2026-04-25T04:01:15Z</time></trkpt><trkpt lat="14.446601981893075" lon="121.04536376523147"><ele>17.0</ele><time>2026-04-25T04:01:16Z</time></trkpt><trkpt lat="14.446477012509659" lon="121.04534157863773"><ele>17.0</ele><time>2026-04-25T04:01:17Z</time></trkpt><trkpt lat="14.44633733914617" lon="121.04533843711386"><ele>17.0</ele><time>2026-04-25T04:01:18Z</time></trkpt><trkpt lat="14.446198484021728" lon="121.04533257597478"><ele>17.0</ele><time>2026-04-25T04:01:19Z</time></trkpt><trkpt lat="14.446055750013622" lon="121.04533200288948"><ele>17.0</ele><time>2026-04-25T04:01:20Z</time></trkpt><trkpt lat="14.445912385955976" lon="121.04533261963789"><ele>17.333333333333336</ele><time>2026-04-25T04:01:21Z</time></trkpt><trkpt lat="14.445761360462795" lon="121.04533180167485"><ele>17.666666666666668</ele><time>2026-04-25T04:01:22Z</time></trkpt><trkpt lat="14.445613117563868" lon="121.04533247648256"><ele>18.0</ele><time>2026-04-25T04:01:23Z</time></trkpt><trkpt lat="14.445460035980398" lon="121.04533314017569"><ele>17.333333333333332</ele><time>2026-04-25T04:01:24Z</time></trkpt><trkpt lat="14.445307091974286" lon="121.04533518911981"><ele>16.666666666666664</ele><time>2026-04-25T04:01:25Z</time></trkpt><trkpt lat="14.445155198671973" lon="121.04530758230499"><ele>16.0</ele><time>2026-04-25T04:01:26Z</time></trkpt><trkpt lat="14.444991811487698" lon="121.04528183113253"><ele>16.0</ele><time>2026-04-25T04:01:27Z</time></trkpt><trkpt lat="14.444832552161596" lon="121.04528183113145"><ele>16.0</ele><time>2026-04-25T04:01:28Z</time></trkpt><trkpt lat="14.444673198554959" lon="121.04528183111911"><ele>16.0</ele><time>2026-04-25T04:01:29Z</time></trkpt><trkpt lat="14.444513401838728" lon="121.04528183111745"><ele>16.666666666666664</ele><time>2026-04-25T04:01:30Z</time></trkpt><trkpt lat="14.444352770167505" lon="121.0452818311179"><ele>17.333333333333332</ele><time>2026-04-25T04:01:31Z</time></trkpt><trkpt lat="14.444191986190763" lon="121.0452818311124"><ele>18.0</ele><time>2026-04-25T04:01:32Z</time></trkpt><trkpt lat="14.44403294496861" lon="121.0452818311146"><ele>18.0</ele><time>2026-04-25T04:01:33Z</time></trkpt><trkpt lat="14.443870079249077" lon="121.04528202029081"><ele>18.0</ele><time>2026-04-25T04:01:34Z</time></trkpt><trkpt lat="14.443707401314432" lon="121.04528236885257"><ele>18.0</ele><time>2026-04-25T04:01:35Z</time></trkpt><trkpt lat="14.443545766255895" lon="121.0452827151777"><ele>17.666666666666668</ele><time>2026-04-25T04:01:36Z</time></trkpt><trkpt lat="14.443392453283312" lon="121.0452830436701"><ele>17.333333333333336</ele><time>2026-04-25T04:01:37Z</time></trkpt><trkpt lat="14.443228532303761" lon="121.04529548511711"><ele>17.0</ele><time>2026-04-25T04:01:38Z</time></trkpt><trkpt lat="14.443076143471668" lon="121.04531846646762"><ele>16.333333333333336</ele><time>2026-04-25T04:01:39Z</time></trkpt><trkpt lat="14.442924112680863" lon="121.04534160364726"><ele>15.666666666666668</ele><time>2026-04-25T04:01:40Z</time></trkpt><trkpt lat="14.442788174047264" lon="121.04536456855939"><ele>15.0</ele><time>2026-04-25T04:01:41Z</time></trkpt><trkpt lat="14.442624963304938" lon="121.0453685679947"><ele>15.0</ele><time>2026-04-25T04:01:42Z</time></trkpt><trkpt lat="14.44247361394929" lon="121.04538813409556"><ele>15.0</ele><time>2026-04-25T04:01:43Z</time></trkpt><trkpt lat="14.442312969813031" lon="121.0453776299237"><ele>15.0</ele><time>2026-04-25T04:01:44Z</time></trkpt><trkpt lat="14.442142864392443" lon="121.04535199488876"><ele>15.25</ele><time>2026-04-25T04:01:45Z</time></trkpt><trkpt lat="14.442000719447282" lon="121.04535210441975"><ele>15.5</ele><time>2026-04-25T04:01:46Z</time></trkpt><trkpt lat="14.441864844989187" lon="121.0453555852911"><ele>15.75</ele><time>2026-04-25T04:01:47Z</time></trkpt><trkpt lat="14.441750921835943" lon="121.04533062872898"><ele>16.0</ele><time>2026-04-25T04:01:48Z</time></trkpt><trkpt lat="14.441654861747447" lon="121.04532685418523"><ele>15.999999999999998</ele><time>2026-04-25T04:01:49Z</time></trkpt><trkpt lat="14.441581101061056" lon="121.0453268033659"><ele>16.0</ele><time>2026-04-25T04:01:50Z</time></trkpt><trkpt lat="14.441507091044151" lon="121.04532620262931"><ele>16.0</ele><time>2026-04-25T04:01:51Z</time></trkpt><trkpt lat="14.44143115358763" lon="121.04533084222244"><ele>16.0</ele><time>2026-04-25T04:01:52Z</time></trkpt><trkpt lat="14.441350763281564" lon="121.04533194999449"><ele>15.999999999999998</ele><time>2026-04-25T04:01:53Z</time></trkpt><trkpt lat="14.44126938582531" lon="121.04533543427408"><ele>16.0</ele><time>2026-04-25T04:01:54Z</time></trkpt><trkpt lat="14.441181071192801" lon="121.0453386736748"><ele>16.6</ele><time>2026-04-25T04:01:55Z</time></trkpt><trkpt lat="14.4410909402345" lon="121.04534244446116"><ele>17.200000000000003</ele><time>2026-04-25T04:01:56Z</time></trkpt><trkpt lat="14.440998889608785" lon="121.04534535319952"><ele>17.799999999999997</ele><time>2026-04-25T04:01:57Z</time></trkpt><trkpt lat="14.44090545152251" lon="121.04534742977805"><ele>18.4</ele><time>2026-04-25T04:01:58Z</time></trkpt><trkpt lat="14.440804694350728" lon="121.04534882159743"><ele>19.0</ele><time>2026-04-25T04:01:59Z</time></trkpt><trkpt lat="14.440700973179473" lon="121.04535048942265"><ele>19.0</ele><time>2026-04-25T04:02:00Z</time></trkpt><trkpt lat="14.440596542274092" lon="121.04535225032899"><ele>19.0</ele><time>2026-04-25T04:02:01Z</time></trkpt><trkpt lat="14.440490668498654" lon="121.04535262603919"><ele>19.0</ele><time>2026-04-25T04:02:02Z</time></trkpt><trkpt lat="14.440384962295644" lon="121.04535216948837"><ele>19.0</ele><time>2026-04-25T04:02:03Z</time></trkpt><trkpt lat="14.4402800066789" lon="121.04535030918723"><ele>19.0</ele><time>2026-04-25T04:02:04Z</time></trkpt><trkpt lat="14.440170139723634" lon="121.04534367899022"><ele>18.8</ele><time>2026-04-25T04:02:05Z</time></trkpt><trkpt lat="14.440056477258928" lon="121.04532898032232"><ele>18.599999999999998</ele><time>2026-04-25T04:02:06Z</time></trkpt><trkpt lat="14.439959937737903" lon="121.04532115125873"><ele>18.4</ele><time>2026-04-25T04:02:07Z</time></trkpt><trkpt lat="14.439857500364143" lon="121.04530925373608"><ele>18.2</ele><time>2026-04-25T04:02:08Z</time></trkpt><trkpt lat="14.43975000826927" lon="121.04529507910235"><ele>18.0</ele><time>2026-04-25T04:02:09Z</time></trkpt><trkpt lat="14.439601745300369" lon="121.04534993429158"><ele>17.6</ele><time>2026-04-25T04:02:10Z</time></trkpt><trkpt lat="14.43948440282414" lon="121.04540575646293"><ele>17.200000000000003</ele><time>2026-04-25T04:02:11Z</time></trkpt><trkpt lat="14.43937434850566" lon="121.0454029407771"><ele>16.8</ele><time>2026-04-25T04:02:12Z</time></trkpt><trkpt lat="14.439274224537288" lon="121.04541319647676"><ele>16.400000000000002</ele><time>2026-04-25T04:02:13Z</time></trkpt><trkpt lat="14.43917303252895" lon="121.04540739004334"><ele>16.0</ele><time>2026-04-25T04:02:14Z</time></trkpt><trkpt lat="14.439065809933906" lon="121.04539571256902"><ele>16.0</ele><time>2026-04-25T04:02:15Z</time></trkpt><trkpt lat="14.438959776299924" lon="121.04539808031653"><ele>16.0</ele><time>2026-04-25T04:02:16Z</time></trkpt><trkpt lat="14.43884866879289" lon="121.04539339330668"><ele>16.0</ele><time>2026-04-25T04:02:17Z</time></trkpt><trkpt lat="14.438736752507571" lon="121.0453925508992"><ele>16.0</ele><time>2026-04-25T04:02:18Z</time></trkpt><trkpt lat="14.438620576666551" lon="121.04539081931635"><ele>16.0</ele><time>2026-04-25T04:02:19Z</time></trkpt><trkpt lat="14.438501628521443" lon="121.04538952051306"><ele>15.25</ele><time>2026-04-25T04:02:20Z</time></trkpt><trkpt lat="14.4383826331817" lon="121.04539539750205"><ele>14.5</ele><time>2026-04-25T04:02:21Z</time></trkpt><trkpt lat="14.438261783382522" lon="121.04539989610844"><ele>13.75</ele><time>2026-04-25T04:02:22Z</time></trkpt><trkpt lat="14.43813611910599" lon="121.04540509181872"><ele>13.0</ele><time>2026-04-25T04:02:23Z</time></trkpt><trkpt lat="14.438008639568817" lon="121.0454118485437"><ele>12.25</ele><time>2026-04-25T04:02:24Z</time></trkpt><trkpt lat="14.437881051967015" lon="121.04542316617491"><ele>11.5</ele><time>2026-04-25T04:02:25Z</time></trkpt><trkpt lat="14.437752379398072" lon="121.04543783266524"><ele>10.75</ele><time>2026-04-25T04:02:26Z</time></trkpt><trkpt lat="14.437625945830364" lon="121.04544826657563"><ele>10.0</ele><time>2026-04-25T04:02:27Z</time></trkpt><trkpt lat="14.437501621295874" lon="121.0454505081874"><ele>10.0</ele><time>2026-04-25T04:02:28Z</time></trkpt><trkpt lat="14.437384684990134" lon="121.04546686862716"><ele>10.0</ele><time>2026-04-25T04:02:29Z</time></trkpt><trkpt lat="14.437271222121646" lon="121.04546839640089"><ele>10.0</ele><time>2026-04-25T04:02:30Z</time></trkpt><trkpt lat="14.437160004427968" lon="121.04547926439774"><ele>10.0</ele><time>2026-04-25T04:02:31Z</time></trkpt><trkpt lat="14.437050159218721" lon="121.04544501811695"><ele>10.25</ele><time>2026-04-25T04:02:32Z</time></trkpt><trkpt lat="14.43694118759593" lon="121.04544150254439"><ele>10.5</ele><time>2026-04-25T04:02:33Z</time></trkpt><trkpt lat="14.436807537528473" lon="121.04541535973706"><ele>10.75</ele><time>2026-04-25T04:02:34Z</time></trkpt><trkpt lat="14.436691241996675" lon="121.04541310633233"><ele>11.0</ele><time>2026-04-25T04:02:35Z</time></trkpt><trkpt lat="14.436583222333658" lon="121.04541650019712"><ele>11.0</ele><time>2026-04-25T04:02:36Z</time></trkpt><trkpt lat="14.436500082936666" lon="121.0454101415713"><ele>11.0</ele><time>2026-04-25T04:02:37Z</time></trkpt><trkpt lat="14.436407875021986" lon="121.04539551887343"><ele>11.0</ele><time>2026-04-25T04:02:39Z</time></trkpt><trkpt lat="14.436249983325363" lon="121.04549827004487"><ele>11.0</ele><time>2026-04-25T04:02:40Z</time></trkpt><trkpt lat="14.43622197893392" lon="121.0455686414971"><ele>11.0</ele><time>2026-04-25T04:02:42Z</time></trkpt><trkpt lat="14.43629087252807" lon="121.04541129908625"><ele>11.0</ele><time>2026-04-25T04:02:43Z</time></trkpt><trkpt lat="14.4363529797538" lon="121.04532429109068"><ele>11.0</ele><time>2026-04-25T04:02:44Z</time></trkpt><trkpt lat="14.436284575494899" lon="121.04536233587157"><ele>11.0</ele><time>2026-04-25T04:02:56Z</time></trkpt><trkpt lat="14.436160523345787" lon="121.04536219162183"><ele>11.0</ele><time>2026-04-25T04:02:58Z</time></trkpt><trkpt lat="14.43608714348465" lon="121.04536185318607"><ele>11.0</ele><time>2026-04-25T04:02:59Z</time></trkpt><trkpt lat="14.436011050332972" lon="121.0453619757993"><ele>11.200000000000001</ele><time>2026-04-25T04:03:00Z</time></trkpt><trkpt lat="14.435920745094565" lon="121.04536243766886"><ele>11.4</ele><time>2026-04-25T04:03:01Z</time></trkpt><trkpt lat="14.435825721793938" lon="121.04536290430677"><ele>11.6</ele><time>2026-04-25T04:03:02Z</time></trkpt><trkpt lat="14.435690796076754" lon="121.04537622016818"><ele>11.8</ele><time>2026-04-25T04:03:04Z</time></trkpt><trkpt lat="14.43559237274825" lon="121.0453725066397"><ele>12.0</ele><time>2026-04-25T04:03:05Z</time></trkpt><trkpt lat="14.435497345020536" lon="121.04536939638686"><ele>11.5</ele><time>2026-04-25T04:03:06Z</time></trkpt><trkpt lat="14.435389211160407" lon="121.04536729500602"><ele>11.0</ele><time>2026-04-25T04:03:07Z</time></trkpt><trkpt lat="14.435236094079526" lon="121.04536452677951"><ele>10.5</ele><time>2026-04-25T04:03:08Z</time></trkpt><trkpt lat="14.435124810216891" lon="121.04536408796032"><ele>10.0</ele><time>2026-04-25T04:03:09Z</time></trkpt><trkpt lat="14.435011374035847" lon="121.04536461775966"><ele>10.0</ele><time>2026-04-25T04:03:10Z</time></trkpt><trkpt lat="14.434891235419766" lon="121.04536571822153"><ele>10.0</ele><time>2026-04-25T04:03:11Z</time></trkpt><trkpt lat="14.434767807867209" lon="121.0453670568828"><ele>10.0</ele><time>2026-04-25T04:03:12Z</time></trkpt><trkpt lat="14.434644520064808" lon="121.04537044964655"><ele>10.0</ele><time>2026-04-25T04:03:13Z</time></trkpt><trkpt lat="14.434501982713527" lon="121.0453695184347"><ele>9.75</ele><time>2026-04-25T04:03:14Z</time></trkpt><trkpt lat="14.434367577091834" lon="121.04537031179292"><ele>9.5</ele><time>2026-04-25T04:03:15Z</time></trkpt><trkpt lat="14.434236352871718" lon="121.0453716439097"><ele>9.25</ele><time>2026-04-25T04:03:16Z</time></trkpt><trkpt lat="14.434103322835517" lon="121.04537387281142"><ele>9.0</ele><time>2026-04-25T04:03:17Z</time></trkpt><trkpt lat="14.433959336620974" lon="121.04537352182669"><ele>9.0</ele><time>2026-04-25T04:03:18Z</time></trkpt><trkpt lat="14.433826568051066" lon="121.04537512455684"><ele>9.0</ele><time>2026-04-25T04:03:19Z</time></trkpt><trkpt lat="14.433691139687978" lon="121.04537681472286"><ele>9.0</ele><time>2026-04-25T04:03:20Z</time></trkpt><trkpt lat="14.433564875567425" lon="121.04537942532042"><ele>9.0</ele><time>2026-04-25T04:03:21Z</time></trkpt><trkpt lat="14.433433382104615" lon="121.04538050911289"><ele>9.5</ele><time>2026-04-25T04:03:22Z</time></trkpt><trkpt lat="14.43328975153153" lon="121.04537890833318"><ele>10.0</ele><time>2026-04-25T04:03:23Z</time></trkpt><trkpt lat="14.433158771101052" lon="121.0453788997367"><ele>10.5</ele><time>2026-04-25T04:03:24Z</time></trkpt><trkpt lat="14.433032053567455" lon="121.04537938668865"><ele>11.0</ele><time>2026-04-25T04:03:25Z</time></trkpt><trkpt lat="14.432908986476933" lon="121.04537998781336"><ele>11.25</ele><time>2026-04-25T04:03:26Z</time></trkpt><trkpt lat="14.432772368474136" lon="121.04538133958137"><ele>11.5</ele><time>2026-04-25T04:03:27Z</time></trkpt><trkpt lat="14.432631238526596" lon="121.04538088147521"><ele>11.75</ele><time>2026-04-25T04:03:28Z</time></trkpt><trkpt lat="14.432512977088944" lon="121.04538444637683"><ele>12.0</ele><time>2026-04-25T04:03:29Z</time></trkpt><trkpt lat="14.43239366434824" lon="121.04538927156483"><ele>12.0</ele><time>2026-04-25T04:03:30Z</time></trkpt><trkpt lat="14.432237528898684" lon="121.04538916911771"><ele>12.0</ele><time>2026-04-25T04:03:31Z</time></trkpt><trkpt lat="14.432062209202178" lon="121.04538886379505"><ele>12.0</ele><time>2026-04-25T04:03:32Z</time></trkpt><trkpt lat="14.43191860312199" lon="121.04538914082131"><ele>11.666666666666666</ele><time>2026-04-25T04:03:33Z</time></trkpt><trkpt lat="14.43177476401569" lon="121.04538946001834"><ele>11.333333333333332</ele><time>2026-04-25T04:03:34Z</time></trkpt><trkpt lat="14.431636093878485" lon="121.04539115098021"><ele>11.0</ele><time>2026-04-25T04:03:35Z</time></trkpt><trkpt lat="14.431464766078603" lon="121.04539235346525"><ele>11.0</ele><time>2026-04-25T04:03:36Z</time></trkpt><trkpt lat="14.431323536278104" lon="121.04539286032544"><ele>11.0</ele><time>2026-04-25T04:03:37Z</time></trkpt><trkpt lat="14.431209132861504" lon="121.04539417943155"><ele>11.0</ele><time>2026-04-25T04:03:38Z</time></trkpt><trkpt lat="14.43107510679518" lon="121.0453941347222"><ele>11.0</ele><time>2026-04-25T04:03:39Z</time></trkpt><trkpt lat="14.430951092975215" lon="121.04538937020938"><ele>10.8</ele><time>2026-04-25T04:03:40Z</time></trkpt><trkpt lat="14.430840493559252" lon="121.0453848189824"><ele>10.600000000000001</ele><time>2026-04-25T04:03:41Z</time></trkpt><trkpt lat="14.430730595939709" lon="121.04534651734508"><ele>10.4</ele><time>2026-04-25T04:03:42Z</time></trkpt><trkpt lat="14.430663494522832" lon="121.04536690981028"><ele>10.2</ele><time>2026-04-25T04:03:43Z</time></trkpt><trkpt lat="14.43056788572937" lon="121.04538016990503"><ele>10.0</ele><time>2026-04-25T04:03:44Z</time></trkpt><trkpt lat="14.430469671874613" lon="121.0453875197617"><ele>10.0</ele><time>2026-04-25T04:03:45Z</time></trkpt><trkpt lat="14.430348136321342" lon="121.04539524707712"><ele>10.0</ele><time>2026-04-25T04:03:46Z</time></trkpt><trkpt lat="14.43023378006483" lon="121.0454019120391"><ele>10.0</ele><time>2026-04-25T04:03:47Z</time></trkpt><trkpt lat="14.430108761485718" lon="121.04540184792067"><ele>10.0</ele><time>2026-04-25T04:03:48Z</time></trkpt><trkpt lat="14.430000354383957" lon="121.04540397050411"><ele>10.0</ele><time>2026-04-25T04:03:49Z</time></trkpt><trkpt lat="14.429888906143908" lon="121.04541514572509"><ele>10.0</ele><time>2026-04-25T04:03:50Z</time></trkpt><trkpt lat="14.429804176992862" lon="121.04539807299635"><ele>10.0</ele><time>2026-04-25T04:03:51Z</time></trkpt><trkpt lat="14.429688434794786" lon="121.04539814399506"><ele>10.0</ele><time>2026-04-25T04:03:52Z</time></trkpt><trkpt lat="14.429561215764187" lon="121.04542000309061"><ele>10.0</ele><time>2026-04-25T04:03:53Z</time></trkpt><trkpt lat="14.429438940420585" lon="121.04541476612238"><ele>10.5</ele><time>2026-04-25T04:03:54Z</time></trkpt><trkpt lat="14.429313285581731" lon="121.04542295873128"><ele>11.0</ele><time>2026-04-25T04:03:55Z</time></trkpt><trkpt lat="14.429197355144485" lon="121.0454259649833"><ele>11.5</ele><time>2026-04-25T04:03:56Z</time></trkpt><trkpt lat="14.429091895269423" lon="121.04541185033808"><ele>12.0</ele><time>2026-04-25T04:03:57Z</time></trkpt><trkpt lat="14.428981317057382" lon="121.04540868179507"><ele>12.0</ele><time>2026-04-25T04:03:58Z</time></trkpt><trkpt lat="14.428877027219707" lon="121.04540719478636"><ele>12.0</ele><time>2026-04-25T04:04:00Z</time></trkpt><trkpt lat="14.428813975636965" lon="121.04540257519515"><ele>12.0</ele><time>2026-04-25T04:04:04Z</time></trkpt><trkpt lat="14.42870803671222" lon="121.04540696592937"><ele>12.0</ele><time>2026-04-25T04:04:06Z</time></trkpt><trkpt lat="14.428609032175965" lon="121.04540236819064"><ele>12.0</ele><time>2026-04-25T04:04:08Z</time></trkpt><trkpt lat="14.428487254149212" lon="121.04540534594247"><ele>12.0</ele><time>2026-04-25T04:04:10Z</time></trkpt><trkpt lat="14.428401571738473" lon="121.04540515299679"><ele>12.0</ele><time>2026-04-25T04:04:11Z</time></trkpt><trkpt lat="14.428324242736323" lon="121.04540556431913"><ele>12.0</ele><time>2026-04-25T04:04:12Z</time></trkpt><trkpt lat="14.428235775792869" lon="121.04540727733699"><ele>12.0</ele><time>2026-04-25T04:04:13Z</time></trkpt><trkpt lat="14.42815060248982" lon="121.04540978535051"><ele>12.0</ele><time>2026-04-25T04:04:14Z</time></trkpt><trkpt lat="14.428074449844052" lon="121.04540779071216"><ele>12.0</ele><time>2026-04-25T04:04:15Z</time></trkpt><trkpt lat="14.427997989355301" lon="121.04540909246276"><ele>11.833333333333334</ele><time>2026-04-25T04:04:16Z</time></trkpt><trkpt lat="14.427934149019519" lon="121.04540154848786"><ele>11.666666666666666</ele><time>2026-04-25T04:04:17Z</time></trkpt><trkpt lat="14.427870207720623" lon="121.04539822577084"><ele>11.5</ele><time>2026-04-25T04:04:18Z</time></trkpt><trkpt lat="14.427752255593415" lon="121.04540243447401"><ele>11.333333333333332</ele><time>2026-04-25T04:04:20Z</time></trkpt><trkpt lat="14.427665789262862" lon="121.04541097943525"><ele>11.166666666666666</ele><time>2026-04-25T04:04:22Z</time></trkpt><trkpt lat="14.427560287571492" lon="121.04541091821814"><ele>11.0</ele><time>2026-04-25T04:04:24Z</time></trkpt><trkpt lat="14.427435392126224" lon="121.04541275974276"><ele>11.0</ele><time>2026-04-25T04:04:26Z</time></trkpt><trkpt lat="14.427368963164994" lon="121.04541379962001"><ele>11.0</ele><time>2026-04-25T04:04:27Z</time></trkpt><trkpt lat="14.427296820844758" lon="121.0454181087805"><ele>11.0</ele><time>2026-04-25T04:04:28Z</time></trkpt><trkpt lat="14.427205627860552" lon="121.04541588806528"><ele>11.0</ele><time>2026-04-25T04:04:29Z</time></trkpt><trkpt lat="14.427117795235059" lon="121.04541608406589"><ele>11.0</ele><time>2026-04-25T04:04:30Z</time></trkpt><trkpt lat="14.427034828999703" lon="121.0454212851499"><ele>11.0</ele><time>2026-04-25T04:04:31Z</time></trkpt><trkpt lat="14.426957106852038" lon="121.04541989654463"><ele>11.333333333333332</ele><time>2026-04-25T04:04:32Z</time></trkpt><trkpt lat="14.426873192751525" lon="121.04541740081439"><ele>11.666666666666666</ele><time>2026-04-25T04:04:33Z</time></trkpt><trkpt lat="14.426789828207708" lon="121.04541389922213"><ele>12.0</ele><time>2026-04-25T04:04:34Z</time></trkpt><trkpt lat="14.426711441189271" lon="121.04541561820633"><ele>12.333333333333332</ele><time>2026-04-25T04:04:35Z</time></trkpt><trkpt lat="14.426635471503465" lon="121.0454169190647"><ele>12.666666666666666</ele><time>2026-04-25T04:04:36Z</time></trkpt><trkpt lat="14.426550609542026" lon="121.04542055507446"><ele>13.0</ele><time>2026-04-25T04:04:37Z</time></trkpt><trkpt lat="14.42645520657325" lon="121.04542384790965"><ele>13.0</ele><time>2026-04-25T04:04:38Z</time></trkpt><trkpt lat="14.426346466835687" lon="121.04542174796109"><ele>13.0</ele><time>2026-04-25T04:04:39Z</time></trkpt><trkpt lat="14.426249245719852" lon="121.04542221911449"><ele>13.0</ele><time>2026-04-25T04:04:40Z</time></trkpt><trkpt lat="14.426146348681591" lon="121.04542629620316"><ele>13.0</ele><time>2026-04-25T04:04:41Z</time></trkpt><trkpt lat="14.426042676337028" lon="121.04542742290987"><ele>13.0</ele><time>2026-04-25T04:04:42Z</time></trkpt><trkpt lat="14.425933250178876" lon="121.0454287412097"><ele>13.0</ele><time>2026-04-25T04:04:43Z</time></trkpt><trkpt lat="14.425820096777041" lon="121.04542790959819"><ele>13.0</ele><time>2026-04-25T04:04:44Z</time></trkpt><trkpt lat="14.425716575004898" lon="121.04542404884657"><ele>13.0</ele><time>2026-04-25T04:04:45Z</time></trkpt><trkpt lat="14.425607506283965" lon="121.04542489986225"><ele>13.0</ele><time>2026-04-25T04:04:46Z</time></trkpt><trkpt lat="14.425486557285087" lon="121.04543037194117"><ele>13.0</ele><time>2026-04-25T04:04:47Z</time></trkpt><trkpt lat="14.425377609875662" lon="121.04542544327836"><ele>13.0</ele><time>2026-04-25T04:04:48Z</time></trkpt><trkpt lat="14.425269731926175" lon="121.04542734358823"><ele>13.0</ele><time>2026-04-25T04:04:49Z</time></trkpt><trkpt lat="14.425165216279153" lon="121.04542674033235"><ele>13.0</ele><time>2026-04-25T04:04:50Z</time></trkpt><trkpt lat="14.425063189951139" lon="121.0454294925659"><ele>13.0</ele><time>2026-04-25T04:04:51Z</time></trkpt><trkpt lat="14.424968514545327" lon="121.04543144184065"><ele>13.0</ele><time>2026-04-25T04:04:52Z</time></trkpt><trkpt lat="14.424874453566309" lon="121.0454301803431"><ele>13.0</ele><time>2026-04-25T04:04:53Z</time></trkpt><trkpt lat="14.424722674932832" lon="121.04544426563983"><ele>13.0</ele><time>2026-04-25T04:04:55Z</time></trkpt><trkpt lat="14.424635372392482" lon="121.04544503035964"><ele>13.0</ele><time>2026-04-25T04:04:56Z</time></trkpt><trkpt lat="14.424533952651446" lon="121.04544227980473"><ele>13.0</ele><time>2026-04-25T04:04:57Z</time></trkpt><trkpt lat="14.424420282984311" lon="121.0454351984277"><ele>14.0</ele><time>2026-04-25T04:04:58Z</time></trkpt><trkpt lat="14.424314392973011" lon="121.04544083386061"><ele>15.0</ele><time>2026-04-25T04:04:59Z</time></trkpt><trkpt lat="14.424188687304751" lon="121.04543782123388"><ele>16.0</ele><time>2026-04-25T04:05:00Z</time></trkpt><trkpt lat="14.424070292355498" lon="121.04543648832079"><ele>17.0</ele><time>2026-04-25T04:05:01Z</time></trkpt><trkpt lat="14.423949036235056" lon="121.04543668476387"><ele>17.0</ele><time>2026-04-25T04:05:02Z</time></trkpt><trkpt lat="14.423835717358537" lon="121.04543648802476"><ele>17.0</ele><time>2026-04-25T04:05:03Z</time></trkpt><trkpt lat="14.423716277887552" lon="121.0454380313201"><ele>17.0</ele><time>2026-04-25T04:05:04Z</time></trkpt><trkpt lat="14.423602648918477" lon="121.0454372390769"><ele>17.0</ele><time>2026-04-25T04:05:05Z</time></trkpt><trkpt lat="14.423481118932212" lon="121.04543902892753"><ele>16.0</ele><time>2026-04-25T04:05:06Z</time></trkpt><trkpt lat="14.423369914351227" lon="121.04544072813236"><ele>15.0</ele><time>2026-04-25T04:05:07Z</time></trkpt><trkpt lat="14.423257580349624" lon="121.0454366117993"><ele>14.0</ele><time>2026-04-25T04:05:08Z</time></trkpt><trkpt lat="14.423133453497522" lon="121.04544024417494"><ele>13.0</ele><time>2026-04-25T04:05:09Z</time></trkpt><trkpt lat="14.422969645366633" lon="121.04543202135302"><ele>12.25</ele><time>2026-04-25T04:05:10Z</time></trkpt><trkpt lat="14.42287421910605" lon="121.04535200209196"><ele>11.5</ele><time>2026-04-25T04:05:11Z</time></trkpt><trkpt lat="14.422772830004716" lon="121.04529987031175"><ele>10.75</ele><time>2026-04-25T04:05:12Z</time></trkpt><trkpt lat="14.422722056853154" lon="121.04522596072378"><ele>10.0</ele><time>2026-04-25T04:05:13Z</time></trkpt><trkpt lat="14.422299619401707" lon="121.04541762145105"><ele>10.0</ele><time>2026-04-25T04:05:15Z</time></trkpt><trkpt lat="14.422166834600842" lon="121.0454103579239"><ele>10.0</ele><time>2026-04-25T04:05:16Z</time></trkpt><trkpt lat="14.42201856897231" lon="121.0454020456362"><ele>10.0</ele><time>2026-04-25T04:05:17Z</time></trkpt><trkpt lat="14.421881972108027" lon="121.04539567587022"><ele>10.0</ele><time>2026-04-25T04:05:18Z</time></trkpt><trkpt lat="14.42174914479538" lon="121.04538902497197"><ele>10.0</ele><time>2026-04-25T04:05:19Z</time></trkpt><trkpt lat="14.421615537326087" lon="121.04538028404191"><ele>10.0</ele><time>2026-04-25T04:05:20Z</time></trkpt><trkpt lat="14.421477267634183" lon="121.04537201397734"><ele>10.0</ele><time>2026-04-25T04:05:21Z</time></trkpt><trkpt lat="14.421331914761895" lon="121.04536570042406"><ele>10.0</ele><time>2026-04-25T04:05:22Z</time></trkpt><trkpt lat="14.421189045877597" lon="121.04536257745404"><ele>11.25</ele><time>2026-04-25T04:05:23Z</time></trkpt><trkpt lat="14.421041347761363" lon="121.04535987038977"><ele>12.5</ele><time>2026-04-25T04:05:24Z</time></trkpt><trkpt lat="14.420892282459985" lon="121.04535721747072"><ele>13.75</ele><time>2026-04-25T04:05:25Z</time></trkpt><trkpt lat="14.420741828651094" lon="121.04535446940034"><ele>15.0</ele><time>2026-04-25T04:05:26Z</time></trkpt><trkpt lat="14.420585243356033" lon="121.04535286875927"><ele>15.666666666666668</ele><time>2026-04-25T04:05:27Z</time></trkpt><trkpt lat="14.420430223625651" lon="121.04535295575933"><ele>16.333333333333336</ele><time>2026-04-25T04:05:28Z</time></trkpt><trkpt lat="14.420274685800964" lon="121.04535013550247"><ele>17.0</ele><time>2026-04-25T04:05:29Z</time></trkpt><trkpt lat="14.420118367110739" lon="121.0453470055663"><ele>17.0</ele><time>2026-04-25T04:05:30Z</time></trkpt><trkpt lat="14.419963449817612" lon="121.04534428240116"><ele>17.0</ele><time>2026-04-25T04:05:31Z</time></trkpt><trkpt lat="14.41981299408437" lon="121.04534234633117"><ele>17.0</ele><time>2026-04-25T04:05:32Z</time></trkpt><trkpt lat="14.419665470192227" lon="121.04534126689576"><ele>17.25</ele><time>2026-04-25T04:05:33Z</time></trkpt><trkpt lat="14.419520307622799" lon="121.04534044343387"><ele>17.5</ele><time>2026-04-25T04:05:34Z</time></trkpt><trkpt lat="14.41937213238178" lon="121.04534280166864"><ele>17.75</ele><time>2026-04-25T04:05:35Z</time></trkpt><trkpt lat="14.41921878138529" lon="121.04534676778523"><ele>18.0</ele><time>2026-04-25T04:05:36Z</time></trkpt><trkpt lat="14.419064100865791" lon="121.04535237371904"><ele>18.0</ele><time>2026-04-25T04:05:37Z</time></trkpt><trkpt lat="14.418912215557041" lon="121.04535363264434"><ele>18.0</ele><time>2026-04-25T04:05:38Z</time></trkpt><trkpt lat="14.418765856603642" lon="121.04535590497755"><ele>18.0</ele><time>2026-04-25T04:05:39Z</time></trkpt><trkpt lat="14.418614542412206" lon="121.04535703034259"><ele>17.5</ele><time>2026-04-25T04:05:40Z</time></trkpt><trkpt lat="14.418464707299885" lon="121.04536153799594"><ele>17.0</ele><time>2026-04-25T04:05:41Z</time></trkpt><trkpt lat="14.41831876216865" lon="121.04536419356488"><ele>16.5</ele><time>2026-04-25T04:05:42Z</time></trkpt><trkpt lat="14.418175763718734" lon="121.04536239757441"><ele>16.0</ele><time>2026-04-25T04:05:43Z</time></trkpt><trkpt lat="14.418037483932567" lon="121.04536022571602"><ele>15.5</ele><time>2026-04-25T04:05:44Z</time></trkpt><trkpt lat="14.41789856952489" lon="121.04535847612017"><ele>15.0</ele><time>2026-04-25T04:05:45Z</time></trkpt><trkpt lat="14.41776219641171" lon="121.04535690212997"><ele>14.5</ele><time>2026-04-25T04:05:46Z</time></trkpt><trkpt lat="14.417626895284744" lon="121.04535604057615"><ele>14.0</ele><time>2026-04-25T04:05:47Z</time></trkpt><trkpt lat="14.417493854141734" lon="121.04535185216253"><ele>14.0</ele><time>2026-04-25T04:05:48Z</time></trkpt><trkpt lat="14.417361159346456" lon="121.0453498953371"><ele>14.0</ele><time>2026-04-25T04:05:49Z</time></trkpt><trkpt lat="14.417230986101503" lon="121.04534920094102"><ele>14.0</ele><time>2026-04-25T04:05:50Z</time></trkpt><trkpt lat="14.417103560197138" lon="121.04535011395173"><ele>14.0</ele><time>2026-04-25T04:05:51Z</time></trkpt><trkpt lat="14.416976761470735" lon="121.04534841970987"><ele>13.5</ele><time>2026-04-25T04:05:52Z</time></trkpt><trkpt lat="14.416850474046575" lon="121.04534746388482"><ele>13.0</ele><time>2026-04-25T04:05:53Z</time></trkpt><trkpt lat="14.416723620141365" lon="121.04534606458704"><ele>12.5</ele><time>2026-04-25T04:05:54Z</time></trkpt><trkpt lat="14.416596846949865" lon="121.04534542365191"><ele>12.0</ele><time>2026-04-25T04:05:55Z</time></trkpt><trkpt lat="14.416470966933792" lon="121.04534279702166"><ele>12.0</ele><time>2026-04-25T04:05:56Z</time></trkpt><trkpt lat="14.416345922789464" lon="121.0453389291436"><ele>12.0</ele><time>2026-04-25T04:05:57Z</time></trkpt><trkpt lat="14.416224660039337" lon="121.0453346514397"><ele>12.0</ele><time>2026-04-25T04:05:58Z</time></trkpt><trkpt lat="14.416104871924972" lon="121.04532865254262"><ele>12.0</ele><time>2026-04-25T04:05:59Z</time></trkpt><trkpt lat="14.415987965884321" lon="121.04532149907187"><ele>12.25</ele><time>2026-04-25T04:06:00Z</time></trkpt><trkpt lat="14.415873738493286" lon="121.04531293781302"><ele>12.5</ele><time>2026-04-25T04:06:01Z</time></trkpt><trkpt lat="14.415760128497547" lon="121.04530241208602"><ele>12.75</ele><time>2026-04-25T04:06:02Z</time></trkpt><trkpt lat="14.415649659062751" lon="121.04528931388363"><ele>13.0</ele><time>2026-04-25T04:06:03Z</time></trkpt><trkpt lat="14.415538993771358" lon="121.0452774653749"><ele>13.2</ele><time>2026-04-25T04:06:04Z</time></trkpt><trkpt lat="14.415428884714283" lon="121.04526415656335"><ele>13.4</ele><time>2026-04-25T04:06:05Z</time></trkpt><trkpt lat="14.41532486878185" lon="121.04524826874912"><ele>13.599999999999998</ele><time>2026-04-25T04:06:06Z</time></trkpt><trkpt lat="14.415226519527979" lon="121.04523162878291"><ele>13.799999999999999</ele><time>2026-04-25T04:06:07Z</time></trkpt><trkpt lat="14.415131087414299" lon="121.04521304527464"><ele>14.0</ele><time>2026-04-25T04:06:08Z</time></trkpt><trkpt lat="14.415038883128867" lon="121.04519340751033"><ele>14.0</ele><time>2026-04-25T04:06:09Z</time></trkpt><trkpt lat="14.41494799563558" lon="121.04517118478005"><ele>13.999999999999998</ele><time>2026-04-25T04:06:10Z</time></trkpt><trkpt lat="14.414855453685165" lon="121.04515457821556"><ele>13.999999999999998</ele><time>2026-04-25T04:06:11Z</time></trkpt><trkpt lat="14.41476603507856" lon="121.04512831547844"><ele>14.0</ele><time>2026-04-25T04:06:12Z</time></trkpt><trkpt lat="14.414672672599037" lon="121.04510394879608"><ele>14.0</ele><time>2026-04-25T04:06:13Z</time></trkpt><trkpt lat="14.414583253298474" lon="121.04507396902846"><ele>14.000000000000002</ele><time>2026-04-25T04:06:14Z</time></trkpt><trkpt lat="14.41449598869785" lon="121.04504446363013"><ele>14.0</ele><time>2026-04-25T04:06:15Z</time></trkpt><trkpt lat="14.414413113281817" lon="121.04501499971845"><ele>14.0</ele><time>2026-04-25T04:06:16Z</time></trkpt><trkpt lat="14.414332381249876" lon="121.04498319311405"><ele>14.0</ele><time>2026-04-25T04:06:17Z</time></trkpt><trkpt lat="14.41425263898215" lon="121.04495088579726"><ele>14.000000000000002</ele><time>2026-04-25T04:06:18Z</time></trkpt><trkpt lat="14.414179433001552" lon="121.04492068061381"><ele>14.0</ele><time>2026-04-25T04:06:19Z</time></trkpt><trkpt lat="14.4141092350268" lon="121.04489175773388"><ele>14.333333333333334</ele><time>2026-04-25T04:06:20Z</time></trkpt><trkpt lat="14.414040533696546" lon="121.04486051852825"><ele>14.666666666666668</ele><time>2026-04-25T04:06:21Z</time></trkpt><trkpt lat="14.413970434947728" lon="121.04482893709829"><ele>15.0</ele><time>2026-04-25T04:06:22Z</time></trkpt><trkpt lat="14.413900319174102" lon="121.0447948931878"><ele>15.333333333333332</ele><time>2026-04-25T04:06:23Z</time></trkpt><trkpt lat="14.413829862411518" lon="121.044759158209"><ele>15.666666666666666</ele><time>2026-04-25T04:06:24Z</time></trkpt><trkpt lat="14.413759576006274" lon="121.04472090364372"><ele>16.0</ele><time>2026-04-25T04:06:25Z</time></trkpt><trkpt lat="14.413695420387196" lon="121.04468405615012"><ele>17.4</ele><time>2026-04-25T04:06:26Z</time></trkpt><trkpt lat="14.413606897678513" lon="121.04462963536864"><ele>18.8</ele><time>2026-04-25T04:06:28Z</time></trkpt><trkpt lat="14.41353074023511" lon="121.04458293337565"><ele>20.2</ele><time>2026-04-25T04:06:30Z</time></trkpt><trkpt lat="14.413451119526398" lon="121.04453455647905"><ele>21.599999999999998</ele><time>2026-04-25T04:06:32Z</time></trkpt><trkpt lat="14.413358511836226" lon="121.04447524579888"><ele>23.0</ele><time>2026-04-25T04:06:34Z</time></trkpt><trkpt lat="14.413301559696682" lon="121.04443773558695"><ele>23.0</ele><time>2026-04-25T04:06:35Z</time></trkpt><trkpt lat="14.41323837882403" lon="121.04439533976095"><ele>23.0</ele><time>2026-04-25T04:06:36Z</time></trkpt><trkpt lat="14.41317175723533" lon="121.04435085859475"><ele>23.0</ele><time>2026-04-25T04:06:37Z</time></trkpt><trkpt lat="14.413103767291565" lon="121.0443058065154"><ele>23.0</ele><time>2026-04-25T04:06:38Z</time></trkpt><trkpt lat="14.413033746906807" lon="121.04425897360456"><ele>23.0</ele><time>2026-04-25T04:06:39Z</time></trkpt><trkpt lat="14.412958849041072" lon="121.04420952333913"><ele>23.0</ele><time>2026-04-25T04:06:40Z</time></trkpt><trkpt lat="14.412879387160256" lon="121.04415924851894"><ele>22.4</ele><time>2026-04-25T04:06:41Z</time></trkpt><trkpt lat="14.41279735436269" lon="121.0441087316349"><ele>21.799999999999997</ele><time>2026-04-25T04:06:42Z</time></trkpt><trkpt lat="14.412712165107523" lon="121.04405490250089"><ele>21.2</ele><time>2026-04-25T04:06:43Z</time></trkpt><trkpt lat="14.412624645292665" lon="121.04399879054714"><ele>20.6</ele><time>2026-04-25T04:06:44Z</time></trkpt><trkpt lat="14.412538728378081" lon="121.04394224078078"><ele>20.0</ele><time>2026-04-25T04:06:45Z</time></trkpt><trkpt lat="14.412448441002244" lon="121.043886485184"><ele>20.0</ele><time>2026-04-25T04:06:46Z</time></trkpt><trkpt lat="14.412361089220536" lon="121.04382654968974"><ele>20.0</ele><time>2026-04-25T04:06:47Z</time></trkpt><trkpt lat="14.412271159402748" lon="121.0437633632098"><ele>20.0</ele><time>2026-04-25T04:06:48Z</time></trkpt><trkpt lat="14.412178469809808" lon="121.04370147277989"><ele>20.0</ele><time>2026-04-25T04:06:49Z</time></trkpt><trkpt lat="14.412085604307821" lon="121.04363935668668"><ele>20.0</ele><time>2026-04-25T04:06:50Z</time></trkpt><trkpt lat="14.411994479962008" lon="121.04357925689888"><ele>19.2</ele><time>2026-04-25T04:06:51Z</time></trkpt><trkpt lat="14.411904224798453" lon="121.04352042373282"><ele>18.4</ele><time>2026-04-25T04:06:52Z</time></trkpt><trkpt lat="14.411815119802588" lon="121.04346065079764"><ele>17.6</ele><time>2026-04-25T04:06:53Z</time></trkpt><trkpt lat="14.411730538135055" lon="121.04340003427451"><ele>16.8</ele><time>2026-04-25T04:06:54Z</time></trkpt><trkpt lat="14.411650368532666" lon="121.04333195665873"><ele>16.0</ele><time>2026-04-25T04:06:55Z</time></trkpt><trkpt lat="14.411581460893217" lon="121.04325612440677"><ele>16.0</ele><time>2026-04-25T04:06:56Z</time></trkpt><trkpt lat="14.411524525447728" lon="121.04317385099664"><ele>16.0</ele><time>2026-04-25T04:06:57Z</time></trkpt><trkpt lat="14.411477402613448" lon="121.04308252680237"><ele>16.0</ele><time>2026-04-25T04:06:58Z</time></trkpt><trkpt lat="14.411438255135934" lon="121.04297873039441"><ele>16.0</ele><time>2026-04-25T04:06:59Z</time></trkpt><trkpt lat="14.411419358819591" lon="121.04288028896471"><ele>16.0</ele><time>2026-04-25T04:07:00Z</time></trkpt><trkpt lat="14.411414907693352" lon="121.04277761739715"><ele>16.0</ele><time>2026-04-25T04:07:01Z</time></trkpt><trkpt lat="14.411422931774943" lon="121.04267228302696"><ele>16.0</ele><time>2026-04-25T04:07:02Z</time></trkpt><trkpt lat="14.411438717674747" lon="121.04256595003356"><ele>16.0</ele><time>2026-04-25T04:07:03Z</time></trkpt><trkpt lat="14.411467722074635" lon="121.04245526824393"><ele>16.0</ele><time>2026-04-25T04:07:04Z</time></trkpt><trkpt lat="14.411521850959588" lon="121.04234804324926"><ele>16.0</ele><time>2026-04-25T04:07:05Z</time></trkpt><trkpt lat="14.411582932476128" lon="121.0422402826547"><ele>16.5</ele><time>2026-04-25T04:07:06Z</time></trkpt><trkpt lat="14.41163206064288" lon="121.04213404394045"><ele>17.0</ele><time>2026-04-25T04:07:07Z</time></trkpt><trkpt lat="14.4116824677636" lon="121.04203162992297"><ele>17.5</ele><time>2026-04-25T04:07:08Z</time></trkpt><trkpt lat="14.411737456539711" lon="121.04190923616173"><ele>18.0</ele><time>2026-04-25T04:07:09Z</time></trkpt><trkpt lat="14.411788799878753" lon="121.04180151659075"><ele>18.0</ele><time>2026-04-25T04:07:10Z</time></trkpt><trkpt lat="14.411834695097431" lon="121.04169811391498"><ele>18.0</ele><time>2026-04-25T04:07:11Z</time></trkpt><trkpt lat="14.411876231252782" lon="121.04160672297266"><ele>18.0</ele><time>2026-04-25T04:07:12Z</time></trkpt><trkpt lat="14.41190958471269" lon="121.04152766183331"><ele>18.0</ele><time>2026-04-25T04:07:13Z</time></trkpt><trkpt lat="14.411934822560946" lon="121.04146079777871"><ele>18.0</ele><time>2026-04-25T04:07:14Z</time></trkpt><trkpt lat="14.411975768997076" lon="121.04135227666421"><ele>18.166666666666668</ele><time>2026-04-25T04:07:16Z</time></trkpt><trkpt lat="14.412011611740262" lon="121.0412592680833"><ele>18.333333333333332</ele><time>2026-04-25T04:07:18Z</time></trkpt><trkpt lat="14.412040564229205" lon="121.04118677179827"><ele>18.5</ele><time>2026-04-25T04:07:20Z</time></trkpt><trkpt lat="14.412070375743365" lon="121.04109756649184"><ele>18.666666666666664</ele><time>2026-04-25T04:08:19Z</time></trkpt><trkpt lat="14.412108373483283" lon="121.04102866438323"><ele>18.833333333333332</ele><time>2026-04-25T04:09:52Z</time></trkpt><trkpt lat="14.412131129709808" lon="121.0409647602547"><ele>19.0</ele><time>2026-04-25T04:10:45Z</time></trkpt><trkpt lat="14.412147239406925" lon="121.04090090827815"><ele>19.4</ele><time>2026-04-25T04:10:49Z</time></trkpt><trkpt lat="14.412170813184407" lon="121.04082291969753"><ele>19.799999999999997</ele><time>2026-04-25T04:10:53Z</time></trkpt><trkpt lat="14.412191661735752" lon="121.04074286128711"><ele>20.200000000000003</ele><time>2026-04-25T04:10:55Z</time></trkpt><trkpt lat="14.412214159466378" lon="121.04063412139372"><ele>20.6</ele><time>2026-04-25T04:10:57Z</time></trkpt><trkpt lat="14.412230168502537" lon="121.04051639740236"><ele>21.0</ele><time>2026-04-25T04:10:59Z</time></trkpt><trkpt lat="14.412253275547775" lon="121.0403992039654"><ele>21.0</ele><time>2026-04-25T04:11:01Z</time></trkpt><trkpt lat="14.412279016424614" lon="121.04029706835212"><ele>21.0</ele><time>2026-04-25T04:11:03Z</time></trkpt><trkpt lat="14.412304194061788" lon="121.04019300826891"><ele>21.0</ele><time>2026-04-25T04:11:05Z</time></trkpt><trkpt lat="14.412332400939974" lon="121.0400720696419"><ele>21.0</ele><time>2026-04-25T04:11:07Z</time></trkpt><trkpt lat="14.412343850473395" lon="121.04000167963838"><ele>21.0</ele><time>2026-04-25T04:11:08Z</time></trkpt><trkpt lat="14.412352466118005" lon="121.03992705304508"><ele>21.666666666666668</ele><time>2026-04-25T04:11:09Z</time></trkpt><trkpt lat="14.412356953064211" lon="121.0398480931309"><ele>22.333333333333336</ele><time>2026-04-25T04:11:10Z</time></trkpt><trkpt lat="14.412361040779363" lon="121.03976877257239"><ele>23.0</ele><time>2026-04-25T04:11:11Z</time></trkpt><trkpt lat="14.412365329057963" lon="121.0396896532956"><ele>23.666666666666668</ele><time>2026-04-25T04:11:12Z</time></trkpt><trkpt lat="14.412369930371613" lon="121.0396083572229"><ele>24.333333333333336</ele><time>2026-04-25T04:11:13Z</time></trkpt><trkpt lat="14.41237431352386" lon="121.03952654876025"><ele>25.0</ele><time>2026-04-25T04:11:14Z</time></trkpt><trkpt lat="14.412380060554556" lon="121.03944893721342"><ele>25.0</ele><time>2026-04-25T04:11:15Z</time></trkpt><trkpt lat="14.412386315548837" lon="121.03937552054963"><ele>25.0</ele><time>2026-04-25T04:11:16Z</time></trkpt><trkpt lat="14.412395677048249" lon="121.03930982740394"><ele>25.0</ele><time>2026-04-25T04:11:17Z</time></trkpt><trkpt lat="14.412435961151502" lon="121.03919843696693"><ele>25.0</ele><time>2026-04-25T04:11:19Z</time></trkpt><trkpt lat="14.412506753700622" lon="121.03911618371342"><ele>25.0</ele><time>2026-04-25T04:11:21Z</time></trkpt><trkpt lat="14.41259580046082" lon="121.03907053142866"><ele>24.666666666666668</ele><time>2026-04-25T04:11:23Z</time></trkpt><trkpt lat="14.41271608481053" lon="121.03904370476877"><ele>24.333333333333336</ele><time>2026-04-25T04:11:25Z</time></trkpt><trkpt lat="14.412784853719845" lon="121.03903572409818"><ele>24.0</ele><time>2026-04-25T04:11:26Z</time></trkpt><trkpt lat="14.412857743600304" lon="121.03902766653172"><ele>23.666666666666668</ele><time>2026-04-25T04:11:27Z</time></trkpt><trkpt lat="14.412932861218886" lon="121.03902110020111"><ele>23.333333333333336</ele><time>2026-04-25T04:11:28Z</time></trkpt><trkpt lat="14.41301126130022" lon="121.03901925956592"><ele>23.0</ele><time>2026-04-25T04:11:29Z</time></trkpt><trkpt lat="14.413089598992523" lon="121.03902102982195"><ele>22.166666666666668</ele><time>2026-04-25T04:11:30Z</time></trkpt><trkpt lat="14.413167061630217" lon="121.03902314008212"><ele>21.333333333333336</ele><time>2026-04-25T04:11:31Z</time></trkpt><trkpt lat="14.413243844304082" lon="121.03902520493928"><ele>20.5</ele><time>2026-04-25T04:11:32Z</time></trkpt><trkpt lat="14.413318618823363" lon="121.0390269916466"><ele>19.666666666666668</ele><time>2026-04-25T04:11:33Z</time></trkpt><trkpt lat="14.413391208494438" lon="121.03902911852991"><ele>18.833333333333332</ele><time>2026-04-25T04:11:34Z</time></trkpt><trkpt lat="14.413457380994485" lon="121.03903052282455"><ele>18.0</ele><time>2026-04-25T04:11:35Z</time></trkpt><trkpt lat="14.41356656658071" lon="121.03903345083566"><ele>18.0</ele><time>2026-04-25T04:11:37Z</time></trkpt><trkpt lat="14.413645680558941" lon="121.03903220927364"><ele>18.0</ele><time>2026-04-25T04:11:39Z</time></trkpt><trkpt lat="14.413710632493235" lon="121.03903290034609"><ele>18.0</ele><time>2026-04-25T04:11:42Z</time></trkpt><trkpt lat="14.413787667170876" lon="121.03903222439733"><ele>18.0</ele><time>2026-04-25T04:11:52Z</time></trkpt><trkpt lat="14.413888727980192" lon="121.03903371226163"><ele>18.0</ele><time>2026-04-25T04:11:54Z</time></trkpt><trkpt lat="14.414005583999955" lon="121.03903390307305"><ele>18.0</ele><time>2026-04-25T04:11:56Z</time></trkpt><trkpt lat="14.414068734747985" lon="121.03903490998384"><ele>18.833333333333332</ele><time>2026-04-25T04:11:57Z</time></trkpt><trkpt lat="14.414138033791884" lon="121.03903075008304"><ele>19.666666666666668</ele><time>2026-04-25T04:11:58Z</time></trkpt><trkpt lat="14.414208657892331" lon="121.03901886258404"><ele>20.5</ele><time>2026-04-25T04:11:59Z</time></trkpt><trkpt lat="14.414282438600067" lon="121.0390015065089"><ele>21.333333333333336</ele><time>2026-04-25T04:12:00Z</time></trkpt><trkpt lat="14.414360546975184" lon="121.03897929660968"><ele>22.166666666666668</ele><time>2026-04-25T04:12:01Z</time></trkpt><trkpt lat="14.414441275419348" lon="121.0389501007268"><ele>23.0</ele><time>2026-04-25T04:12:02Z</time></trkpt><trkpt lat="14.41452379288424" lon="121.03891696641772"><ele>23.0</ele><time>2026-04-25T04:12:03Z</time></trkpt><trkpt lat="14.414606415871274" lon="121.03888236520544"><ele>23.0</ele><time>2026-04-25T04:12:04Z</time></trkpt><trkpt lat="14.414686408400586" lon="121.0388470499861"><ele>23.0</ele><time>2026-04-25T04:12:05Z</time></trkpt><trkpt lat="14.414762419731154" lon="121.03880766929016"><ele>23.0</ele><time>2026-04-25T04:12:06Z</time></trkpt><trkpt lat="14.414833763599646" lon="121.03876380359186"><ele>23.0</ele><time>2026-04-25T04:12:07Z</time></trkpt><trkpt lat="14.414895472665677" lon="121.0387209778834"><ele>23.0</ele><time>2026-04-25T04:12:08Z</time></trkpt><trkpt lat="14.41494690490106" lon="121.03868265267847"><ele>22.5</ele><time>2026-04-25T04:12:09Z</time></trkpt><trkpt lat="14.41502454812772" lon="121.03862045394364"><ele>22.0</ele><time>2026-04-25T04:12:11Z</time></trkpt><trkpt lat="14.41507867315967" lon="121.03858190213148"><ele>21.5</ele><time>2026-04-25T04:12:37Z</time></trkpt><trkpt lat="14.415162996755681" lon="121.03852970293718"><ele>21.0</ele><time>2026-04-25T04:12:40Z</time></trkpt><trkpt lat="14.415261361447342" lon="121.03847273620077"><ele>20.5</ele><time>2026-04-25T04:12:42Z</time></trkpt><trkpt lat="14.415319671776622" lon="121.03843853322802"><ele>20.0</ele><time>2026-04-25T04:12:43Z</time></trkpt><trkpt lat="14.415385269151733" lon="121.03840334553871"><ele>20.0</ele><time>2026-04-25T04:12:44Z</time></trkpt><trkpt lat="14.4154557893377" lon="121.03836587841931"><ele>20.0</ele><time>2026-04-25T04:12:45Z</time></trkpt><trkpt lat="14.415529840352447" lon="121.03832893135609"><ele>20.0</ele><time>2026-04-25T04:12:46Z</time></trkpt><trkpt lat="14.415607930917462" lon="121.03829117235173"><ele>20.0</ele><time>2026-04-25T04:12:47Z</time></trkpt><trkpt lat="14.415689832375364" lon="121.03825653028282"><ele>20.0</ele><time>2026-04-25T04:12:48Z</time></trkpt><trkpt lat="14.41577422706388" lon="121.03822435511637"><ele>20.0</ele><time>2026-04-25T04:12:49Z</time></trkpt><trkpt lat="14.415859658810971" lon="121.03819811702871"><ele>19.6</ele><time>2026-04-25T04:12:50Z</time></trkpt><trkpt lat="14.415952519299298" lon="121.03817059546599"><ele>19.2</ele><time>2026-04-25T04:12:51Z</time></trkpt><trkpt lat="14.416046669382778" lon="121.03814502801427"><ele>18.8</ele><time>2026-04-25T04:12:52Z</time></trkpt><trkpt lat="14.416142349377886" lon="121.03812217654273"><ele>18.4</ele><time>2026-04-25T04:12:53Z</time></trkpt><trkpt lat="14.41623983979238" lon="121.0380985394728"><ele>18.0</ele><time>2026-04-25T04:12:54Z</time></trkpt><trkpt lat="14.416336399834679" lon="121.03807745705402"><ele>18.0</ele><time>2026-04-25T04:12:55Z</time></trkpt><trkpt lat="14.41643118614307" lon="121.03806253744649"><ele>18.0</ele><time>2026-04-25T04:12:56Z</time></trkpt><trkpt lat="14.416525758956906" lon="121.03805253856723"><ele>18.0</ele><time>2026-04-25T04:12:57Z</time></trkpt><trkpt lat="14.416621273329065" lon="121.03804807615064"><ele>18.0</ele><time>2026-04-25T04:12:58Z</time></trkpt><trkpt lat="14.416717671890371" lon="121.03804749074996"><ele>18.0</ele><time>2026-04-25T04:12:59Z</time></trkpt><trkpt lat="14.416813810258416" lon="121.03805108758564"><ele>18.0</ele><time>2026-04-25T04:13:00Z</time></trkpt><trkpt lat="14.416911640639377" lon="121.03805758719373"><ele>18.0</ele><time>2026-04-25T04:13:01Z</time></trkpt><trkpt lat="14.417010512006913" lon="121.03806855431046"><ele>18.0</ele><time>2026-04-25T04:13:02Z</time></trkpt><trkpt lat="14.41710934898501" lon="121.03808260329647"><ele>18.0</ele><time>2026-04-25T04:13:03Z</time></trkpt><trkpt lat="14.417206129553046" lon="121.03809876153841"><ele>18.0</ele><time>2026-04-25T04:13:04Z</time></trkpt><trkpt lat="14.417301060765718" lon="121.03811589094693"><ele>17.6</ele><time>2026-04-25T04:13:05Z</time></trkpt><trkpt lat="14.417401555018651" lon="121.0381404129408"><ele>17.200000000000003</ele><time>2026-04-25T04:13:06Z</time></trkpt><trkpt lat="14.417496740103221" lon="121.03816562997277"><ele>16.8</ele><time>2026-04-25T04:13:07Z</time></trkpt><trkpt lat="14.417590226505848" lon="121.03819419357536"><ele>16.400000000000002</ele><time>2026-04-25T04:13:08Z</time></trkpt><trkpt lat="14.417678003779663" lon="121.03822490953948"><ele>16.0</ele><time>2026-04-25T04:13:09Z</time></trkpt><trkpt lat="14.417764517775929" lon="121.03825625919872"><ele>15.999999999999998</ele><time>2026-04-25T04:13:10Z</time></trkpt><trkpt lat="14.417848407772798" lon="121.03828713191274"><ele>16.0</ele><time>2026-04-25T04:13:11Z</time></trkpt><trkpt lat="14.417925447225313" lon="121.03831635240911"><ele>16.0</ele><time>2026-04-25T04:13:12Z</time></trkpt><trkpt lat="14.41798957399713" lon="121.03834316934952"><ele>16.0</ele><time>2026-04-25T04:13:13Z</time></trkpt><trkpt lat="14.418086888702534" lon="121.03838448945093"><ele>15.999999999999998</ele><time>2026-04-25T04:13:15Z</time></trkpt><trkpt lat="14.418149377076672" lon="121.03841626042382"><ele>16.0</ele><time>2026-04-25T04:13:17Z</time></trkpt><trkpt lat="14.41820538949153" lon="121.03845358568756"><ele>17.5</ele><time>2026-04-25T04:14:34Z</time></trkpt><trkpt lat="14.418276737686949" lon="121.0384739017724"><ele>19.0</ele><time>2026-04-25T04:14:36Z</time></trkpt><trkpt lat="14.418335887851507" lon="121.03852428295085"><ele>20.5</ele><time>2026-04-25T04:14:38Z</time></trkpt><trkpt lat="14.41842382727673" lon="121.0384333689992"><ele>22.0</ele><time>2026-04-25T04:14:39Z</time></trkpt><trkpt lat="14.418473899177329" lon="121.03839293138267"><ele>23.500000000000004</ele><time>2026-04-25T04:14:40Z</time></trkpt><trkpt lat="14.418519166130777" lon="121.0383417417039"><ele>25.0</ele><time>2026-04-25T04:14:41Z</time></trkpt><trkpt lat="14.418560012886939" lon="121.03828013863414"><ele>25.000000000000004</ele><time>2026-04-25T04:14:42Z</time></trkpt><trkpt lat="14.418600725952999" lon="121.03821032402521"><ele>25.0</ele><time>2026-04-25T04:14:43Z</time></trkpt><trkpt lat="14.418643567168893" lon="121.038136239961"><ele>25.0</ele><time>2026-04-25T04:14:44Z</time></trkpt><trkpt lat="14.418684719307835" lon="121.03805755047688"><ele>25.0</ele><time>2026-04-25T04:14:45Z</time></trkpt><trkpt lat="14.418727563460667" lon="121.03797411851808"><ele>25.000000000000004</ele><time>2026-04-25T04:14:46Z</time></trkpt><trkpt lat="14.418770587051895" lon="121.03789594533914"><ele>25.0</ele><time>2026-04-25T04:14:47Z</time></trkpt><trkpt lat="14.418812596112058" lon="121.03781951071663"><ele>25.166666666666668</ele><time>2026-04-25T04:14:48Z</time></trkpt><trkpt lat="14.418851784397798" lon="121.03774639270357"><ele>25.333333333333336</ele><time>2026-04-25T04:14:49Z</time></trkpt><trkpt lat="14.418887089407301" lon="121.03768214485312"><ele>25.5</ele><time>2026-04-25T04:14:50Z</time></trkpt><trkpt lat="14.418919492308547" lon="121.03762336989267"><ele>25.666666666666664</ele><time>2026-04-25T04:14:51Z</time></trkpt><trkpt lat="14.418976425873982" lon="121.03751854015768"><ele>25.833333333333332</ele><time>2026-04-25T04:14:53Z</time></trkpt><trkpt lat="14.419027763695107" lon="121.03742540963255"><ele>26.0</ele><time>2026-04-25T04:14:55Z</time></trkpt><trkpt lat="14.419076976929743" lon="121.03733790651252"><ele>25.999999999999996</ele><time>2026-04-25T04:14:57Z</time></trkpt><trkpt lat="14.419114821526952" lon="121.03727087733711"><ele>26.0</ele><time>2026-04-25T04:14:59Z</time></trkpt><trkpt lat="14.419150904508818" lon="121.03720259254165"><ele>26.0</ele><time>2026-04-25T04:15:03Z</time></trkpt><trkpt lat="14.4191864125679" lon="121.03714206031373"><ele>26.0</ele><time>2026-04-25T04:15:54Z</time></trkpt><trkpt lat="14.419236374907369" lon="121.0370426926846"><ele>25.999999999999996</ele><time>2026-04-25T04:15:57Z</time></trkpt><trkpt lat="14.419291534768742" lon="121.03694643534507"><ele>26.0</ele><time>2026-04-25T04:15:59Z</time></trkpt><trkpt lat="14.419339739523686" lon="121.03685724931543"><ele>26.0</ele><time>2026-04-25T04:16:01Z</time></trkpt><trkpt lat="14.41938934297199" lon="121.03677197188455"><ele>26.0</ele><time>2026-04-25T04:16:03Z</time></trkpt><trkpt lat="14.419442751278163" lon="121.03667734844741"><ele>26.0</ele><time>2026-04-25T04:16:05Z</time></trkpt><trkpt lat="14.419499832754811" lon="121.0365800347982"><ele>26.0</ele><time>2026-04-25T04:16:07Z</time></trkpt><trkpt lat="14.41955258312794" lon="121.03648767430427"><ele>26.0</ele><time>2026-04-25T04:16:09Z</time></trkpt><trkpt lat="14.419604870023296" lon="121.03639731025069"><ele>25.666666666666664</ele><time>2026-04-25T04:16:11Z</time></trkpt><trkpt lat="14.419652983845952" lon="121.0363089421849"><ele>25.333333333333332</ele><time>2026-04-25T04:16:13Z</time></trkpt><trkpt lat="14.419705297625532" lon="121.0362171276601"><ele>25.0</ele><time>2026-04-25T04:16:15Z</time></trkpt><trkpt lat="14.41974645579603" lon="121.03614474663175"><ele>24.666666666666664</ele><time>2026-04-25T04:16:17Z</time></trkpt><trkpt lat="14.419777861882638" lon="121.03607899578267"><ele>24.333333333333332</ele><time>2026-04-25T04:16:20Z</time></trkpt><trkpt lat="14.419814509215229" lon="121.03601091974168"><ele>24.0</ele><time>2026-04-25T04:16:25Z</time></trkpt><trkpt lat="14.419856639998729" lon="121.03593374073446"><ele>24.0</ele><time>2026-04-25T04:16:55Z</time></trkpt><trkpt lat="14.419888434259024" lon="121.03587352273655"><ele>24.0</ele><time>2026-04-25T04:16:57Z</time></trkpt><trkpt lat="14.419928526195847" lon="121.03579331608078"><ele>24.0</ele><time>2026-04-25T04:16:59Z</time></trkpt><trkpt lat="14.419977629472207" lon="121.03570176168905"><ele>24.0</ele><time>2026-04-25T04:17:01Z</time></trkpt><trkpt lat="14.42003046725937" lon="121.03559956318428"><ele>24.0</ele><time>2026-04-25T04:17:02.999Z</time></trkpt><trkpt lat="14.420083332114881" lon="121.0355041296267"><ele>24.166666666666668</ele><time>2026-04-25T04:17:04.999Z</time></trkpt><trkpt lat="14.420118162786112" lon="121.03544394247491"><ele>24.333333333333336</ele><time>2026-04-25T04:17:06.999Z</time></trkpt><trkpt lat="14.420182948955718" lon="121.03537578979719"><ele>24.5</ele><time>2026-04-25T04:18:37Z</time></trkpt><trkpt lat="14.420216841197849" lon="121.03531366752192"><ele>24.666666666666668</ele><time>2026-04-25T04:18:40Z</time></trkpt><trkpt lat="14.420248696773879" lon="121.03525527829302"><ele>24.833333333333336</ele><time>2026-04-25T04:18:42Z</time></trkpt><trkpt lat="14.420289829750896" lon="121.03517988479878"><ele>25.0</ele><time>2026-04-25T04:18:44Z</time></trkpt><trkpt lat="14.420334943274206" lon="121.0350981591225"><ele>25.0</ele><time>2026-04-25T04:18:46Z</time></trkpt><trkpt lat="14.420392774241616" lon="121.03499640806525"><ele>25.0</ele><time>2026-04-25T04:18:48Z</time></trkpt><trkpt lat="14.420444494731397" lon="121.03490163561182"><ele>25.0</ele><time>2026-04-25T04:18:50Z</time></trkpt><trkpt lat="14.42049093778747" lon="121.03481293493964"><ele>25.0</ele><time>2026-04-25T04:18:52Z</time></trkpt><trkpt lat="14.42054807291833" lon="121.03471555559544"><ele>25.0</ele><time>2026-04-25T04:18:54Z</time></trkpt><trkpt lat="14.42060447280931" lon="121.03461122276153"><ele>24.6</ele><time>2026-04-25T04:18:56Z</time></trkpt><trkpt lat="14.420658086361795" lon="121.03451056649949"><ele>24.2</ele><time>2026-04-25T04:18:58Z</time></trkpt><trkpt lat="14.42070681384735" lon="121.03441554860052"><ele>23.799999999999997</ele><time>2026-04-25T04:19:00Z</time></trkpt><trkpt lat="14.420745122329222" lon="121.03431312512633"><ele>23.4</ele><time>2026-04-25T04:19:02Z</time></trkpt><trkpt lat="14.420784623729373" lon="121.0342157549946"><ele>23.0</ele><time>2026-04-25T04:19:04Z</time></trkpt><trkpt lat="14.420822323934708" lon="121.03412542472387"><ele>24.4</ele><time>2026-04-25T04:19:06Z</time></trkpt><trkpt lat="14.42085759606059" lon="121.03403262363041"><ele>25.799999999999997</ele><time>2026-04-25T04:19:08Z</time></trkpt><trkpt lat="14.420890605904825" lon="121.03393320262249"><ele>27.2</ele><time>2026-04-25T04:19:09.999Z</time></trkpt><trkpt lat="14.420919233435875" lon="121.03384315049732"><ele>28.6</ele><time>2026-04-25T04:19:11.999Z</time></trkpt><trkpt lat="14.420947449209548" lon="121.03375578252069"><ele>30.0</ele><time>2026-04-25T04:19:13.999Z</time></trkpt><trkpt lat="14.420980072676878" lon="121.033647326421"><ele>30.0</ele><time>2026-04-25T04:19:15.999Z</time></trkpt><trkpt lat="14.421008383255717" lon="121.03354119678869"><ele>30.0</ele><time>2026-04-25T04:19:17.999Z</time></trkpt><trkpt lat="14.421032502792716" lon="121.03346141852184"><ele>30.0</ele><time>2026-04-25T04:19:19.999Z</time></trkpt><trkpt lat="14.421061799535838" lon="121.03337684830561"><ele>30.0</ele><time>2026-04-25T04:19:21.999Z</time></trkpt><trkpt lat="14.421104483184443" lon="121.03326312903285"><ele>30.0</ele><time>2026-04-25T04:19:23.999Z</time></trkpt><trkpt lat="14.421135487551021" lon="121.03314575015698"><ele>30.5</ele><time>2026-04-25T04:19:25.999Z</time></trkpt><trkpt lat="14.421157367365584" lon="121.03302876925544"><ele>31.0</ele><time>2026-04-25T04:19:27.999Z</time></trkpt><trkpt lat="14.42117784128601" lon="121.03293158382344"><ele>31.5</ele><time>2026-04-25T04:19:29.999Z</time></trkpt><trkpt lat="14.421195534030057" lon="121.03284432644631"><ele>32.0</ele><time>2026-04-25T04:19:31.999Z</time></trkpt><trkpt lat="14.42121512312681" lon="121.0327593763002"><ele>32.5</ele><time>2026-04-25T04:19:33.999Z</time></trkpt><trkpt lat="14.421230680072634" lon="121.03269536603574"><ele>33.0</ele><time>2026-04-25T04:19:35.999Z</time></trkpt><trkpt lat="14.421249481690047" lon="121.0326217229334"><ele>33.0</ele><time>2026-04-25T04:19:38.999Z</time></trkpt><trkpt lat="14.421276425255988" lon="121.03256057570566"><ele>33.0</ele><time>2026-04-25T04:19:49.999Z</time></trkpt><trkpt lat="14.421298759347257" lon="121.03247853057653"><ele>33.0</ele><time>2026-04-25T04:19:53.999Z</time></trkpt><trkpt lat="14.421324215308156" lon="121.03241737059749"><ele>33.0</ele><time>2026-04-25T04:19:55.999Z</time></trkpt><trkpt lat="14.421338982203748" lon="121.03230729422113"><ele>33.0</ele><time>2026-04-25T04:19:57.999Z</time></trkpt><trkpt lat="14.421361492524964" lon="121.03219590473212"><ele>33.0</ele><time>2026-04-25T04:19:59.999Z</time></trkpt><trkpt lat="14.421387225154206" lon="121.03207595137452"><ele>31.599999999999998</ele><time>2026-04-25T04:20:01.999Z</time></trkpt><trkpt lat="14.421412009334636" lon="121.03196590791153"><ele>30.199999999999996</ele><time>2026-04-25T04:20:03.999Z</time></trkpt><trkpt lat="14.421434040904781" lon="121.0318540427363"><ele>28.8</ele><time>2026-04-25T04:20:05.999Z</time></trkpt><trkpt lat="14.421451025083492" lon="121.03179073244998"><ele>27.4</ele><time>2026-04-25T04:20:06.999Z</time></trkpt><trkpt lat="14.421478509124674" lon="121.03166555738544"><ele>26.0</ele><time>2026-04-25T04:20:08.999Z</time></trkpt><trkpt lat="14.421513290291642" lon="121.0315492527586"><ele>25.999999999999996</ele><time>2026-04-25T04:20:10.999Z</time></trkpt><trkpt lat="14.42154294147769" lon="121.031457982443"><ele>26.0</ele><time>2026-04-25T04:20:12.999Z</time></trkpt><trkpt lat="14.421557632650819" lon="121.03137203988832"><ele>26.0</ele><time>2026-04-25T04:20:14.999Z</time></trkpt><trkpt lat="14.42157599241341" lon="121.0312944802754"><ele>26.0</ele><time>2026-04-25T04:20:17Z</time></trkpt><trkpt lat="14.421591275336404" lon="121.03122991856522"><ele>25.999999999999996</ele><time>2026-04-25T04:20:19Z</time></trkpt><trkpt lat="14.421607118430046" lon="121.03116298974295"><ele>26.0</ele><time>2026-04-25T04:20:22Z</time></trkpt><trkpt lat="14.421622603763074" lon="121.0310975722054"><ele>25.999999999999996</ele><time>2026-04-25T04:20:25Z</time></trkpt><trkpt lat="14.421641395318549" lon="121.0310117908958"><ele>26.0</ele><time>2026-04-25T04:20:28Z</time></trkpt><trkpt lat="14.421656233258" lon="121.03094715136324"><ele>26.0</ele><time>2026-04-25T04:20:30Z</time></trkpt><trkpt lat="14.421673890416477" lon="121.03087023029371"><ele>26.0</ele><time>2026-04-25T04:20:33Z</time></trkpt><trkpt lat="14.421699109509381" lon="121.03080711311219"><ele>25.999999999999996</ele><time>2026-04-25T04:20:41Z</time></trkpt><trkpt lat="14.421840590916382" lon="121.03082482058687"><ele>26.0</ele><time>2026-04-25T04:20:42Z</time></trkpt><trkpt lat="14.42192841870275" lon="121.03084239441651"><ele>25.999999999999996</ele><time>2026-04-25T04:20:44Z</time></trkpt><trkpt lat="14.422016778042407" lon="121.03082220877236"><ele>26.0</ele><time>2026-04-25T04:20:46Z</time></trkpt><trkpt lat="14.422107379597094" lon="121.03079224375"><ele>26.0</ele><time>2026-04-25T04:20:48Z</time></trkpt><trkpt lat="14.422197490317243" lon="121.03077224229904"><ele>26.0</ele><time>2026-04-25T04:20:50Z</time></trkpt><trkpt lat="14.422271759653338" lon="121.03076773540282"><ele>25.999999999999996</ele><time>2026-04-25T04:20:52Z</time></trkpt><trkpt lat="14.422337582851032" lon="121.03076552785058"><ele>26.0</ele><time>2026-04-25T04:20:55Z</time></trkpt><trkpt lat="14.422404177541834" lon="121.030770072981"><ele>26.75</ele><time>2026-04-25T04:20:59Z</time></trkpt><trkpt lat="14.422472630803549" lon="121.0307323420387"><ele>27.5</ele><time>2026-04-25T04:24:29Z</time></trkpt><trkpt lat="14.42253436019456" lon="121.03071174116924"><ele>28.25</ele><time>2026-04-25T04:24:59Z</time></trkpt><trkpt lat="14.422632390675476" lon="121.03043622581808"><ele>29.0</ele><time>2026-04-25T04:25:14Z</time></trkpt><trkpt lat="14.422664730985424" lon="121.03037529750263"><ele>29.0</ele><time>2026-04-25T04:25:19Z</time></trkpt><trkpt lat="14.42268229979016" lon="121.0303097942002"><ele>29.0</ele><time>2026-04-25T04:25:32Z</time></trkpt><trkpt lat="14.422685456573987" lon="121.03024266947101"><ele>29.0</ele><time>2026-04-25T04:25:46Z</time></trkpt><trkpt lat="14.422653356148523" lon="121.03033113503986"><ele>29.0</ele><time>2026-04-25T04:27:34Z</time></trkpt><trkpt lat="14.422430265490666" lon="121.03010181192917"><ele>29.0</ele><time>2026-04-25T04:27:41Z</time></trkpt><trkpt lat="14.422242157979493" lon="121.03055207833917"><ele>28.999999999999996</ele><time>2026-04-25T04:28:54Z</time></trkpt><trkpt lat="14.422352164942287" lon="121.03054440652254"><ele>29.0</ele><time>2026-04-25T04:29:01Z</time></trkpt><trkpt lat="14.422405848828042" lon="121.03049141958788"><ele>29.0</ele><time>2026-04-25T04:29:11Z</time></trkpt><trkpt lat="14.422425457050668" lon="121.0304215258502"><ele>29.0</ele><time>2026-04-25T04:29:16Z</time></trkpt><trkpt lat="14.422432818184319" lon="121.03032705514941"><ele>28.999999999999996</ele><time>2026-04-25T04:29:23Z</time></trkpt><trkpt lat="14.422454886756876" lon="121.03025721198962"><ele>29.0</ele><time>2026-04-25T04:29:27Z</time></trkpt><trkpt lat="14.42237511701682" lon="121.03020253390227"><ele>29.0</ele><time>2026-04-25T04:29:29Z</time></trkpt><trkpt lat="14.422385581118697" lon="121.03012414130124"><ele>29.0</ele><time>2026-04-25T04:31:16.001Z</time></trkpt><trkpt lat="14.423269097558295" lon="121.02940146524215"><ele>30.666666666666664</ele><time>2026-04-25T04:34:59.001Z</time></trkpt><trkpt lat="14.423154840722027" lon="121.02941637778713"><ele>32.333333333333336</ele><time>2026-04-25T04:35:26Z</time></trkpt><trkpt lat="14.423445341185753" lon="121.02930508936063"><ele>34.0</ele><time>2026-04-25T04:36:35.054Z</time></trkpt><trkpt lat="14.423587241803865" lon="121.02914594239111"><ele>34.0</ele><time>2026-04-25T04:36:37.05Z</time></trkpt><trkpt lat="14.423640665091776" lon="121.02906318517232"><ele>34.0</ele><time>2026-04-25T04:36:38.051Z</time></trkpt><trkpt lat="14.42374322542079" lon="121.02893035971358"><ele>34.0</ele><time>2026-04-25T04:36:39.048Z</time></trkpt><trkpt lat="14.423714235537568" lon="121.02899647194178"><ele>34.0</ele><time>2026-04-25T04:36:40.047Z</time></trkpt><trkpt lat="14.423623829553716" lon="121.02908210060002"><ele>34.0</ele><time>2026-04-25T04:36:42.042Z</time></trkpt><trkpt lat="14.423469880093686" lon="121.02916075643385"><ele>34.0</ele><time>2026-04-25T04:36:45.033Z</time></trkpt><trkpt lat="14.424121719228758" lon="121.02863092834028"><ele>34.0</ele><time>2026-04-25T04:37:53.014Z</time></trkpt><trkpt lat="14.424306968222494" lon="121.02853752546547"><ele>34.0</ele><time>2026-04-25T04:38:13.015Z</time></trkpt><trkpt lat="14.424325088915671" lon="121.02846575725009"><ele>34.0</ele><time>2026-04-25T04:38:17.001Z</time></trkpt><trkpt lat="14.424300836125546" lon="121.02840472805144"><ele>34.0</ele><time>2026-04-25T04:38:34.001Z</time></trkpt><trkpt lat="14.42439532541202" lon="121.02839163537743"><ele>34.0</ele><time>2026-04-25T04:38:56.001Z</time></trkpt><trkpt lat="14.424400852307391" lon="121.02831729120786"><ele>34.14285714285714</ele><time>2026-04-25T04:39:07.001Z</time></trkpt><trkpt lat="14.424414527457786" lon="121.02825112572474"><ele>34.285714285714285</ele><time>2026-04-25T04:39:13.001Z</time></trkpt><trkpt lat="14.424428464055895" lon="121.02818137934739"><ele>34.42857142857143</ele><time>2026-04-25T04:39:19.001Z</time></trkpt><trkpt lat="14.42445937949489" lon="121.0281246612381"><ele>34.57142857142857</ele><time>2026-04-25T04:39:24.001Z</time></trkpt><trkpt lat="14.424493019574077" lon="121.02805696607325"><ele>34.714285714285715</ele><time>2026-04-25T04:39:30.001Z</time></trkpt><trkpt lat="14.424543471877177" lon="121.02799940561769"><ele>34.857142857142854</ele><time>2026-04-25T04:39:37.001Z</time></trkpt><trkpt lat="14.424592248493902" lon="121.02794870863184"><ele>35.0</ele><time>2026-04-25T04:39:44.001Z</time></trkpt><trkpt lat="14.424603131649905" lon="121.02788144487789"><ele>35.0</ele><time>2026-04-25T04:40:00.001Z</time></trkpt><trkpt lat="14.424572045235795" lon="121.02780726394163"><ele>35.0</ele><time>2026-04-25T04:40:05.001Z</time></trkpt><trkpt lat="14.4245559262177" lon="121.02773459181971"><ele>35.0</ele><time>2026-04-25T04:40:10.001Z</time></trkpt><trkpt lat="14.42454659746849" lon="121.02765875485147"><ele>35.0</ele><time>2026-04-25T04:40:16.001Z</time></trkpt><trkpt lat="14.424505333792466" lon="121.02760690663908"><ele>35.0</ele><time>2026-04-25T04:40:26.001Z</time></trkpt><trkpt lat="14.424441730907658" lon="121.02758603404695"><ele>35.0</ele><time>2026-04-25T04:40:33.001Z</time></trkpt><trkpt lat="14.424384773576383" lon="121.0275465067102"><ele>35.0</ele><time>2026-04-25T04:40:39.001Z</time></trkpt><trkpt lat="14.424343045734048" lon="121.02749513351282"><ele>34.57142857142857</ele><time>2026-04-25T04:40:49.001Z</time></trkpt><trkpt lat="14.424328957726882" lon="121.02742619767041"><ele>34.14285714285714</ele><time>2026-04-25T04:40:55.001Z</time></trkpt><trkpt lat="14.424289184654134" lon="121.02737147941703"><ele>33.714285714285715</ele><time>2026-04-25T04:41:04.001Z</time></trkpt><trkpt lat="14.424226791218324" lon="121.0273357120236"><ele>33.285714285714285</ele><time>2026-04-25T04:41:11.001Z</time></trkpt><trkpt lat="14.424169640501109" lon="121.02730160397883"><ele>32.857142857142854</ele><time>2026-04-25T04:41:17.001Z</time></trkpt><trkpt lat="14.424108217294485" lon="121.02728446457755"><ele>32.42857142857143</ele><time>2026-04-25T04:41:23.001Z</time></trkpt><trkpt lat="14.424039655765283" lon="121.02724507912293"><ele>32.0</ele><time>2026-04-25T04:41:30.001Z</time></trkpt><trkpt lat="14.42397673465158" lon="121.02724198385282"><ele>32.0</ele><time>2026-04-25T04:41:35.001Z</time></trkpt><trkpt lat="14.423916258182446" lon="121.02721866935259"><ele>31.999999999999996</ele><time>2026-04-25T04:41:40.001Z</time></trkpt><trkpt lat="14.423854459918658" lon="121.02719972402905"><ele>32.0</ele><time>2026-04-25T04:41:47.001Z</time></trkpt><trkpt lat="14.423793420504689" lon="121.02717500457202"><ele>32.0</ele><time>2026-04-25T04:41:53.001Z</time></trkpt><trkpt lat="14.423725699548474" lon="121.02715427191103"><ele>31.999999999999996</ele><time>2026-04-25T04:41:58.001Z</time></trkpt><trkpt lat="14.423664258601839" lon="121.02712910477085"><ele>32.0</ele><time>2026-04-25T04:42:03.001Z</time></trkpt><trkpt lat="14.423612078976543" lon="121.02708951516658"><ele>32.0</ele><time>2026-04-25T04:42:11.001Z</time></trkpt><trkpt lat="14.423563964018168" lon="121.02688828508751"><ele>32.5</ele><time>2026-04-25T04:45:18.001Z</time></trkpt><trkpt lat="14.42354765336384" lon="121.02678417226453"><ele>33.0</ele><time>2026-04-25T04:45:20.001Z</time></trkpt><trkpt lat="14.423609669955962" lon="121.02666773877861"><ele>33.5</ele><time>2026-04-25T04:45:23.07Z</time></trkpt><trkpt lat="14.423619850819032" lon="121.02659111958192"><ele>34.0</ele><time>2026-04-25T04:45:25.068Z</time></trkpt><trkpt lat="14.423433987761666" lon="121.0269049382545"><ele>34.0</ele><time>2026-04-25T04:45:27.067Z</time></trkpt><trkpt lat="14.423618953893856" lon="121.02691886727291"><ele>34.0</ele><time>2026-04-25T04:46:21.017Z</time></trkpt><trkpt lat="14.42369527834196" lon="121.02682009411976"><ele>34.0</ele><time>2026-04-25T04:46:46Z</time></trkpt><trkpt lat="14.423708633075513" lon="121.02674396771945"><ele>34.0</ele><time>2026-04-25T04:47:14Z</time></trkpt><trkpt lat="14.423726593664735" lon="121.0266697028723"><ele>34.285714285714285</ele><time>2026-04-25T04:47:19Z</time></trkpt><trkpt lat="14.423749437683126" lon="121.02659798710994"><ele>34.57142857142857</ele><time>2026-04-25T04:47:26Z</time></trkpt><trkpt lat="14.42375509407718" lon="121.02652837506172"><ele>34.85714285714286</ele><time>2026-04-25T04:47:32Z</time></trkpt><trkpt lat="14.423784200348713" lon="121.02646528197332"><ele>35.14285714285714</ele><time>2026-04-25T04:47:39Z</time></trkpt><trkpt lat="14.423809715694938" lon="121.02639349478996"><ele>35.42857142857143</ele><time>2026-04-25T04:47:46Z</time></trkpt><trkpt lat="14.42383703759797" lon="121.0263318580344"><ele>35.714285714285715</ele><time>2026-04-25T04:47:51Z</time></trkpt><trkpt lat="14.423867204829705" lon="121.02627086667157"><ele>36.0</ele><time>2026-04-25T04:47:56Z</time></trkpt><trkpt lat="14.42389429652858" lon="121.02620911611778"><ele>37.0</ele><time>2026-04-25T04:48:07Z</time></trkpt><trkpt lat="14.423927752099948" lon="121.02613308161642"><ele>38.0</ele><time>2026-04-25T04:48:13Z</time></trkpt><trkpt lat="14.424097980389558" lon="121.02616107809732"><ele>39.0</ele><time>2026-04-25T04:48:55.062Z</time></trkpt><trkpt lat="14.423912374689428" lon="121.02638459457243"><ele>39.0</ele><time>2026-04-25T04:49:14.018Z</time></trkpt><trkpt lat="14.424228757158714" lon="121.02655051415705"><ele>39.0</ele><time>2026-04-25T05:59:23.998Z</time></trkpt><trkpt lat="14.424241866077972" lon="121.02662717374719"><ele>39.0</ele><time>2026-04-25T05:59:27.999Z</time></trkpt><trkpt lat="14.424254572321527" lon="121.0268183269631"><ele>38.0</ele><time>2026-04-25T05:59:28.999Z</time></trkpt><trkpt lat="14.424327476913797" lon="121.02688736779902"><ele>37.0</ele><time>2026-04-25T05:59:39.999Z</time></trkpt><trkpt lat="14.424380658468268" lon="121.02693433910116"><ele>36.0</ele><time>2026-04-25T05:59:49Z</time></trkpt><trkpt lat="14.424439905906082" lon="121.0269604771334"><ele>35.0</ele><time>2026-04-25T05:59:58Z</time></trkpt><trkpt lat="14.424480594600109" lon="121.02701426445388"><ele>34.0</ele><time>2026-04-25T06:00:07Z</time></trkpt><trkpt lat="14.424515877146296" lon="121.02707531376268"><ele>33.0</ele><time>2026-04-25T06:00:15Z</time></trkpt><trkpt lat="14.424586583857753" lon="121.02709941848187"><ele>32.0</ele><time>2026-04-25T06:00:20Z</time></trkpt><trkpt lat="14.424640797528372" lon="121.0271417930886"><ele>31.999999999999996</ele><time>2026-04-25T06:00:26Z</time></trkpt><trkpt lat="14.424578226197841" lon="121.02715231327969"><ele>32.0</ele><time>2026-04-25T06:00:52Z</time></trkpt><trkpt lat="14.4245858594208" lon="121.02725254443952"><ele>32.0</ele><time>2026-04-25T06:00:58Z</time></trkpt><trkpt lat="14.424507579797924" lon="121.02727573188308"><ele>32.0</ele><time>2026-04-25T06:01:07Z</time></trkpt><trkpt lat="14.42445512255577" lon="121.02731463182016"><ele>31.999999999999996</ele><time>2026-04-25T06:01:11Z</time></trkpt><trkpt lat="14.424417416592272" lon="121.02738580299697"><ele>32.0</ele><time>2026-04-25T06:01:15Z</time></trkpt><trkpt lat="14.42439215981766" lon="121.02745287453615"><ele>32.42857142857143</ele><time>2026-04-25T06:01:21Z</time></trkpt><trkpt lat="14.424385121955849" lon="121.02752405857547"><ele>32.857142857142854</ele><time>2026-04-25T06:01:26Z</time></trkpt><trkpt lat="14.424445665773113" lon="121.027556815218"><ele>33.285714285714285</ele><time>2026-04-25T06:01:32Z</time></trkpt><trkpt lat="14.424511027827153" lon="121.02758690328712"><ele>33.714285714285715</ele><time>2026-04-25T06:01:41Z</time></trkpt><trkpt lat="14.424566571611814" lon="121.02763427270797"><ele>34.14285714285714</ele><time>2026-04-25T06:01:46Z</time></trkpt><trkpt lat="14.424565467404197" lon="121.0277048835551"><ele>34.57142857142857</ele><time>2026-04-25T06:01:53Z</time></trkpt><trkpt lat="14.424571793932557" lon="121.02778112258075"><ele>35.0</ele><time>2026-04-25T06:01:59Z</time></trkpt><trkpt lat="14.424611840143909" lon="121.02784084534407"><ele>35.0</ele><time>2026-04-25T06:02:06Z</time></trkpt><trkpt lat="14.424636553803373" lon="121.0279138360907"><ele>35.0</ele><time>2026-04-25T06:02:14Z</time></trkpt><trkpt lat="14.424624553892183" lon="121.02797799152029"><ele>35.0</ele><time>2026-04-25T06:02:21Z</time></trkpt><trkpt lat="14.42455875273465" lon="121.027991381397"><ele>35.0</ele><time>2026-04-25T06:02:29Z</time></trkpt><trkpt lat="14.424518338528154" lon="121.02804237832189"><ele>35.0</ele><time>2026-04-25T06:02:35Z</time></trkpt><trkpt lat="14.424479524597881" lon="121.02809589528452"><ele>35.0</ele><time>2026-04-25T06:02:43Z</time></trkpt><trkpt lat="14.424455418975302" lon="121.02816135677544"><ele>35.0</ele><time>2026-04-25T06:02:48Z</time></trkpt><trkpt lat="14.424434602599023" lon="121.02822884438625"><ele>35.0</ele><time>2026-04-25T06:02:54Z</time></trkpt><trkpt lat="14.424416074996868" lon="121.02829158963696"><ele>35.0</ele><time>2026-04-25T06:03:02Z</time></trkpt><trkpt lat="14.424355439944721" lon="121.02831763629035"><ele>35.0</ele><time>2026-04-25T06:03:24Z</time></trkpt><trkpt lat="14.424345833993865" lon="121.02839136653695"><ele>35.0</ele><time>2026-04-25T06:03:32Z</time></trkpt><trkpt lat="14.424370015343206" lon="121.02845376534987"><ele>35.0</ele><time>2026-04-25T06:03:50Z</time></trkpt><trkpt lat="14.424305997563769" lon="121.02846730035387"><ele>35.0</ele><time>2026-04-25T06:04:13.081Z</time></trkpt><trkpt lat="14.424099864880251" lon="121.02846554987019"><ele>34.5</ele><time>2026-04-25T06:04:15.085Z</time></trkpt><trkpt lat="14.423900265334314" lon="121.02886806439597"><ele>34.0</ele><time>2026-04-25T06:04:49Z</time></trkpt><trkpt lat="14.422275914933621" lon="121.0296771494922"><ele>32.75</ele><time>2026-04-25T06:58:06.001Z</time></trkpt><trkpt lat="14.422243386528798" lon="121.02975379906512"><ele>31.5</ele><time>2026-04-25T06:58:08.001Z</time></trkpt><trkpt lat="14.422118498836841" lon="121.02985874291834"><ele>30.25</ele><time>2026-04-25T06:58:09.001Z</time></trkpt><trkpt lat="14.4220254281056" lon="121.02989044904491"><ele>29.0</ele><time>2026-04-25T06:58:09.995Z</time></trkpt><trkpt lat="14.422290939251157" lon="121.02993131426639"><ele>29.000000000000004</ele><time>2026-04-25T06:58:21.997Z</time></trkpt><trkpt lat="14.42223204246613" lon="121.029987699111"><ele>29.0</ele><time>2026-04-25T06:58:37.999Z</time></trkpt><trkpt lat="14.422301764627223" lon="121.03002050701669"><ele>29.000000000000004</ele><time>2026-04-25T06:58:53.999Z</time></trkpt><trkpt lat="14.422367828723335" lon="121.03003723272853"><ele>29.000000000000004</ele><time>2026-04-25T06:59:02Z</time></trkpt><trkpt lat="14.42233496658916" lon="121.03009280311228"><ele>29.0</ele><time>2026-04-25T07:00:17.001Z</time></trkpt><trkpt lat="14.422271445577787" lon="121.03006773772954"><ele>29.000000000000004</ele><time>2026-04-25T07:00:28.001Z</time></trkpt><trkpt lat="14.422225530994666" lon="121.03002256073368"><ele>29.000000000000004</ele><time>2026-04-25T07:00:35.001Z</time></trkpt><trkpt lat="14.42218158438299" lon="121.02997166342469"><ele>28.999999999999996</ele><time>2026-04-25T07:00:43.001Z</time></trkpt><trkpt lat="14.422193513526594" lon="121.02990325203797"><ele>29.0</ele><time>2026-04-25T07:00:50.001Z</time></trkpt><trkpt lat="14.422213856991108" lon="121.02982957388164"><ele>29.0</ele><time>2026-04-25T07:00:59.001Z</time></trkpt><trkpt lat="14.422234520522297" lon="121.02975631395987"><ele>29.0</ele><time>2026-04-25T07:01:04.001Z</time></trkpt><trkpt lat="14.42226737510329" lon="121.02968183882052"><ele>28.999999999999996</ele><time>2026-04-25T07:01:08.001Z</time></trkpt><trkpt lat="14.42232670148195" lon="121.02964544639734"><ele>29.0</ele><time>2026-04-25T07:01:10.001Z</time></trkpt><trkpt lat="14.422521904011147" lon="121.02966957782118"><ele>28.999999999999996</ele><time>2026-04-25T07:06:16.001Z</time></trkpt><trkpt lat="14.42248917667969" lon="121.02976933283612"><ele>29.0</ele><time>2026-04-25T07:06:17.001Z</time></trkpt><trkpt lat="14.422544666215659" lon="121.02972615751133"><ele>29.0</ele><time>2026-04-25T07:06:25.001Z</time></trkpt><trkpt lat="14.42260625047991" lon="121.02975109933217"><ele>29.0</ele><time>2026-04-25T07:06:32.001Z</time></trkpt><trkpt lat="14.422623232697704" lon="121.029823165937"><ele>28.999999999999996</ele><time>2026-04-25T07:06:39Z</time></trkpt><trkpt lat="14.422622130894318" lon="121.02989858663024"><ele>29.0</ele><time>2026-04-25T07:06:46Z</time></trkpt><trkpt lat="14.422620012128416" lon="121.02996884135209"><ele>29.0</ele><time>2026-04-25T07:06:51Z</time></trkpt><trkpt lat="14.422808891574016" lon="121.02992114398154"><ele>29.0</ele><time>2026-04-25T07:07:06Z</time></trkpt><trkpt lat="14.422855163777598" lon="121.02987435058134"><ele>29.0</ele><time>2026-04-25T07:07:07Z</time></trkpt><trkpt lat="14.42294868401173" lon="121.02986080808303"><ele>29.0</ele><time>2026-04-25T07:07:20Z</time></trkpt><trkpt lat="14.423002587848092" lon="121.02971309418461"><ele>29.71428571428572</ele><time>2026-04-25T07:07:21Z</time></trkpt><trkpt lat="14.423072121375357" lon="121.02966987005964"><ele>30.42857142857143</ele><time>2026-04-25T07:07:23.001Z</time></trkpt><trkpt lat="14.423033442907238" lon="121.0296148763362"><ele>31.142857142857142</ele><time>2026-04-25T07:07:24.001Z</time></trkpt><trkpt lat="14.423094369104778" lon="121.02958535903444"><ele>31.857142857142858</ele><time>2026-04-25T07:07:25.001Z</time></trkpt><trkpt lat="14.423128234192001" lon="121.0295209533266"><ele>32.57142857142857</ele><time>2026-04-25T07:07:28.001Z</time></trkpt><trkpt lat="14.423107148236992" lon="121.02945384886101"><ele>33.285714285714285</ele><time>2026-04-25T07:07:37.001Z</time></trkpt><trkpt lat="14.423145248608893" lon="121.02940159858203"><ele>34.0</ele><time>2026-04-25T07:08:04.001Z</time></trkpt><trkpt lat="14.423253870586265" lon="121.0293218569133"><ele>34.0</ele><time>2026-04-25T07:08:24.001Z</time></trkpt><trkpt lat="14.423652435462346" lon="121.02934820851694"><ele>34.0</ele><time>2026-04-25T07:08:58.075Z</time></trkpt><trkpt lat="14.424068445887883" lon="121.02857568825587"><ele>34.0</ele><time>2026-04-25T07:10:07.01Z</time></trkpt><trkpt lat="14.42403004489556" lon="121.02849410222134"><ele>34.0</ele><time>2026-04-25T07:10:08.013Z</time></trkpt><trkpt lat="14.424177009089801" lon="121.02839385513514"><ele>34.0</ele><time>2026-04-25T07:10:29.016Z</time></trkpt><trkpt lat="14.424236914597602" lon="121.02836839840367"><ele>34.0</ele><time>2026-04-25T07:10:32.016Z</time></trkpt><trkpt lat="14.424372723038204" lon="121.02835963181816"><ele>34.14285714285714</ele><time>2026-04-25T07:11:08.001Z</time></trkpt><trkpt lat="14.42439626386668" lon="121.02829648948524"><ele>34.285714285714285</ele><time>2026-04-25T07:11:17Z</time></trkpt><trkpt lat="14.424420596797686" lon="121.02822703398381"><ele>34.42857142857143</ele><time>2026-04-25T07:11:25Z</time></trkpt><trkpt lat="14.424450267862467" lon="121.0281602848456"><ele>34.57142857142857</ele><time>2026-04-25T07:11:31Z</time></trkpt><trkpt lat="14.424477905817504" lon="121.02809160233939"><ele>34.714285714285715</ele><time>2026-04-25T07:11:37Z</time></trkpt><trkpt lat="14.424510964498579" lon="121.02802748592414"><ele>34.857142857142854</ele><time>2026-04-25T07:11:43Z</time></trkpt><trkpt lat="14.424547484570189" lon="121.02796625026383"><ele>35.0</ele><time>2026-04-25T07:11:48Z</time></trkpt><trkpt lat="14.424592370308444" lon="121.0279022534248"><ele>35.0</ele><time>2026-04-25T07:11:53Z</time></trkpt><trkpt lat="14.424612581589761" lon="121.02783302794718"><ele>35.0</ele><time>2026-04-25T07:12:00Z</time></trkpt><trkpt lat="14.42462628433489" lon="121.02776517920731"><ele>35.0</ele><time>2026-04-25T07:12:06.001Z</time></trkpt><trkpt lat="14.424671759604538" lon="121.02772019178472"><ele>35.0</ele><time>2026-04-25T07:12:11.001Z</time></trkpt><trkpt lat="14.424909135826036" lon="121.02770312261555"><ele>35.0</ele><time>2026-04-25T07:12:26.001Z</time></trkpt><trkpt lat="14.424918384512292" lon="121.02763817368404"><ele>35.57142857142857</ele><time>2026-04-25T07:12:42.001Z</time></trkpt><trkpt lat="14.424951873256642" lon="121.02757613428405"><ele>36.14285714285714</ele><time>2026-04-25T07:12:48.001Z</time></trkpt><trkpt lat="14.424999895357315" lon="121.02751764793912"><ele>36.714285714285715</ele><time>2026-04-25T07:12:53.001Z</time></trkpt><trkpt lat="14.424993873625453" lon="121.02744204220491"><ele>37.285714285714285</ele><time>2026-04-25T07:12:59.001Z</time></trkpt><trkpt lat="14.424965737625353" lon="121.0273799882507"><ele>37.857142857142854</ele><time>2026-04-25T07:13:04.001Z</time></trkpt><trkpt lat="14.424927562588751" lon="121.0273227811925"><ele>38.42857142857143</ele><time>2026-04-25T07:13:09.001Z</time></trkpt><trkpt lat="14.42490831121075" lon="121.02725141080856"><ele>39.0</ele><time>2026-04-25T07:13:14.001Z</time></trkpt><trkpt lat="14.4248831425762" lon="121.0271850662721"><ele>39.142857142857146</ele><time>2026-04-25T07:13:20Z</time></trkpt><trkpt lat="14.424860064412481" lon="121.02711739636958"><ele>39.285714285714285</ele><time>2026-04-25T07:13:25Z</time></trkpt><trkpt lat="14.424826102443498" lon="121.02705344849755"><ele>39.42857142857143</ele><time>2026-04-25T07:13:31Z</time></trkpt><trkpt lat="14.42480132088505" lon="121.0269846609537"><ele>39.57142857142857</ele><time>2026-04-25T07:13:36Z</time></trkpt><trkpt lat="14.424768473719716" lon="121.02692427831956"><ele>39.714285714285715</ele><time>2026-04-25T07:13:42Z</time></trkpt><trkpt lat="14.424726776705219" lon="121.02687222460813"><ele>39.857142857142854</ele><time>2026-04-25T07:13:48Z</time></trkpt><trkpt lat="14.424694692766499" lon="121.0268087173595"><ele>40.0</ele><time>2026-04-25T07:13:55.001Z</time></trkpt><trkpt lat="14.424639274637949" lon="121.02676052848014"><ele>39.8</ele><time>2026-04-25T07:14:01.001Z</time></trkpt><trkpt lat="14.424589774593757" lon="121.02671964041606"><ele>39.6</ele><time>2026-04-25T07:14:07.001Z</time></trkpt><trkpt lat="14.42454147159119" lon="121.0266676234697"><ele>39.4</ele><time>2026-04-25T07:14:14.001Z</time></trkpt><trkpt lat="14.424493634845637" lon="121.02660972024681"><ele>39.2</ele><time>2026-04-25T07:14:20.001Z</time></trkpt><trkpt lat="14.42444514156785" lon="121.02655928473706"><ele>39.0</ele><time>2026-04-25T07:14:28.001Z</time></trkpt><trkpt lat="14.42406177495725" lon="121.02626493488397"><ele>39.0</ele><time>2026-04-25T07:15:56.027Z</time></trkpt><trkpt lat="14.423877600093963" lon="121.02626671807995"><ele>39.0</ele><time>2026-04-25T07:25:37.909Z</time></trkpt><trkpt lat="14.424555784640399" lon="121.02670872607973"><ele>39.166666666666664</ele><time>2026-04-25T10:05:23.687Z</time></trkpt><trkpt lat="14.424732481930828" lon="121.02672113140468"><ele>39.333333333333336</ele><time>2026-04-25T10:05:33.001Z</time></trkpt><trkpt lat="14.424766323797456" lon="121.02677739477772"><ele>39.5</ele><time>2026-04-25T10:05:39.001Z</time></trkpt><trkpt lat="14.424800725165744" lon="121.02684535765694"><ele>39.66666666666667</ele><time>2026-04-25T10:05:44.001Z</time></trkpt><trkpt lat="14.4248432596718" lon="121.02689529858688"><ele>39.833333333333336</ele><time>2026-04-25T10:05:51.001Z</time></trkpt><trkpt lat="14.424884832331067" lon="121.02695117665242"><ele>40.0</ele><time>2026-04-25T10:06:01.001Z</time></trkpt><trkpt lat="14.424911543130726" lon="121.02701769127212"><ele>40.0</ele><time>2026-04-25T10:06:08.001Z</time></trkpt><trkpt lat="14.424938890403572" lon="121.02708722068799"><ele>40.0</ele><time>2026-04-25T10:06:14.001Z</time></trkpt><trkpt lat="14.424988157173669" lon="121.0271339656242"><ele>40.0</ele><time>2026-04-25T10:06:19.001Z</time></trkpt><trkpt lat="14.425034928034968" lon="121.02719916385774"><ele>40.0</ele><time>2026-04-25T10:06:25.001Z</time></trkpt><trkpt lat="14.425081125036824" lon="121.02726065388066"><ele>40.0</ele><time>2026-04-25T10:06:30.001Z</time></trkpt><trkpt lat="14.42513061014911" lon="121.02732062165254"><ele>40.0</ele><time>2026-04-25T10:06:35.001Z</time></trkpt><trkpt lat="14.425199097992655" lon="121.02735524685244"><ele>40.0</ele><time>2026-04-25T10:06:40.001Z</time></trkpt><trkpt lat="14.42525082242397" lon="121.02741173176295"><ele>40.0</ele><time>2026-04-25T10:06:45.001Z</time></trkpt><trkpt lat="14.425304147462517" lon="121.02746928951706"><ele>40.0</ele><time>2026-04-25T10:06:51.001Z</time></trkpt><trkpt lat="14.425232613153725" lon="121.02750553776926"><ele>40.0</ele><time>2026-04-25T10:07:02.001Z</time></trkpt><trkpt lat="14.425194500022819" lon="121.02756532207457"><ele>40.0</ele><time>2026-04-25T10:07:08.001Z</time></trkpt><trkpt lat="14.425150040729484" lon="121.02762040811623"><ele>40.0</ele><time>2026-04-25T10:07:12.001Z</time></trkpt><trkpt lat="14.425114753604397" lon="121.0276754246632"><ele>40.0</ele><time>2026-04-25T10:07:19.001Z</time></trkpt><trkpt lat="14.425082913577791" lon="121.02774186175066"><ele>40.0</ele><time>2026-04-25T10:07:26.001Z</time></trkpt><trkpt lat="14.425075564648182" lon="121.02781871898212"><ele>39.857142857142854</ele><time>2026-04-25T10:07:31.001Z</time></trkpt><trkpt lat="14.425053985939785" lon="121.02788955414937"><ele>39.714285714285715</ele><time>2026-04-25T10:07:35.001Z</time></trkpt><trkpt lat="14.425020241191953" lon="121.02794481067784"><ele>39.57142857142857</ele><time>2026-04-25T10:07:40.001Z</time></trkpt><trkpt lat="14.424970951586257" lon="121.02799191550515"><ele>39.42857142857143</ele><time>2026-04-25T10:07:45.001Z</time></trkpt><trkpt lat="14.424920258910667" lon="121.0280351586812"><ele>39.285714285714285</ele><time>2026-04-25T10:07:53.001Z</time></trkpt><trkpt lat="14.424854577287908" lon="121.0280520882711"><ele>39.142857142857146</ele><time>2026-04-25T10:08:06.001Z</time></trkpt><trkpt lat="14.424796187925612" lon="121.02807780620942"><ele>39.0</ele><time>2026-04-25T10:08:10.001Z</time></trkpt><trkpt lat="14.424725671580125" lon="121.02807519894736"><ele>39.0</ele><time>2026-04-25T10:08:16.001Z</time></trkpt><trkpt lat="14.42466177537333" lon="121.02806899568216"><ele>39.0</ele><time>2026-04-25T10:08:27.001Z</time></trkpt><trkpt lat="14.424598134945004" lon="121.02808890462117"><ele>39.0</ele><time>2026-04-25T10:08:36.001Z</time></trkpt><trkpt lat="14.424541045471294" lon="121.02813221805717"><ele>39.0</ele><time>2026-04-25T10:08:47.001Z</time></trkpt><trkpt lat="14.424513520548835" lon="121.02819587951427"><ele>39.0</ele><time>2026-04-25T10:08:55.001Z</time></trkpt><trkpt lat="14.424481240528136" lon="121.02826478119592"><ele>39.0</ele><time>2026-04-25T10:09:01.001Z</time></trkpt><trkpt lat="14.424452706941507" lon="121.02832754990747"><ele>39.0</ele><time>2026-04-25T10:09:07.001Z</time></trkpt><trkpt lat="14.424370150383288" lon="121.028358242925"><ele>36.5</ele><time>2026-04-25T10:10:21.001Z</time></trkpt><trkpt lat="14.424208512261623" lon="121.02844411517"><ele>34.0</ele><time>2026-04-25T10:10:24.001Z</time></trkpt><trkpt lat="14.423278978604296" lon="121.02954998699884"><ele>34.0</ele><time>2026-04-25T10:12:57.016Z</time></trkpt><trkpt lat="14.42320677535787" lon="121.02945617553002"><ele>34.0</ele><time>2026-04-25T10:13:01.001Z</time></trkpt><trkpt lat="14.423127087728224" lon="121.02939008286243"><ele>34.0</ele><time>2026-04-25T10:13:13.001Z</time></trkpt><trkpt lat="14.423063619505825" lon="121.02938048685272"><ele>34.0</ele><time>2026-04-25T10:13:27Z</time></trkpt><trkpt lat="14.423002264316356" lon="121.02935045090291"><ele>34.0</ele><time>2026-04-25T10:13:33Z</time></trkpt><trkpt lat="14.422924488065362" lon="121.02931913889577"><ele>34.0</ele><time>2026-04-25T10:13:40Z</time></trkpt><trkpt lat="14.422877871700132" lon="121.02926573491156"><ele>33.285714285714285</ele><time>2026-04-25T10:13:46Z</time></trkpt><trkpt lat="14.422820851191302" lon="121.02921266454865"><ele>32.57142857142857</ele><time>2026-04-25T10:13:52Z</time></trkpt><trkpt lat="14.422756213634264" lon="121.02920929451977"><ele>31.857142857142858</ele><time>2026-04-25T10:13:57Z</time></trkpt><trkpt lat="14.42268830362909" lon="121.02920105879252"><ele>31.142857142857142</ele><time>2026-04-25T10:14:03Z</time></trkpt><trkpt lat="14.422623057396722" lon="121.02919790749358"><ele>30.42857142857143</ele><time>2026-04-25T10:14:10Z</time></trkpt><trkpt lat="14.422557725276059" lon="121.02918418103336"><ele>29.71428571428572</ele><time>2026-04-25T10:14:18.001Z</time></trkpt><trkpt lat="14.422504463819049" lon="121.02923041318304"><ele>29.000000000000004</ele><time>2026-04-25T10:14:23.001Z</time></trkpt><trkpt lat="14.422478439057405" lon="121.02929466304138"><ele>29.000000000000004</ele><time>2026-04-25T10:14:29.001Z</time></trkpt><trkpt lat="14.422445791447657" lon="121.02935716737028"><ele>29.0</ele><time>2026-04-25T10:14:35.001Z</time></trkpt><trkpt lat="14.422413171128786" lon="121.029422371423"><ele>29.000000000000004</ele><time>2026-04-25T10:14:43.001Z</time></trkpt><trkpt lat="14.422386610780908" lon="121.02948777611319"><ele>29.000000000000004</ele><time>2026-04-25T10:14:48.001Z</time></trkpt><trkpt lat="14.422387366345754" lon="121.02956119656866"><ele>29.0</ele><time>2026-04-25T10:14:53.001Z</time></trkpt><trkpt lat="14.42235592985456" lon="121.02961970200704"><ele>29.000000000000004</ele><time>2026-04-25T10:15:03.001Z</time></trkpt><trkpt lat="14.42231157436231" lon="121.02967397795045"><ele>29.000000000000004</ele><time>2026-04-25T10:15:10Z</time></trkpt><trkpt lat="14.422274161213414" lon="121.0297336355154"><ele>29.000000000000004</ele><time>2026-04-25T10:15:15Z</time></trkpt><trkpt lat="14.422234146948213" lon="121.02979305915488"><ele>29.0</ele><time>2026-04-25T10:15:23Z</time></trkpt><trkpt lat="14.422229196373925" lon="121.02986451731994"><ele>29.000000000000004</ele><time>2026-04-25T10:15:30Z</time></trkpt><trkpt lat="14.422201483147287" lon="121.0299270308385"><ele>29.000000000000004</ele><time>2026-04-25T10:15:38Z</time></trkpt><trkpt lat="14.422199944298516" lon="121.02999527525203"><ele>29.0</ele><time>2026-04-25T10:15:50Z</time></trkpt><trkpt lat="14.42225055567404" lon="121.03003444957757"><ele>29.000000000000004</ele><time>2026-04-25T10:16:01Z</time></trkpt><trkpt lat="14.422325967156604" lon="121.03005408996748"><ele>29.000000000000004</ele><time>2026-04-25T10:16:19Z</time></trkpt><trkpt lat="14.422358908641954" lon="121.0301183013356"><ele>29.000000000000004</ele><time>2026-04-25T10:16:38Z</time></trkpt><trkpt lat="14.422344218536724" lon="121.03018560331728"><ele>29.0</ele><time>2026-04-25T11:26:26.002Z</time></trkpt><trkpt lat="14.422385231119124" lon="121.0301284607508"><ele>29.000000000000004</ele><time>2026-04-25T11:26:42Z</time></trkpt><trkpt lat="14.422359328788776" lon="121.03006507716222"><ele>29.000000000000004</ele><time>2026-04-25T11:26:56Z</time></trkpt><trkpt lat="14.422294599443712" lon="121.0300745364868"><ele>29.0</ele><time>2026-04-25T11:27:10Z</time></trkpt><trkpt lat="14.422226446190004" lon="121.03005929068388"><ele>29.000000000000004</ele><time>2026-04-25T11:27:17Z</time></trkpt><trkpt lat="14.422162505895034" lon="121.03002866788222"><ele>29.000000000000004</ele><time>2026-04-25T11:27:26.001Z</time></trkpt><trkpt lat="14.422103125999367" lon="121.03000080693128"><ele>28.6</ele><time>2026-04-25T11:27:36.001Z</time></trkpt><trkpt lat="14.422065979739203" lon="121.0300814005066"><ele>28.2</ele><time>2026-04-25T11:28:00.001Z</time></trkpt><trkpt lat="14.422012424381888" lon="121.03018609473055"><ele>27.800000000000004</ele><time>2026-04-25T11:28:04.001Z</time></trkpt><trkpt lat="14.422000952300033" lon="121.0301109607635"><ele>27.400000000000002</ele><time>2026-04-25T11:30:07.002Z</time></trkpt><trkpt lat="14.421883802176623" lon="121.03000354366083"><ele>27.0</ele><time>2026-04-25T11:35:58.066Z</time></trkpt><trkpt lat="14.42201148941858" lon="121.02994527718656"><ele>27.0</ele><time>2026-04-25T11:35:59.067Z</time></trkpt><trkpt lat="14.422018609474096" lon="121.03001033980804"><ele>27.0</ele><time>2026-04-25T11:36:28.001Z</time></trkpt><trkpt lat="14.421990473341031" lon="121.03011239172645"><ele>27.0</ele><time>2026-04-25T11:36:29.001Z</time></trkpt><trkpt lat="14.42208513399882" lon="121.02997358796031"><ele>27.0</ele><time>2026-04-25T11:40:49.048Z</time></trkpt><trkpt lat="14.422085674674246" lon="121.02971625299203"><ele>27.0</ele><time>2026-04-25T11:40:55.035Z</time></trkpt><trkpt lat="14.42180485885797" lon="121.02993095488242"><ele>27.0</ele><time>2026-04-25T11:42:51.018Z</time></trkpt><trkpt lat="14.421916846600515" lon="121.0301106615268"><ele>28.0</ele><time>2026-04-25T11:42:53.015Z</time></trkpt><trkpt lat="14.422224469495562" lon="121.02989151514537"><ele>29.0</ele><time>2026-04-25T11:43:34.017Z</time></trkpt><trkpt lat="14.4221553473616" lon="121.02997884962727"><ele>27.666666666666664</ele><time>2026-04-25T11:43:37.002Z</time></trkpt><trkpt lat="14.422091571338079" lon="121.02999291891682"><ele>26.333333333333332</ele><time>2026-04-25T11:43:40.002Z</time></trkpt><trkpt lat="14.42207112131078" lon="121.03006199410152"><ele>25.0</ele><time>2026-04-25T11:43:45.001Z</time></trkpt><trkpt lat="14.422014278392204" lon="121.03009479281121"><ele>23.666666666666664</ele><time>2026-04-25T11:43:54.001Z</time></trkpt><trkpt lat="14.42191047140704" lon="121.03017222444016"><ele>22.333333333333332</ele><time>2026-04-25T11:44:55Z</time></trkpt><trkpt lat="14.421958177962786" lon="121.03011999781299"><ele>21.0</ele><time>2026-04-25T11:45:44Z</time></trkpt><trkpt lat="14.422016609900952" lon="121.03009313969459"><ele>21.0</ele><time>2026-04-25T11:45:49Z</time></trkpt><trkpt lat="14.422031039643578" lon="121.03001727556303"><ele>21.0</ele><time>2026-04-25T11:46:03Z</time></trkpt><trkpt lat="14.422051255559527" lon="121.02995115103"><ele>21.0</ele><time>2026-04-25T11:46:14Z</time></trkpt><trkpt lat="14.422085666440951" lon="121.02988862809117"><ele>21.0</ele><time>2026-04-25T11:46:27Z</time></trkpt><trkpt lat="14.422127403438092" lon="121.0298196811387"><ele>21.0</ele><time>2026-04-25T11:46:34Z</time></trkpt><trkpt lat="14.422161475420358" lon="121.02975995833835"><ele>21.0</ele><time>2026-04-25T11:46:38Z</time></trkpt><trkpt lat="14.422202923652709" lon="121.02970529959279"><ele>21.0</ele><time>2026-04-25T11:46:44Z</time></trkpt><trkpt lat="14.422241889239302" lon="121.02965107188952"><ele>22.333333333333332</ele><time>2026-04-25T11:46:54Z</time></trkpt><trkpt lat="14.422269798549719" lon="121.02958829278609"><ele>23.666666666666664</ele><time>2026-04-25T11:47:05Z</time></trkpt><trkpt lat="14.422308469861054" lon="121.02951051535028"><ele>25.0</ele><time>2026-04-25T11:47:12Z</time></trkpt><trkpt lat="14.422311392597752" lon="121.02943580805031"><ele>26.333333333333332</ele><time>2026-04-25T11:47:16Z</time></trkpt><trkpt lat="14.422340117171066" lon="121.02936904305568"><ele>27.666666666666664</ele><time>2026-04-25T11:47:49Z</time></trkpt><trkpt lat="14.422344043275187" lon="121.02929488014234"><ele>29.0</ele><time>2026-04-25T11:48:01Z</time></trkpt><trkpt lat="14.422264739778552" lon="121.0292692058568"><ele>29.0</ele><time>2026-04-25T11:48:02Z</time></trkpt><trkpt lat="14.421835921462906" lon="121.02936846372451"><ele>29.0</ele><time>2026-04-25T11:49:28.077Z</time></trkpt><trkpt lat="14.422257094249066" lon="121.02926144056138"><ele>28.999999999999996</ele><time>2026-04-25T11:49:38Z</time></trkpt><trkpt lat="14.422380140582819" lon="121.0292591177085"><ele>29.0</ele><time>2026-04-25T11:49:57Z</time></trkpt><trkpt lat="14.422394421214156" lon="121.029192948589"><ele>29.0</ele><time>2026-04-25T11:50:14Z</time></trkpt><trkpt lat="14.422441878810476" lon="121.02913820017676"><ele>29.0</ele><time>2026-04-25T11:50:21Z</time></trkpt><trkpt lat="14.422476245216219" lon="121.02908352210417"><ele>28.999999999999996</ele><time>2026-04-25T11:50:28Z</time></trkpt><trkpt lat="14.422582955283389" lon="121.02909330361517"><ele>29.0</ele><time>2026-04-25T11:50:49Z</time></trkpt><trkpt lat="14.422646555749399" lon="121.02913217596195"><ele>29.0</ele><time>2026-04-25T11:50:56Z</time></trkpt><trkpt lat="14.422738988505271" lon="121.02920024171675"><ele>29.0</ele><time>2026-04-25T11:51:49Z</time></trkpt><trkpt lat="14.422871491016217" lon="121.02924056246442"><ele>29.0</ele><time>2026-04-25T11:52:54Z</time></trkpt><trkpt lat="14.423210681253487" lon="121.02965601471713"><ele>29.000000000000004</ele><time>2026-04-25T11:58:07Z</time></trkpt><trkpt lat="14.423147658425124" lon="121.02964430875886"><ele>29.0</ele><time>2026-04-25T11:58:43.999Z</time></trkpt><trkpt lat="14.423096708676484" lon="121.02971310220543"><ele>29.000000000000004</ele><time>2026-04-25T11:58:55Z</time></trkpt><trkpt lat="14.423046298733022" lon="121.02976249863887"><ele>29.000000000000004</ele><time>2026-04-25T11:58:58Z</time></trkpt><trkpt lat="14.422981547016104" lon="121.02978747719669"><ele>29.0</ele><time>2026-04-25T11:59:01Z</time></trkpt><trkpt lat="14.42294225931226" lon="121.02983898206656"><ele>29.000000000000004</ele><time>2026-04-25T11:59:54Z</time></trkpt><trkpt lat="14.422877131852065" lon="121.02985794453772"><ele>29.000000000000004</ele><time>2026-04-25T12:00:00Z</time></trkpt><trkpt lat="14.422807468763066" lon="121.02986375761812"><ele>29.000000000000004</ele><time>2026-04-25T12:00:06Z</time></trkpt><trkpt lat="14.422739895814809" lon="121.0298354473766"><ele>29.0</ele><time>2026-04-25T12:00:15Z</time></trkpt><trkpt lat="14.422662996971948" lon="121.02982639574637"><ele>29.000000000000004</ele><time>2026-04-25T12:00:17.072Z</time></trkpt><trkpt lat="14.42260449799492" lon="121.02979623203008"><ele>29.000000000000004</ele><time>2026-04-25T12:00:24.999Z</time></trkpt><trkpt lat="14.422551631461685" lon="121.02974314888475"><ele>29.0</ele><time>2026-04-25T12:00:29.999Z</time></trkpt><trkpt lat="14.422494451401178" lon="121.02968954313232"><ele>29.000000000000004</ele><time>2026-04-25T12:00:33.999Z</time></trkpt><trkpt lat="14.422483002007107" lon="121.02962113464696"><ele>29.000000000000004</ele><time>2026-04-25T12:00:38.999Z</time></trkpt><trkpt lat="14.422438299230881" lon="121.02957285766425"><ele>29.000000000000004</ele><time>2026-04-25T12:00:50.999Z</time></trkpt><trkpt lat="14.422381293152625" lon="121.02960559976533"><ele>29.0</ele><time>2026-04-25T12:00:56.999Z</time></trkpt><trkpt lat="14.422322401738974" lon="121.02963861532166"><ele>29.000000000000004</ele><time>2026-04-25T12:01:04.999Z</time></trkpt><trkpt lat="14.422286397655629" lon="121.02970035158741"><ele>29.000000000000004</ele><time>2026-04-25T12:01:13.999Z</time></trkpt><trkpt lat="14.422264533957527" lon="121.02976291185027"><ele>29.0</ele><time>2026-04-25T12:01:21.999Z</time></trkpt><trkpt lat="14.42223174337817" lon="121.0298257400842"><ele>29.000000000000004</ele><time>2026-04-25T12:01:27.999Z</time></trkpt><trkpt lat="14.42216684734412" lon="121.02986765733833"><ele>29.000000000000004</ele><time>2026-04-25T12:01:37Z</time></trkpt><trkpt lat="14.422213579590546" lon="121.02992774717697"><ele>29.0</ele><time>2026-04-25T12:01:45Z</time></trkpt><trkpt lat="14.422256283891574" lon="121.0299905985322"><ele>29.0</ele><time>2026-04-25T12:01:52Z</time></trkpt><trkpt lat="14.422303698684164" lon="121.03003933701751"><ele>29.0</ele><time>2026-04-25T12:01:59Z</time></trkpt><trkpt lat="14.422313895685344" lon="121.03021766922491"><ele>29.0</ele><time>2026-04-25T12:03:25.999Z</time></trkpt><trkpt lat="14.422289297676476" lon="121.03028173879198"><ele>29.0</ele><time>2026-04-25T12:03:46Z</time></trkpt><trkpt lat="14.422348589262944" lon="121.03047398223578"><ele>29.0</ele><time>2026-04-25T12:04:25.076Z</time></trkpt><trkpt lat="14.422197256974735" lon="121.03052008993356"><ele>29.0</ele><time>2026-04-25T12:05:14.999Z</time></trkpt><trkpt lat="14.42208733528401" lon="121.03050319576299"><ele>29.0</ele><time>2026-04-25T12:05:20.999Z</time></trkpt><trkpt lat="14.422011738204633" lon="121.030524337503"><ele>29.0</ele><time>2026-04-25T12:06:23Z</time></trkpt><trkpt lat="14.421958346510623" lon="121.03057200084328"><ele>29.0</ele><time>2026-04-25T12:06:26Z</time></trkpt><trkpt lat="14.42190872553565" lon="121.03063533231463"><ele>27.666666666666664</ele><time>2026-04-25T12:06:29Z</time></trkpt><trkpt lat="14.421879660658197" lon="121.03069628689637"><ele>26.333333333333332</ele><time>2026-04-25T12:06:33Z</time></trkpt><trkpt lat="14.421839842146047" lon="121.03075550433802"><ele>25.0</ele><time>2026-04-25T12:06:38Z</time></trkpt><trkpt lat="14.42177999844885" lon="121.03078399427193"><ele>23.666666666666664</ele><time>2026-04-25T12:06:43Z</time></trkpt><trkpt lat="14.421714675925772" lon="121.03076535062658"><ele>22.333333333333332</ele><time>2026-04-25T12:06:47Z</time></trkpt><trkpt lat="14.421682945134389" lon="121.03069814481563"><ele>21.0</ele><time>2026-04-25T12:06:50Z</time></trkpt><trkpt lat="14.421724226646804" lon="121.03058076785968"><ele>21.0</ele><time>2026-04-25T12:06:53Z</time></trkpt><trkpt lat="14.421763042993835" lon="121.03046472720145"><ele>21.0</ele><time>2026-04-25T12:06:55Z</time></trkpt><trkpt lat="14.421801691051666" lon="121.03034226808784"><ele>21.0</ele><time>2026-04-25T12:06:57Z</time></trkpt><trkpt lat="14.42184469919925" lon="121.03023867895062"><ele>21.0</ele><time>2026-04-25T12:06:59Z</time></trkpt><trkpt lat="14.421858067977658" lon="121.03015820901152"><ele>21.0</ele><time>2026-04-25T12:07:00Z</time></trkpt><trkpt lat="14.421893088338887" lon="121.0300217011053"><ele>22.0</ele><time>2026-04-25T12:07:02Z</time></trkpt><trkpt lat="14.421920856708553" lon="121.02995333113581"><ele>23.0</ele><time>2026-04-25T12:07:03Z</time></trkpt><trkpt lat="14.421933568916112" lon="121.02987142291273"><ele>24.0</ele><time>2026-04-25T12:07:04Z</time></trkpt><trkpt lat="14.421959189273544" lon="121.02978186879905"><ele>25.0</ele><time>2026-04-25T12:07:05Z</time></trkpt><trkpt lat="14.421985489165445" lon="121.02968245406662"><ele>26.0</ele><time>2026-04-25T12:07:06Z</time></trkpt><trkpt lat="14.422005303854434" lon="121.02961064503202"><ele>27.0</ele><time>2026-04-25T12:07:07Z</time></trkpt><trkpt lat="14.422028366749" lon="121.02952041936084"><ele>27.0</ele><time>2026-04-25T12:07:08Z</time></trkpt><trkpt lat="14.422053011242351" lon="121.02940567680834"><ele>27.000000000000004</ele><time>2026-04-25T12:07:09Z</time></trkpt><trkpt lat="14.42207151322714" lon="121.02929026301256"><ele>27.000000000000004</ele><time>2026-04-25T12:07:10Z</time></trkpt><trkpt lat="14.422086417128087" lon="121.02920136799519"><ele>27.0</ele><time>2026-04-25T12:07:11Z</time></trkpt><trkpt lat="14.422109209171106" lon="121.02909496791753"><ele>27.0</ele><time>2026-04-25T12:07:12Z</time></trkpt><trkpt lat="14.422129609445433" lon="121.02899296573834"><ele>28.0</ele><time>2026-04-25T12:07:13Z</time></trkpt><trkpt lat="14.422152230024452" lon="121.02888562781439"><ele>29.000000000000004</ele><time>2026-04-25T12:07:14Z</time></trkpt><trkpt lat="14.42217397795775" lon="121.02878296721944"><ele>30.000000000000004</ele><time>2026-04-25T12:07:15.001Z</time></trkpt><trkpt lat="14.422197687376856" lon="121.02868382645526"><ele>31.0</ele><time>2026-04-25T12:07:16.001Z</time></trkpt><trkpt lat="14.422223900939995" lon="121.02858828125201"><ele>32.0</ele><time>2026-04-25T12:07:17.001Z</time></trkpt><trkpt lat="14.422243840684063" lon="121.02850686620033"><ele>31.999999999999996</ele><time>2026-04-25T12:07:18.001Z</time></trkpt><trkpt lat="14.42226160932837" lon="121.02843103943299"><ele>32.0</ele><time>2026-04-25T12:07:19.001Z</time></trkpt><trkpt lat="14.422280922254847" lon="121.02835809617257"><ele>32.0</ele><time>2026-04-25T12:07:20.001Z</time></trkpt><trkpt lat="14.422290208957438" lon="121.02828425828687"><ele>32.0</ele><time>2026-04-25T12:07:21.001Z</time></trkpt><trkpt lat="14.42232514359032" lon="121.02817038399826"><ele>31.999999999999996</ele><time>2026-04-25T12:07:23.001Z</time></trkpt><trkpt lat="14.42234087503059" lon="121.02809416367816"><ele>32.0</ele><time>2026-04-25T12:07:25.001Z</time></trkpt><trkpt lat="14.422352126918334" lon="121.02802682223863"><ele>32.285714285714285</ele><time>2026-04-25T12:07:30.001Z</time></trkpt><trkpt lat="14.422373755193814" lon="121.02795784182628"><ele>32.57142857142857</ele><time>2026-04-25T12:07:33.001Z</time></trkpt><trkpt lat="14.422390987517415" lon="121.0278932927815"><ele>32.857142857142854</ele><time>2026-04-25T12:07:35.001Z</time></trkpt><trkpt lat="14.42241093414599" lon="121.02781750073169"><ele>33.14285714285714</ele><time>2026-04-25T12:07:37.001Z</time></trkpt><trkpt lat="14.422431586954007" lon="121.02773515754018"><ele>33.42857142857143</ele><time>2026-04-25T12:07:39.001Z</time></trkpt><trkpt lat="14.422453403019253" lon="121.02766052924375"><ele>33.71428571428571</ele><time>2026-04-25T12:07:41.001Z</time></trkpt><trkpt lat="14.422470843367773" lon="121.02758930738945"><ele>34.0</ele><time>2026-04-25T12:07:43.001Z</time></trkpt><trkpt lat="14.422493731654743" lon="121.02751363833215"><ele>33.833333333333336</ele><time>2026-04-25T12:07:45.001Z</time></trkpt><trkpt lat="14.422521259630107" lon="121.0274310321291"><ele>33.66666666666667</ele><time>2026-04-25T12:07:47.001Z</time></trkpt><trkpt lat="14.422562043324838" lon="121.02734482143457"><ele>33.5</ele><time>2026-04-25T12:07:49.001Z</time></trkpt><trkpt lat="14.422613235179155" lon="121.02725950649369"><ele>33.333333333333336</ele><time>2026-04-25T12:07:51.001Z</time></trkpt><trkpt lat="14.422674964555299" lon="121.02719445694215"><ele>33.166666666666664</ele><time>2026-04-25T12:07:53.001Z</time></trkpt><trkpt lat="14.422743300903745" lon="121.02716770685304"><ele>33.0</ele><time>2026-04-25T12:07:56.001Z</time></trkpt><trkpt lat="14.42281914270303" lon="121.02714546042576"><ele>33.0</ele><time>2026-04-25T12:08:00.001Z</time></trkpt><trkpt lat="14.422910121232613" lon="121.02714912166482"><ele>33.0</ele><time>2026-04-25T12:08:03.001Z</time></trkpt><trkpt lat="14.422988328190412" lon="121.02716072198527"><ele>33.0</ele><time>2026-04-25T12:08:05.001Z</time></trkpt><trkpt lat="14.42308595319624" lon="121.027178854776"><ele>33.0</ele><time>2026-04-25T12:08:07.001Z</time></trkpt><trkpt lat="14.423188804924383" lon="121.02720579350932"><ele>33.0</ele><time>2026-04-25T12:08:09.001Z</time></trkpt><trkpt lat="14.423259754755131" lon="121.02722786751747"><ele>33.0</ele><time>2026-04-25T12:08:11.001Z</time></trkpt><trkpt lat="14.423322524413162" lon="121.0272468389525"><ele>33.14285714285714</ele><time>2026-04-25T12:08:14.001Z</time></trkpt><trkpt lat="14.423398677908839" lon="121.02727135080157"><ele>33.285714285714285</ele><time>2026-04-25T12:08:17.001Z</time></trkpt><trkpt lat="14.423480729972079" lon="121.0273012848893"><ele>33.42857142857143</ele><time>2026-04-25T12:08:20.001Z</time></trkpt><trkpt lat="14.423543948275542" lon="121.02732665663204"><ele>33.57142857142857</ele><time>2026-04-25T12:08:23.001Z</time></trkpt><trkpt lat="14.423607074863044" lon="121.02735246084738"><ele>33.714285714285715</ele><time>2026-04-25T12:08:31.001Z</time></trkpt><trkpt lat="14.423670680975137" lon="121.0273793489364"><ele>33.857142857142854</ele><time>2026-04-25T12:08:40.001Z</time></trkpt><trkpt lat="14.423735980500004" lon="121.02740489245943"><ele>34.0</ele><time>2026-04-25T12:08:53.001Z</time></trkpt><trkpt lat="14.423657157894445" lon="121.02737378091463"><ele>34.0</ele><time>2026-04-25T12:09:10.001Z</time></trkpt><trkpt lat="14.423586030755532" lon="121.02734449488484"><ele>34.0</ele><time>2026-04-25T12:09:13.001Z</time></trkpt><trkpt lat="14.42351311028822" lon="121.02731447047977"><ele>34.0</ele><time>2026-04-25T12:09:16.001Z</time></trkpt><trkpt lat="14.423451494372703" lon="121.02728910063705"><ele>34.0</ele><time>2026-04-25T12:09:19.001Z</time></trkpt><trkpt lat="14.423502284462847" lon="121.02724055853565"><ele>34.0</ele><time>2026-04-25T12:09:23.001Z</time></trkpt><trkpt lat="14.423397882335069" lon="121.02726702647101"><ele>34.0</ele><time>2026-04-25T12:09:38.001Z</time></trkpt><trkpt lat="14.423324367579818" lon="121.02723675764976"><ele>34.0</ele><time>2026-04-25T12:09:46.001Z</time></trkpt><trkpt lat="14.423260005514006" lon="121.0272102573526"><ele>34.0</ele><time>2026-04-25T12:09:49.001Z</time></trkpt><trkpt lat="14.423195803178322" lon="121.02718044063121"><ele>34.0</ele><time>2026-04-25T12:09:52.001Z</time></trkpt><trkpt lat="14.42312864678302" lon="121.02715581791156"><ele>34.0</ele><time>2026-04-25T12:09:56.001Z</time></trkpt><trkpt lat="14.423065606368601" lon="121.02713270450829"><ele>34.0</ele><time>2026-04-25T12:10:00.001Z</time></trkpt><trkpt lat="14.422990011432402" lon="121.02712649020046"><ele>34.0</ele><time>2026-04-25T12:10:11.001Z</time></trkpt><trkpt lat="14.422818284227452" lon="121.02693406029931"><ele>37.0</ele><time>2026-04-25T12:10:36.001Z</time></trkpt><trkpt lat="14.422853304617291" lon="121.02644182903185"><ele>37.0</ele><time>2026-04-25T12:10:37.001Z</time></trkpt><trkpt lat="14.422813635388211" lon="121.02649567005982"><ele>37.0</ele><time>2026-04-25T12:10:44.001Z</time></trkpt><trkpt lat="14.422794269070122" lon="121.02655810477937"><ele>37.0</ele><time>2026-04-25T12:10:48.001Z</time></trkpt><trkpt lat="14.422771967115251" lon="121.02663000362048"><ele>37.0</ele><time>2026-04-25T12:10:52.001Z</time></trkpt><trkpt lat="14.422752344895823" lon="121.02669326326654"><ele>37.0</ele><time>2026-04-25T12:10:55.001Z</time></trkpt><trkpt lat="14.422732183809192" lon="121.02675826023955"><ele>37.0</ele><time>2026-04-25T12:10:58.001Z</time></trkpt><trkpt lat="14.422790850631161" lon="121.02682961053837"><ele>37.0</ele><time>2026-04-25T12:11:05.001Z</time></trkpt><trkpt lat="14.423107078193826" lon="121.02693193778161"><ele>36.4</ele><time>2026-04-25T12:11:06.001Z</time></trkpt><trkpt lat="14.42310891667208" lon="121.02714858394837"><ele>35.800000000000004</ele><time>2026-04-25T12:11:09.001Z</time></trkpt><trkpt lat="14.423178428627844" lon="121.02717407010489"><ele>35.2</ele><time>2026-04-25T12:11:12.001Z</time></trkpt><trkpt lat="14.42324991750125" lon="121.02720028109191"><ele>34.6</ele><time>2026-04-25T12:11:15.001Z</time></trkpt><trkpt lat="14.423319194053065" lon="121.02722568092379"><ele>34.0</ele><time>2026-04-25T12:11:18.001Z</time></trkpt><trkpt lat="14.423401036071754" lon="121.02723763480174"><ele>34.0</ele><time>2026-04-25T12:11:19.001Z</time></trkpt><trkpt lat="14.423454426091899" lon="121.02729030775494"><ele>34.0</ele><time>2026-04-25T12:11:24.001Z</time></trkpt><trkpt lat="14.423525397728115" lon="121.02731952975121"><ele>34.0</ele><time>2026-04-25T12:11:27.001Z</time></trkpt><trkpt lat="14.423596500068403" lon="121.02734880556066"><ele>34.0</ele><time>2026-04-25T12:11:30.001Z</time></trkpt><trkpt lat="14.423659386907147" lon="121.02737469869487"><ele>34.0</ele><time>2026-04-25T12:11:35.001Z</time></trkpt><trkpt lat="14.423755178639126" lon="121.02705962686112"><ele>34.0</ele><time>2026-04-25T12:11:39.001Z</time></trkpt><trkpt lat="14.42373429294319" lon="121.02697905848261"><ele>34.0</ele><time>2026-04-25T12:11:43.001Z</time></trkpt><trkpt lat="14.423780559540292" lon="121.02688870558956"><ele>34.0</ele><time>2026-04-25T12:11:47.001Z</time></trkpt><trkpt lat="14.42376545826673" lon="121.02682028760786"><ele>34.0</ele><time>2026-04-25T12:11:52.001Z</time></trkpt><trkpt lat="14.423748989551346" lon="121.02674567417557"><ele>34.0</ele><time>2026-04-25T12:11:58.001Z</time></trkpt><trkpt lat="14.42374352991365" lon="121.02667833336422"><ele>34.0</ele><time>2026-04-25T12:12:04.001Z</time></trkpt><trkpt lat="14.423738734195474" lon="121.02660766237757"><ele>34.333333333333336</ele><time>2026-04-25T12:12:12.001Z</time></trkpt><trkpt lat="14.42373764193126" lon="121.02653230779555"><ele>34.66666666666667</ele><time>2026-04-25T12:12:20.001Z</time></trkpt><trkpt lat="14.423739114858957" lon="121.02645374651428"><ele>35.0</ele><time>2026-04-25T12:12:25.001Z</time></trkpt><trkpt lat="14.423742093177204" lon="121.02638072042703"><ele>35.333333333333336</ele><time>2026-04-25T12:12:29.001Z</time></trkpt><trkpt lat="14.423754210873707" lon="121.02630287304324"><ele>35.666666666666664</ele><time>2026-04-25T12:12:33.001Z</time></trkpt><trkpt lat="14.423830206385812" lon="121.02631684968486"><ele>36.0</ele><time>2026-04-25T12:12:37.001Z</time></trkpt><trkpt lat="14.423920067374413" lon="121.02635453118822"><ele>36.42857142857143</ele><time>2026-04-25T12:12:39.001Z</time></trkpt><trkpt lat="14.423998143321409" lon="121.02638593187521"><ele>36.85714285714286</ele><time>2026-04-25T12:12:41.001Z</time></trkpt><trkpt lat="14.42407337539553" lon="121.02639958558777"><ele>37.28571428571429</ele><time>2026-04-25T12:12:43.001Z</time></trkpt><trkpt lat="14.424130602948697" lon="121.02644368234988"><ele>37.714285714285715</ele><time>2026-04-25T12:12:46.001Z</time></trkpt><trkpt lat="14.42419217298779" lon="121.02647593702972"><ele>38.14285714285714</ele><time>2026-04-25T12:12:51.001Z</time></trkpt><trkpt lat="14.424258377662147" lon="121.02651242337198"><ele>38.57142857142858</ele><time>2026-04-25T12:12:55.001Z</time></trkpt><trkpt lat="14.424313151472985" lon="121.02654695022103"><ele>39.0</ele><time>2026-04-25T12:13:00.001Z</time></trkpt><trkpt lat="14.424379838329617" lon="121.02658804255994"><ele>39.0</ele><time>2026-04-25T12:13:05.001Z</time></trkpt><trkpt lat="14.424448441843362" lon="121.02663156942894"><ele>39.0</ele><time>2026-04-25T12:13:08.001Z</time></trkpt><trkpt lat="14.424502720724373" lon="121.02666968257338"><ele>39.0</ele><time>2026-04-25T12:13:10.001Z</time></trkpt><trkpt lat="14.424566768626127" lon="121.02671559145217"><ele>39.0</ele><time>2026-04-25T12:13:12.001Z</time></trkpt><trkpt lat="14.424636365905076" lon="121.02676990517597"><ele>39.0</ele><time>2026-04-25T12:13:14.001Z</time></trkpt><trkpt lat="14.424699836203406" lon="121.02682830029757"><ele>39.0</ele><time>2026-04-25T12:13:16.001Z</time></trkpt><trkpt lat="14.424765105752039" lon="121.02689084059783"><ele>39.142857142857146</ele><time>2026-04-25T12:13:19.001Z</time></trkpt><trkpt lat="14.424809698227632" lon="121.02694241485784"><ele>39.285714285714285</ele><time>2026-04-25T12:13:22.001Z</time></trkpt><trkpt lat="14.424864395687015" lon="121.02698442979256"><ele>39.42857142857143</ele><time>2026-04-25T12:13:26.001Z</time></trkpt><trkpt lat="14.424912060432481" lon="121.0270593889405"><ele>39.57142857142857</ele><time>2026-04-25T12:13:30.001Z</time></trkpt><trkpt lat="14.424947811615482" lon="121.02712016359028"><ele>39.714285714285715</ele><time>2026-04-25T12:13:32.001Z</time></trkpt><trkpt lat="14.424981338106427" lon="121.02718624905103"><ele>39.857142857142854</ele><time>2026-04-25T12:13:34.001Z</time></trkpt><trkpt lat="14.425015163627522" lon="121.0272634387429"><ele>40.0</ele><time>2026-04-25T12:13:36.001Z</time></trkpt><trkpt lat="14.425040868073653" lon="121.02735786573055"><ele>39.8</ele><time>2026-04-25T12:13:39.001Z</time></trkpt><trkpt lat="14.425042709836351" lon="121.02748794566463"><ele>39.6</ele><time>2026-04-25T12:14:40.001Z</time></trkpt><trkpt lat="14.425027411715629" lon="121.02756394105666"><ele>39.4</ele><time>2026-04-25T12:14:54.001Z</time></trkpt><trkpt lat="14.42500823959007" lon="121.02763644380066"><ele>39.2</ele><time>2026-04-25T12:15:02.001Z</time></trkpt><trkpt lat="14.424872447178236" lon="121.0276001013856"><ele>39.0</ele><time>2026-04-25T12:15:07.001Z</time></trkpt><trkpt lat="14.424805257048684" lon="121.02761683321467"><ele>39.0</ele><time>2026-04-25T12:15:09.001Z</time></trkpt><trkpt lat="14.424713881991766" lon="121.02759270258997"><ele>39.0</ele><time>2026-04-25T12:15:12.001Z</time></trkpt><trkpt lat="14.424631554858935" lon="121.02754724541516"><ele>39.0</ele><time>2026-04-25T12:15:15.001Z</time></trkpt><trkpt lat="14.424549574933588" lon="121.02751517975223"><ele>39.0</ele><time>2026-04-25T12:15:18.001Z</time></trkpt><trkpt lat="14.424478587526602" lon="121.02748764980831"><ele>39.0</ele><time>2026-04-25T12:15:21.001Z</time></trkpt><trkpt lat="14.424403113627838" lon="121.0274533789434"><ele>39.0</ele><time>2026-04-25T12:15:24.001Z</time></trkpt><trkpt lat="14.424338005912434" lon="121.02740919201534"><ele>38.0</ele><time>2026-04-25T12:15:27.001Z</time></trkpt><trkpt lat="14.424274019849165" lon="121.02738482234871"><ele>37.0</ele><time>2026-04-25T12:15:31.001Z</time></trkpt><trkpt lat="14.424213971729607" lon="121.0273642115092"><ele>36.0</ele><time>2026-04-25T12:16:41.001Z</time></trkpt><trkpt lat="14.42415135057673" lon="121.02737097403372"><ele>35.0</ele><time>2026-04-25T12:16:52.001Z</time></trkpt><trkpt lat="14.42409651615403" lon="121.02733798664951"><ele>34.0</ele><time>2026-04-25T12:16:59.001Z</time></trkpt><trkpt lat="14.424031422820097" lon="121.02729756127398"><ele>33.0</ele><time>2026-04-25T12:17:05.001Z</time></trkpt><trkpt lat="14.423968667953915" lon="121.02727210848369"><ele>32.0</ele><time>2026-04-25T12:17:11.001Z</time></trkpt><trkpt lat="14.423900545365775" lon="121.02724429072582"><ele>32.0</ele><time>2026-04-25T12:17:17.001Z</time></trkpt><trkpt lat="14.423837536318935" lon="121.02720540783697"><ele>31.999999999999996</ele><time>2026-04-25T12:17:26.001Z</time></trkpt><trkpt lat="14.423778492756698" lon="121.02717961202754"><ele>32.0</ele><time>2026-04-25T12:17:33.001Z</time></trkpt><trkpt lat="14.423717446763431" lon="121.02714369130499"><ele>32.0</ele><time>2026-04-25T12:17:39.001Z</time></trkpt><trkpt lat="14.423648653149998" lon="121.02712272782964"><ele>31.999999999999996</ele><time>2026-04-25T12:17:45.001Z</time></trkpt><trkpt lat="14.423588392682955" lon="121.02709844493734"><ele>32.0</ele><time>2026-04-25T12:17:51.001Z</time></trkpt><trkpt lat="14.423522215145105" lon="121.02709035495822"><ele>32.0</ele><time>2026-04-25T12:17:59.001Z</time></trkpt><trkpt lat="14.423352987086368" lon="121.0271762586445"><ele>32.5</ele><time>2026-04-25T12:19:51.04Z</time></trkpt><trkpt lat="14.423437479926166" lon="121.02720368380471"><ele>33.0</ele><time>2026-04-25T12:22:16.011Z</time></trkpt><trkpt lat="14.423479214799377" lon="121.02726682240063"><ele>33.5</ele><time>2026-04-25T12:22:19.012Z</time></trkpt><trkpt lat="14.423519903331817" lon="121.02715009335812"><ele>34.0</ele><time>2026-04-25T12:22:27.014Z</time></trkpt><trkpt lat="14.423696207990748" lon="121.02710969117354"><ele>33.99999999999999</ele><time>2026-04-25T12:48:26.004Z</time></trkpt><trkpt lat="14.423756438733824" lon="121.0271335144649"><ele>34.0</ele><time>2026-04-25T12:48:33.004Z</time></trkpt><trkpt lat="14.423818511605383" lon="121.027149407581"><ele>34.0</ele><time>2026-04-25T12:48:39.001Z</time></trkpt><trkpt lat="14.423888410954351" lon="121.02719061047326"><ele>34.0</ele><time>2026-04-25T12:48:46.001Z</time></trkpt><trkpt lat="14.42394898347603" lon="121.02721435410538"><ele>34.0</ele><time>2026-04-25T12:48:55.001Z</time></trkpt><trkpt lat="14.424023130649926" lon="121.02725447477258"><ele>33.99999999999999</ele><time>2026-04-25T12:49:02Z</time></trkpt><trkpt lat="14.424083135245438" lon="121.02727455996111"><ele>34.0</ele><time>2026-04-25T12:49:08Z</time></trkpt><trkpt lat="14.424195005943169" lon="121.02734837140677"><ele>33.71428571428571</ele><time>2026-04-25T12:49:56Z</time></trkpt><trkpt lat="14.42412366240557" lon="121.0273239710223"><ele>33.42857142857143</ele><time>2026-04-25T12:50:14Z</time></trkpt><trkpt lat="14.424062610006265" lon="121.02728738061447"><ele>33.14285714285714</ele><time>2026-04-25T12:50:18Z</time></trkpt><trkpt lat="14.42401860672756" lon="121.02723436042378"><ele>32.857142857142854</ele><time>2026-04-25T12:50:22Z</time></trkpt><trkpt lat="14.423982236933266" lon="121.02717772245522"><ele>32.57142857142857</ele><time>2026-04-25T12:50:26Z</time></trkpt><trkpt lat="14.423925610860225" lon="121.02721445023002"><ele>32.285714285714285</ele><time>2026-04-25T12:50:43Z</time></trkpt><trkpt lat="14.423913666462983" lon="121.02711122652323"><ele>32.0</ele><time>2026-04-25T12:50:50Z</time></trkpt><trkpt lat="14.423888475542642" lon="121.02701435851378"><ele>32.0</ele><time>2026-04-25T12:50:53Z</time></trkpt><trkpt lat="14.423855173530317" lon="121.02693754436375"><ele>31.999999999999996</ele><time>2026-04-25T12:50:56Z</time></trkpt><trkpt lat="14.42382564406767" lon="121.02687367048156"><ele>32.0</ele><time>2026-04-25T12:50:59Z</time></trkpt><trkpt lat="14.423784855597676" lon="121.02681911629026"><ele>32.0</ele><time>2026-04-25T12:51:02Z</time></trkpt><trkpt lat="14.423748822025663" lon="121.0267592059951"><ele>31.999999999999996</ele><time>2026-04-25T12:51:06Z</time></trkpt><trkpt lat="14.423743998273803" lon="121.02668823084785"><ele>32.0</ele><time>2026-04-25T12:51:12Z</time></trkpt><trkpt lat="14.42373275319108" lon="121.02661121380694"><ele>32.0</ele><time>2026-04-25T12:51:16Z</time></trkpt><trkpt lat="14.423730579843161" lon="121.02653324281694"><ele>32.666666666666664</ele><time>2026-04-25T12:51:20Z</time></trkpt><trkpt lat="14.423731834268143" lon="121.02646246576309"><ele>33.33333333333333</ele><time>2026-04-25T12:51:24Z</time></trkpt><trkpt lat="14.423734276930135" lon="121.02637965538246"><ele>34.0</ele><time>2026-04-25T12:51:28Z</time></trkpt><trkpt lat="14.423773188423153" lon="121.02630436198888"><ele>34.666666666666664</ele><time>2026-04-25T12:51:32Z</time></trkpt><trkpt lat="14.423851430233125" lon="121.0262907757267"><ele>35.333333333333336</ele><time>2026-04-25T12:51:36Z</time></trkpt><trkpt lat="14.42394603747037" lon="121.0263080503742"><ele>36.0</ele><time>2026-04-25T12:51:38Z</time></trkpt><trkpt lat="14.424024805817302" lon="121.02632289126397"><ele>36.5</ele><time>2026-04-25T12:51:40Z</time></trkpt><trkpt lat="14.424094393573476" lon="121.0263434501005"><ele>37.0</ele><time>2026-04-25T12:51:42Z</time></trkpt><trkpt lat="14.424167084417393" lon="121.02640950950646"><ele>37.5</ele><time>2026-04-25T12:51:44Z</time></trkpt><trkpt lat="14.424243624908554" lon="121.02644048745753"><ele>38.0</ele><time>2026-04-25T12:51:46Z</time></trkpt><trkpt lat="14.424302465000565" lon="121.02646901539684"><ele>38.5</ele><time>2026-04-25T12:51:48Z</time></trkpt><trkpt lat="14.42437028396632" lon="121.02652069611479"><ele>39.0</ele><time>2026-04-25T12:51:51Z</time></trkpt><trkpt lat="14.424428786746818" lon="121.02655087912956"><ele>39.0</ele><time>2026-04-25T12:51:53Z</time></trkpt><trkpt lat="14.424486968453428" lon="121.02658757976306"><ele>39.0</ele><time>2026-04-25T12:51:55Z</time></trkpt><trkpt lat="14.424548991629074" lon="121.02663125538021"><ele>39.0</ele><time>2026-04-25T12:51:57Z</time></trkpt><trkpt lat="14.424606363785747" lon="121.0266778818768"><ele>39.0</ele><time>2026-04-25T12:51:59Z</time></trkpt><trkpt lat="14.424664047533518" lon="121.0267275201498"><ele>39.0</ele><time>2026-04-25T12:52:01Z</time></trkpt><trkpt lat="14.424723901017817" lon="121.02677058980598"><ele>39.0</ele><time>2026-04-25T12:52:03Z</time></trkpt><trkpt lat="14.424780061145768" lon="121.02682302250074"><ele>39.0</ele><time>2026-04-25T12:52:05Z</time></trkpt><trkpt lat="14.424824976607175" lon="121.0268716121209"><ele>39.142857142857146</ele><time>2026-04-25T12:52:07Z</time></trkpt><trkpt lat="14.424870425264475" lon="121.02692041707706"><ele>39.285714285714285</ele><time>2026-04-25T12:52:09Z</time></trkpt><trkpt lat="14.424904063788077" lon="121.0269794822791"><ele>39.42857142857143</ele><time>2026-04-25T12:52:11Z</time></trkpt><trkpt lat="14.424933093690974" lon="121.02704744468397"><ele>39.57142857142857</ele><time>2026-04-25T12:52:13Z</time></trkpt><trkpt lat="14.424962779012281" lon="121.0271048198085"><ele>39.714285714285715</ele><time>2026-04-25T12:52:15Z</time></trkpt><trkpt lat="14.42499838819337" lon="121.0271799193477"><ele>39.857142857142854</ele><time>2026-04-25T12:52:18Z</time></trkpt><trkpt lat="14.425027118462417" lon="121.02726591297551"><ele>40.0</ele><time>2026-04-25T12:52:21Z</time></trkpt><trkpt lat="14.425051387506041" lon="121.02733692055207"><ele>40.0</ele><time>2026-04-25T12:52:25Z</time></trkpt><trkpt lat="14.425074251215158" lon="121.02741529335873"><ele>40.0</ele><time>2026-04-25T12:52:43Z</time></trkpt><trkpt lat="14.425075545177116" lon="121.02748802173062"><ele>40.0</ele><time>2026-04-25T12:52:48.001Z</time></trkpt><trkpt lat="14.425025876950217" lon="121.02756554197946"><ele>40.0</ele><time>2026-04-25T12:53:30Z</time></trkpt><trkpt lat="14.42498491474574" lon="121.02761664164413"><ele>40.0</ele><time>2026-04-25T12:54:55.001Z</time></trkpt><trkpt lat="14.4249647315493" lon="121.02767986567655"><ele>40.0</ele><time>2026-04-25T12:55:51Z</time></trkpt><trkpt lat="14.424942091887154" lon="121.02774501331893"><ele>40.0</ele><time>2026-04-25T12:56:15Z</time></trkpt><trkpt lat="14.424873599714479" lon="121.02778550396566"><ele>39.8</ele><time>2026-04-25T12:56:20Z</time></trkpt><trkpt lat="14.424800864949919" lon="121.02777490415971"><ele>39.6</ele><time>2026-04-25T12:56:22Z</time></trkpt><trkpt lat="14.424711036627263" lon="121.0277484616209"><ele>39.4</ele><time>2026-04-25T12:56:24Z</time></trkpt><trkpt lat="14.42461384651891" lon="121.02771375185516"><ele>39.2</ele><time>2026-04-25T12:56:26Z</time></trkpt><trkpt lat="14.42451754747031" lon="121.02767157982336"><ele>39.0</ele><time>2026-04-25T12:56:28Z</time></trkpt><trkpt lat="14.424416743115572" lon="121.02762482354657"><ele>38.0</ele><time>2026-04-25T12:56:30Z</time></trkpt><trkpt lat="14.424331718433933" lon="121.02758505425305"><ele>37.0</ele><time>2026-04-25T12:56:31Z</time></trkpt><trkpt lat="14.424221594762766" lon="121.0275426540898"><ele>36.0</ele><time>2026-04-25T12:56:33Z</time></trkpt><trkpt lat="14.424107489728677" lon="121.02749840009405"><ele>35.0</ele><time>2026-04-25T12:56:35Z</time></trkpt><trkpt lat="14.423995593201393" lon="121.02745418917895"><ele>34.8</ele><time>2026-04-25T12:56:37Z</time></trkpt><trkpt lat="14.423893204173375" lon="121.02741601412674"><ele>34.6</ele><time>2026-04-25T12:56:39Z</time></trkpt><trkpt lat="14.423806750682536" lon="121.02738325883121"><ele>34.4</ele><time>2026-04-25T12:56:41Z</time></trkpt><trkpt lat="14.423721766836419" lon="121.0273539275591"><ele>34.2</ele><time>2026-04-25T12:56:43Z</time></trkpt><trkpt lat="14.423633959343283" lon="121.0273307792012"><ele>34.0</ele><time>2026-04-25T12:56:45Z</time></trkpt><trkpt lat="14.423534325238972" lon="121.02728387718535"><ele>34.0</ele><time>2026-04-25T12:56:47Z</time></trkpt><trkpt lat="14.423425688190614" lon="121.02723524598396"><ele>34.0</ele><time>2026-04-25T12:56:49Z</time></trkpt><trkpt lat="14.423317798210281" lon="121.02718594402022"><ele>34.0</ele><time>2026-04-25T12:56:51Z</time></trkpt><trkpt lat="14.423212862003027" lon="121.02713584558475"><ele>34.0</ele><time>2026-04-25T12:56:53Z</time></trkpt><trkpt lat="14.423119325659066" lon="121.02709483305962"><ele>34.0</ele><time>2026-04-25T12:56:55Z</time></trkpt><trkpt lat="14.423044540870999" lon="121.02706098936387"><ele>34.0</ele><time>2026-04-25T12:56:57.001Z</time></trkpt><trkpt lat="14.42297357314662" lon="121.02703647882237"><ele>34.0</ele><time>2026-04-25T12:57:00.001Z</time></trkpt><trkpt lat="14.422884597654088" lon="121.02702206988107"><ele>34.0</ele><time>2026-04-25T12:58:53Z</time></trkpt><trkpt lat="14.422808250904945" lon="121.02698587820724"><ele>34.0</ele><time>2026-04-25T12:58:55Z</time></trkpt><trkpt lat="14.422725277159962" lon="121.0269496999709"><ele>34.0</ele><time>2026-04-25T12:58:57Z</time></trkpt><trkpt lat="14.422652051107395" lon="121.02691447260912"><ele>33.8</ele><time>2026-04-25T12:58:59Z</time></trkpt><trkpt lat="14.422585244245823" lon="121.02690289727296"><ele>33.599999999999994</ele><time>2026-04-25T12:59:01Z</time></trkpt><trkpt lat="14.422522581530197" lon="121.02699829580864"><ele>33.4</ele><time>2026-04-25T12:59:04Z</time></trkpt><trkpt lat="14.422503055359641" lon="121.02709294427622"><ele>33.199999999999996</ele><time>2026-04-25T12:59:06Z</time></trkpt><trkpt lat="14.422477146223772" lon="121.02720422748642"><ele>33.0</ele><time>2026-04-25T12:59:08Z</time></trkpt><trkpt lat="14.422447292786819" lon="121.02731953295634"><ele>33.0</ele><time>2026-04-25T12:59:10Z</time></trkpt><trkpt lat="14.422415098173667" lon="121.02743866200876"><ele>33.0</ele><time>2026-04-25T12:59:12Z</time></trkpt><trkpt lat="14.422382331314113" lon="121.02756298098613"><ele>33.0</ele><time>2026-04-25T12:59:14Z</time></trkpt><trkpt lat="14.42235811456295" lon="121.02765743507733"><ele>33.0</ele><time>2026-04-25T12:59:15Z</time></trkpt><trkpt lat="14.42234093209586" lon="121.02772445295595"><ele>33.0</ele><time>2026-04-25T12:59:16Z</time></trkpt><trkpt lat="14.422322269964226" lon="121.0277972420012"><ele>33.199999999999996</ele><time>2026-04-25T12:59:17Z</time></trkpt><trkpt lat="14.422299844159571" lon="121.02788471075672"><ele>33.4</ele><time>2026-04-25T12:59:18Z</time></trkpt><trkpt lat="14.422277340405985" lon="121.02797248757383"><ele>33.599999999999994</ele><time>2026-04-25T12:59:19Z</time></trkpt><trkpt lat="14.42223885033561" lon="121.02812262848494"><ele>33.8</ele><time>2026-04-25T12:59:20Z</time></trkpt><trkpt lat="14.422215008629106" lon="121.02821562949214"><ele>34.0</ele><time>2026-04-25T12:59:21Z</time></trkpt><trkpt lat="14.422192072858149" lon="121.02830509663771"><ele>33.6</ele><time>2026-04-25T12:59:22Z</time></trkpt><trkpt lat="14.422166030136793" lon="121.02840646928585"><ele>33.2</ele><time>2026-04-25T12:59:23Z</time></trkpt><trkpt lat="14.42213860364795" lon="121.02851283568067"><ele>32.800000000000004</ele><time>2026-04-25T12:59:24Z</time></trkpt><trkpt lat="14.422111617091064" lon="121.02861839727153"><ele>32.4</ele><time>2026-04-25T12:59:25Z</time></trkpt><trkpt lat="14.422084800759576" lon="121.02872329298792"><ele>32.0</ele><time>2026-04-25T12:59:26Z</time></trkpt><trkpt lat="14.422057617146443" lon="121.0288296253741"><ele>31.8</ele><time>2026-04-25T12:59:27Z</time></trkpt><trkpt lat="14.422030151524078" lon="121.02893706089165"><ele>31.6</ele><time>2026-04-25T12:59:28Z</time></trkpt><trkpt lat="14.422002199277653" lon="121.0290463998898"><ele>31.400000000000002</ele><time>2026-04-25T12:59:29Z</time></trkpt><trkpt lat="14.421974402560135" lon="121.02915513052655"><ele>31.200000000000003</ele><time>2026-04-25T12:59:30Z</time></trkpt><trkpt lat="14.421950782626693" lon="121.02924752310673"><ele>31.0</ele><time>2026-04-25T12:59:31Z</time></trkpt><trkpt lat="14.421923930149623" lon="121.02935256021846"><ele>30.200000000000003</ele><time>2026-04-25T12:59:32Z</time></trkpt><trkpt lat="14.421896941638801" lon="121.02945812945309"><ele>29.400000000000002</ele><time>2026-04-25T12:59:33Z</time></trkpt><trkpt lat="14.421869698329852" lon="121.02956469535653"><ele>28.6</ele><time>2026-04-25T12:59:34Z</time></trkpt><trkpt lat="14.42184202694293" lon="121.02967293573982"><ele>27.8</ele><time>2026-04-25T12:59:35Z</time></trkpt><trkpt lat="14.421815869293413" lon="121.02977525494292"><ele>27.0</ele><time>2026-04-25T12:59:36Z</time></trkpt><trkpt lat="14.42178824300528" lon="121.02987973001328"><ele>25.8</ele><time>2026-04-25T12:59:37Z</time></trkpt><trkpt lat="14.421761391207127" lon="121.02997988135817"><ele>24.6</ele><time>2026-04-25T12:59:38Z</time></trkpt><trkpt lat="14.421734191395233" lon="121.03008133078143"><ele>23.400000000000002</ele><time>2026-04-25T12:59:39Z</time></trkpt><trkpt lat="14.421705982221582" lon="121.03018660972175"><ele>22.200000000000003</ele><time>2026-04-25T12:59:40Z</time></trkpt><trkpt lat="14.421679294973957" lon="121.03028897399736"><ele>21.0</ele><time>2026-04-25T12:59:41Z</time></trkpt><trkpt lat="14.421652904683347" lon="121.0303895393465"><ele>21.0</ele><time>2026-04-25T12:59:42Z</time></trkpt><trkpt lat="14.421627023077676" lon="121.03048493157476"><ele>21.0</ele><time>2026-04-25T12:59:43Z</time></trkpt><trkpt lat="14.421598908759064" lon="121.03059352647132"><ele>21.0</ele><time>2026-04-25T12:59:44Z</time></trkpt><trkpt lat="14.421573721133838" lon="121.0306961125238"><ele>21.0</ele><time>2026-04-25T12:59:45Z</time></trkpt><trkpt lat="14.421550885522104" lon="121.03078911864795"><ele>21.0</ele><time>2026-04-25T12:59:46Z</time></trkpt><trkpt lat="14.421528195281443" lon="121.03088350727941"><ele>22.0</ele><time>2026-04-25T12:59:47Z</time></trkpt><trkpt lat="14.421504936430516" lon="121.03097958491294"><ele>23.0</ele><time>2026-04-25T12:59:48Z</time></trkpt><trkpt lat="14.42148245533497" lon="121.03107244974362"><ele>24.0</ele><time>2026-04-25T12:59:49Z</time></trkpt><trkpt lat="14.421459600146287" lon="121.03116685994323"><ele>25.0</ele><time>2026-04-25T12:59:50Z</time></trkpt><trkpt lat="14.421435999857618" lon="121.03125935604488"><ele>26.0</ele><time>2026-04-25T12:59:51Z</time></trkpt><trkpt lat="14.421412957076589" lon="121.03134832626398"><ele>25.999999999999996</ele><time>2026-04-25T12:59:52Z</time></trkpt><trkpt lat="14.421391185587925" lon="121.03143238791127"><ele>26.0</ele><time>2026-04-25T12:59:53Z</time></trkpt><trkpt lat="14.42136841121166" lon="121.03152032176361"><ele>26.0</ele><time>2026-04-25T12:59:54Z</time></trkpt><trkpt lat="14.421346197361727" lon="121.0316060913959"><ele>26.0</ele><time>2026-04-25T12:59:55Z</time></trkpt><trkpt lat="14.42132529444696" lon="121.03169137003403"><ele>25.999999999999996</ele><time>2026-04-25T12:59:56Z</time></trkpt><trkpt lat="14.421302878380068" lon="121.03178400455985"><ele>26.0</ele><time>2026-04-25T12:59:57Z</time></trkpt><trkpt lat="14.42127991364378" lon="121.03187561178824"><ele>26.0</ele><time>2026-04-25T12:59:58Z</time></trkpt><trkpt lat="14.42125562291901" lon="121.03197458090256"><ele>26.0</ele><time>2026-04-25T12:59:59Z</time></trkpt><trkpt lat="14.421232268285781" lon="121.03206973606483"><ele>26.0</ele><time>2026-04-25T13:00:00Z</time></trkpt><trkpt lat="14.421208563889854" lon="121.03216631629468"><ele>26.0</ele><time>2026-04-25T13:00:01Z</time></trkpt><trkpt lat="14.421184865069518" lon="121.0322620232749"><ele>26.0</ele><time>2026-04-25T13:00:02Z</time></trkpt><trkpt lat="14.421164099733872" lon="121.03234575529045"><ele>25.999999999999996</ele><time>2026-04-25T13:00:03Z</time></trkpt><trkpt lat="14.42114374183435" lon="121.03242784443889"><ele>26.0</ele><time>2026-04-25T13:00:04Z</time></trkpt><trkpt lat="14.421124142857739" lon="121.03250687328948"><ele>26.0</ele><time>2026-04-25T13:00:05Z</time></trkpt><trkpt lat="14.421102637580615" lon="121.03258840540296"><ele>26.0</ele><time>2026-04-25T13:00:06Z</time></trkpt><trkpt lat="14.421081016113304" lon="121.03267021570551"><ele>25.999999999999996</ele><time>2026-04-25T13:00:07Z</time></trkpt><trkpt lat="14.421059314355439" lon="121.03275177574129"><ele>26.0</ele><time>2026-04-25T13:00:08Z</time></trkpt><trkpt lat="14.421037484159815" lon="121.03283176222514"><ele>26.666666666666664</ele><time>2026-04-25T13:00:09Z</time></trkpt><trkpt lat="14.421016282426212" lon="121.03290982413631"><ele>27.333333333333332</ele><time>2026-04-25T13:00:10Z</time></trkpt><trkpt lat="14.420995037958395" lon="121.03298804339595"><ele>28.0</ele><time>2026-04-25T13:00:11Z</time></trkpt><trkpt lat="14.420972653926517" lon="121.03307045833586"><ele>28.666666666666664</ele><time>2026-04-25T13:00:12Z</time></trkpt><trkpt lat="14.420950099914473" lon="121.03315349884181"><ele>29.333333333333332</ele><time>2026-04-25T13:00:13Z</time></trkpt><trkpt lat="14.420930515656472" lon="121.03323710219443"><ele>30.0</ele><time>2026-04-25T13:00:14Z</time></trkpt><trkpt lat="14.420912556278791" lon="121.03331064324036"><ele>30.0</ele><time>2026-04-25T13:00:15Z</time></trkpt><trkpt lat="14.420890672478086" lon="121.03339022765495"><ele>30.0</ele><time>2026-04-25T13:00:16Z</time></trkpt><trkpt lat="14.420857652521711" lon="121.03351397765961"><ele>30.0</ele><time>2026-04-25T13:00:18Z</time></trkpt><trkpt lat="14.42083690575642" lon="121.03359173077358"><ele>30.0</ele><time>2026-04-25T13:00:19Z</time></trkpt><trkpt lat="14.42081445725155" lon="121.0336719841073"><ele>30.0</ele><time>2026-04-25T13:00:20Z</time></trkpt><trkpt lat="14.420790932740436" lon="121.03375283990309"><ele>30.0</ele><time>2026-04-25T13:00:21Z</time></trkpt><trkpt lat="14.420766202441564" lon="121.03382331660441"><ele>30.0</ele><time>2026-04-25T13:00:22Z</time></trkpt><trkpt lat="14.420739982968307" lon="121.03389803660913"><ele>30.0</ele><time>2026-04-25T13:00:23Z</time></trkpt><trkpt lat="14.420718148720724" lon="121.03397457946431"><ele>30.0</ele><time>2026-04-25T13:00:24Z</time></trkpt><trkpt lat="14.420689769461838" lon="121.0340511767628"><ele>30.0</ele><time>2026-04-25T13:00:25Z</time></trkpt><trkpt lat="14.420661203377714" lon="121.03412696432255"><ele>30.0</ele><time>2026-04-25T13:00:26Z</time></trkpt><trkpt lat="14.42062321217154" lon="121.03420908057204"><ele>30.0</ele><time>2026-04-25T13:00:27Z</time></trkpt><trkpt lat="14.42058916866827" lon="121.0342771464322"><ele>28.833333333333332</ele><time>2026-04-25T13:00:28Z</time></trkpt><trkpt lat="14.42055701148723" lon="121.03434144080886"><ele>27.666666666666668</ele><time>2026-04-25T13:00:29Z</time></trkpt><trkpt lat="14.420501972947546" lon="121.03445148371381"><ele>26.5</ele><time>2026-04-25T13:00:31Z</time></trkpt><trkpt lat="14.42045614555074" lon="121.03454124008925"><ele>25.333333333333336</ele><time>2026-04-25T13:00:33Z</time></trkpt><trkpt lat="14.42042662270042" lon="121.03460108263043"><ele>24.166666666666668</ele><time>2026-04-25T13:00:35Z</time></trkpt><trkpt lat="14.420390320365572" lon="121.03467466714473"><ele>23.0</ele><time>2026-04-25T13:02:05Z</time></trkpt><trkpt lat="14.420351059005503" lon="121.03474266885303"><ele>22.799999999999997</ele><time>2026-04-25T13:02:07Z</time></trkpt><trkpt lat="14.420303273465489" lon="121.03483216765798"><ele>22.6</ele><time>2026-04-25T13:02:09Z</time></trkpt><trkpt lat="14.4202454496152" lon="121.03493673653092"><ele>22.4</ele><time>2026-04-25T13:02:11Z</time></trkpt><trkpt lat="14.420176308066056" lon="121.0350553258726"><ele>22.200000000000003</ele><time>2026-04-25T13:02:13Z</time></trkpt><trkpt lat="14.420141723382471" lon="121.03511391878031"><ele>22.0</ele><time>2026-04-25T13:02:14Z</time></trkpt><trkpt lat="14.420104795407635" lon="121.03517732542703"><ele>22.6</ele><time>2026-04-25T13:02:15Z</time></trkpt><trkpt lat="14.420069511418133" lon="121.0352379092904"><ele>23.200000000000003</ele><time>2026-04-25T13:02:16Z</time></trkpt><trkpt lat="14.420030140552608" lon="121.03530551048053"><ele>23.8</ele><time>2026-04-25T13:02:17Z</time></trkpt><trkpt lat="14.41994402953264" lon="121.03543008562633"><ele>24.4</ele><time>2026-04-25T13:02:18Z</time></trkpt><trkpt lat="14.419907868571764" lon="121.03554178474269"><ele>25.0</ele><time>2026-04-25T13:02:19Z</time></trkpt><trkpt lat="14.41986886135389" lon="121.03560706189698"><ele>25.000000000000004</ele><time>2026-04-25T13:02:20Z</time></trkpt><trkpt lat="14.41983170024231" lon="121.03566895838615"><ele>25.0</ele><time>2026-04-25T13:02:21Z</time></trkpt><trkpt lat="14.41979595315797" lon="121.03572943351159"><ele>25.0</ele><time>2026-04-25T13:02:22Z</time></trkpt><trkpt lat="14.419761110001048" lon="121.03578765561335"><ele>25.0</ele><time>2026-04-25T13:02:23Z</time></trkpt><trkpt lat="14.419700253610657" lon="121.03589592215506"><ele>25.000000000000004</ele><time>2026-04-25T13:02:25Z</time></trkpt><trkpt lat="14.419649574316873" lon="121.03599846837754"><ele>25.0</ele><time>2026-04-25T13:02:27Z</time></trkpt><trkpt lat="14.419609001902748" lon="121.03609163477884"><ele>25.500000000000004</ele><time>2026-04-25T13:02:29Z</time></trkpt><trkpt lat="14.419562310913324" lon="121.03616562383006"><ele>26.0</ele><time>2026-04-25T13:02:31Z</time></trkpt><trkpt lat="14.419536035344066" lon="121.0362435621178"><ele>26.5</ele><time>2026-04-25T13:02:33Z</time></trkpt><trkpt lat="14.41950556554536" lon="121.03631272217194"><ele>27.0</ele><time>2026-04-25T13:02:35Z</time></trkpt><trkpt lat="14.4194662427728" lon="121.03638511071534"><ele>27.500000000000004</ele><time>2026-04-25T13:02:37Z</time></trkpt><trkpt lat="14.419426419959459" lon="121.03645671713123"><ele>28.0</ele><time>2026-04-25T13:02:39Z</time></trkpt><trkpt lat="14.41938324781294" lon="121.03653741738263"><ele>28.000000000000004</ele><time>2026-04-25T13:02:41Z</time></trkpt><trkpt lat="14.41933432473449" lon="121.03661746168365"><ele>28.0</ele><time>2026-04-25T13:02:43Z</time></trkpt><trkpt lat="14.419278831209018" lon="121.03670848611452"><ele>28.0</ele><time>2026-04-25T13:02:45Z</time></trkpt><trkpt lat="14.419248540019971" lon="121.03676782106494"><ele>28.0</ele><time>2026-04-25T13:02:46Z</time></trkpt><trkpt lat="14.419212273816587" lon="121.03683410101922"><ele>28.000000000000004</ele><time>2026-04-25T13:02:47Z</time></trkpt><trkpt lat="14.4191706468779" lon="121.03690240895497"><ele>28.0</ele><time>2026-04-25T13:02:48Z</time></trkpt><trkpt lat="14.419123751075478" lon="121.0369807213242"><ele>27.666666666666668</ele><time>2026-04-25T13:02:49Z</time></trkpt><trkpt lat="14.419069233624752" lon="121.03706178370449"><ele>27.333333333333336</ele><time>2026-04-25T13:02:50Z</time></trkpt><trkpt lat="14.419026660519178" lon="121.03714014281381"><ele>27.0</ele><time>2026-04-25T13:02:51Z</time></trkpt><trkpt lat="14.418975521340094" lon="121.03722983442769"><ele>26.666666666666664</ele><time>2026-04-25T13:02:52Z</time></trkpt><trkpt lat="14.418931776841179" lon="121.03730762066658"><ele>26.333333333333332</ele><time>2026-04-25T13:02:53Z</time></trkpt><trkpt lat="14.418897519486041" lon="121.03737276858432"><ele>26.0</ele><time>2026-04-25T13:02:54Z</time></trkpt><trkpt lat="14.418863899005347" lon="121.0374360847517"><ele>25.833333333333332</ele><time>2026-04-25T13:02:55Z</time></trkpt><trkpt lat="14.418830254514889" lon="121.0374979668614"><ele>25.666666666666664</ele><time>2026-04-25T13:02:56Z</time></trkpt><trkpt lat="14.418794161526174" lon="121.0375571145353"><ele>25.5</ele><time>2026-04-25T13:02:57Z</time></trkpt><trkpt lat="14.418756287095544" lon="121.03761789608471"><ele>25.333333333333336</ele><time>2026-04-25T13:02:58Z</time></trkpt><trkpt lat="14.41871424902662" lon="121.0376842711112"><ele>25.166666666666668</ele><time>2026-04-25T13:02:59Z</time></trkpt><trkpt lat="14.41866699583055" lon="121.03776395740906"><ele>25.0</ele><time>2026-04-25T13:03:00Z</time></trkpt><trkpt lat="14.418623265168973" lon="121.03784564342105"><ele>25.000000000000004</ele><time>2026-04-25T13:03:01Z</time></trkpt><trkpt lat="14.418579171197607" lon="121.03792029471816"><ele>25.0</ele><time>2026-04-25T13:03:02Z</time></trkpt><trkpt lat="14.418533128456845" lon="121.03798658686473"><ele>25.0</ele><time>2026-04-25T13:03:03Z</time></trkpt><trkpt lat="14.418488382487187" lon="121.03806170842412"><ele>25.0</ele><time>2026-04-25T13:03:04Z</time></trkpt><trkpt lat="14.41844744773938" lon="121.03813963889588"><ele>25.000000000000004</ele><time>2026-04-25T13:03:05Z</time></trkpt><trkpt lat="14.418408632815302" lon="121.03819777180385"><ele>25.0</ele><time>2026-04-25T13:03:06Z</time></trkpt><trkpt lat="14.418324819206628" lon="121.0382821528581"><ele>25.000000000000004</ele><time>2026-04-25T13:03:08Z</time></trkpt><trkpt lat="14.418267420339829" lon="121.03831822211545"><ele>25.0</ele><time>2026-04-25T13:03:09Z</time></trkpt><trkpt lat="14.41820247450141" lon="121.03828932341321"><ele>25.0</ele><time>2026-04-25T13:03:10Z</time></trkpt><trkpt lat="14.418096239358263" lon="121.03829171189382"><ele>25.0</ele><time>2026-04-25T13:03:12Z</time></trkpt><trkpt lat="14.41803804862219" lon="121.03826309074502"><ele>25.000000000000004</ele><time>2026-04-25T13:03:13Z</time></trkpt><trkpt lat="14.417971624344744" lon="121.03823042010747"><ele>25.0</ele><time>2026-04-25T13:03:14Z</time></trkpt><trkpt lat="14.417909729134797" lon="121.03819997708352"><ele>23.500000000000004</ele><time>2026-04-25T13:03:15Z</time></trkpt><trkpt lat="14.417834317209689" lon="121.038178770628"><ele>22.0</ele><time>2026-04-25T13:03:16Z</time></trkpt><trkpt lat="14.417763468032577" lon="121.03813034579755"><ele>20.5</ele><time>2026-04-25T13:03:17Z</time></trkpt><trkpt lat="14.417688378690526" lon="121.03809807790842"><ele>19.0</ele><time>2026-04-25T13:03:18Z</time></trkpt><trkpt lat="14.41762019492579" lon="121.038078872275"><ele>17.5</ele><time>2026-04-25T13:03:19Z</time></trkpt><trkpt lat="14.417551656020088" lon="121.03805169632847"><ele>16.0</ele><time>2026-04-25T13:03:20Z</time></trkpt><trkpt lat="14.41748473150287" lon="121.03802692504054"><ele>15.999999999999998</ele><time>2026-04-25T13:03:21Z</time></trkpt><trkpt lat="14.417407595120652" lon="121.03799999377785"><ele>16.0</ele><time>2026-04-25T13:03:22Z</time></trkpt><trkpt lat="14.41733518857959" lon="121.03797631211805"><ele>16.0</ele><time>2026-04-25T13:03:23Z</time></trkpt><trkpt lat="14.41726317815455" lon="121.03795376447985"><ele>16.0</ele><time>2026-04-25T13:03:24Z</time></trkpt><trkpt lat="14.417191860369652" lon="121.03793232755461"><ele>15.999999999999998</ele><time>2026-04-25T13:03:25Z</time></trkpt><trkpt lat="14.417115280905952" lon="121.03791226615074"><ele>16.0</ele><time>2026-04-25T13:03:26Z</time></trkpt><trkpt lat="14.417040005485456" lon="121.0378964683851"><ele>16.333333333333332</ele><time>2026-04-25T13:03:27Z</time></trkpt><trkpt lat="14.416961886573985" lon="121.03788496308148"><ele>16.666666666666664</ele><time>2026-04-25T13:03:28Z</time></trkpt><trkpt lat="14.416890610927883" lon="121.03788264042117"><ele>17.0</ele><time>2026-04-25T13:03:29Z</time></trkpt><trkpt lat="14.416809450180223" lon="121.03788032818308"><ele>17.333333333333332</ele><time>2026-04-25T13:03:30Z</time></trkpt><trkpt lat="14.416738225718875" lon="121.03788858297139"><ele>17.666666666666668</ele><time>2026-04-25T13:03:31Z</time></trkpt><trkpt lat="14.41665568605329" lon="121.03789117244182"><ele>18.0</ele><time>2026-04-25T13:03:32Z</time></trkpt><trkpt lat="14.416574395251315" lon="121.03789520649966"><ele>18.0</ele><time>2026-04-25T13:03:33Z</time></trkpt><trkpt lat="14.416491315133644" lon="121.0379003819596"><ele>18.0</ele><time>2026-04-25T13:03:34Z</time></trkpt><trkpt lat="14.416414777756707" lon="121.03791002160142"><ele>18.0</ele><time>2026-04-25T13:03:35Z</time></trkpt><trkpt lat="14.416346355107418" lon="121.0379247398149"><ele>18.0</ele><time>2026-04-25T13:03:36Z</time></trkpt><trkpt lat="14.416273870994365" lon="121.03793514186282"><ele>18.0</ele><time>2026-04-25T13:03:37Z</time></trkpt><trkpt lat="14.41619871990911" lon="121.03794537242628"><ele>18.0</ele><time>2026-04-25T13:03:38Z</time></trkpt><trkpt lat="14.416121486219478" lon="121.03795787275335"><ele>17.857142857142858</ele><time>2026-04-25T13:03:39Z</time></trkpt><trkpt lat="14.41604508699729" lon="121.03797597046773"><ele>17.714285714285715</ele><time>2026-04-25T13:03:40Z</time></trkpt><trkpt lat="14.415968533201712" lon="121.03799869449274"><ele>17.57142857142857</ele><time>2026-04-25T13:03:41Z</time></trkpt><trkpt lat="14.415893273036897" lon="121.03801281281216"><ele>17.42857142857143</ele><time>2026-04-25T13:03:42Z</time></trkpt><trkpt lat="14.415828934368" lon="121.03803118028613"><ele>17.285714285714285</ele><time>2026-04-25T13:03:43Z</time></trkpt><trkpt lat="14.415757222284714" lon="121.03805048159764"><ele>17.142857142857142</ele><time>2026-04-25T13:03:44Z</time></trkpt><trkpt lat="14.415693617348731" lon="121.03806907403046"><ele>17.0</ele><time>2026-04-25T13:03:45Z</time></trkpt><trkpt lat="14.415588475092079" lon="121.03810168355298"><ele>17.0</ele><time>2026-04-25T13:03:47Z</time></trkpt><trkpt lat="14.415504502287911" lon="121.03813306427698"><ele>17.0</ele><time>2026-04-25T13:03:49Z</time></trkpt><trkpt lat="14.415423254062771" lon="121.03817214906573"><ele>17.0</ele><time>2026-04-25T13:03:51Z</time></trkpt><trkpt lat="14.415366627360903" lon="121.03821127222535"><ele>17.0</ele><time>2026-04-25T13:03:53Z</time></trkpt><trkpt lat="14.415292822924654" lon="121.03824814981091"><ele>17.0</ele><time>2026-04-25T13:04:21Z</time></trkpt><trkpt lat="14.415221937186956" lon="121.03828787674264"><ele>17.0</ele><time>2026-04-25T13:04:23Z</time></trkpt><trkpt lat="14.415135729386217" lon="121.03834088074764"><ele>17.5</ele><time>2026-04-25T13:04:25Z</time></trkpt><trkpt lat="14.415039875917953" lon="121.03840455878618"><ele>18.0</ele><time>2026-04-25T13:04:27Z</time></trkpt><trkpt lat="14.414983692549571" lon="121.03843944066736"><ele>18.5</ele><time>2026-04-25T13:04:28Z</time></trkpt><trkpt lat="14.414925486230603" lon="121.03847557850753"><ele>19.0</ele><time>2026-04-25T13:04:29Z</time></trkpt><trkpt lat="14.414863778178727" lon="121.03851408577857"><ele>19.5</ele><time>2026-04-25T13:04:30Z</time></trkpt><trkpt lat="14.414800263697037" lon="121.03855401397173"><ele>20.0</ele><time>2026-04-25T13:04:31Z</time></trkpt><trkpt lat="14.414719281889301" lon="121.03861746834222"><ele>20.0</ele><time>2026-04-25T13:04:32Z</time></trkpt><trkpt lat="14.414662008991218" lon="121.03865359525793"><ele>20.0</ele><time>2026-04-25T13:04:33Z</time></trkpt><trkpt lat="14.41460583686162" lon="121.03868339988121"><ele>20.0</ele><time>2026-04-25T13:04:34Z</time></trkpt><trkpt lat="14.414543756987765" lon="121.03871205149649"><ele>20.0</ele><time>2026-04-25T13:04:35Z</time></trkpt><trkpt lat="14.414478240709181" lon="121.03873987101093"><ele>20.0</ele><time>2026-04-25T13:04:36Z</time></trkpt><trkpt lat="14.4144189849416" lon="121.03876465414157"><ele>20.0</ele><time>2026-04-25T13:04:37Z</time></trkpt><trkpt lat="14.414311901342243" lon="121.03879893671777"><ele>20.0</ele><time>2026-04-25T13:04:39Z</time></trkpt><trkpt lat="14.414221222550465" lon="121.03883233209118"><ele>19.6</ele><time>2026-04-25T13:04:41Z</time></trkpt><trkpt lat="14.41413997413857" lon="121.03885106736452"><ele>19.2</ele><time>2026-04-25T13:04:44Z</time></trkpt><trkpt lat="14.414048628082703" lon="121.03884168274524"><ele>18.8</ele><time>2026-04-25T13:04:50Z</time></trkpt><trkpt lat="14.413965533249954" lon="121.03884190531967"><ele>18.4</ele><time>2026-04-25T13:04:52Z</time></trkpt><trkpt lat="14.413854905893082" lon="121.03884033607336"><ele>18.0</ele><time>2026-04-25T13:04:54Z</time></trkpt><trkpt lat="14.41373492540824" lon="121.03884007832367"><ele>18.0</ele><time>2026-04-25T13:04:56Z</time></trkpt><trkpt lat="14.413659634279169" lon="121.03884003667301"><ele>18.0</ele><time>2026-04-25T13:04:57Z</time></trkpt><trkpt lat="14.41359084714567" lon="121.03884229951709"><ele>18.0</ele><time>2026-04-25T13:04:58Z</time></trkpt><trkpt lat="14.413515020278698" lon="121.03885907541786"><ele>18.0</ele><time>2026-04-25T13:04:59Z</time></trkpt><trkpt lat="14.413433941432258" lon="121.03887014887931"><ele>18.0</ele><time>2026-04-25T13:05:00Z</time></trkpt><trkpt lat="14.41335042814344" lon="121.03887512852742"><ele>18.0</ele><time>2026-04-25T13:05:01Z</time></trkpt><trkpt lat="14.413261657747993" lon="121.03887710295267"><ele>18.0</ele><time>2026-04-25T13:05:02Z</time></trkpt><trkpt lat="14.413163419160446" lon="121.03887752438122"><ele>18.0</ele><time>2026-04-25T13:05:03Z</time></trkpt><trkpt lat="14.413059780119488" lon="121.03887634525319"><ele>18.0</ele><time>2026-04-25T13:05:04Z</time></trkpt><trkpt lat="14.412961896272057" lon="121.03887176008699"><ele>18.0</ele><time>2026-04-25T13:05:05Z</time></trkpt><trkpt lat="14.412865719690586" lon="121.03886220125105"><ele>18.0</ele><time>2026-04-25T13:05:06Z</time></trkpt><trkpt lat="14.412765742335688" lon="121.03885032687012"><ele>18.833333333333332</ele><time>2026-04-25T13:05:07Z</time></trkpt><trkpt lat="14.41267124112544" lon="121.03883943324806"><ele>19.666666666666668</ele><time>2026-04-25T13:05:08Z</time></trkpt><trkpt lat="14.412581211191611" lon="121.03885684368578"><ele>20.5</ele><time>2026-04-25T13:05:09Z</time></trkpt><trkpt lat="14.412501146364178" lon="121.03884253185251"><ele>21.333333333333336</ele><time>2026-04-25T13:05:10Z</time></trkpt><trkpt lat="14.412424773965332" lon="121.03885543925102"><ele>22.166666666666668</ele><time>2026-04-25T13:05:11Z</time></trkpt><trkpt lat="14.412359449854048" lon="121.03888617779425"><ele>23.0</ele><time>2026-04-25T13:05:12Z</time></trkpt><trkpt lat="14.412315149194391" lon="121.0389389404072"><ele>23.0</ele><time>2026-04-25T13:05:13Z</time></trkpt><trkpt lat="14.412272929806251" lon="121.03900217284388"><ele>23.0</ele><time>2026-04-25T13:05:14Z</time></trkpt><trkpt lat="14.41224585866365" lon="121.03907804820072"><ele>23.0</ele><time>2026-04-25T13:05:15Z</time></trkpt><trkpt lat="14.412235207555481" lon="121.03916257327552"><ele>23.0</ele><time>2026-04-25T13:05:16Z</time></trkpt><trkpt lat="14.412237241808826" lon="121.0392519129392"><ele>23.0</ele><time>2026-04-25T13:05:17Z</time></trkpt><trkpt lat="14.41223905071442" lon="121.03934837260623"><ele>23.0</ele><time>2026-04-25T13:05:18Z</time></trkpt><trkpt lat="14.412192331040764" lon="121.03948216570679"><ele>23.4</ele><time>2026-04-25T13:05:20Z</time></trkpt><trkpt lat="14.412196022762886" lon="121.03958853383033"><ele>23.799999999999997</ele><time>2026-04-25T13:05:21Z</time></trkpt><trkpt lat="14.412198012913954" lon="121.03969585222964"><ele>24.2</ele><time>2026-04-25T13:05:22Z</time></trkpt><trkpt lat="14.412189855701413" lon="121.03980308036566"><ele>24.6</ele><time>2026-04-25T13:05:23Z</time></trkpt><trkpt lat="14.412181037532013" lon="121.03990611780793"><ele>25.0</ele><time>2026-04-25T13:05:24Z</time></trkpt><trkpt lat="14.412214964881317" lon="121.04004649791915"><ele>24.333333333333336</ele><time>2026-04-25T13:05:25Z</time></trkpt><trkpt lat="14.412190196451187" lon="121.04014637298904"><ele>23.666666666666668</ele><time>2026-04-25T13:05:26Z</time></trkpt><trkpt lat="14.412169631137495" lon="121.04020819360247"><ele>23.0</ele><time>2026-04-25T13:05:27Z</time></trkpt><trkpt lat="14.412153823264651" lon="121.04027676460703"><ele>22.333333333333336</ele><time>2026-04-25T13:05:28Z</time></trkpt><trkpt lat="14.412130944461083" lon="121.04034554258438"><ele>21.666666666666668</ele><time>2026-04-25T13:05:29Z</time></trkpt><trkpt lat="14.412080356707936" lon="121.04043240878448"><ele>21.0</ele><time>2026-04-25T13:05:31Z</time></trkpt><trkpt lat="14.412016701582665" lon="121.04053927163726"><ele>21.0</ele><time>2026-04-25T13:05:33Z</time></trkpt><trkpt lat="14.411969985252545" lon="121.04064669181585"><ele>21.0</ele><time>2026-04-25T13:05:35Z</time></trkpt><trkpt lat="14.411929863909709" lon="121.04072265476034"><ele>21.0</ele><time>2026-04-25T13:05:37Z</time></trkpt><trkpt lat="14.41189784422678" lon="121.04080028345064"><ele>21.0</ele><time>2026-04-25T13:05:41Z</time></trkpt><trkpt lat="14.411873647710644" lon="121.0408692714736"><ele>21.0</ele><time>2026-04-25T13:05:43Z</time></trkpt><trkpt lat="14.411840724736548" lon="121.0409626507595"><ele>21.0</ele><time>2026-04-25T13:05:45Z</time></trkpt><trkpt lat="14.411828358256873" lon="121.04102819825181"><ele>20.666666666666668</ele><time>2026-04-25T13:05:46Z</time></trkpt><trkpt lat="14.411811257620231" lon="121.04109819880604"><ele>20.333333333333332</ele><time>2026-04-25T13:05:47Z</time></trkpt><trkpt lat="14.411794256667829" lon="121.04117095615189"><ele>20.0</ele><time>2026-04-25T13:05:48Z</time></trkpt><trkpt lat="14.411774385030693" lon="121.0412489439867"><ele>19.666666666666664</ele><time>2026-04-25T13:05:49Z</time></trkpt><trkpt lat="14.411751752678365" lon="121.04133096303086"><ele>19.333333333333332</ele><time>2026-04-25T13:05:50Z</time></trkpt><trkpt lat="14.411727548828916" lon="121.04141560278524"><ele>19.0</ele><time>2026-04-25T13:05:51Z</time></trkpt><trkpt lat="14.411696357745303" lon="121.04150225256288"><ele>19.0</ele><time>2026-04-25T13:05:52Z</time></trkpt><trkpt lat="14.411662698711229" lon="121.04159290047477"><ele>19.0</ele><time>2026-04-25T13:05:53Z</time></trkpt><trkpt lat="14.411626006433389" lon="121.04168677761074"><ele>19.0</ele><time>2026-04-25T13:05:54Z</time></trkpt><trkpt lat="14.41158461887328" lon="121.04178342317535"><ele>19.0</ele><time>2026-04-25T13:05:55Z</time></trkpt><trkpt lat="14.41153980395925" lon="121.04188485353183"><ele>19.0</ele><time>2026-04-25T13:05:56Z</time></trkpt><trkpt lat="14.411493053585321" lon="121.04198374170151"><ele>18.8</ele><time>2026-04-25T13:05:57Z</time></trkpt><trkpt lat="14.411442271028692" lon="121.04208189501044"><ele>18.599999999999998</ele><time>2026-04-25T13:05:58Z</time></trkpt><trkpt lat="14.411391067259567" lon="121.04218262635905"><ele>18.4</ele><time>2026-04-25T13:05:59Z</time></trkpt><trkpt lat="14.411338633075212" lon="121.04228393129863"><ele>18.2</ele><time>2026-04-25T13:06:00Z</time></trkpt><trkpt lat="14.411286076206043" lon="121.04238377884307"><ele>18.0</ele><time>2026-04-25T13:06:01Z</time></trkpt><trkpt lat="14.411230891500553" lon="121.04248705905309"><ele>17.5</ele><time>2026-04-25T13:06:02Z</time></trkpt><trkpt lat="14.411175798719574" lon="121.04258740047285"><ele>17.0</ele><time>2026-04-25T13:06:03Z</time></trkpt><trkpt lat="14.411121009279865" lon="121.04268952220687"><ele>16.5</ele><time>2026-04-25T13:06:04Z</time></trkpt><trkpt lat="14.41106694650806" lon="121.04279265728229"><ele>16.0</ele><time>2026-04-25T13:06:05Z</time></trkpt><trkpt lat="14.411012597243625" lon="121.0428968701138"><ele>16.0</ele><time>2026-04-25T13:06:06Z</time></trkpt><trkpt lat="14.410957091149163" lon="121.04300091557305"><ele>16.0</ele><time>2026-04-25T13:06:07Z</time></trkpt><trkpt lat="14.410902716531467" lon="121.04310400217567"><ele>16.0</ele><time>2026-04-25T13:06:08Z</time></trkpt><trkpt lat="14.410849278310668" lon="121.04320360671271"><ele>16.0</ele><time>2026-04-25T13:06:09Z</time></trkpt><trkpt lat="14.410798851324426" lon="121.0432976798735"><ele>16.0</ele><time>2026-04-25T13:06:10Z</time></trkpt><trkpt lat="14.410751423680862" lon="121.0433838038"><ele>15.833333333333332</ele><time>2026-04-25T13:06:11Z</time></trkpt><trkpt lat="14.410706206372646" lon="121.04346376988167"><ele>15.666666666666666</ele><time>2026-04-25T13:06:12Z</time></trkpt><trkpt lat="14.410661764850401" lon="121.04353967708396"><ele>15.5</ele><time>2026-04-25T13:06:13Z</time></trkpt><trkpt lat="14.410613772520191" lon="121.04360672511564"><ele>15.333333333333332</ele><time>2026-04-25T13:06:14Z</time></trkpt><trkpt lat="14.41055374015227" lon="121.04366916664715"><ele>15.166666666666666</ele><time>2026-04-25T13:06:15Z</time></trkpt><trkpt lat="14.410482220110772" lon="121.04372281399083"><ele>15.0</ele><time>2026-04-25T13:06:16Z</time></trkpt><trkpt lat="14.41040330739605" lon="121.04375655448378"><ele>15.0</ele><time>2026-04-25T13:06:17Z</time></trkpt><trkpt lat="14.410315956362094" lon="121.04374560012718"><ele>15.0</ele><time>2026-04-25T13:06:18Z</time></trkpt><trkpt lat="14.410239465020906" lon="121.04372958678277"><ele>15.0</ele><time>2026-04-25T13:06:19Z</time></trkpt><trkpt lat="14.410178391619215" lon="121.04368920301245"><ele>15.0</ele><time>2026-04-25T13:06:20Z</time></trkpt><trkpt lat="14.410113211070511" lon="121.04364197893078"><ele>15.0</ele><time>2026-04-25T13:06:21Z</time></trkpt><trkpt lat="14.410061334150813" lon="121.0435877564045"><ele>15.0</ele><time>2026-04-25T13:06:22Z</time></trkpt><trkpt lat="14.41002739614715" lon="121.0435258348409"><ele>15.0</ele><time>2026-04-25T13:06:23Z</time></trkpt><trkpt lat="14.410004675768533" lon="121.04346042083769"><ele>15.0</ele><time>2026-04-25T13:06:24Z</time></trkpt><trkpt lat="14.410005240093305" lon="121.04334766477115"><ele>15.0</ele><time>2026-04-25T13:06:26Z</time></trkpt><trkpt lat="14.410036159168344" lon="121.04322506637514"><ele>15.0</ele><time>2026-04-25T13:06:28Z</time></trkpt><trkpt lat="14.410076984885333" lon="121.04315708687585"><ele>15.0</ele><time>2026-04-25T13:06:29Z</time></trkpt><trkpt lat="14.410119151922851" lon="121.04309979990353"><ele>15.0</ele><time>2026-04-25T13:06:30Z</time></trkpt><trkpt lat="14.410179886528743" lon="121.0430443277883"><ele>14.833333333333334</ele><time>2026-04-25T13:06:31Z</time></trkpt><trkpt lat="14.41025644010076" lon="121.04303321767654"><ele>14.666666666666668</ele><time>2026-04-25T13:06:32Z</time></trkpt><trkpt lat="14.410331203650692" lon="121.04304081954547"><ele>14.5</ele><time>2026-04-25T13:06:33Z</time></trkpt><trkpt lat="14.410405736443943" lon="121.04306035066533"><ele>14.333333333333334</ele><time>2026-04-25T13:06:34Z</time></trkpt><trkpt lat="14.410489932643175" lon="121.04305575260102"><ele>14.166666666666668</ele><time>2026-04-25T13:06:35Z</time></trkpt><trkpt lat="14.410575489356503" lon="121.04308431711114"><ele>14.0</ele><time>2026-04-25T13:06:36Z</time></trkpt><trkpt lat="14.410654949790734" lon="121.04312535808498"><ele>14.399999999999999</ele><time>2026-04-25T13:06:37Z</time></trkpt><trkpt lat="14.410737490547302" lon="121.0431679900212"><ele>14.799999999999999</ele><time>2026-04-25T13:06:38Z</time></trkpt><trkpt lat="14.41082929410815" lon="121.04321540615418"><ele>15.200000000000001</ele><time>2026-04-25T13:06:39Z</time></trkpt><trkpt lat="14.410918741299533" lon="121.04326509208411"><ele>15.600000000000001</ele><time>2026-04-25T13:06:40Z</time></trkpt><trkpt lat="14.411023558090829" lon="121.04330563183626"><ele>16.0</ele><time>2026-04-25T13:06:41Z</time></trkpt><trkpt lat="14.411128512260682" lon="121.04335047772373"><ele>16.0</ele><time>2026-04-25T13:06:42Z</time></trkpt><trkpt lat="14.41124064299611" lon="121.04340044521166"><ele>16.0</ele><time>2026-04-25T13:06:43Z</time></trkpt><trkpt lat="14.411345288820005" lon="121.04348191432597"><ele>16.0</ele><time>2026-04-25T13:06:44Z</time></trkpt><trkpt lat="14.411451818571566" lon="121.04354204439713"><ele>16.0</ele><time>2026-04-25T13:06:45Z</time></trkpt><trkpt lat="14.41156890200246" lon="121.043607940219"><ele>16.0</ele><time>2026-04-25T13:06:46Z</time></trkpt><trkpt lat="14.411687478371269" lon="121.04367439901998"><ele>16.0</ele><time>2026-04-25T13:06:47Z</time></trkpt><trkpt lat="14.411807026615186" lon="121.04374294514176"><ele>16.0</ele><time>2026-04-25T13:06:48Z</time></trkpt><trkpt lat="14.411928059575002" lon="121.04381311190816"><ele>16.0</ele><time>2026-04-25T13:06:49Z</time></trkpt><trkpt lat="14.412046700519086" lon="121.04388309634355"><ele>17.0</ele><time>2026-04-25T13:06:50Z</time></trkpt><trkpt lat="14.412165438707488" lon="121.0439489467083"><ele>18.0</ele><time>2026-04-25T13:06:51Z</time></trkpt><trkpt lat="14.412287439984985" lon="121.04401910612077"><ele>19.0</ele><time>2026-04-25T13:06:52Z</time></trkpt><trkpt lat="14.41241457539122" lon="121.04409230755574"><ele>20.0</ele><time>2026-04-25T13:06:53Z</time></trkpt><trkpt lat="14.412542209221273" lon="121.04416585999063"><ele>20.0</ele><time>2026-04-25T13:06:54Z</time></trkpt><trkpt lat="14.41267112418348" lon="121.04424205570572"><ele>20.0</ele><time>2026-04-25T13:06:55Z</time></trkpt><trkpt lat="14.41280215442063" lon="121.0443215269578"><ele>20.0</ele><time>2026-04-25T13:06:56Z</time></trkpt><trkpt lat="14.412932654126827" lon="121.04440298227976"><ele>21.0</ele><time>2026-04-25T13:06:57Z</time></trkpt><trkpt lat="14.413067937201149" lon="121.04448562061556"><ele>22.0</ele><time>2026-04-25T13:06:58Z</time></trkpt><trkpt lat="14.413199575876677" lon="121.04456552572583"><ele>23.0</ele><time>2026-04-25T13:06:59Z</time></trkpt><trkpt lat="14.413335520913835" lon="121.04464250288797"><ele>23.0</ele><time>2026-04-25T13:07:00Z</time></trkpt><trkpt lat="14.413471753079687" lon="121.04471726338866"><ele>23.0</ele><time>2026-04-25T13:07:01Z</time></trkpt><trkpt lat="14.413605045216485" lon="121.04478944092007"><ele>23.0</ele><time>2026-04-25T13:07:02Z</time></trkpt><trkpt lat="14.413747595867672" lon="121.04485406256481"><ele>20.666666666666668</ele><time>2026-04-25T13:07:03Z</time></trkpt><trkpt lat="14.413888661850491" lon="121.04491808238411"><ele>18.333333333333332</ele><time>2026-04-25T13:07:04Z</time></trkpt><trkpt lat="14.414031298771455" lon="121.04498033782102"><ele>16.0</ele><time>2026-04-25T13:07:05Z</time></trkpt><trkpt lat="14.41417430681855" lon="121.04503956257166"><ele>15.333333333333332</ele><time>2026-04-25T13:07:06Z</time></trkpt><trkpt lat="14.414318441163402" lon="121.04509506459237"><ele>14.666666666666668</ele><time>2026-04-25T13:07:07Z</time></trkpt><trkpt lat="14.414464044858345" lon="121.04514667602422"><ele>14.0</ele><time>2026-04-25T13:07:08Z</time></trkpt><trkpt lat="14.41460760595217" lon="121.04519090729323"><ele>14.0</ele><time>2026-04-25T13:07:09Z</time></trkpt><trkpt lat="14.414746881464914" lon="121.04522838682217"><ele>14.0</ele><time>2026-04-25T13:07:10Z</time></trkpt><trkpt lat="14.414885647718094" lon="121.045262504706"><ele>14.0</ele><time>2026-04-25T13:07:11Z</time></trkpt><trkpt lat="14.415024260448343" lon="121.04529351041403"><ele>14.0</ele><time>2026-04-25T13:07:12Z</time></trkpt><trkpt lat="14.41516297435631" lon="121.04532162303616"><ele>14.0</ele><time>2026-04-25T13:07:13Z</time></trkpt><trkpt lat="14.415302309931448" lon="121.0453449719401"><ele>14.0</ele><time>2026-04-25T13:07:14Z</time></trkpt><trkpt lat="14.415442012134521" lon="121.0453651323557"><ele>14.0</ele><time>2026-04-25T13:07:15Z</time></trkpt><trkpt lat="14.415583504726248" lon="121.04538108752872"><ele>14.0</ele><time>2026-04-25T13:07:16Z</time></trkpt><trkpt lat="14.41572637567469" lon="121.04539408603506"><ele>13.75</ele><time>2026-04-25T13:07:17Z</time></trkpt><trkpt lat="14.415871280777774" lon="121.04540743382395"><ele>13.5</ele><time>2026-04-25T13:07:18Z</time></trkpt><trkpt lat="14.416016856969344" lon="121.0454208736867"><ele>13.25</ele><time>2026-04-25T13:07:19Z</time></trkpt><trkpt lat="14.416163219124668" lon="121.04543041192981"><ele>13.0</ele><time>2026-04-25T13:07:20Z</time></trkpt><trkpt lat="14.416311995215803" lon="121.04542538828925"><ele>12.666666666666666</ele><time>2026-04-25T13:07:21Z</time></trkpt><trkpt lat="14.416461110922594" lon="121.04542972259678"><ele>12.333333333333332</ele><time>2026-04-25T13:07:22Z</time></trkpt><trkpt lat="14.416609708665554" lon="121.04544897970943"><ele>12.0</ele><time>2026-04-25T13:07:23Z</time></trkpt><trkpt lat="14.416762990264452" lon="121.04543178475421"><ele>12.0</ele><time>2026-04-25T13:07:24Z</time></trkpt><trkpt lat="14.416916585543628" lon="121.04543249038277"><ele>12.0</ele><time>2026-04-25T13:07:25Z</time></trkpt><trkpt lat="14.417075971547934" lon="121.04543265706047"><ele>12.0</ele><time>2026-04-25T13:07:26Z</time></trkpt><trkpt lat="14.417232280551756" lon="121.0454334654804"><ele>12.666666666666668</ele><time>2026-04-25T13:07:27Z</time></trkpt><trkpt lat="14.417390241376243" lon="121.04543666517662"><ele>13.333333333333334</ele><time>2026-04-25T13:07:28Z</time></trkpt><trkpt lat="14.41754937686402" lon="121.04543723670932"><ele>14.0</ele><time>2026-04-25T13:07:29Z</time></trkpt><trkpt lat="14.417710027803576" lon="121.04543712442513"><ele>14.0</ele><time>2026-04-25T13:07:30Z</time></trkpt><trkpt lat="14.417869881514504" lon="121.04543646503609"><ele>14.0</ele><time>2026-04-25T13:07:31Z</time></trkpt><trkpt lat="14.418029509679513" lon="121.04543603466644"><ele>14.0</ele><time>2026-04-25T13:07:32Z</time></trkpt><trkpt lat="14.418186380685516" lon="121.04543658294303"><ele>14.666666666666668</ele><time>2026-04-25T13:07:33Z</time></trkpt><trkpt lat="14.418342323585527" lon="121.0454367635112"><ele>15.333333333333332</ele><time>2026-04-25T13:07:34Z</time></trkpt><trkpt lat="14.418495775611788" lon="121.04543552602193"><ele>16.0</ele><time>2026-04-25T13:07:35Z</time></trkpt><trkpt lat="14.41864352151351" lon="121.04543437026787"><ele>16.0</ele><time>2026-04-25T13:07:36Z</time></trkpt><trkpt lat="14.418787603144954" lon="121.04543318938696"><ele>16.0</ele><time>2026-04-25T13:07:37Z</time></trkpt><trkpt lat="14.418928291169665" lon="121.04543251346796"><ele>16.0</ele><time>2026-04-25T13:07:38Z</time></trkpt><trkpt lat="14.419065990422885" lon="121.04543234356882"><ele>16.0</ele><time>2026-04-25T13:07:39Z</time></trkpt><trkpt lat="14.41920139416328" lon="121.0454318912233"><ele>16.25</ele><time>2026-04-25T13:07:40Z</time></trkpt><trkpt lat="14.41933399188965" lon="121.04543702944845"><ele>16.5</ele><time>2026-04-25T13:07:41Z</time></trkpt><trkpt lat="14.419467198475834" lon="121.04544611265744"><ele>16.75</ele><time>2026-04-25T13:07:42Z</time></trkpt><trkpt lat="14.4195983031397" lon="121.04545278713228"><ele>17.0</ele><time>2026-04-25T13:07:43Z</time></trkpt><trkpt lat="14.419732727198577" lon="121.04545635043493"><ele>17.0</ele><time>2026-04-25T13:07:44Z</time></trkpt><trkpt lat="14.41986849940301" lon="121.04546000998161"><ele>17.0</ele><time>2026-04-25T13:07:45Z</time></trkpt><trkpt lat="14.420006464336982" lon="121.04546190324966"><ele>17.0</ele><time>2026-04-25T13:07:46Z</time></trkpt><trkpt lat="14.420145462781374" lon="121.04546448669153"><ele>17.0</ele><time>2026-04-25T13:07:47Z</time></trkpt><trkpt lat="14.420281674620817" lon="121.04546659457868"><ele>17.0</ele><time>2026-04-25T13:07:48Z</time></trkpt><trkpt lat="14.420419006602005" lon="121.04546732997834"><ele>17.0</ele><time>2026-04-25T13:07:49Z</time></trkpt><trkpt lat="14.420552691018797" lon="121.04546903428712"><ele>17.0</ele><time>2026-04-25T13:07:50Z</time></trkpt><trkpt lat="14.420683391439189" lon="121.04546943296776"><ele>17.0</ele><time>2026-04-25T13:07:51Z</time></trkpt><trkpt lat="14.420812002299412" lon="121.04547094154897"><ele>16.5</ele><time>2026-04-25T13:07:52Z</time></trkpt><trkpt lat="14.420932709411566" lon="121.04547288524479"><ele>16.0</ele><time>2026-04-25T13:07:53Z</time></trkpt><trkpt lat="14.421054371079151" lon="121.04547620620951"><ele>15.5</ele><time>2026-04-25T13:07:54Z</time></trkpt><trkpt lat="14.421181782551702" lon="121.04547878443898"><ele>15.0</ele><time>2026-04-25T13:07:55Z</time></trkpt><trkpt lat="14.42130990453729" lon="121.0454860638278"><ele>13.75</ele><time>2026-04-25T13:07:56Z</time></trkpt><trkpt lat="14.42144709472513" lon="121.04548837663602"><ele>12.5</ele><time>2026-04-25T13:07:57Z</time></trkpt><trkpt lat="14.421584356981482" lon="121.04549265460199"><ele>11.25</ele><time>2026-04-25T13:07:58Z</time></trkpt><trkpt lat="14.421725093576494" lon="121.04549760437112"><ele>10.0</ele><time>2026-04-25T13:07:59Z</time></trkpt><trkpt lat="14.421865919928047" lon="121.0455016268732"><ele>10.0</ele><time>2026-04-25T13:08:00Z</time></trkpt><trkpt lat="14.422002917971987" lon="121.04550622033193"><ele>10.0</ele><time>2026-04-25T13:08:01Z</time></trkpt><trkpt lat="14.422128188220896" lon="121.04550981071301"><ele>10.0</ele><time>2026-04-25T13:08:02Z</time></trkpt><trkpt lat="14.422239503184906" lon="121.04551154406191"><ele>10.0</ele><time>2026-04-25T13:08:03Z</time></trkpt><trkpt lat="14.422330572509033" lon="121.04551325437112"><ele>10.0</ele><time>2026-04-25T13:08:04Z</time></trkpt><trkpt lat="14.422418781724454" lon="121.04551387047216"><ele>10.0</ele><time>2026-04-25T13:08:05Z</time></trkpt><trkpt lat="14.422510700990006" lon="121.04551743752987"><ele>10.0</ele><time>2026-04-25T13:08:06Z</time></trkpt><trkpt lat="14.422602722814965" lon="121.04552223182664"><ele>10.0</ele><time>2026-04-25T13:08:07Z</time></trkpt><trkpt lat="14.422697369674099" lon="121.04552672540022"><ele>10.0</ele><time>2026-04-25T13:08:08Z</time></trkpt><trkpt lat="14.422800292179371" lon="121.04553482818262"><ele>10.0</ele><time>2026-04-25T13:08:09Z</time></trkpt><trkpt lat="14.422903312799086" lon="121.04554001509923"><ele>10.0</ele><time>2026-04-25T13:08:10Z</time></trkpt><trkpt lat="14.422991224855927" lon="121.0455489971041"><ele>10.0</ele><time>2026-04-25T13:08:11Z</time></trkpt><trkpt lat="14.423078381320924" lon="121.04554160397448"><ele>10.0</ele><time>2026-04-25T13:08:12Z</time></trkpt><trkpt lat="14.423179232118033" lon="121.04554479820891"><ele>10.0</ele><time>2026-04-25T13:08:13Z</time></trkpt><trkpt lat="14.423282611601334" lon="121.04554741691365"><ele>10.6</ele><time>2026-04-25T13:08:14Z</time></trkpt><trkpt lat="14.423388617597245" lon="121.04554870598643"><ele>11.2</ele><time>2026-04-25T13:08:15Z</time></trkpt><trkpt lat="14.423495106127667" lon="121.04554904697227"><ele>11.8</ele><time>2026-04-25T13:08:16Z</time></trkpt><trkpt lat="14.423600483301735" lon="121.04554817213068"><ele>12.4</ele><time>2026-04-25T13:08:17Z</time></trkpt><trkpt lat="14.423705389760714" lon="121.04554722652016"><ele>13.0</ele><time>2026-04-25T13:08:18Z</time></trkpt><trkpt lat="14.423811374550095" lon="121.04554574189997"><ele>13.8</ele><time>2026-04-25T13:08:19Z</time></trkpt><trkpt lat="14.423916477944415" lon="121.04554378943641"><ele>14.600000000000001</ele><time>2026-04-25T13:08:20Z</time></trkpt><trkpt lat="14.424024486444953" lon="121.04554181144196"><ele>15.399999999999999</ele><time>2026-04-25T13:08:21Z</time></trkpt><trkpt lat="14.424133951161464" lon="121.04554055385235"><ele>16.2</ele><time>2026-04-25T13:08:22Z</time></trkpt><trkpt lat="14.424242217265524" lon="121.04553994825802"><ele>17.0</ele><time>2026-04-25T13:08:23Z</time></trkpt><trkpt lat="14.424347527240169" lon="121.04553931439757"><ele>17.0</ele><time>2026-04-25T13:08:24Z</time></trkpt><trkpt lat="14.42445587812448" lon="121.0455385538111"><ele>17.0</ele><time>2026-04-25T13:08:25Z</time></trkpt><trkpt lat="14.424563484959018" lon="121.04553759440515"><ele>17.0</ele><time>2026-04-25T13:08:26Z</time></trkpt><trkpt lat="14.424669287995904" lon="121.04553625164509"><ele>17.0</ele><time>2026-04-25T13:08:27Z</time></trkpt><trkpt lat="14.424772107717825" lon="121.04553514840528"><ele>17.0</ele><time>2026-04-25T13:08:28Z</time></trkpt><trkpt lat="14.424884785127992" lon="121.0455343169365"><ele>16.0</ele><time>2026-04-25T13:08:29Z</time></trkpt><trkpt lat="14.42499104224747" lon="121.04553374167537"><ele>15.0</ele><time>2026-04-25T13:08:30Z</time></trkpt><trkpt lat="14.42511731344579" lon="121.04553322908222"><ele>14.0</ele><time>2026-04-25T13:08:31Z</time></trkpt><trkpt lat="14.425239403088685" lon="121.04553305730036"><ele>13.0</ele><time>2026-04-25T13:08:32Z</time></trkpt><trkpt lat="14.425358882345504" lon="121.04553319794559"><ele>13.25</ele><time>2026-04-25T13:08:33Z</time></trkpt><trkpt lat="14.425485483230126" lon="121.04553391002516"><ele>13.5</ele><time>2026-04-25T13:08:34Z</time></trkpt><trkpt lat="14.425602785367778" lon="121.0455343976822"><ele>13.75</ele><time>2026-04-25T13:08:35Z</time></trkpt><trkpt lat="14.42572344292111" lon="121.04553362812504"><ele>14.0</ele><time>2026-04-25T13:08:36Z</time></trkpt><trkpt lat="14.4258462459357" lon="121.04553299985669"><ele>14.0</ele><time>2026-04-25T13:08:37Z</time></trkpt><trkpt lat="14.425971784178273" lon="121.04553177458571"><ele>14.0</ele><time>2026-04-25T13:08:38Z</time></trkpt><trkpt lat="14.426097115699664" lon="121.04553148013818"><ele>14.0</ele><time>2026-04-25T13:08:39Z</time></trkpt><trkpt lat="14.42621887854573" lon="121.04553103862332"><ele>14.0</ele><time>2026-04-25T13:08:40Z</time></trkpt><trkpt lat="14.426342476751751" lon="121.04553056136015"><ele>13.75</ele><time>2026-04-25T13:08:41Z</time></trkpt><trkpt lat="14.426464590937737" lon="121.04553044322532"><ele>13.5</ele><time>2026-04-25T13:08:42Z</time></trkpt><trkpt lat="14.42659401768019" lon="121.04553052737555"><ele>13.25</ele><time>2026-04-25T13:08:43Z</time></trkpt><trkpt lat="14.42673301795443" lon="121.04553071169062"><ele>13.0</ele><time>2026-04-25T13:08:44Z</time></trkpt><trkpt lat="14.426887871084308" lon="121.04553074258304"><ele>13.0</ele><time>2026-04-25T13:08:45Z</time></trkpt><trkpt lat="14.427030619481563" lon="121.0455308695671"><ele>13.0</ele><time>2026-04-25T13:08:46Z</time></trkpt><trkpt lat="14.427164836824124" lon="121.045530026744"><ele>13.0</ele><time>2026-04-25T13:08:47Z</time></trkpt><trkpt lat="14.427332123028238" lon="121.04552953106634"><ele>13.0</ele><time>2026-04-25T13:08:48Z</time></trkpt><trkpt lat="14.427460587725964" lon="121.04552766523217"><ele>12.5</ele><time>2026-04-25T13:08:49Z</time></trkpt><trkpt lat="14.427588951606056" lon="121.0455257832162"><ele>12.0</ele><time>2026-04-25T13:08:50Z</time></trkpt><trkpt lat="14.427706267959897" lon="121.04552365169559"><ele>11.5</ele><time>2026-04-25T13:08:51Z</time></trkpt><trkpt lat="14.42784288319836" lon="121.04552191722101"><ele>11.0</ele><time>2026-04-25T13:08:52Z</time></trkpt><trkpt lat="14.427975117903326" lon="121.04552108315232"><ele>11.25</ele><time>2026-04-25T13:08:53Z</time></trkpt><trkpt lat="14.428119663299428" lon="121.04552190324077"><ele>11.5</ele><time>2026-04-25T13:08:54Z</time></trkpt><trkpt lat="14.428259486365189" lon="121.04552169129816"><ele>11.75</ele><time>2026-04-25T13:08:55Z</time></trkpt><trkpt lat="14.428403755963176" lon="121.0455205850996"><ele>12.0</ele><time>2026-04-25T13:08:56Z</time></trkpt><trkpt lat="14.42854856672321" lon="121.04551740731675"><ele>12.0</ele><time>2026-04-25T13:08:57Z</time></trkpt><trkpt lat="14.428693476758312" lon="121.04551474602006"><ele>12.0</ele><time>2026-04-25T13:08:58Z</time></trkpt><trkpt lat="14.428826009015744" lon="121.04551529583247"><ele>12.0</ele><time>2026-04-25T13:08:59Z</time></trkpt><trkpt lat="14.428966552059627" lon="121.04551400736021"><ele>12.0</ele><time>2026-04-25T13:09:00Z</time></trkpt><trkpt lat="14.42910709405478" lon="121.04551345261591"><ele>12.0</ele><time>2026-04-25T13:09:01Z</time></trkpt><trkpt lat="14.42924513552459" lon="121.04551114220386"><ele>12.0</ele><time>2026-04-25T13:09:02Z</time></trkpt><trkpt lat="14.429381479327994" lon="121.04550749038889"><ele>12.0</ele><time>2026-04-25T13:09:03Z</time></trkpt><trkpt lat="14.429515829648862" lon="121.04550717114068"><ele>12.0</ele><time>2026-04-25T13:09:04Z</time></trkpt><trkpt lat="14.429663319987093" lon="121.04550335756878"><ele>11.5</ele><time>2026-04-25T13:09:05Z</time></trkpt><trkpt lat="14.429797760476573" lon="121.04549987107306"><ele>11.0</ele><time>2026-04-25T13:09:06Z</time></trkpt><trkpt lat="14.429924140635892" lon="121.04549910902317"><ele>10.5</ele><time>2026-04-25T13:09:07Z</time></trkpt><trkpt lat="14.430053341145642" lon="121.04549977460472"><ele>10.0</ele><time>2026-04-25T13:09:08Z</time></trkpt><trkpt lat="14.430175840078961" lon="121.04550164612546"><ele>10.0</ele><time>2026-04-25T13:09:09Z</time></trkpt><trkpt lat="14.430303959505187" lon="121.04550419523554"><ele>10.0</ele><time>2026-04-25T13:09:10Z</time></trkpt><trkpt lat="14.430435729592945" lon="121.04550636809816"><ele>10.0</ele><time>2026-04-25T13:09:11Z</time></trkpt><trkpt lat="14.430569598007624" lon="121.04550875379134"><ele>10.0</ele><time>2026-04-25T13:09:12Z</time></trkpt><trkpt lat="14.430704221439546" lon="121.04550986871854"><ele>10.0</ele><time>2026-04-25T13:09:13Z</time></trkpt><trkpt lat="14.43084592192481" lon="121.04550964697806"><ele>10.0</ele><time>2026-04-25T13:09:14Z</time></trkpt><trkpt lat="14.4309868796874" lon="121.04550909256486"><ele>10.0</ele><time>2026-04-25T13:09:15Z</time></trkpt><trkpt lat="14.43112712183143" lon="121.04550819413123"><ele>10.0</ele><time>2026-04-25T13:09:16Z</time></trkpt><trkpt lat="14.431269757602838" lon="121.04550673905113"><ele>10.25</ele><time>2026-04-25T13:09:17Z</time></trkpt><trkpt lat="14.431409895895813" lon="121.04550829419304"><ele>10.5</ele><time>2026-04-25T13:09:18Z</time></trkpt><trkpt lat="14.431541877711723" lon="121.04551069446188"><ele>10.75</ele><time>2026-04-25T13:09:19Z</time></trkpt><trkpt lat="14.43167320661565" lon="121.04551284611952"><ele>11.0</ele><time>2026-04-25T13:09:20Z</time></trkpt><trkpt lat="14.431784040763352" lon="121.04550875885495"><ele>11.0</ele><time>2026-04-25T13:09:21Z</time></trkpt><trkpt lat="14.431912089869055" lon="121.04550197886657"><ele>11.0</ele><time>2026-04-25T13:09:22Z</time></trkpt><trkpt lat="14.432041312219154" lon="121.04549672022883"><ele>11.0</ele><time>2026-04-25T13:09:23Z</time></trkpt><trkpt lat="14.432165248863914" lon="121.04549407906119"><ele>11.0</ele><time>2026-04-25T13:09:24Z</time></trkpt><trkpt lat="14.43229600528258" lon="121.04549331135624"><ele>11.25</ele><time>2026-04-25T13:09:25Z</time></trkpt><trkpt lat="14.432425565096134" lon="121.04549263809096"><ele>11.5</ele><time>2026-04-25T13:09:26Z</time></trkpt><trkpt lat="14.432553026398317" lon="121.0454923615446"><ele>11.75</ele><time>2026-04-25T13:09:27Z</time></trkpt><trkpt lat="14.432681173984374" lon="121.04549258623823"><ele>12.0</ele><time>2026-04-25T13:09:28Z</time></trkpt><trkpt lat="14.432806956218633" lon="121.04549369440622"><ele>12.0</ele><time>2026-04-25T13:09:29Z</time></trkpt><trkpt lat="14.432931470149395" lon="121.04549375893612"><ele>12.0</ele><time>2026-04-25T13:09:30Z</time></trkpt><trkpt lat="14.433063795366639" lon="121.04549236201821"><ele>12.0</ele><time>2026-04-25T13:09:31Z</time></trkpt><trkpt lat="14.433197536455905" lon="121.04549125870477"><ele>12.0</ele><time>2026-04-25T13:09:32Z</time></trkpt><trkpt lat="14.433320472716822" lon="121.04549172393894"><ele>11.75</ele><time>2026-04-25T13:09:33Z</time></trkpt><trkpt lat="14.433445062992446" lon="121.0454945778142"><ele>11.5</ele><time>2026-04-25T13:09:34Z</time></trkpt><trkpt lat="14.433564107625958" lon="121.04549215563941"><ele>11.25</ele><time>2026-04-25T13:09:35Z</time></trkpt><trkpt lat="14.433681822953336" lon="121.0454888705213"><ele>11.0</ele><time>2026-04-25T13:09:36Z</time></trkpt><trkpt lat="14.43380277334994" lon="121.04548648184631"><ele>10.5</ele><time>2026-04-25T13:09:37Z</time></trkpt><trkpt lat="14.433922948241952" lon="121.0454837950487"><ele>10.0</ele><time>2026-04-25T13:09:38Z</time></trkpt><trkpt lat="14.434045175675694" lon="121.04548187453203"><ele>9.5</ele><time>2026-04-25T13:09:39Z</time></trkpt><trkpt lat="14.434165698534517" lon="121.04548041199065"><ele>9.0</ele><time>2026-04-25T13:09:40Z</time></trkpt><trkpt lat="14.43428908019796" lon="121.04548027915364"><ele>9.0</ele><time>2026-04-25T13:09:41Z</time></trkpt><trkpt lat="14.43441519012497" lon="121.04547998426413"><ele>9.0</ele><time>2026-04-25T13:09:42.055Z</time></trkpt><trkpt lat="14.434529416806377" lon="121.04548071913416"><ele>9.0</ele><time>2026-04-25T13:09:43.055Z</time></trkpt><trkpt lat="14.434662049136003" lon="121.04548145269553"><ele>9.0</ele><time>2026-04-25T13:09:44.054Z</time></trkpt><trkpt lat="14.434816552375318" lon="121.04548104132179"><ele>9.25</ele><time>2026-04-25T13:09:45.053Z</time></trkpt><trkpt lat="14.434951862470147" lon="121.04548019797443"><ele>9.5</ele><time>2026-04-25T13:09:46.053Z</time></trkpt><trkpt lat="14.435058089883983" lon="121.04547968294675"><ele>9.75</ele><time>2026-04-25T13:09:47.053Z</time></trkpt><trkpt lat="14.435176246820749" lon="121.04548015434419"><ele>10.0</ele><time>2026-04-25T13:09:48.055Z</time></trkpt><trkpt lat="14.435304224667174" lon="121.04548060565094"><ele>10.0</ele><time>2026-04-25T13:09:49.046Z</time></trkpt><trkpt lat="14.435429424095146" lon="121.04547970564975"><ele>10.0</ele><time>2026-04-25T13:09:50.023Z</time></trkpt><trkpt lat="14.43556277936029" lon="121.04547954560812"><ele>10.0</ele><time>2026-04-25T13:09:51.023Z</time></trkpt><trkpt lat="14.435685980057329" lon="121.04547946018366"><ele>10.0</ele><time>2026-04-25T13:09:52.024Z</time></trkpt><trkpt lat="14.435803490381527" lon="121.04547948551377"><ele>10.2</ele><time>2026-04-25T13:09:53.025Z</time></trkpt><trkpt lat="14.43589000942563" lon="121.04547657546834"><ele>10.4</ele><time>2026-04-25T13:09:54.025Z</time></trkpt><trkpt lat="14.435984066068253" lon="121.04547416980805"><ele>10.600000000000001</ele><time>2026-04-25T13:09:55.026Z</time></trkpt><trkpt lat="14.436101992653528" lon="121.04547785798916"><ele>10.8</ele><time>2026-04-25T13:09:56.027Z</time></trkpt><trkpt lat="14.436208676309027" lon="121.0454789338846"><ele>11.0</ele><time>2026-04-25T13:09:57.026Z</time></trkpt><trkpt lat="14.436311612067401" lon="121.04547579896796"><ele>11.0</ele><time>2026-04-25T13:09:58.025Z</time></trkpt><trkpt lat="14.436437074920727" lon="121.04548048915409"><ele>11.0</ele><time>2026-04-25T13:09:59.023Z</time></trkpt><trkpt lat="14.436566058397839" lon="121.0454824062929"><ele>11.0</ele><time>2026-04-25T13:10:00.023Z</time></trkpt><trkpt lat="14.43667202332569" lon="121.04548106686376"><ele>11.0</ele><time>2026-04-25T13:10:01.022Z</time></trkpt><trkpt lat="14.436760019481268" lon="121.04547793672535"><ele>11.0</ele><time>2026-04-25T13:10:02.02Z</time></trkpt><trkpt lat="14.436869133521403" lon="121.04547670342455"><ele>11.0</ele><time>2026-04-25T13:10:03.017Z</time></trkpt><trkpt lat="14.436984300154137" lon="121.04547487156765"><ele>11.0</ele><time>2026-04-25T13:10:04.016Z</time></trkpt><trkpt lat="14.437099138246829" lon="121.04547295147005"><ele>11.0</ele><time>2026-04-25T13:10:05.017Z</time></trkpt><trkpt lat="14.437211957839933" lon="121.04547121532028"><ele>11.0</ele><time>2026-04-25T13:10:06.015Z</time></trkpt><trkpt lat="14.437314840351869" lon="121.04546934635682"><ele>11.0</ele><time>2026-04-25T13:10:07.015Z</time></trkpt><trkpt lat="14.437420791354583" lon="121.04546621075255"><ele>10.8</ele><time>2026-04-25T13:10:08.014Z</time></trkpt><trkpt lat="14.437526393654508" lon="121.04546322122275"><ele>10.600000000000001</ele><time>2026-04-25T13:10:09.013Z</time></trkpt><trkpt lat="14.437628687589402" lon="121.04546111184456"><ele>10.4</ele><time>2026-04-25T13:10:10.013Z</time></trkpt><trkpt lat="14.437730561161187" lon="121.04546005640451"><ele>10.2</ele><time>2026-04-25T13:10:11.013Z</time></trkpt><trkpt lat="14.437829063291424" lon="121.04545836628533"><ele>10.0</ele><time>2026-04-25T13:10:12.016Z</time></trkpt><trkpt lat="14.437934473172396" lon="121.04545516430788"><ele>10.6</ele><time>2026-04-25T13:10:13.017Z</time></trkpt><trkpt lat="14.43803245824069" lon="121.04545134772646"><ele>11.2</ele><time>2026-04-25T13:10:14.014Z</time></trkpt><trkpt lat="14.43813786072472" lon="121.0454480076821"><ele>11.8</ele><time>2026-04-25T13:10:15.011Z</time></trkpt><trkpt lat="14.438243439647922" lon="121.04544557466636"><ele>12.4</ele><time>2026-04-25T13:10:16.01Z</time></trkpt><trkpt lat="14.43835844292579" lon="121.04544369557946"><ele>13.0</ele><time>2026-04-25T13:10:17.01Z</time></trkpt><trkpt lat="14.438472368337862" lon="121.04544354065425"><ele>13.0</ele><time>2026-04-25T13:10:18.012Z</time></trkpt><trkpt lat="14.438597587729511" lon="121.04544495643314"><ele>13.0</ele><time>2026-04-25T13:10:19.012Z</time></trkpt><trkpt lat="14.438722640564976" lon="121.04544705527381"><ele>13.0</ele><time>2026-04-25T13:10:20.012Z</time></trkpt><trkpt lat="14.438834474824105" lon="121.0454483308217"><ele>13.0</ele><time>2026-04-25T13:10:21.011Z</time></trkpt><trkpt lat="14.438946293962383" lon="121.04544958794703"><ele>13.75</ele><time>2026-04-25T13:10:22.011Z</time></trkpt><trkpt lat="14.439059088907186" lon="121.04545070856472"><ele>14.5</ele><time>2026-04-25T13:10:23.01Z</time></trkpt><trkpt lat="14.43921621563691" lon="121.04545247360068"><ele>15.25</ele><time>2026-04-25T13:10:24.01Z</time></trkpt><trkpt lat="14.43931520118771" lon="121.04545438705861"><ele>16.0</ele><time>2026-04-25T13:10:25.01Z</time></trkpt><trkpt lat="14.439466410809102" lon="121.04545601460492"><ele>16.0</ele><time>2026-04-25T13:10:26.017Z</time></trkpt><trkpt lat="14.439622768133257" lon="121.04545614969537"><ele>16.0</ele><time>2026-04-25T13:10:27.013Z</time></trkpt><trkpt lat="14.439783687860043" lon="121.04545597458284"><ele>16.0</ele><time>2026-04-25T13:10:28.012Z</time></trkpt><trkpt lat="14.439942910858122" lon="121.04545607651946"><ele>17.0</ele><time>2026-04-25T13:10:29.012Z</time></trkpt><trkpt lat="14.440339643392289" lon="121.04545642137701"><ele>18.0</ele><time>2026-04-25T13:10:31.011Z</time></trkpt><trkpt lat="14.440465177776076" lon="121.04545533264151"><ele>18.25</ele><time>2026-04-25T13:10:32.011Z</time></trkpt><trkpt lat="14.44057898119223" lon="121.04545367621508"><ele>18.5</ele><time>2026-04-25T13:10:33.01Z</time></trkpt><trkpt lat="14.440695499229358" lon="121.04545232835643"><ele>18.75</ele><time>2026-04-25T13:10:34.01Z</time></trkpt><trkpt lat="14.440811113035107" lon="121.04545184405596"><ele>19.0</ele><time>2026-04-25T13:10:35.01Z</time></trkpt><trkpt lat="14.440922585087392" lon="121.04545082763923"><ele>19.0</ele><time>2026-04-25T13:10:36.011Z</time></trkpt><trkpt lat="14.44103087718287" lon="121.04544867795128"><ele>19.0</ele><time>2026-04-25T13:10:37.008Z</time></trkpt><trkpt lat="14.441143406052614" lon="121.04544707669288"><ele>19.0</ele><time>2026-04-25T13:10:38.01Z</time></trkpt><trkpt lat="14.441256736202204" lon="121.0454453183243"><ele>19.0</ele><time>2026-04-25T13:10:39.011Z</time></trkpt><trkpt lat="14.441369453481668" lon="121.04544321239065"><ele>19.0</ele><time>2026-04-25T13:10:40.009Z</time></trkpt><trkpt lat="14.441486211251425" lon="121.04544122977903"><ele>18.0</ele><time>2026-04-25T13:10:41.009Z</time></trkpt><trkpt lat="14.441602522621338" lon="121.04543970886611"><ele>17.0</ele><time>2026-04-25T13:10:42.009Z</time></trkpt><trkpt lat="14.441716501907635" lon="121.04544027866262"><ele>16.0</ele><time>2026-04-25T13:10:43.009Z</time></trkpt><trkpt lat="14.451976374063968" lon="121.04516369731637"><ele>15.0</ele><time>2026-04-25T13:11:35Z</time></trkpt><trkpt lat="14.45212185272976" lon="121.04516173660896"><ele>14.0</ele><time>2026-04-25T13:11:36Z</time></trkpt><trkpt lat="14.45233510694155" lon="121.045145324363"><ele>13.0</ele><time>2026-04-25T13:11:37Z</time></trkpt><trkpt lat="14.452720814775644" lon="121.0454248516741"><ele>14.5</ele><time>2026-04-25T13:11:39Z</time></trkpt><trkpt lat="14.452833848958084" lon="121.04538014886795"><ele>16.0</ele><time>2026-04-25T13:11:40Z</time></trkpt><trkpt lat="14.452952586158538" lon="121.04535902397548"><ele>17.5</ele><time>2026-04-25T13:11:41Z</time></trkpt><trkpt lat="14.45309731184674" lon="121.04534462087314"><ele>19.0</ele><time>2026-04-25T13:11:42Z</time></trkpt><trkpt lat="14.453251120553125" lon="121.04535524412735"><ele>20.333333333333332</ele><time>2026-04-25T13:11:43Z</time></trkpt><trkpt lat="14.453403074356919" lon="121.04535767759927"><ele>21.666666666666668</ele><time>2026-04-25T13:11:44Z</time></trkpt><trkpt lat="14.453552666434298" lon="121.04534092050328"><ele>23.0</ele><time>2026-04-25T13:11:45Z</time></trkpt><trkpt lat="14.453699339586752" lon="121.04532510595197"><ele>24.0</ele><time>2026-04-25T13:11:46Z</time></trkpt><trkpt lat="14.45383814057258" lon="121.04531780824364"><ele>25.0</ele><time>2026-04-25T13:11:47Z</time></trkpt><trkpt lat="14.453975833286743" lon="121.04531002564576"><ele>26.0</ele><time>2026-04-25T13:11:48Z</time></trkpt><trkpt lat="14.454112450924887" lon="121.04530568025349"><ele>27.0</ele><time>2026-04-25T13:11:49Z</time></trkpt><trkpt lat="14.454239956543116" lon="121.0453103247529"><ele>27.0</ele><time>2026-04-25T13:11:50Z</time></trkpt><trkpt lat="14.454373298273072" lon="121.04531780696185"><ele>27.0</ele><time>2026-04-25T13:11:51Z</time></trkpt><trkpt lat="14.45451401038274" lon="121.04531475316466"><ele>27.0</ele><time>2026-04-25T13:11:52Z</time></trkpt><trkpt lat="14.45464034982032" lon="121.04531910359488"><ele>27.0</ele><time>2026-04-25T13:11:53Z</time></trkpt><trkpt lat="14.454769721516126" lon="121.04531392361444"><ele>28.25</ele><time>2026-04-25T13:11:54Z</time></trkpt><trkpt lat="14.45489511082394" lon="121.04530723329498"><ele>29.5</ele><time>2026-04-25T13:11:55Z</time></trkpt><trkpt lat="14.455022297526396" lon="121.0453041583458"><ele>30.75</ele><time>2026-04-25T13:11:56Z</time></trkpt><trkpt lat="14.455150615813912" lon="121.04530218218078"><ele>32.0</ele><time>2026-04-25T13:11:57Z</time></trkpt><trkpt lat="14.455280664337527" lon="121.04529593948496"><ele>32.0</ele><time>2026-04-25T13:11:58Z</time></trkpt><trkpt lat="14.455421275068572" lon="121.04529102465004"><ele>32.0</ele><time>2026-04-25T13:11:59Z</time></trkpt><trkpt lat="14.455560906003718" lon="121.04530202070187"><ele>32.0</ele><time>2026-04-25T13:12:00Z</time></trkpt><trkpt lat="14.455703975781306" lon="121.04530133848252"><ele>32.0</ele><time>2026-04-25T13:12:01Z</time></trkpt><trkpt lat="14.455844708672457" lon="121.04529924951082"><ele>33.0</ele><time>2026-04-25T13:12:02Z</time></trkpt><trkpt lat="14.455990415148968" lon="121.04529622543217"><ele>34.0</ele><time>2026-04-25T13:12:03Z</time></trkpt><trkpt lat="14.45614173838032" lon="121.04529642062052"><ele>35.0</ele><time>2026-04-25T13:12:04Z</time></trkpt><trkpt lat="14.456291712750524" lon="121.04529649725164"><ele>36.0</ele><time>2026-04-25T13:12:05Z</time></trkpt><trkpt lat="14.456440684374694" lon="121.0452909931031"><ele>36.0</ele><time>2026-04-25T13:12:06Z</time></trkpt><trkpt lat="14.45659008887175" lon="121.045286072749"><ele>36.0</ele><time>2026-04-25T13:12:07Z</time></trkpt><trkpt lat="14.456734958643086" lon="121.0452736798692"><ele>36.0</ele><time>2026-04-25T13:12:08Z</time></trkpt><trkpt lat="14.456890151254763" lon="121.04526945000116"><ele>36.0</ele><time>2026-04-25T13:12:09Z</time></trkpt><trkpt lat="14.457046780732895" lon="121.04527189581674"><ele>36.0</ele><time>2026-04-25T13:12:10Z</time></trkpt><trkpt lat="14.457204333660224" lon="121.04526370188277"><ele>36.0</ele><time>2026-04-25T13:12:11Z</time></trkpt><trkpt lat="14.457356594813197" lon="121.045249583128"><ele>36.333333333333336</ele><time>2026-04-25T13:12:12Z</time></trkpt><trkpt lat="14.457511009640102" lon="121.04525394139473"><ele>36.66666666666667</ele><time>2026-04-25T13:12:13Z</time></trkpt><trkpt lat="14.457670111940587" lon="121.04525557025222"><ele>37.0</ele><time>2026-04-25T13:12:14Z</time></trkpt><trkpt lat="14.457829574607997" lon="121.04525790004726"><ele>38.333333333333336</ele><time>2026-04-25T13:12:15Z</time></trkpt><trkpt lat="14.457989786598096" lon="121.04526363677017"><ele>39.666666666666664</ele><time>2026-04-25T13:12:16Z</time></trkpt><trkpt lat="14.458148423459908" lon="121.04526979212119"><ele>41.0</ele><time>2026-04-25T13:12:17Z</time></trkpt><trkpt lat="14.458306070047827" lon="121.04527368674901"><ele>41.0</ele><time>2026-04-25T13:12:18Z</time></trkpt><trkpt lat="14.45846280660673" lon="121.04527695182979"><ele>41.0</ele><time>2026-04-25T13:12:19Z</time></trkpt><trkpt lat="14.458618196744705" lon="121.0452809296634"><ele>41.0</ele><time>2026-04-25T13:12:20Z</time></trkpt><trkpt lat="14.458770976037371" lon="121.0452848383099"><ele>41.33333333333333</ele><time>2026-04-25T13:12:21Z</time></trkpt><trkpt lat="14.458922655696512" lon="121.04528980397758"><ele>41.666666666666664</ele><time>2026-04-25T13:12:22Z</time></trkpt><trkpt lat="14.459072646841147" lon="121.04529397420607"><ele>42.0</ele><time>2026-04-25T13:12:23Z</time></trkpt><trkpt lat="14.459420959162662" lon="121.04524014596402"><ele>42.0</ele><time>2026-04-25T13:12:24Z</time></trkpt><trkpt lat="14.459600554305947" lon="121.0452401035591"><ele>42.0</ele><time>2026-04-25T13:12:25Z</time></trkpt><trkpt lat="14.459782567451947" lon="121.04524105444995"><ele>42.0</ele><time>2026-04-25T13:12:26Z</time></trkpt><trkpt lat="14.45995113541157" lon="121.04524280508573"><ele>42.0</ele><time>2026-04-25T13:12:27Z</time></trkpt><trkpt lat="14.460132865138606" lon="121.04524045271462"><ele>42.0</ele><time>2026-04-25T13:12:28Z</time></trkpt><trkpt lat="14.460310926212749" lon="121.04523961675297"><ele>42.0</ele><time>2026-04-25T13:12:29Z</time></trkpt><trkpt lat="14.460478896537602" lon="121.04524040031724"><ele>41.333333333333336</ele><time>2026-04-25T13:12:30Z</time></trkpt><trkpt lat="14.460652078760928" lon="121.04524066528028"><ele>40.66666666666667</ele><time>2026-04-25T13:12:31Z</time></trkpt><trkpt lat="14.460830040724817" lon="121.04524198916403"><ele>40.0</ele><time>2026-04-25T13:12:32Z</time></trkpt><trkpt lat="14.460995093276722" lon="121.04524049029725"><ele>40.0</ele><time>2026-04-25T13:12:33Z</time></trkpt><trkpt lat="14.4611467959904" lon="121.04523879162998"><ele>40.0</ele><time>2026-04-25T13:12:34Z</time></trkpt><trkpt lat="14.461280065157467" lon="121.0452452008812"><ele>40.0</ele><time>2026-04-25T13:12:35Z</time></trkpt><trkpt lat="14.46141557589877" lon="121.0452501860478"><ele>40.0</ele><time>2026-04-25T13:12:36Z</time></trkpt><trkpt lat="14.461551327562125" lon="121.04525051717712"><ele>39.5</ele><time>2026-04-25T13:12:37Z</time></trkpt><trkpt lat="14.461694504113671" lon="121.04525163126449"><ele>39.0</ele><time>2026-04-25T13:12:38Z</time></trkpt><trkpt lat="14.461841486296226" lon="121.04525438493418"><ele>38.5</ele><time>2026-04-25T13:12:39Z</time></trkpt><trkpt lat="14.461987274245615" lon="121.04525622026148"><ele>38.0</ele><time>2026-04-25T13:12:40Z</time></trkpt><trkpt lat="14.462135967797877" lon="121.04525760216794"><ele>37.75</ele><time>2026-04-25T13:12:41Z</time></trkpt><trkpt lat="14.462291597850328" lon="121.04525959699353"><ele>37.5</ele><time>2026-04-25T13:12:42Z</time></trkpt><trkpt lat="14.46243857320431" lon="121.04526209482414"><ele>37.25</ele><time>2026-04-25T13:12:43Z</time></trkpt><trkpt lat="14.462580584965336" lon="121.04526453939762"><ele>37.0</ele><time>2026-04-25T13:12:44Z</time></trkpt><trkpt lat="14.46270676258117" lon="121.04527039638788"><ele>37.0</ele><time>2026-04-25T13:12:45Z</time></trkpt><trkpt lat="14.462836923909046" lon="121.04527119709293"><ele>37.0</ele><time>2026-04-25T13:12:46Z</time></trkpt><trkpt lat="14.462986425000269" lon="121.04526958482792"><ele>37.0</ele><time>2026-04-25T13:12:47Z</time></trkpt><trkpt lat="14.463128038386655" lon="121.04526984722341"><ele>37.0</ele><time>2026-04-25T13:12:48Z</time></trkpt><trkpt lat="14.463274354310855" lon="121.04527080110616"><ele>36.66666666666667</ele><time>2026-04-25T13:12:49Z</time></trkpt><trkpt lat="14.463423890884703" lon="121.04527973411888"><ele>36.333333333333336</ele><time>2026-04-25T13:12:50Z</time></trkpt><trkpt lat="14.46357483060954" lon="121.04528478931627"><ele>36.0</ele><time>2026-04-25T13:12:51Z</time></trkpt><trkpt lat="14.463729234421164" lon="121.04528443338738"><ele>36.5</ele><time>2026-04-25T13:12:52Z</time></trkpt><trkpt lat="14.463872304915336" lon="121.04528434669314"><ele>37.0</ele><time>2026-04-25T13:12:53Z</time></trkpt><trkpt lat="14.46400533752709" lon="121.04528588435754"><ele>37.5</ele><time>2026-04-25T13:12:54Z</time></trkpt><trkpt lat="14.464134415485898" lon="121.04528996628831"><ele>38.0</ele><time>2026-04-25T13:12:55Z</time></trkpt><trkpt lat="14.464275304142014" lon="121.04529304826804"><ele>38.0</ele><time>2026-04-25T13:12:56Z</time></trkpt><trkpt lat="14.464417293899052" lon="121.04529615528904"><ele>38.0</ele><time>2026-04-25T13:12:57Z</time></trkpt><trkpt lat="14.464556219539775" lon="121.04530385144668"><ele>38.0</ele><time>2026-04-25T13:12:58Z</time></trkpt><trkpt lat="14.46469934076702" lon="121.04531047971007"><ele>38.0</ele><time>2026-04-25T13:12:59Z</time></trkpt><trkpt lat="14.464843335402877" lon="121.04531615762112"><ele>38.0</ele><time>2026-04-25T13:13:00Z</time></trkpt><trkpt lat="14.464989025334354" lon="121.04534810186983"><ele>38.0</ele><time>2026-04-25T13:13:01Z</time></trkpt><trkpt lat="14.465123904061453" lon="121.04534958587803"><ele>38.0</ele><time>2026-04-25T13:13:02Z</time></trkpt><trkpt lat="14.46525772318864" lon="121.04535141655136"><ele>38.0</ele><time>2026-04-25T13:13:03Z</time></trkpt><trkpt lat="14.465390782819002" lon="121.04534935023386"><ele>38.0</ele><time>2026-04-25T13:13:04Z</time></trkpt><trkpt lat="14.465544625684107" lon="121.04534747803966"><ele>38.0</ele><time>2026-04-25T13:13:05Z</time></trkpt><trkpt lat="14.465694044775047" lon="121.04535028142963"><ele>38.0</ele><time>2026-04-25T13:13:06Z</time></trkpt><trkpt lat="14.465841826417265" lon="121.04535296479246"><ele>38.0</ele><time>2026-04-25T13:13:07Z</time></trkpt><trkpt lat="14.465989068035778" lon="121.0453560067513"><ele>38.0</ele><time>2026-04-25T13:13:08Z</time></trkpt><trkpt lat="14.466139773529525" lon="121.0453593982866"><ele>38.0</ele><time>2026-04-25T13:13:09Z</time></trkpt><trkpt lat="14.466290153363365" lon="121.04536217927456"><ele>38.0</ele><time>2026-04-25T13:13:10Z</time></trkpt><trkpt lat="14.46643976593169" lon="121.0453437492486"><ele>38.0</ele><time>2026-04-25T13:13:11Z</time></trkpt><trkpt lat="14.466589661066038" lon="121.04534230540227"><ele>38.0</ele><time>2026-04-25T13:13:12Z</time></trkpt><trkpt lat="14.46673872464205" lon="121.04534108283092"><ele>38.0</ele><time>2026-04-25T13:13:13Z</time></trkpt><trkpt lat="14.466888878490868" lon="121.04533986256828"><ele>38.0</ele><time>2026-04-25T13:13:14Z</time></trkpt><trkpt lat="14.467042324331887" lon="121.04533861555176"><ele>37.33333333333333</ele><time>2026-04-25T13:13:15Z</time></trkpt><trkpt lat="14.467198187994201" lon="121.04533785449014"><ele>36.666666666666664</ele><time>2026-04-25T13:13:16Z</time></trkpt><trkpt lat="14.467354751644995" lon="121.04533730763956"><ele>36.0</ele><time>2026-04-25T13:13:17Z</time></trkpt><trkpt lat="14.467511699115937" lon="121.04533675944663"><ele>36.0</ele><time>2026-04-25T13:13:18Z</time></trkpt><trkpt lat="14.46767312893676" lon="121.04533619559746"><ele>36.0</ele><time>2026-04-25T13:13:19Z</time></trkpt><trkpt lat="14.467837308889983" lon="121.04533562214212"><ele>36.0</ele><time>2026-04-25T13:13:20Z</time></trkpt><trkpt lat="14.468014611710181" lon="121.04533500284991"><ele>31.0</ele><time>2026-04-25T13:13:21.063Z</time></trkpt><trkpt lat="14.469747917452073" lon="121.04543282273994"><ele>35.0</ele><time>2026-04-25T13:13:33.054Z</time></trkpt><trkpt lat="14.478525643718271" lon="121.04530772680201"><ele>35.0</ele><time>2026-04-25T13:14:23Z</time></trkpt><trkpt lat="14.47869947912585" lon="121.04530769172608"><ele>35.0</ele><time>2026-04-25T13:14:24Z</time></trkpt><trkpt lat="14.478871314927982" lon="121.04531172011734"><ele>35.0</ele><time>2026-04-25T13:14:25Z</time></trkpt><trkpt lat="14.478993406977063" lon="121.04529268365823"><ele>35.0</ele><time>2026-04-25T13:14:26Z</time></trkpt><trkpt lat="14.47913547991078" lon="121.04530511498116"><ele>35.0</ele><time>2026-04-25T13:14:27Z</time></trkpt><trkpt lat="14.47933017185301" lon="121.04533875231242"><ele>35.0</ele><time>2026-04-25T13:14:28Z</time></trkpt><trkpt lat="14.47949869196346" lon="121.04535461108857"><ele>34.33333333333333</ele><time>2026-04-25T13:14:29Z</time></trkpt><trkpt lat="14.479684518306241" lon="121.04532935355637"><ele>33.666666666666664</ele><time>2026-04-25T13:14:30Z</time></trkpt><trkpt lat="14.479878935615355" lon="121.04533558390918"><ele>33.0</ele><time>2026-04-25T13:14:31Z</time></trkpt><trkpt lat="14.480063782327278" lon="121.04534433524388"><ele>33.0</ele><time>2026-04-25T13:14:32Z</time></trkpt><trkpt lat="14.480260116655295" lon="121.04532319737264"><ele>33.0</ele><time>2026-04-25T13:14:33Z</time></trkpt><trkpt lat="14.480454098618111" lon="121.04531420894071"><ele>33.0</ele><time>2026-04-25T13:14:34Z</time></trkpt><trkpt lat="14.4806500041097" lon="121.04532072459632"><ele>32.666666666666664</ele><time>2026-04-25T13:14:35Z</time></trkpt><trkpt lat="14.480863747728199" lon="121.04532412500734"><ele>32.33333333333333</ele><time>2026-04-25T13:14:36Z</time></trkpt><trkpt lat="14.481058169760844" lon="121.04529579810905"><ele>32.0</ele><time>2026-04-25T13:14:37Z</time></trkpt><trkpt lat="14.481250691920062" lon="121.04529741968923"><ele>32.33333333333333</ele><time>2026-04-25T13:14:38Z</time></trkpt><trkpt lat="14.4814499203779" lon="121.04529212875566"><ele>32.666666666666664</ele><time>2026-04-25T13:14:39Z</time></trkpt><trkpt lat="14.481655352496162" lon="121.04529569785133"><ele>33.0</ele><time>2026-04-25T13:14:40Z</time></trkpt><trkpt lat="14.481860092225352" lon="121.04529870702663"><ele>33.0</ele><time>2026-04-25T13:14:41Z</time></trkpt><trkpt lat="14.482107841670075" lon="121.04525678583715"><ele>33.0</ele><time>2026-04-25T13:14:42Z</time></trkpt><trkpt lat="14.4823387155555" lon="121.04523885379507"><ele>33.0</ele><time>2026-04-25T13:14:43Z</time></trkpt><trkpt lat="14.482555205522928" lon="121.04522476640724"><ele>33.0</ele><time>2026-04-25T13:14:44Z</time></trkpt><trkpt lat="14.482773397264918" lon="121.04521627706895"><ele>33.0</ele><time>2026-04-25T13:14:45Z</time></trkpt><trkpt lat="14.482982317245712" lon="121.04520416916118"><ele>32.666666666666664</ele><time>2026-04-25T13:14:46Z</time></trkpt><trkpt lat="14.483196265872067" lon="121.04518940122176"><ele>32.33333333333333</ele><time>2026-04-25T13:14:47Z</time></trkpt><trkpt lat="14.483416228106897" lon="121.04517027026078"><ele>32.0</ele><time>2026-04-25T13:14:48Z</time></trkpt><trkpt lat="14.483630572724545" lon="121.0451493100005"><ele>31.5</ele><time>2026-04-25T13:14:49Z</time></trkpt><trkpt lat="14.483858048750445" lon="121.0451236850567"><ele>31.0</ele><time>2026-04-25T13:14:50Z</time></trkpt><trkpt lat="14.484078072132043" lon="121.04509857508226"><ele>31.0</ele><time>2026-04-25T13:14:51Z</time></trkpt><trkpt lat="14.48433313213435" lon="121.04505761956776"><ele>31.0</ele><time>2026-04-25T13:14:52Z</time></trkpt><trkpt lat="14.484590722864745" lon="121.04500878087748"><ele>30.666666666666668</ele><time>2026-04-25T13:14:53Z</time></trkpt><trkpt lat="14.484827328063124" lon="121.04497333022603"><ele>30.333333333333336</ele><time>2026-04-25T13:14:54Z</time></trkpt><trkpt lat="14.485009125817832" lon="121.04497965311393"><ele>30.0</ele><time>2026-04-25T13:14:55Z</time></trkpt><trkpt lat="14.485184237321615" lon="121.04495685267995"><ele>30.0</ele><time>2026-04-25T13:14:56Z</time></trkpt><trkpt lat="14.48535216061861" lon="121.04494916737234"><ele>30.0</ele><time>2026-04-25T13:14:57Z</time></trkpt><trkpt lat="14.485537807236474" lon="121.04491723849425"><ele>30.0</ele><time>2026-04-25T13:14:58Z</time></trkpt><trkpt lat="14.48572520839083" lon="121.04494103819515"><ele>30.0</ele><time>2026-04-25T13:14:59Z</time></trkpt><trkpt lat="14.485913851343122" lon="121.04491485717136"><ele>30.0</ele><time>2026-04-25T13:15:00Z</time></trkpt><trkpt lat="14.486102154740568" lon="121.04495671099163"><ele>30.0</ele><time>2026-04-25T13:15:01Z</time></trkpt><trkpt lat="14.486331491467777" lon="121.04510219789606"><ele>31.0</ele><time>2026-04-25T13:15:02Z</time></trkpt><trkpt lat="14.48646437429717" lon="121.04509071398157"><ele>32.0</ele><time>2026-04-25T13:15:03Z</time></trkpt><trkpt lat="14.486600293869053" lon="121.04507036882879"><ele>33.0</ele><time>2026-04-25T13:15:04Z</time></trkpt><trkpt lat="14.486772417665385" lon="121.0450537987885"><ele>34.0</ele><time>2026-04-25T13:15:05Z</time></trkpt><trkpt lat="14.486965254225655" lon="121.04505948211299"><ele>34.333333333333336</ele><time>2026-04-25T13:15:06Z</time></trkpt><trkpt lat="14.487157281486791" lon="121.04498426609405"><ele>34.666666666666664</ele><time>2026-04-25T13:15:07Z</time></trkpt><trkpt lat="14.487378788495615" lon="121.04494135438314"><ele>35.0</ele><time>2026-04-25T13:15:08Z</time></trkpt><trkpt lat="14.487572788277937" lon="121.04489883685346"><ele>35.0</ele><time>2026-04-25T13:15:09Z</time></trkpt><trkpt lat="14.487780012578641" lon="121.04484745556135"><ele>35.0</ele><time>2026-04-25T13:15:10Z</time></trkpt><trkpt lat="14.487968419879726" lon="121.04479719481527"><ele>35.0</ele><time>2026-04-25T13:15:11Z</time></trkpt><trkpt lat="14.488147924801664" lon="121.04474930887679"><ele>35.0</ele><time>2026-04-25T13:15:12Z</time></trkpt><trkpt lat="14.488342684337791" lon="121.0446973535171"><ele>35.0</ele><time>2026-04-25T13:15:13Z</time></trkpt><trkpt lat="14.488524032522593" lon="121.04463507749654"><ele>35.0</ele><time>2026-04-25T13:15:14Z</time></trkpt><trkpt lat="14.488630923176478" lon="121.04432964471415"><ele>33.0</ele><time>2026-04-25T13:15:15Z</time></trkpt><trkpt lat="14.488847028468127" lon="121.04430357037029"><ele>31.0</ele><time>2026-04-25T13:15:16Z</time></trkpt><trkpt lat="14.48903529569606" lon="121.04426142896796"><ele>29.0</ele><time>2026-04-25T13:15:17Z</time></trkpt><trkpt lat="14.489209249986914" lon="121.04421848449324"><ele>29.0</ele><time>2026-04-25T13:15:18Z</time></trkpt><trkpt lat="14.489387089283055" lon="121.04417386260637"><ele>29.0</ele><time>2026-04-25T13:15:19Z</time></trkpt><trkpt lat="14.489546659980245" lon="121.04407044988314"><ele>29.0</ele><time>2026-04-25T13:15:20Z</time></trkpt><trkpt lat="14.489703306491233" lon="121.04398130303014"><ele>30.666666666666664</ele><time>2026-04-25T13:15:21Z</time></trkpt><trkpt lat="14.48985593220597" lon="121.04389663279348"><ele>32.333333333333336</ele><time>2026-04-25T13:15:22Z</time></trkpt><trkpt lat="14.49000563782653" lon="121.04382025916797"><ele>34.0</ele><time>2026-04-25T13:15:23Z</time></trkpt><trkpt lat="14.490152936282517" lon="121.04373761693763"><ele>34.0</ele><time>2026-04-25T13:15:24Z</time></trkpt><trkpt lat="14.490296724012175" lon="121.04364773731045"><ele>34.0</ele><time>2026-04-25T13:15:25Z</time></trkpt><trkpt lat="14.490502357941146" lon="121.04362850517444"><ele>34.0</ele><time>2026-04-25T13:15:26Z</time></trkpt><trkpt lat="14.49065617387644" lon="121.04355621789077"><ele>34.66666666666667</ele><time>2026-04-25T13:15:27Z</time></trkpt><trkpt lat="14.490811106531797" lon="121.04348730116412"><ele>35.333333333333336</ele><time>2026-04-25T13:15:28Z</time></trkpt><trkpt lat="14.490971299227535" lon="121.04341213137053"><ele>36.0</ele><time>2026-04-25T13:15:29Z</time></trkpt><trkpt lat="14.491133591615114" lon="121.04333590226693"><ele>36.666666666666664</ele><time>2026-04-25T13:15:30Z</time></trkpt><trkpt lat="14.49129390106324" lon="121.0432646744571"><ele>37.33333333333333</ele><time>2026-04-25T13:15:31Z</time></trkpt><trkpt lat="14.49144408286131" lon="121.04319262071704"><ele>38.0</ele><time>2026-04-25T13:15:32Z</time></trkpt><trkpt lat="14.491591981909096" lon="121.0431219624171"><ele>38.0</ele><time>2026-04-25T13:15:33Z</time></trkpt><trkpt lat="14.491740688598972" lon="121.0430515315249"><ele>38.0</ele><time>2026-04-25T13:15:34Z</time></trkpt><trkpt lat="14.491891101434346" lon="121.04297942501536"><ele>38.0</ele><time>2026-04-25T13:15:35Z</time></trkpt><trkpt lat="14.492041705542578" lon="121.04290975176573"><ele>37.666666666666664</ele><time>2026-04-25T13:15:36Z</time></trkpt><trkpt lat="14.492189049639626" lon="121.04284014540576"><ele>37.333333333333336</ele><time>2026-04-25T13:15:37Z</time></trkpt><trkpt lat="14.492336579372706" lon="121.04277270645495"><ele>37.0</ele><time>2026-04-25T13:15:38Z</time></trkpt><trkpt lat="14.492485052638354" lon="121.04270444819342"><ele>37.0</ele><time>2026-04-25T13:15:39Z</time></trkpt><trkpt lat="14.49263371023695" lon="121.04263629347771"><ele>37.0</ele><time>2026-04-25T13:15:40Z</time></trkpt><trkpt lat="14.492781845552061" lon="121.04256836810909"><ele>37.0</ele><time>2026-04-25T13:15:41Z</time></trkpt><trkpt lat="14.492929584511876" lon="121.04250003253671"><ele>32.5</ele><time>2026-04-25T13:15:42Z</time></trkpt><trkpt lat="14.493168507631873" lon="121.04224337653339"><ele>28.0</ele><time>2026-04-25T13:15:43Z</time></trkpt><trkpt lat="14.493341284504302" lon="121.04214789114627"><ele>28.0</ele><time>2026-04-25T13:15:44Z</time></trkpt><trkpt lat="14.493516089439547" lon="121.04205117929443"><ele>28.0</ele><time>2026-04-25T13:15:45Z</time></trkpt><trkpt lat="14.493695879341372" lon="121.04195263382641"><ele>28.0</ele><time>2026-04-25T13:15:46Z</time></trkpt><trkpt lat="14.493876024650564" lon="121.04185499756699"><ele>27.666666666666668</ele><time>2026-04-25T13:15:47Z</time></trkpt><trkpt lat="14.494055098809945" lon="121.04175848249214"><ele>27.333333333333336</ele><time>2026-04-25T13:15:48Z</time></trkpt><trkpt lat="14.494231782181874" lon="121.0416647608002"><ele>27.0</ele><time>2026-04-25T13:15:49Z</time></trkpt><trkpt lat="14.4943968102384" lon="121.04157771040211"><ele>26.666666666666664</ele><time>2026-04-25T13:15:50Z</time></trkpt><trkpt lat="14.494541807767577" lon="121.04150128693186"><ele>26.333333333333332</ele><time>2026-04-25T13:15:51Z</time></trkpt><trkpt lat="14.494696108096095" lon="121.04141872507806"><ele>26.0</ele><time>2026-04-25T13:15:52Z</time></trkpt><trkpt lat="14.49483018797133" lon="121.0413466171814"><ele>26.0</ele><time>2026-04-25T13:15:53Z</time></trkpt><trkpt lat="14.494955056214575" lon="121.04127756131423"><ele>26.0</ele><time>2026-04-25T13:15:54Z</time></trkpt><trkpt lat="14.495078723511496" lon="121.04120865207098"><ele>26.0</ele><time>2026-04-25T13:15:55Z</time></trkpt><trkpt lat="14.495194130219977" lon="121.04114503461948"><ele>26.0</ele><time>2026-04-25T13:15:56Z</time></trkpt><trkpt lat="14.495311604055463" lon="121.04108050756729"><ele>25.5</ele><time>2026-04-25T13:15:57Z</time></trkpt><trkpt lat="14.495429021575314" lon="121.04101676330565"><ele>25.0</ele><time>2026-04-25T13:15:58.013Z</time></trkpt><trkpt lat="14.510405462714276" lon="121.03287906881822"><ele>25.666666666666668</ele><time>2026-04-25T13:17:11Z</time></trkpt><trkpt lat="14.510579491197324" lon="121.03278161932856"><ele>26.333333333333336</ele><time>2026-04-25T13:17:12Z</time></trkpt><trkpt lat="14.510741353039123" lon="121.03265827304533"><ele>27.0</ele><time>2026-04-25T13:17:13Z</time></trkpt><trkpt lat="14.510881943235539" lon="121.0325952404386"><ele>27.0</ele><time>2026-04-25T13:17:14Z</time></trkpt><trkpt lat="14.511010342077205" lon="121.03256172934078"><ele>27.0</ele><time>2026-04-25T13:17:15Z</time></trkpt><trkpt lat="14.511119053040325" lon="121.03254347660541"><ele>27.0</ele><time>2026-04-25T13:17:16Z</time></trkpt><trkpt lat="14.511296778874884" lon="121.03257092453205"><ele>27.0</ele><time>2026-04-25T13:17:17Z</time></trkpt><trkpt lat="14.511421637139305" lon="121.03250380625744"><ele>26.0</ele><time>2026-04-25T13:17:18Z</time></trkpt><trkpt lat="14.511558607252264" lon="121.03242969789848"><ele>25.0</ele><time>2026-04-25T13:17:19Z</time></trkpt><trkpt lat="14.51168961608697" lon="121.03235902604494"><ele>24.0</ele><time>2026-04-25T13:17:20Z</time></trkpt><trkpt lat="14.511824046181712" lon="121.03228590229823"><ele>24.0</ele><time>2026-04-25T13:17:21Z</time></trkpt><trkpt lat="14.511976741168708" lon="121.03220306457746"><ele>24.0</ele><time>2026-04-25T13:17:22Z</time></trkpt><trkpt lat="14.512106399547106" lon="121.03213272431644"><ele>24.0</ele><time>2026-04-25T13:17:23Z</time></trkpt><trkpt lat="14.512244818899173" lon="121.03205763118683"><ele>24.25</ele><time>2026-04-25T13:17:24Z</time></trkpt><trkpt lat="14.512392709251122" lon="121.03197739999763"><ele>24.5</ele><time>2026-04-25T13:17:25Z</time></trkpt><trkpt lat="14.512505133803797" lon="121.03191640916117"><ele>24.75</ele><time>2026-04-25T13:17:26Z</time></trkpt><trkpt lat="14.512635482118514" lon="121.03184569863882"><ele>25.0</ele><time>2026-04-25T13:17:27Z</time></trkpt><trkpt lat="14.512774153693508" lon="121.03177050565803"><ele>24.666666666666668</ele><time>2026-04-25T13:17:28Z</time></trkpt><trkpt lat="14.51291238245112" lon="121.03169555277901"><ele>24.333333333333336</ele><time>2026-04-25T13:17:29Z</time></trkpt><trkpt lat="14.51305581092894" lon="121.03161778042146"><ele>24.0</ele><time>2026-04-25T13:17:30Z</time></trkpt><trkpt lat="14.513205244368148" lon="121.03153675194024"><ele>23.333333333333332</ele><time>2026-04-25T13:17:31Z</time></trkpt><trkpt lat="14.51334876513816" lon="121.03145892953637"><ele>22.666666666666664</ele><time>2026-04-25T13:17:32Z</time></trkpt><trkpt lat="14.513503628016037" lon="121.03137495702342"><ele>22.0</ele><time>2026-04-25T13:17:33Z</time></trkpt><trkpt lat="14.513595911831569" lon="121.03118020657693"><ele>22.666666666666664</ele><time>2026-04-25T13:17:34Z</time></trkpt><trkpt lat="14.513759346944386" lon="121.03109674934025"><ele>23.333333333333332</ele><time>2026-04-25T13:17:35Z</time></trkpt><trkpt lat="14.51391739602987" lon="121.03100745396615"><ele>24.0</ele><time>2026-04-25T13:17:36Z</time></trkpt><trkpt lat="14.51408459639705" lon="121.03092017425863"><ele>24.0</ele><time>2026-04-25T13:17:37Z</time></trkpt><trkpt lat="14.514251321426933" lon="121.03083601194848"><ele>24.0</ele><time>2026-04-25T13:17:38Z</time></trkpt><trkpt lat="14.514405833541405" lon="121.03074937659301"><ele>24.0</ele><time>2026-04-25T13:17:39Z</time></trkpt><trkpt lat="14.514562706170775" lon="121.0306686123514"><ele>24.0</ele><time>2026-04-25T13:17:40Z</time></trkpt><trkpt lat="14.514725631773587" lon="121.03058428527231"><ele>24.0</ele><time>2026-04-25T13:17:41Z</time></trkpt><trkpt lat="14.514877040065166" lon="121.03049892722089"><ele>24.0</ele><time>2026-04-25T13:17:42Z</time></trkpt><trkpt lat="14.515027824990748" lon="121.03042094537574"><ele>24.0</ele><time>2026-04-25T13:17:43Z</time></trkpt><trkpt lat="14.515176352634814" lon="121.03034188421348"><ele>24.0</ele><time>2026-04-25T13:17:44Z</time></trkpt><trkpt lat="14.515320640194743" lon="121.03026581573152"><ele>24.0</ele><time>2026-04-25T13:17:45Z</time></trkpt><trkpt lat="14.51545786029603" lon="121.03019500984136"><ele>23.75</ele><time>2026-04-25T13:17:46Z</time></trkpt><trkpt lat="14.515597904564917" lon="121.03012396510022"><ele>23.5</ele><time>2026-04-25T13:17:47Z</time></trkpt><trkpt lat="14.515733951113926" lon="121.03004905544852"><ele>23.25</ele><time>2026-04-25T13:17:48Z</time></trkpt><trkpt lat="14.515852844815882" lon="121.02998112951464"><ele>23.0</ele><time>2026-04-25T13:17:49Z</time></trkpt><trkpt lat="14.515982464088117" lon="121.02991024592133"><ele>23.0</ele><time>2026-04-25T13:17:50Z</time></trkpt><trkpt lat="14.516106988839372" lon="121.0298431173782"><ele>23.0</ele><time>2026-04-25T13:17:51Z</time></trkpt><trkpt lat="14.51622871291386" lon="121.02978030898466"><ele>23.0</ele><time>2026-04-25T13:17:52Z</time></trkpt><trkpt lat="14.516347963061998" lon="121.0297153368056"><ele>23.0</ele><time>2026-04-25T13:17:53Z</time></trkpt><trkpt lat="14.516463717348177" lon="121.0296520117738"><ele>23.5</ele><time>2026-04-25T13:17:54Z</time></trkpt><trkpt lat="14.516576585473578" lon="121.02958505859331"><ele>24.0</ele><time>2026-04-25T13:17:55Z</time></trkpt><trkpt lat="14.516691626478456" lon="121.02952021355688"><ele>24.5</ele><time>2026-04-25T13:17:56Z</time></trkpt><trkpt lat="14.516802971987994" lon="121.02945223364685"><ele>25.0</ele><time>2026-04-25T13:17:57Z</time></trkpt><trkpt lat="14.516917423225951" lon="121.02938353217354"><ele>25.0</ele><time>2026-04-25T13:17:58Z</time></trkpt><trkpt lat="14.517027566427897" lon="121.0293138085452"><ele>25.0</ele><time>2026-04-25T13:17:59Z</time></trkpt><trkpt lat="14.517147668201668" lon="121.02924264702979"><ele>25.0</ele><time>2026-04-25T13:18:00Z</time></trkpt><trkpt lat="14.517268311544907" lon="121.02917293486715"><ele>25.0</ele><time>2026-04-25T13:18:01Z</time></trkpt><trkpt lat="14.517388466922652" lon="121.02910091915784"><ele>24.5</ele><time>2026-04-25T13:18:02Z</time></trkpt><trkpt lat="14.51749996376472" lon="121.02903406388575"><ele>24.0</ele><time>2026-04-25T13:18:03Z</time></trkpt><trkpt lat="14.517603643401184" lon="121.02896389532"><ele>23.5</ele><time>2026-04-25T13:18:04Z</time></trkpt><trkpt lat="14.517710154409054" lon="121.0288975559867"><ele>23.0</ele><time>2026-04-25T13:18:05Z</time></trkpt><trkpt lat="14.517815354413745" lon="121.02883406319314"><ele>22.5</ele><time>2026-04-25T13:18:06Z</time></trkpt><trkpt lat="14.517916912037423" lon="121.0287674020948"><ele>22.0</ele><time>2026-04-25T13:18:07Z</time></trkpt><trkpt lat="14.518013551194693" lon="121.02870397160017"><ele>21.5</ele><time>2026-04-25T13:18:08Z</time></trkpt><trkpt lat="14.518109533692451" lon="121.0286423961373"><ele>21.0</ele><time>2026-04-25T13:18:09Z</time></trkpt><trkpt lat="14.518200164125165" lon="121.02858422134885"><ele>21.0</ele><time>2026-04-25T13:18:10Z</time></trkpt><trkpt lat="14.518290071415517" lon="121.02853345393342"><ele>21.0</ele><time>2026-04-25T13:18:11Z</time></trkpt><trkpt lat="14.518375824055818" lon="121.02848574540229"><ele>21.0</ele><time>2026-04-25T13:18:12Z</time></trkpt><trkpt lat="14.518456179912706" lon="121.02844292392342"><ele>21.0</ele><time>2026-04-25T13:18:13Z</time></trkpt><trkpt lat="14.518530441000607" lon="121.0284000873285"><ele>21.0</ele><time>2026-04-25T13:18:14Z</time></trkpt><trkpt lat="14.518598060972153" lon="121.02836455811763"><ele>21.0</ele><time>2026-04-25T13:18:15Z</time></trkpt><trkpt lat="14.518663509700755" lon="121.02832754534343"><ele>21.0</ele><time>2026-04-25T13:18:16Z</time></trkpt><trkpt lat="14.518765897028786" lon="121.02827318017768"><ele>21.0</ele><time>2026-04-25T13:18:18Z</time></trkpt><trkpt lat="14.518842051874097" lon="121.02823009374309"><ele>21.0</ele><time>2026-04-25T13:18:20Z</time></trkpt><trkpt lat="14.51890215746842" lon="121.02819796602078"><ele>21.0</ele><time>2026-04-25T13:18:22Z</time></trkpt><trkpt lat="14.518974183370105" lon="121.02816214571295"><ele>21.0</ele><time>2026-04-25T13:18:25Z</time></trkpt><trkpt lat="14.519052214313126" lon="121.02812569540023"><ele>20.0</ele><time>2026-04-25T13:18:28Z</time></trkpt><trkpt lat="14.519163955860321" lon="121.02806750391272"><ele>19.0</ele><time>2026-04-25T13:18:30Z</time></trkpt><trkpt lat="14.51927217700464" lon="121.02799099651826"><ele>18.0</ele><time>2026-04-25T13:18:31Z</time></trkpt><trkpt lat="14.519358969689938" lon="121.0279459176252"><ele>17.0</ele><time>2026-04-25T13:18:32Z</time></trkpt><trkpt lat="14.51945182435726" lon="121.0279051967106"><ele>17.0</ele><time>2026-04-25T13:18:33Z</time></trkpt><trkpt lat="14.519558204270236" lon="121.02786941348172"><ele>17.0</ele><time>2026-04-25T13:18:34Z</time></trkpt><trkpt lat="14.519659401392433" lon="121.02782880662387"><ele>17.0</ele><time>2026-04-25T13:18:35Z</time></trkpt><trkpt lat="14.519767050142924" lon="121.02779102605143"><ele>17.0</ele><time>2026-04-25T13:18:36Z</time></trkpt><trkpt lat="14.519880391213038" lon="121.02775563870374"><ele>17.0</ele><time>2026-04-25T13:18:37Z</time></trkpt><trkpt lat="14.519996567596614" lon="121.02771663203106"><ele>17.0</ele><time>2026-04-25T13:18:38Z</time></trkpt><trkpt lat="14.520112755116317" lon="121.0276773504463"><ele>17.0</ele><time>2026-04-25T13:18:39Z</time></trkpt><trkpt lat="14.520229113768847" lon="121.02763050498753"><ele>17.0</ele><time>2026-04-25T13:18:40Z</time></trkpt><trkpt lat="14.520344657916153" lon="121.02758296319605"><ele>16.75</ele><time>2026-04-25T13:18:41Z</time></trkpt><trkpt lat="14.520464988910167" lon="121.02753010133813"><ele>16.5</ele><time>2026-04-25T13:18:42Z</time></trkpt><trkpt lat="14.520582094589454" lon="121.02747030036153"><ele>16.25</ele><time>2026-04-25T13:18:43Z</time></trkpt><trkpt lat="14.52070184246052" lon="121.02740363412056"><ele>16.0</ele><time>2026-04-25T13:18:44Z</time></trkpt><trkpt lat="14.52082631642153" lon="121.02733310456478"><ele>16.0</ele><time>2026-04-25T13:18:45Z</time></trkpt><trkpt lat="14.520955949077972" lon="121.02726166312262"><ele>16.0</ele><time>2026-04-25T13:18:46Z</time></trkpt><trkpt lat="14.52108455388515" lon="121.02718702708174"><ele>16.0</ele><time>2026-04-25T13:18:47Z</time></trkpt><trkpt lat="14.521216420924256" lon="121.02711411626542"><ele>16.0</ele><time>2026-04-25T13:18:48Z</time></trkpt><trkpt lat="14.521352238586335" lon="121.02703244833967"><ele>16.0</ele><time>2026-04-25T13:18:49Z</time></trkpt><trkpt lat="14.521485613364185" lon="121.02695007446101"><ele>16.0</ele><time>2026-04-25T13:18:50Z</time></trkpt><trkpt lat="14.521619255417452" lon="121.02687363494488"><ele>16.0</ele><time>2026-04-25T13:18:51Z</time></trkpt><trkpt lat="14.521759425235278" lon="121.0267856103002"><ele>16.0</ele><time>2026-04-25T13:18:52Z</time></trkpt><trkpt lat="14.521898477657148" lon="121.02670444328032"><ele>16.0</ele><time>2026-04-25T13:18:53Z</time></trkpt><trkpt lat="14.52204444302617" lon="121.02662532003265"><ele>16.0</ele><time>2026-04-25T13:18:54Z</time></trkpt><trkpt lat="14.522194175650142" lon="121.02656124437178"><ele>15.333333333333332</ele><time>2026-04-25T13:18:55Z</time></trkpt><trkpt lat="14.522338100907142" lon="121.02649639874002"><ele>14.666666666666668</ele><time>2026-04-25T13:18:56Z</time></trkpt><trkpt lat="14.522485859320607" lon="121.02643061831418"><ele>14.0</ele><time>2026-04-25T13:18:57Z</time></trkpt><trkpt lat="14.522636149423294" lon="121.02636378916884"><ele>14.0</ele><time>2026-04-25T13:18:58Z</time></trkpt><trkpt lat="14.52279057734901" lon="121.02629512006568"><ele>14.0</ele><time>2026-04-25T13:18:59Z</time></trkpt><trkpt lat="14.52295054032808" lon="121.02622379888919"><ele>14.0</ele><time>2026-04-25T13:19:00Z</time></trkpt><trkpt lat="14.52311031828888" lon="121.02614923583324"><ele>14.666666666666668</ele><time>2026-04-25T13:19:01Z</time></trkpt><trkpt lat="14.523273853071407" lon="121.02607291960295"><ele>15.333333333333332</ele><time>2026-04-25T13:19:02Z</time></trkpt><trkpt lat="14.523439519316058" lon="121.0259951147492"><ele>16.0</ele><time>2026-04-25T13:19:03Z</time></trkpt><trkpt lat="14.523616225207576" lon="121.02590792217454"><ele>16.333333333333332</ele><time>2026-04-25T13:19:04Z</time></trkpt><trkpt lat="14.523780191506328" lon="121.0258224929046"><ele>16.666666666666668</ele><time>2026-04-25T13:19:05Z</time></trkpt><trkpt lat="14.523947919512208" lon="121.02573443188439"><ele>17.0</ele><time>2026-04-25T13:19:06Z</time></trkpt><trkpt lat="14.524114449897144" lon="121.02564680474994"><ele>16.333333333333336</ele><time>2026-04-25T13:19:07Z</time></trkpt><trkpt lat="14.52428634807873" lon="121.02555690737235"><ele>15.666666666666668</ele><time>2026-04-25T13:19:08Z</time></trkpt><trkpt lat="14.524476118583328" lon="121.02547608229774"><ele>15.0</ele><time>2026-04-25T13:19:09Z</time></trkpt><trkpt lat="14.524644562087438" lon="121.02538731724229"><ele>13.666666666666666</ele><time>2026-04-25T13:19:10Z</time></trkpt><trkpt lat="14.52480913747069" lon="121.02530013583481"><ele>12.333333333333332</ele><time>2026-04-25T13:19:11Z</time></trkpt><trkpt lat="14.524985611226267" lon="121.02520659090942"><ele>11.0</ele><time>2026-04-25T13:19:12Z</time></trkpt><trkpt lat="14.525136542084471" lon="121.0251244069948"><ele>11.0</ele><time>2026-04-25T13:19:13Z</time></trkpt><trkpt lat="14.525285046673714" lon="121.02504094590608"><ele>11.0</ele><time>2026-04-25T13:19:14Z</time></trkpt><trkpt lat="14.52544044564077" lon="121.02495361005431"><ele>11.0</ele><time>2026-04-25T13:19:15Z</time></trkpt><trkpt lat="14.52559104157187" lon="121.02486897354817"><ele>9.666666666666666</ele><time>2026-04-25T13:19:16Z</time></trkpt><trkpt lat="14.525741958719351" lon="121.02478415653636"><ele>8.333333333333334</ele><time>2026-04-25T13:19:17Z</time></trkpt><trkpt lat="14.525890747982316" lon="121.02470052337678"><ele>7.0</ele><time>2026-04-25T13:19:18Z</time></trkpt><trkpt lat="14.52603975560373" lon="121.02461674810547"><ele>7.0</ele><time>2026-04-25T13:19:19Z</time></trkpt><trkpt lat="14.526183546413634" lon="121.02453590576584"><ele>7.0</ele><time>2026-04-25T13:19:20Z</time></trkpt><trkpt lat="14.526332875554035" lon="121.02445436555836"><ele>7.0</ele><time>2026-04-25T13:19:21Z</time></trkpt><trkpt lat="14.526484927023764" lon="121.02437321422886"><ele>7.666666666666667</ele><time>2026-04-25T13:19:22Z</time></trkpt><trkpt lat="14.526640354781824" lon="121.02429036091743"><ele>8.333333333333334</ele><time>2026-04-25T13:19:23Z</time></trkpt><trkpt lat="14.526795440002902" lon="121.0242076902034"><ele>9.0</ele><time>2026-04-25T13:19:24Z</time></trkpt><trkpt lat="14.526967115030873" lon="121.02411617602125"><ele>9.666666666666666</ele><time>2026-04-25T13:19:25Z</time></trkpt><trkpt lat="14.52713032464115" lon="121.02402917448572"><ele>10.333333333333332</ele><time>2026-04-25T13:19:26Z</time></trkpt><trkpt lat="14.527289347320233" lon="121.0239444048618"><ele>11.0</ele><time>2026-04-25T13:19:27Z</time></trkpt><trkpt lat="14.527446267346567" lon="121.02386109896932"><ele>11.0</ele><time>2026-04-25T13:19:28Z</time></trkpt><trkpt lat="14.52760518315741" lon="121.02378213638043"><ele>11.0</ele><time>2026-04-25T13:19:29Z</time></trkpt><trkpt lat="14.527758366063354" lon="121.02368832014069"><ele>11.0</ele><time>2026-04-25T13:19:30Z</time></trkpt><trkpt lat="14.527918675955261" lon="121.02361476890992"><ele>10.666666666666666</ele><time>2026-04-25T13:19:31Z</time></trkpt><trkpt lat="14.528122516014779" lon="121.02352034144718"><ele>10.333333333333334</ele><time>2026-04-25T13:19:32Z</time></trkpt><trkpt lat="14.528285074518937" lon="121.0234344248955"><ele>10.0</ele><time>2026-04-25T13:19:33Z</time></trkpt><trkpt lat="14.528447624091598" lon="121.02334767243177"><ele>10.0</ele><time>2026-04-25T13:19:34Z</time></trkpt><trkpt lat="14.528609188755704" lon="121.02326077290077"><ele>10.0</ele><time>2026-04-25T13:19:35Z</time></trkpt><trkpt lat="14.528771079943207" lon="121.02317369772231"><ele>10.0</ele><time>2026-04-25T13:19:36Z</time></trkpt><trkpt lat="14.52893180204122" lon="121.02308725133405"><ele>10.0</ele><time>2026-04-25T13:19:37Z</time></trkpt><trkpt lat="14.529090015946029" lon="121.02300220367513"><ele>10.0</ele><time>2026-04-25T13:19:38Z</time></trkpt><trkpt lat="14.52924868452148" lon="121.02291706234287"><ele>10.0</ele><time>2026-04-25T13:19:39Z</time></trkpt><trkpt lat="14.529409075009413" lon="121.02283099702284"><ele>10.333333333333334</ele><time>2026-04-25T13:19:40Z</time></trkpt><trkpt lat="14.529570373295435" lon="121.022743926678"><ele>10.666666666666666</ele><time>2026-04-25T13:19:41Z</time></trkpt><trkpt lat="14.529731489197069" lon="121.02265692276144"><ele>11.0</ele><time>2026-04-25T13:19:42Z</time></trkpt><trkpt lat="14.529894745198613" lon="121.02256876421973"><ele>10.0</ele><time>2026-04-25T13:19:43Z</time></trkpt><trkpt lat="14.530060186536456" lon="121.02247942554526"><ele>9.0</ele><time>2026-04-25T13:19:44Z</time></trkpt><trkpt lat="14.53022365485067" lon="121.02239115234279"><ele>8.0</ele><time>2026-04-25T13:19:45Z</time></trkpt><trkpt lat="14.530386421125566" lon="121.0223032582047"><ele>8.333333333333332</ele><time>2026-04-25T13:19:46Z</time></trkpt><trkpt lat="14.530550662375632" lon="121.02221342837774"><ele>8.666666666666666</ele><time>2026-04-25T13:19:47Z</time></trkpt><trkpt lat="14.530717620351819" lon="121.02212156171882"><ele>9.0</ele><time>2026-04-25T13:19:48Z</time></trkpt><trkpt lat="14.530883862746728" lon="121.02202995127075"><ele>9.0</ele><time>2026-04-25T13:19:49Z</time></trkpt><trkpt lat="14.531058882403586" lon="121.02193354679554"><ele>9.0</ele><time>2026-04-25T13:19:50.048Z</time></trkpt><trkpt lat="14.53828742846288" lon="121.01791544369799"><ele>9.4</ele><time>2026-04-25T13:20:51Z</time></trkpt><trkpt lat="14.538335045137064" lon="121.01777045316932"><ele>9.8</ele><time>2026-04-25T13:20:52Z</time></trkpt><trkpt lat="14.538409256440131" lon="121.01779300305904"><ele>10.200000000000001</ele><time>2026-04-25T13:20:53Z</time></trkpt><trkpt lat="14.53850002449025" lon="121.01776183791286"><ele>10.600000000000001</ele><time>2026-04-25T13:20:54Z</time></trkpt><trkpt lat="14.538578823685738" lon="121.01770601478512"><ele>11.0</ele><time>2026-04-25T13:20:55Z</time></trkpt><trkpt lat="14.538651487854047" lon="121.01767047981194"><ele>10.75</ele><time>2026-04-25T13:20:56Z</time></trkpt><trkpt lat="14.53874244256272" lon="121.01760650565232"><ele>10.5</ele><time>2026-04-25T13:20:57Z</time></trkpt><trkpt lat="14.538826128592211" lon="121.01753581241445"><ele>10.25</ele><time>2026-04-25T13:20:58Z</time></trkpt><trkpt lat="14.53892634300335" lon="121.01745616025565"><ele>10.0</ele><time>2026-04-25T13:20:59Z</time></trkpt><trkpt lat="14.539013087923722" lon="121.01738924694939"><ele>10.6</ele><time>2026-04-25T13:21:00Z</time></trkpt><trkpt lat="14.539104418767664" lon="121.01732026101595"><ele>11.2</ele><time>2026-04-25T13:21:01Z</time></trkpt><trkpt lat="14.539192173081966" lon="121.0172603729122"><ele>11.8</ele><time>2026-04-25T13:21:02Z</time></trkpt><trkpt lat="14.539270291842001" lon="121.01719539454533"><ele>12.4</ele><time>2026-04-25T13:21:03Z</time></trkpt><trkpt lat="14.539364600553206" lon="121.0171491051153"><ele>13.0</ele><time>2026-04-25T13:21:04Z</time></trkpt><trkpt lat="14.53945430958024" lon="121.01710676150233"><ele>13.0</ele><time>2026-04-25T13:21:05Z</time></trkpt><trkpt lat="14.539541256318923" lon="121.01706583134178"><ele>13.0</ele><time>2026-04-25T13:21:06Z</time></trkpt><trkpt lat="14.53962968844324" lon="121.01702615359993"><ele>13.0</ele><time>2026-04-25T13:21:07Z</time></trkpt><trkpt lat="14.539706663461693" lon="121.01698201946212"><ele>13.0</ele><time>2026-04-25T13:21:08Z</time></trkpt><trkpt lat="14.53978965547495" lon="121.01694821726372"><ele>13.0</ele><time>2026-04-25T13:21:09Z</time></trkpt><trkpt lat="14.539872767341453" lon="121.01691126123066"><ele>12.600000000000001</ele><time>2026-04-25T13:21:10Z</time></trkpt><trkpt lat="14.539955114634575" lon="121.01687129896447"><ele>12.200000000000001</ele><time>2026-04-25T13:21:11Z</time></trkpt><trkpt lat="14.5400649276246" lon="121.0168592636156"><ele>11.8</ele><time>2026-04-25T13:21:12Z</time></trkpt><trkpt lat="14.540147643828522" lon="121.0168078254778"><ele>11.4</ele><time>2026-04-25T13:21:13Z</time></trkpt><trkpt lat="14.540234208943106" lon="121.01675710580493"><ele>11.0</ele><time>2026-04-25T13:21:14Z</time></trkpt><trkpt lat="14.540322253076974" lon="121.01671828672698"><ele>11.200000000000001</ele><time>2026-04-25T13:21:15Z</time></trkpt><trkpt lat="14.540415427998674" lon="121.01668517272776"><ele>11.4</ele><time>2026-04-25T13:21:16Z</time></trkpt><trkpt lat="14.54050362221115" lon="121.01664008995873"><ele>11.6</ele><time>2026-04-25T13:21:17Z</time></trkpt><trkpt lat="14.540583715461356" lon="121.01658664753846"><ele>11.8</ele><time>2026-04-25T13:21:18Z</time></trkpt><trkpt lat="14.540676383966767" lon="121.01651584390122"><ele>12.0</ele><time>2026-04-25T13:21:19Z</time></trkpt><trkpt lat="14.540771241357929" lon="121.01644570868154"><ele>12.0</ele><time>2026-04-25T13:21:20Z</time></trkpt><trkpt lat="14.540866762630566" lon="121.01637526556944"><ele>12.0</ele><time>2026-04-25T13:21:21Z</time></trkpt><trkpt lat="14.540987635282137" lon="121.01628164308472"><ele>12.0</ele><time>2026-04-25T13:21:22Z</time></trkpt><trkpt lat="14.54109638686939" lon="121.01622330545783"><ele>12.0</ele><time>2026-04-25T13:21:23Z</time></trkpt><trkpt lat="14.541289441345006" lon="121.01632321228072"><ele>11.5</ele><time>2026-04-25T13:21:24Z</time></trkpt><trkpt lat="14.541589785371258" lon="121.0162130572434"><ele>11.0</ele><time>2026-04-25T13:21:26Z</time></trkpt><trkpt lat="14.541721504638879" lon="121.01616970005296"><ele>11.0</ele><time>2026-04-25T13:21:27Z</time></trkpt><trkpt lat="14.54183702787463" lon="121.0161191008662"><ele>11.0</ele><time>2026-04-25T13:21:28Z</time></trkpt><trkpt lat="14.541954774346655" lon="121.01606370445307"><ele>11.0</ele><time>2026-04-25T13:21:29Z</time></trkpt><trkpt lat="14.542070779444414" lon="121.01600512824096"><ele>11.0</ele><time>2026-04-25T13:21:30Z</time></trkpt><trkpt lat="14.542184820129624" lon="121.01594572554424"><ele>10.5</ele><time>2026-04-25T13:21:31Z</time></trkpt><trkpt lat="14.542263257214001" lon="121.01590369597841"><ele>10.0</ele><time>2026-04-25T13:21:32Z</time></trkpt><trkpt lat="14.542370559487496" lon="121.01584732227596"><ele>9.5</ele><time>2026-04-25T13:21:33Z</time></trkpt><trkpt lat="14.542484675462552" lon="121.0157871753774"><ele>9.0</ele><time>2026-04-25T13:21:34Z</time></trkpt><trkpt lat="14.54260358588062" lon="121.01572486058777"><ele>9.75</ele><time>2026-04-25T13:21:35Z</time></trkpt><trkpt lat="14.542663820304066" lon="121.01569285498859"><ele>10.5</ele><time>2026-04-25T13:21:36Z</time></trkpt><trkpt lat="14.542796649050599" lon="121.01562920293827"><ele>11.25</ele><time>2026-04-25T13:21:38Z</time></trkpt><trkpt lat="14.542910667809302" lon="121.01557113206366"><ele>12.0</ele><time>2026-04-25T13:21:39Z</time></trkpt><trkpt lat="14.543013333957566" lon="121.01551665925493"><ele>12.0</ele><time>2026-04-25T13:21:40Z</time></trkpt><trkpt lat="14.543104762680096" lon="121.0154637916847"><ele>12.0</ele><time>2026-04-25T13:21:41Z</time></trkpt><trkpt lat="14.54319950619879" lon="121.01541048952161"><ele>12.0</ele><time>2026-04-25T13:21:42Z</time></trkpt><trkpt lat="14.543294878717157" lon="121.01535771900726"><ele>12.0</ele><time>2026-04-25T13:21:43Z</time></trkpt><trkpt lat="14.54339436613591" lon="121.01530083546952"><ele>12.0</ele><time>2026-04-25T13:21:44Z</time></trkpt><trkpt lat="14.543497082721066" lon="121.01524222329384"><ele>12.0</ele><time>2026-04-25T13:21:45Z</time></trkpt><trkpt lat="14.54360624379968" lon="121.01518157938908"><ele>12.0</ele><time>2026-04-25T13:21:46Z</time></trkpt><trkpt lat="14.543725611983472" lon="121.01511685595983"><ele>12.0</ele><time>2026-04-25T13:21:47Z</time></trkpt><trkpt lat="14.543850489351422" lon="121.0150522433247"><ele>12.0</ele><time>2026-04-25T13:21:48Z</time></trkpt><trkpt lat="14.543997903785685" lon="121.0149707716695"><ele>12.0</ele><time>2026-04-25T13:21:49Z</time></trkpt><trkpt lat="14.544140127268198" lon="121.01489616211462"><ele>12.0</ele><time>2026-04-25T13:21:50Z</time></trkpt><trkpt lat="14.544282975412605" lon="121.0148224825594"><ele>12.0</ele><time>2026-04-25T13:21:51Z</time></trkpt><trkpt lat="14.54442559466368" lon="121.01475067806368"><ele>12.0</ele><time>2026-04-25T13:21:52Z</time></trkpt><trkpt lat="14.544566348681808" lon="121.01468109897573"><ele>12.0</ele><time>2026-04-25T13:21:53Z</time></trkpt><trkpt lat="14.544710340074264" lon="121.01461066789136"><ele>12.0</ele><time>2026-04-25T13:21:54Z</time></trkpt><trkpt lat="14.544847845440394" lon="121.01454561951277"><ele>12.0</ele><time>2026-04-25T13:21:55Z</time></trkpt><trkpt lat="14.54498124391814" lon="121.01448298387407"><ele>12.0</ele><time>2026-04-25T13:21:56Z</time></trkpt><trkpt lat="14.54511111425592" lon="121.01442292219673"><ele>12.0</ele><time>2026-04-25T13:21:57Z</time></trkpt><trkpt lat="14.545238157032994" lon="121.01436402436059"><ele>12.0</ele><time>2026-04-25T13:21:58Z</time></trkpt><trkpt lat="14.545364837183604" lon="121.0143059570751"><ele>11.5</ele><time>2026-04-25T13:21:59Z</time></trkpt><trkpt lat="14.545490394011852" lon="121.01424979936864"><ele>11.0</ele><time>2026-04-25T13:22:00Z</time></trkpt><trkpt lat="14.545617241732039" lon="121.0141983202221"><ele>10.5</ele><time>2026-04-25T13:22:01Z</time></trkpt><trkpt lat="14.545741584349956" lon="121.0141490036089"><ele>10.0</ele><time>2026-04-25T13:22:02Z</time></trkpt><trkpt lat="14.545867995865526" lon="121.01410002860335"><ele>10.0</ele><time>2026-04-25T13:22:03Z</time></trkpt><trkpt lat="14.545991938271962" lon="121.01405321181107"><ele>10.0</ele><time>2026-04-25T13:22:04Z</time></trkpt><trkpt lat="14.54611936203826" lon="121.01400217744231"><ele>10.0</ele><time>2026-04-25T13:22:05Z</time></trkpt><trkpt lat="14.546203430073602" lon="121.01395955841666"><ele>10.0</ele><time>2026-04-25T13:22:06Z</time></trkpt><trkpt lat="14.546257705157984" lon="121.01379571659739"><ele>10.75</ele><time>2026-04-25T13:22:07Z</time></trkpt><trkpt lat="14.54638186901044" lon="121.01368332406619"><ele>11.5</ele><time>2026-04-25T13:22:08Z</time></trkpt><trkpt lat="14.546499094954713" lon="121.01360631408029"><ele>12.25</ele><time>2026-04-25T13:22:09Z</time></trkpt><trkpt lat="14.546598554480106" lon="121.01351701190025"><ele>13.0</ele><time>2026-04-25T13:22:10Z</time></trkpt><trkpt lat="14.54670312608789" lon="121.01344302926758"><ele>13.0</ele><time>2026-04-25T13:22:11Z</time></trkpt><trkpt lat="14.546812649809056" lon="121.01338032295503"><ele>13.0</ele><time>2026-04-25T13:22:12Z</time></trkpt><trkpt lat="14.5469150083529" lon="121.0133072777115"><ele>13.0</ele><time>2026-04-25T13:22:13Z</time></trkpt><trkpt lat="14.547034123728594" lon="121.01327357641915"><ele>13.0</ele><time>2026-04-25T13:22:14Z</time></trkpt><trkpt lat="14.547139415548314" lon="121.01321713125695"><ele>12.0</ele><time>2026-04-25T13:22:15Z</time></trkpt><trkpt lat="14.54730474548497" lon="121.01318712850855"><ele>11.0</ele><time>2026-04-25T13:22:16Z</time></trkpt><trkpt lat="14.54742557387921" lon="121.01313032273036"><ele>10.0</ele><time>2026-04-25T13:22:17Z</time></trkpt><trkpt lat="14.547547047543507" lon="121.01306578818064"><ele>9.0</ele><time>2026-04-25T13:22:18Z</time></trkpt><trkpt lat="14.547671370755085" lon="121.0130022664504"><ele>9.0</ele><time>2026-04-25T13:22:19Z</time></trkpt><trkpt lat="14.547797220687459" lon="121.01293607353225"><ele>9.0</ele><time>2026-04-25T13:22:20Z</time></trkpt><trkpt lat="14.547923496612169" lon="121.01286836566102"><ele>9.0</ele><time>2026-04-25T13:22:21Z</time></trkpt><trkpt lat="14.548046133075685" lon="121.0127998145858"><ele>9.0</ele><time>2026-04-25T13:22:22Z</time></trkpt><trkpt lat="14.548171710888028" lon="121.0127321880193"><ele>8.75</ele><time>2026-04-25T13:22:23Z</time></trkpt><trkpt lat="14.548301811608178" lon="121.01266178215943"><ele>8.5</ele><time>2026-04-25T13:22:24Z</time></trkpt><trkpt lat="14.548435798275717" lon="121.01259370737084"><ele>8.25</ele><time>2026-04-25T13:22:25Z</time></trkpt><trkpt lat="14.548571684871106" lon="121.01252744979973"><ele>8.0</ele><time>2026-04-25T13:22:26Z</time></trkpt><trkpt lat="14.548706954013568" lon="121.01246180940316"><ele>8.5</ele><time>2026-04-25T13:22:27Z</time></trkpt><trkpt lat="14.548840424756749" lon="121.01239696842278"><ele>9.0</ele><time>2026-04-25T13:22:28Z</time></trkpt><trkpt lat="14.548970193846955" lon="121.01233256497166"><ele>9.5</ele><time>2026-04-25T13:22:29Z</time></trkpt><trkpt lat="14.549096815942304" lon="121.01226883219037"><ele>10.0</ele><time>2026-04-25T13:22:30Z</time></trkpt><trkpt lat="14.54921951445438" lon="121.01220676651698"><ele>10.0</ele><time>2026-04-25T13:22:31Z</time></trkpt><trkpt lat="14.549341249783259" lon="121.01214528331766"><ele>10.0</ele><time>2026-04-25T13:22:32Z</time></trkpt><trkpt lat="14.549457849917037" lon="121.0120861598857"><ele>10.0</ele><time>2026-04-25T13:22:33Z</time></trkpt><trkpt lat="14.54957455258098" lon="121.01202603789913"><ele>10.0</ele><time>2026-04-25T13:22:34Z</time></trkpt><trkpt lat="14.549689135001554" lon="121.01196737365822"><ele>10.25</ele><time>2026-04-25T13:22:35Z</time></trkpt><trkpt lat="14.549803342460883" lon="121.01190935333764"><ele>10.5</ele><time>2026-04-25T13:22:36Z</time></trkpt><trkpt lat="14.549881698267036" lon="121.01184584604673"><ele>10.75</ele><time>2026-04-25T13:22:38Z</time></trkpt><trkpt lat="14.54998292616142" lon="121.01179346324493"><ele>11.0</ele><time>2026-04-25T13:22:39Z</time></trkpt><trkpt lat="14.550080977861752" lon="121.0117426653892"><ele>11.0</ele><time>2026-04-25T13:22:40Z</time></trkpt><trkpt lat="14.55017564814644" lon="121.01169310957042"><ele>11.0</ele><time>2026-04-25T13:22:41Z</time></trkpt><trkpt lat="14.550265472557793" lon="121.01164576037964"><ele>11.0</ele><time>2026-04-25T13:22:42Z</time></trkpt><trkpt lat="14.5503562922407" lon="121.01159758104143"><ele>11.0</ele><time>2026-04-25T13:22:43Z</time></trkpt><trkpt lat="14.550595496887553" lon="121.01164614012272"><ele>10.600000000000001</ele><time>2026-04-25T13:22:44.071Z</time></trkpt><trkpt lat="14.550638594371335" lon="121.01158922067823"><ele>10.200000000000001</ele><time>2026-04-25T13:22:45.028Z</time></trkpt><trkpt lat="14.550704148950702" lon="121.01153647449715"><ele>9.8</ele><time>2026-04-25T13:22:46.028Z</time></trkpt><trkpt lat="14.550736137330707" lon="121.01142388596698"><ele>9.4</ele><time>2026-04-25T13:22:47.028Z</time></trkpt><trkpt lat="14.550842721574398" lon="121.01143878254759"><ele>9.0</ele><time>2026-04-25T13:22:48.028Z</time></trkpt><trkpt lat="14.550904327487814" lon="121.01138805673808"><ele>9.0</ele><time>2026-04-25T13:22:49.028Z</time></trkpt><trkpt lat="14.550985588447748" lon="121.01135642842091"><ele>9.0</ele><time>2026-04-25T13:22:50.026Z</time></trkpt><trkpt lat="14.551057944972065" lon="121.01132751231556"><ele>9.0</ele><time>2026-04-25T13:22:51.027Z</time></trkpt><trkpt lat="14.551151248361816" lon="121.01128704379799"><ele>9.0</ele><time>2026-04-25T13:22:53.026Z</time></trkpt><trkpt lat="14.551227303226558" lon="121.01126865634309"><ele>9.0</ele><time>2026-04-25T13:22:55.024Z</time></trkpt><trkpt lat="14.551293026908558" lon="121.01124530145317"><ele>9.0</ele><time>2026-04-25T13:22:58.024Z</time></trkpt><trkpt lat="14.551367647995361" lon="121.01122771264177"><ele>9.0</ele><time>2026-04-25T13:23:01.02Z</time></trkpt><trkpt lat="14.55129823898348" lon="121.01120677068405"><ele>9.0</ele><time>2026-04-25T13:23:04.021Z</time></trkpt><trkpt lat="14.551123794010199" lon="121.01106789104227"><ele>9.0</ele><time>2026-04-25T13:23:32.015Z</time></trkpt><trkpt lat="14.551119938033198" lon="121.01113292846414"><ele>9.0</ele><time>2026-04-25T13:23:57Z</time></trkpt><trkpt lat="14.551252855817566" lon="121.01106183892689"><ele>9.4</ele><time>2026-04-25T13:24:16Z</time></trkpt><trkpt lat="14.551334380149093" lon="121.01101726205542"><ele>9.8</ele><time>2026-04-25T13:24:17Z</time></trkpt><trkpt lat="14.551429514273014" lon="121.0109733112212"><ele>10.200000000000001</ele><time>2026-04-25T13:24:18Z</time></trkpt><trkpt lat="14.551532809495496" lon="121.01092778344139"><ele>10.600000000000001</ele><time>2026-04-25T13:24:19Z</time></trkpt><trkpt lat="14.551637664628606" lon="121.01087854688156"><ele>11.0</ele><time>2026-04-25T13:24:20Z</time></trkpt><trkpt lat="14.551728633087185" lon="121.01083229296755"><ele>10.4</ele><time>2026-04-25T13:24:21Z</time></trkpt><trkpt lat="14.551786770240687" lon="121.01080187991113"><ele>9.8</ele><time>2026-04-25T13:24:22Z</time></trkpt><trkpt lat="14.551855151904412" lon="121.01076254151505"><ele>9.200000000000001</ele><time>2026-04-25T13:24:23Z</time></trkpt><trkpt lat="14.551956499285714" lon="121.01070453845095"><ele>8.600000000000001</ele><time>2026-04-25T13:24:24Z</time></trkpt><trkpt lat="14.552058042401624" lon="121.01064559801495"><ele>8.0</ele><time>2026-04-25T13:24:25Z</time></trkpt><trkpt lat="14.552145349648761" lon="121.0105967698286"><ele>7.800000000000001</ele><time>2026-04-25T13:24:26Z</time></trkpt><trkpt lat="14.552231589334196" lon="121.01054704144026"><ele>7.6000000000000005</ele><time>2026-04-25T13:24:27Z</time></trkpt><trkpt lat="14.55231556497419" lon="121.01049816559434"><ele>7.3999999999999995</ele><time>2026-04-25T13:24:28Z</time></trkpt><trkpt lat="14.552410354376354" lon="121.01044215788471"><ele>7.199999999999999</ele><time>2026-04-25T13:24:29Z</time></trkpt><trkpt lat="14.55250600590205" lon="121.01039176024827"><ele>7.0</ele><time>2026-04-25T13:24:30Z</time></trkpt><trkpt lat="14.552601556659086" lon="121.01034364050156"><ele>7.0</ele><time>2026-04-25T13:24:31Z</time></trkpt><trkpt lat="14.552685299006882" lon="121.01027899000616"><ele>6.999999999999999</ele><time>2026-04-25T13:24:32Z</time></trkpt><trkpt lat="14.552783470791407" lon="121.01023081798034"><ele>6.999999999999999</ele><time>2026-04-25T13:24:33Z</time></trkpt><trkpt lat="14.552863040608122" lon="121.01017185212649"><ele>7.0</ele><time>2026-04-25T13:24:34Z</time></trkpt><trkpt lat="14.552949598828983" lon="121.01011680528585"><ele>7.0</ele><time>2026-04-25T13:24:35Z</time></trkpt><trkpt lat="14.55303619806123" lon="121.01006664036292"><ele>7.0</ele><time>2026-04-25T13:24:36Z</time></trkpt><trkpt lat="14.55312243847446" lon="121.01001695842463"><ele>6.999999999999999</ele><time>2026-04-25T13:24:37Z</time></trkpt><trkpt lat="14.553208550796992" lon="121.00996662352617"><ele>6.999999999999999</ele><time>2026-04-25T13:24:38Z</time></trkpt><trkpt lat="14.553304579959516" lon="121.00992470958545"><ele>7.0</ele><time>2026-04-25T13:24:39Z</time></trkpt><trkpt lat="14.553393389179835" lon="121.00987671373977"><ele>7.0</ele><time>2026-04-25T13:24:40Z</time></trkpt><trkpt lat="14.55348194636437" lon="121.00983123692568"><ele>7.0</ele><time>2026-04-25T13:24:41Z</time></trkpt><trkpt lat="14.553574863923387" lon="121.00978202586758"><ele>6.999999999999999</ele><time>2026-04-25T13:24:42.071Z</time></trkpt><trkpt lat="14.553661495102405" lon="121.00974035778303"><ele>6.999999999999999</ele><time>2026-04-25T13:24:43.034Z</time></trkpt><trkpt lat="14.553740304423677" lon="121.00969377340758"><ele>7.0</ele><time>2026-04-25T13:24:44.034Z</time></trkpt><trkpt lat="14.553821573456863" lon="121.00965383205464"><ele>7.0</ele><time>2026-04-25T13:24:45.034Z</time></trkpt><trkpt lat="14.553900235210934" lon="121.0096141348403"><ele>7.000000000000001</ele><time>2026-04-25T13:24:46.034Z</time></trkpt><trkpt lat="14.553993772820688" lon="121.00960514412462"><ele>7.0</ele><time>2026-04-25T13:24:47.034Z</time></trkpt><trkpt lat="14.554098567452462" lon="121.00962991826691"><ele>7.0</ele><time>2026-04-25T13:24:48.031Z</time></trkpt><trkpt lat="14.554188515617744" lon="121.00960918375681"><ele>7.0</ele><time>2026-04-25T13:24:49.03Z</time></trkpt><trkpt lat="14.554253543109054" lon="121.00956856505417"><ele>7.000000000000001</ele><time>2026-04-25T13:24:50.03Z</time></trkpt><trkpt lat="14.554322287336479" lon="121.00953527008667"><ele>7.0</ele><time>2026-04-25T13:24:51.03Z</time></trkpt><trkpt lat="14.55438710376167" lon="121.00950500620682"><ele>7.000000000000001</ele><time>2026-04-25T13:24:52.029Z</time></trkpt><trkpt lat="14.554451948785283" lon="121.00947668132942"><ele>7.0</ele><time>2026-04-25T13:24:53.03Z</time></trkpt><trkpt lat="14.554484279921699" lon="121.00941101270949"><ele>7.0</ele><time>2026-04-25T13:24:54.03Z</time></trkpt><trkpt lat="14.55463330418817" lon="121.00939995401077"><ele>7.0</ele><time>2026-04-25T13:24:56.029Z</time></trkpt><trkpt lat="14.55467515921597" lon="121.00934558970243"><ele>7.000000000000001</ele><time>2026-04-25T13:24:57.029Z</time></trkpt><trkpt lat="14.554738039334891" lon="121.00930608436732"><ele>7.0</ele><time>2026-04-25T13:24:58.029Z</time></trkpt><trkpt lat="14.55481253687663" lon="121.00924962813437"><ele>6.0</ele><time>2026-04-25T13:24:59.03Z</time></trkpt><trkpt lat="14.554797727520072" lon="121.00903567398565"><ele>5.0</ele><time>2026-04-25T13:25:00.027Z</time></trkpt><trkpt lat="14.55505409660346" lon="121.00889844476956"><ele>5.0</ele><time>2026-04-25T13:25:01Z</time></trkpt><trkpt lat="14.555182560550286" lon="121.00885528548451"><ele>5.0</ele><time>2026-04-25T13:25:02Z</time></trkpt><trkpt lat="14.555275589740933" lon="121.0088050386049"><ele>5.0</ele><time>2026-04-25T13:25:03Z</time></trkpt><trkpt lat="14.555418841288901" lon="121.00879800813895"><ele>5.0</ele><time>2026-04-25T13:25:04Z</time></trkpt><trkpt lat="14.555499724570904" lon="121.00876730014384"><ele>5.6</ele><time>2026-04-25T13:25:05Z</time></trkpt><trkpt lat="14.55560356001494" lon="121.00871544419498"><ele>6.2</ele><time>2026-04-25T13:25:06Z</time></trkpt><trkpt lat="14.555697395406611" lon="121.0086639210192"><ele>6.800000000000001</ele><time>2026-04-25T13:25:07Z</time></trkpt><trkpt lat="14.555783553646016" lon="121.0086153679877"><ele>7.4</ele><time>2026-04-25T13:25:08Z</time></trkpt><trkpt lat="14.555867055581691" lon="121.00856441799432"><ele>8.0</ele><time>2026-04-25T13:25:09Z</time></trkpt><trkpt lat="14.555948192363516" lon="121.00851264676534"><ele>8.0</ele><time>2026-04-25T13:25:10Z</time></trkpt><trkpt lat="14.55600636968039" lon="121.00847272423863"><ele>8.0</ele><time>2026-04-25T13:25:11Z</time></trkpt><trkpt lat="14.556092980513045" lon="121.00841852074286"><ele>8.0</ele><time>2026-04-25T13:25:12Z</time></trkpt><trkpt lat="14.556175706628249" lon="121.00836209581013"><ele>8.0</ele><time>2026-04-25T13:25:13Z</time></trkpt><trkpt lat="14.556253764949249" lon="121.00831054412762"><ele>8.0</ele><time>2026-04-25T13:25:14Z</time></trkpt><trkpt lat="14.556330087345813" lon="121.00825803246575"><ele>7.499999999999999</ele><time>2026-04-25T13:25:15Z</time></trkpt><trkpt lat="14.556389383082564" lon="121.00820533721638"><ele>7.0</ele><time>2026-04-25T13:25:16Z</time></trkpt><trkpt lat="14.556458437551553" lon="121.00816633638284"><ele>6.5</ele><time>2026-04-25T13:25:17Z</time></trkpt><trkpt lat="14.556520876699212" lon="121.00813109860057"><ele>6.0</ele><time>2026-04-25T13:25:18Z</time></trkpt><trkpt lat="14.556625024796814" lon="121.00807644883899"><ele>5.5</ele><time>2026-04-25T13:25:20Z</time></trkpt><trkpt lat="14.556684969571814" lon="121.0080423785602"><ele>5.0</ele><time>2026-04-25T13:26:21Z</time></trkpt><trkpt lat="14.556769306003536" lon="121.00806492438858"><ele>5.0</ele><time>2026-04-25T13:26:23Z</time></trkpt><trkpt lat="14.556849386221822" lon="121.0080356212825"><ele>5.0</ele><time>2026-04-25T13:26:25Z</time></trkpt><trkpt lat="14.556929171042329" lon="121.00799723921753"><ele>5.0</ele><time>2026-04-25T13:26:27Z</time></trkpt><trkpt lat="14.556989529317947" lon="121.00796217403567"><ele>5.0</ele><time>2026-04-25T13:26:29Z</time></trkpt><trkpt lat="14.557072254737044" lon="121.00791457123378"><ele>5.0</ele><time>2026-04-25T13:26:32Z</time></trkpt><trkpt lat="14.557152725515218" lon="121.00786868513684"><ele>5.0</ele><time>2026-04-25T13:26:34Z</time></trkpt><trkpt lat="14.55721282197212" lon="121.00783543068412"><ele>5.4</ele><time>2026-04-25T13:26:36Z</time></trkpt><trkpt lat="14.557297572992068" lon="121.00778845041917"><ele>5.8</ele><time>2026-04-25T13:26:38Z</time></trkpt><trkpt lat="14.557397320742885" lon="121.0077317543615"><ele>6.199999999999999</ele><time>2026-04-25T13:26:40Z</time></trkpt><trkpt lat="14.557485761540807" lon="121.0076719170596"><ele>6.6</ele><time>2026-04-25T13:26:42Z</time></trkpt><trkpt lat="14.55755413783531" lon="121.00756790290727"><ele>7.0</ele><time>2026-04-25T13:26:44Z</time></trkpt><trkpt lat="14.557628701650351" lon="121.00752250657192"><ele>7.333333333333334</ele><time>2026-04-25T13:26:46Z</time></trkpt><trkpt lat="14.557698363826553" lon="121.00747354426349"><ele>7.666666666666666</ele><time>2026-04-25T13:26:49Z</time></trkpt><trkpt lat="14.557753097029686" lon="121.00743026131917"><ele>8.0</ele><time>2026-04-25T13:26:52Z</time></trkpt><trkpt lat="14.557647174140792" lon="121.0071210665643"><ele>7.999999999999999</ele><time>2026-04-25T13:26:54Z</time></trkpt><trkpt lat="14.557630210116573" lon="121.00703497120627"><ele>8.0</ele><time>2026-04-25T13:26:55Z</time></trkpt><trkpt lat="14.557620929370382" lon="121.0069687010912"><ele>8.0</ele><time>2026-04-25T13:26:56Z</time></trkpt><trkpt lat="14.557570337642378" lon="121.0068517387668"><ele>8.0</ele><time>2026-04-25T13:26:58Z</time></trkpt><trkpt lat="14.557514474371706" lon="121.00679149308176"><ele>7.999999999999999</ele><time>2026-04-25T13:26:59Z</time></trkpt><trkpt lat="14.557463779207543" lon="121.00671722129603"><ele>8.0</ele><time>2026-04-25T13:27:00Z</time></trkpt><trkpt lat="14.557411450862848" lon="121.00663243986129"><ele>7.800000000000001</ele><time>2026-04-25T13:27:01Z</time></trkpt><trkpt lat="14.557363556890284" lon="121.00653736454215"><ele>7.6000000000000005</ele><time>2026-04-25T13:27:02Z</time></trkpt><trkpt lat="14.557324743818482" lon="121.00647276333792"><ele>7.3999999999999995</ele><time>2026-04-25T13:27:03Z</time></trkpt><trkpt lat="14.557270007422659" lon="121.0064012910519"><ele>7.199999999999999</ele><time>2026-04-25T13:27:04Z</time></trkpt><trkpt lat="14.557221166795212" lon="121.00632534570605"><ele>7.0</ele><time>2026-04-25T13:27:05Z</time></trkpt><trkpt lat="14.55715662798562" lon="121.00624023444234"><ele>7.000000000000001</ele><time>2026-04-25T13:27:06Z</time></trkpt><trkpt lat="14.557121638674648" lon="121.0061640197528"><ele>7.0</ele><time>2026-04-25T13:27:07Z</time></trkpt><trkpt lat="14.557087790328186" lon="121.00610207876657"><ele>7.0</ele><time>2026-04-25T13:27:09Z</time></trkpt><trkpt lat="14.557049891279712" lon="121.00603314240233"><ele>7.0</ele><time>2026-04-25T13:27:13Z</time></trkpt><trkpt lat="14.55700524769277" lon="121.00594840158853"><ele>7.000000000000001</ele><time>2026-04-25T13:27:16Z</time></trkpt><trkpt lat="14.557002664756002" lon="121.00584647612828"><ele>7.0</ele><time>2026-04-25T13:27:18Z</time></trkpt><trkpt lat="14.556949116664393" lon="121.00574021091667"><ele>7.571428571428571</ele><time>2026-04-25T13:27:20Z</time></trkpt><trkpt lat="14.5569187991806" lon="121.00567766050693"><ele>8.142857142857142</ele><time>2026-04-25T13:27:21Z</time></trkpt><trkpt lat="14.556883585877447" lon="121.00560707390073"><ele>8.714285714285715</ele><time>2026-04-25T13:27:22Z</time></trkpt><trkpt lat="14.556846658745553" lon="121.00553279042458"><ele>9.285714285714285</ele><time>2026-04-25T13:27:23Z</time></trkpt><trkpt lat="14.556813178722203" lon="121.00546544832837"><ele>9.857142857142858</ele><time>2026-04-25T13:27:24Z</time></trkpt><trkpt lat="14.55678022595307" lon="121.00539916680185"><ele>10.428571428571429</ele><time>2026-04-25T13:27:25Z</time></trkpt><trkpt lat="14.556744444508828" lon="121.00532719566412"><ele>11.0</ele><time>2026-04-25T13:27:26Z</time></trkpt><trkpt lat="14.556706450287562" lon="121.0052507737032"><ele>11.0</ele><time>2026-04-25T13:27:27Z</time></trkpt><trkpt lat="14.556669416941746" lon="121.00517628446192"><ele>11.0</ele><time>2026-04-25T13:27:28Z</time></trkpt><trkpt lat="14.556631361324301" lon="121.0050997390202"><ele>11.0</ele><time>2026-04-25T13:27:29Z</time></trkpt><trkpt lat="14.556589468655135" lon="121.00501413399465"><ele>11.0</ele><time>2026-04-25T13:27:30Z</time></trkpt><trkpt lat="14.556548664986702" lon="121.0049327729854"><ele>11.0</ele><time>2026-04-25T13:27:31Z</time></trkpt><trkpt lat="14.55650489706173" lon="121.00484550142869"><ele>11.0</ele><time>2026-04-25T13:27:32Z</time></trkpt><trkpt lat="14.556461875817531" lon="121.0047593988467"><ele>10.833333333333332</ele><time>2026-04-25T13:27:33Z</time></trkpt><trkpt lat="14.556418775441125" lon="121.00467197867808"><ele>10.666666666666666</ele><time>2026-04-25T13:27:34Z</time></trkpt><trkpt lat="14.556375086740376" lon="121.00458336521145"><ele>10.5</ele><time>2026-04-25T13:27:35Z</time></trkpt><trkpt lat="14.556343511454253" lon="121.00451365520237"><ele>10.333333333333334</ele><time>2026-04-25T13:27:36Z</time></trkpt><trkpt lat="14.55630550399899" lon="121.00442718893497"><ele>10.166666666666668</ele><time>2026-04-25T13:27:38Z</time></trkpt><trkpt lat="14.55627869323299" lon="121.00436226084362"><ele>10.0</ele><time>2026-04-25T13:27:41Z</time></trkpt><trkpt lat="14.556251571831968" lon="121.00429658048508"><ele>10.0</ele><time>2026-04-25T13:28:02Z</time></trkpt><trkpt lat="14.55621908300722" lon="121.00421790170665"><ele>10.0</ele><time>2026-04-25T13:28:12Z</time></trkpt><trkpt lat="14.556189114015922" lon="121.00414532531332"><ele>10.0</ele><time>2026-04-25T13:28:14Z</time></trkpt><trkpt lat="14.556150047505463" lon="121.0040509714007"><ele>10.0</ele><time>2026-04-25T13:28:16Z</time></trkpt><trkpt lat="14.556103787264846" lon="121.00394407550729"><ele>10.0</ele><time>2026-04-25T13:28:18Z</time></trkpt><trkpt lat="14.556062696426883" lon="121.0038367498924"><ele>9.4</ele><time>2026-04-25T13:28:20Z</time></trkpt><trkpt lat="14.556023118238024" lon="121.00373070364687"><ele>8.8</ele><time>2026-04-25T13:28:22Z</time></trkpt><trkpt lat="14.555986608506727" lon="121.00363496856279"><ele>8.2</ele><time>2026-04-25T13:28:24Z</time></trkpt><trkpt lat="14.555949282784363" lon="121.00353556248143"><ele>7.6</ele><time>2026-04-25T13:28:26Z</time></trkpt><trkpt lat="14.555907038447671" lon="121.00342199078284"><ele>7.0</ele><time>2026-04-25T13:28:28Z</time></trkpt><trkpt lat="14.555885027014705" lon="121.00336097378103"><ele>7.000000000000001</ele><time>2026-04-25T13:28:29Z</time></trkpt><trkpt lat="14.555862937991726" lon="121.00329951252128"><ele>7.0</ele><time>2026-04-25T13:28:30Z</time></trkpt><trkpt lat="14.555840540852722" lon="121.00323719400377"><ele>7.0</ele><time>2026-04-25T13:28:31Z</time></trkpt><trkpt lat="14.555817732310631" lon="121.00317373078485"><ele>7.0</ele><time>2026-04-25T13:28:32Z</time></trkpt><trkpt lat="14.555794814033197" lon="121.00310996223521"><ele>7.000000000000001</ele><time>2026-04-25T13:28:33Z</time></trkpt><trkpt lat="14.555771656116034" lon="121.00304552689197"><ele>7.0</ele><time>2026-04-25T13:28:34Z</time></trkpt><trkpt lat="14.55573020880692" lon="121.00292254557753"><ele>7.000000000000001</ele><time>2026-04-25T13:28:36Z</time></trkpt><trkpt lat="14.555709241792776" lon="121.00285785340381"><ele>7.0</ele><time>2026-04-25T13:28:37Z</time></trkpt><trkpt lat="14.555671453236055" lon="121.00274125954942"><ele>7.0</ele><time>2026-04-25T13:28:39Z</time></trkpt><trkpt lat="14.555633192701418" lon="121.00262320947213"><ele>7.0</ele><time>2026-04-25T13:28:41Z</time></trkpt><trkpt lat="14.555612050061669" lon="121.00255797538782"><ele>7.000000000000001</ele><time>2026-04-25T13:28:42Z</time></trkpt><trkpt lat="14.555589870737146" lon="121.00248954271392"><ele>7.0</ele><time>2026-04-25T13:28:43Z</time></trkpt><trkpt lat="14.555566988023235" lon="121.0024189403586"><ele>7.428571428571429</ele><time>2026-04-25T13:28:44Z</time></trkpt><trkpt lat="14.555504701827308" lon="121.00235731808074"><ele>7.857142857142858</ele><time>2026-04-25T13:28:45Z</time></trkpt><trkpt lat="14.555483926156441" lon="121.00228340938693"><ele>8.285714285714285</ele><time>2026-04-25T13:28:46Z</time></trkpt><trkpt lat="14.555466206450363" lon="121.00221281734565"><ele>8.714285714285715</ele><time>2026-04-25T13:28:47Z</time></trkpt><trkpt lat="14.555449625614415" lon="121.00214235851881"><ele>9.142857142857142</ele><time>2026-04-25T13:28:48Z</time></trkpt><trkpt lat="14.555432284517272" lon="121.00207556289926"><ele>9.571428571428571</ele><time>2026-04-25T13:28:49Z</time></trkpt><trkpt lat="14.555413412275339" lon="121.00201021976513"><ele>10.0</ele><time>2026-04-25T13:28:50Z</time></trkpt><trkpt lat="14.555438750100572" lon="121.00193488734912"><ele>10.0</ele><time>2026-04-25T13:28:51Z</time></trkpt><trkpt lat="14.55540616493062" lon="121.00180999985093"><ele>10.0</ele><time>2026-04-25T13:28:53Z</time></trkpt><trkpt lat="14.555390644384506" lon="121.00174517965297"><ele>10.0</ele><time>2026-04-25T13:28:54Z</time></trkpt><trkpt lat="14.55537465677871" lon="121.00167853267178"><ele>10.0</ele><time>2026-04-25T13:28:55Z</time></trkpt><trkpt lat="14.55535848576809" lon="121.00161112117434"><ele>10.0</ele><time>2026-04-25T13:28:56Z</time></trkpt><trkpt lat="14.555343304191954" lon="121.00154783428042"><ele>10.0</ele><time>2026-04-25T13:28:57Z</time></trkpt><trkpt lat="14.555313662425084" lon="121.00142426769978"><ele>9.666666666666668</ele><time>2026-04-25T13:28:59Z</time></trkpt><trkpt lat="14.555297473758632" lon="121.00135678260285"><ele>9.333333333333334</ele><time>2026-04-25T13:29:00Z</time></trkpt><trkpt lat="14.555280039138752" lon="121.00128410456068"><ele>9.0</ele><time>2026-04-25T13:29:01Z</time></trkpt><trkpt lat="14.555219808033506" lon="121.00121718285045"><ele>8.666666666666666</ele><time>2026-04-25T13:29:02Z</time></trkpt><trkpt lat="14.555200278275292" lon="121.00113842322135"><ele>8.333333333333332</ele><time>2026-04-25T13:29:03Z</time></trkpt><trkpt lat="14.555181866843244" lon="121.0010617839748"><ele>8.0</ele><time>2026-04-25T13:29:04Z</time></trkpt><trkpt lat="14.555161862385948" lon="121.00098636241462"><ele>7.999999999999999</ele><time>2026-04-25T13:29:05Z</time></trkpt><trkpt lat="14.55514726157472" lon="121.00090575847652"><ele>8.0</ele><time>2026-04-25T13:29:06Z</time></trkpt><trkpt lat="14.555129052883782" lon="121.0008209502649"><ele>8.0</ele><time>2026-04-25T13:29:07Z</time></trkpt><trkpt lat="14.555113583778853" lon="121.0007344861081"><ele>8.0</ele><time>2026-04-25T13:29:08Z</time></trkpt><trkpt lat="14.555095263639029" lon="121.0006508200723"><ele>7.999999999999999</ele><time>2026-04-25T13:29:09Z</time></trkpt><trkpt lat="14.555078094183022" lon="121.00057100022417"><ele>8.0</ele><time>2026-04-25T13:29:10Z</time></trkpt><trkpt lat="14.555061495753119" lon="121.00049209139924"><ele>7.833333333333333</ele><time>2026-04-25T13:29:11Z</time></trkpt><trkpt lat="14.555041903651055" lon="121.00042453673255"><ele>7.666666666666666</ele><time>2026-04-25T13:29:12Z</time></trkpt><trkpt lat="14.555023082622624" lon="121.0003552388001"><ele>7.5</ele><time>2026-04-25T13:29:13Z</time></trkpt><trkpt lat="14.555003782772744" lon="121.00028489630617"><ele>7.333333333333334</ele><time>2026-04-25T13:29:14Z</time></trkpt><trkpt lat="14.554986581630557" lon="121.00021784320262"><ele>7.166666666666667</ele><time>2026-04-25T13:29:15Z</time></trkpt><trkpt lat="14.554969460522804" lon="121.00015153180192"><ele>7.0</ele><time>2026-04-25T13:29:16Z</time></trkpt><trkpt lat="14.554944222712809" lon="121.00003521235084"><ele>7.0</ele><time>2026-04-25T13:29:18Z</time></trkpt><trkpt lat="14.554917561052772" lon="120.99992647764603"><ele>6.999999999999999</ele><time>2026-04-25T13:29:20Z</time></trkpt><trkpt lat="14.554889993556658" lon="120.99981373829415"><ele>6.999999999999999</ele><time>2026-04-25T13:29:22Z</time></trkpt><trkpt lat="14.55486137433258" lon="120.99970249371887"><ele>7.0</ele><time>2026-04-25T13:29:24Z</time></trkpt><trkpt lat="14.554842752818823" lon="120.99961920314551"><ele>7.0</ele><time>2026-04-25T13:29:26Z</time></trkpt><trkpt lat="14.55482090044366" lon="120.99955111706203"><ele>7.000000000000001</ele><time>2026-04-25T13:29:28Z</time></trkpt><trkpt lat="14.554787778935463" lon="120.9994594614203"><ele>7.0</ele><time>2026-04-25T13:29:30Z</time></trkpt><trkpt lat="14.55476727786746" lon="120.99939550221916"><ele>7.0</ele><time>2026-04-25T13:29:31Z</time></trkpt><trkpt lat="14.554746224143127" lon="120.99932198385658"><ele>7.0</ele><time>2026-04-25T13:29:32Z</time></trkpt><trkpt lat="14.554728488937673" lon="120.9992479347549"><ele>7.000000000000001</ele><time>2026-04-25T13:29:33Z</time></trkpt><trkpt lat="14.55470523901847" lon="120.99915418903265"><ele>7.0</ele><time>2026-04-25T13:29:34Z</time></trkpt><trkpt lat="14.554680741870564" lon="120.99905109649609"><ele>7.199999999999999</ele><time>2026-04-25T13:29:35Z</time></trkpt><trkpt lat="14.55465498009068" lon="120.99894958467098"><ele>7.3999999999999995</ele><time>2026-04-25T13:29:36Z</time></trkpt><trkpt lat="14.554624799422871" lon="120.99884735247156"><ele>7.6000000000000005</ele><time>2026-04-25T13:29:37Z</time></trkpt><trkpt lat="14.55459829467421" lon="120.99875232161594"><ele>7.800000000000001</ele><time>2026-04-25T13:29:38Z</time></trkpt><trkpt lat="14.554565958426146" lon="120.99864874242192"><ele>8.0</ele><time>2026-04-25T13:29:39Z</time></trkpt><trkpt lat="14.554539787106352" lon="120.99854811593521"><ele>7.833333333333333</ele><time>2026-04-25T13:29:40Z</time></trkpt><trkpt lat="14.554515655067412" lon="120.99845556761612"><ele>7.666666666666666</ele><time>2026-04-25T13:29:41Z</time></trkpt><trkpt lat="14.554490179893344" lon="120.99837049915033"><ele>7.5</ele><time>2026-04-25T13:29:42Z</time></trkpt><trkpt lat="14.554468509054857" lon="120.9982964377536"><ele>7.333333333333334</ele><time>2026-04-25T13:29:43Z</time></trkpt><trkpt lat="14.55445633417117" lon="120.99822352534774"><ele>7.166666666666667</ele><time>2026-04-25T13:29:44Z</time></trkpt><trkpt lat="14.554432507863677" lon="120.99810458903823"><ele>7.0</ele><time>2026-04-25T13:29:46Z</time></trkpt><trkpt lat="14.55440463410141" lon="120.99800592294362"><ele>7.0</ele><time>2026-04-25T13:29:48Z</time></trkpt><trkpt lat="14.554379575013566" lon="120.99792385446686"><ele>6.999999999999999</ele><time>2026-04-25T13:29:50Z</time></trkpt><trkpt lat="14.554349218098942" lon="120.9978160784021"><ele>6.999999999999999</ele><time>2026-04-25T13:29:53Z</time></trkpt><trkpt lat="14.554324081954704" lon="120.99770797309111"><ele>7.0</ele><time>2026-04-25T13:29:55Z</time></trkpt><trkpt lat="14.554290612191112" lon="120.99758277455777"><ele>7.0</ele><time>2026-04-25T13:29:57Z</time></trkpt><trkpt lat="14.554275772883003" lon="120.99751902898238"><ele>6.833333333333334</ele><time>2026-04-25T13:29:58Z</time></trkpt><trkpt lat="14.554254526478077" lon="120.99741361144027"><ele>6.666666666666667</ele><time>2026-04-25T13:30:00Z</time></trkpt><trkpt lat="14.554243188091506" lon="120.99732572772902"><ele>6.5</ele><time>2026-04-25T13:30:02Z</time></trkpt><trkpt lat="14.554254195347196" lon="120.99726132450061"><ele>6.333333333333334</ele><time>2026-04-25T13:30:07Z</time></trkpt><trkpt lat="14.554275247817253" lon="120.99719852107256"><ele>6.166666666666667</ele><time>2026-04-25T13:30:12Z</time></trkpt><trkpt lat="14.5542162636926" lon="120.99717410638529"><ele>6.0</ele><time>2026-04-25T13:30:19Z</time></trkpt><trkpt lat="14.554321033336183" lon="120.99713927098976"><ele>6.0</ele><time>2026-04-25T13:30:20Z</time></trkpt><trkpt lat="14.554388794723938" lon="120.99713190676627"><ele>6.0</ele><time>2026-04-25T13:30:35Z</time></trkpt><trkpt lat="14.55460628795936" lon="120.99705864661564"><ele>6.0</ele><time>2026-04-25T13:30:36Z</time></trkpt><trkpt lat="14.55476032912878" lon="120.9970382065323"><ele>6.5</ele><time>2026-04-25T13:30:40Z</time></trkpt><trkpt lat="14.554854449201944" lon="120.99701759879981"><ele>7.0</ele><time>2026-04-25T13:30:43Z</time></trkpt><trkpt lat="14.55496298793596" lon="120.99699058731238"><ele>7.5</ele><time>2026-04-25T13:30:45Z</time></trkpt><trkpt lat="14.55503190457154" lon="120.99697630270302"><ele>8.0</ele><time>2026-04-25T13:30:46Z</time></trkpt><trkpt lat="14.555098952286873" lon="120.99696245770001"><ele>8.5</ele><time>2026-04-25T13:30:47Z</time></trkpt><trkpt lat="14.55517017404471" lon="120.99694752722938"><ele>9.0</ele><time>2026-04-25T13:30:48Z</time></trkpt><trkpt lat="14.555246295841226" lon="120.99693159908315"><ele>9.0</ele><time>2026-04-25T13:30:49Z</time></trkpt><trkpt lat="14.555362432065817" lon="120.99690851847285"><ele>9.0</ele><time>2026-04-25T13:30:51Z</time></trkpt><trkpt lat="14.555431246602742" lon="120.99689374213885"><ele>9.0</ele><time>2026-04-25T13:30:52Z</time></trkpt><trkpt lat="14.555494600095574" lon="120.99687902527313"><ele>9.0</ele><time>2026-04-25T13:30:53Z</time></trkpt><trkpt lat="14.555621372144524" lon="120.9968472974378"><ele>9.0</ele><time>2026-04-25T13:30:55Z</time></trkpt><trkpt lat="14.55568405903763" lon="120.99683107847629"><ele>9.0</ele><time>2026-04-25T13:30:56Z</time></trkpt><trkpt lat="14.555801449536501" lon="120.99680575235516"><ele>9.0</ele><time>2026-04-25T13:30:58Z</time></trkpt><trkpt lat="14.555861843778278" lon="120.9967854774443"><ele>9.0</ele><time>2026-04-25T13:30:59Z</time></trkpt><trkpt lat="14.555960264782442" lon="120.99676015258764"><ele>9.0</ele><time>2026-04-25T13:31:01Z</time></trkpt><trkpt lat="14.55603605128886" lon="120.99673559008228"><ele>9.0</ele><time>2026-04-25T13:31:03Z</time></trkpt><trkpt lat="14.556100068975102" lon="120.99672072701341"><ele>9.0</ele><time>2026-04-25T13:31:05Z</time></trkpt><trkpt lat="14.5561694933855" lon="120.9967079798694"><ele>9.0</ele><time>2026-04-25T13:31:07Z</time></trkpt><trkpt lat="14.55626962982859" lon="120.99668033394535"><ele>8.8</ele><time>2026-04-25T13:31:10Z</time></trkpt><trkpt lat="14.556354367786176" lon="120.99664043593927"><ele>8.600000000000001</ele><time>2026-04-25T13:31:12Z</time></trkpt><trkpt lat="14.556449305233789" lon="120.99663420146565"><ele>8.4</ele><time>2026-04-25T13:31:14Z</time></trkpt><trkpt lat="14.556553162516407" lon="120.99661010014543"><ele>8.200000000000001</ele><time>2026-04-25T13:31:16Z</time></trkpt><trkpt lat="14.556655522957723" lon="120.99658634613706"><ele>8.0</ele><time>2026-04-25T13:31:18Z</time></trkpt><trkpt lat="14.55671879892436" lon="120.99657166221007"><ele>7.999999999999999</ele><time>2026-04-25T13:31:19Z</time></trkpt><trkpt lat="14.556783783796599" lon="120.99655679523892"><ele>8.0</ele><time>2026-04-25T13:31:20Z</time></trkpt><trkpt lat="14.556849812418193" lon="120.99654168204388"><ele>8.0</ele><time>2026-04-25T13:31:21Z</time></trkpt><trkpt lat="14.556914508280743" lon="120.99652690736168"><ele>8.0</ele><time>2026-04-25T13:31:22Z</time></trkpt><trkpt lat="14.556984548718642" lon="120.99651091310507"><ele>7.999999999999999</ele><time>2026-04-25T13:31:23Z</time></trkpt><trkpt lat="14.55705568278695" lon="120.99649432683472"><ele>8.0</ele><time>2026-04-25T13:31:24Z</time></trkpt><trkpt lat="14.557163727025964" lon="120.99646901135557"><ele>8.5</ele><time>2026-04-25T13:31:25Z</time></trkpt><trkpt lat="14.557242518944864" lon="120.9964505498606"><ele>9.0</ele><time>2026-04-25T13:31:26Z</time></trkpt><trkpt lat="14.557320751743738" lon="120.9964322193939"><ele>9.5</ele><time>2026-04-25T13:31:27Z</time></trkpt><trkpt lat="14.55741113976481" lon="120.9964110408779"><ele>10.0</ele><time>2026-04-25T13:31:28Z</time></trkpt><trkpt lat="14.557490685154251" lon="120.99639508119488"><ele>10.5</ele><time>2026-04-25T13:31:29Z</time></trkpt><trkpt lat="14.557572588436107" lon="120.9963747401211"><ele>11.0</ele><time>2026-04-25T13:31:30Z</time></trkpt><trkpt lat="14.557652324993432" lon="120.99635592030587"><ele>11.0</ele><time>2026-04-25T13:31:31Z</time></trkpt><trkpt lat="14.55772852547467" lon="120.99633793509774"><ele>11.0</ele><time>2026-04-25T13:31:32Z</time></trkpt><trkpt lat="14.557804430341609" lon="120.99632001967326"><ele>11.0</ele><time>2026-04-25T13:31:33Z</time></trkpt><trkpt lat="14.557874509985764" lon="120.9963034791396"><ele>11.0</ele><time>2026-04-25T13:31:34Z</time></trkpt><trkpt lat="14.557938915084398" lon="120.99628827791985"><ele>11.0</ele><time>2026-04-25T13:31:35Z</time></trkpt><trkpt lat="14.558052227894029" lon="120.99626159802875"><ele>11.0</ele><time>2026-04-25T13:31:37Z</time></trkpt><trkpt lat="14.55812639818523" lon="120.9962441405208"><ele>10.600000000000001</ele><time>2026-04-25T13:31:40Z</time></trkpt><trkpt lat="14.558123218174197" lon="120.9960971255774"><ele>10.200000000000001</ele><time>2026-04-25T13:31:48Z</time></trkpt><trkpt lat="14.558115971024197" lon="120.99601060988569"><ele>9.8</ele><time>2026-04-25T13:31:54Z</time></trkpt><trkpt lat="14.55808788034429" lon="120.99592855437118"><ele>9.4</ele><time>2026-04-25T13:31:57Z</time></trkpt><trkpt lat="14.558037710488394" lon="120.99586690254773"><ele>9.0</ele><time>2026-04-25T13:32:00Z</time></trkpt><trkpt lat="14.558118375443323" lon="120.99578869185218"><ele>9.0</ele><time>2026-04-25T13:32:01Z</time></trkpt><trkpt lat="14.558087115417568" lon="120.99570789759815"><ele>9.0</ele><time>2026-04-25T13:32:03Z</time></trkpt><trkpt lat="14.557971436312693" lon="120.9956643335751"><ele>9.0</ele><time>2026-04-25T13:32:05Z</time></trkpt><trkpt lat="14.557953188163912" lon="120.99559584166545"><ele>9.0</ele><time>2026-04-25T13:32:07Z</time></trkpt><trkpt lat="14.557883683008352" lon="120.99550687413044"><ele>9.0</ele><time>2026-04-25T13:32:08Z</time></trkpt><trkpt lat="14.55781932584638" lon="120.99548595615987"><ele>9.0</ele><time>2026-04-25T13:32:12Z</time></trkpt><trkpt lat="14.557751854029272" lon="120.99552552294107"><ele>9.0</ele><time>2026-04-25T13:32:16Z</time></trkpt><trkpt lat="14.557710216465717" lon="120.99560643263959"><ele>9.0</ele><time>2026-04-25T13:32:19Z</time></trkpt><trkpt lat="14.557728456364337" lon="120.9956778087857"><ele>9.0</ele><time>2026-04-25T13:32:21Z</time></trkpt><trkpt lat="14.557798261635575" lon="120.99572968054062"><ele>9.0</ele><time>2026-04-25T13:32:24Z</time></trkpt><trkpt lat="14.557866295663697" lon="120.99571153268919"><ele>9.0</ele><time>2026-04-25T13:32:26Z</time></trkpt><trkpt lat="14.557931827633354" lon="120.99566642815309"><ele>9.0</ele><time>2026-04-25T13:32:30Z</time></trkpt><trkpt lat="14.557917685725986" lon="120.99557499688788"><ele>9.0</ele><time>2026-04-25T13:32:33Z</time></trkpt><trkpt lat="14.557870125071869" lon="120.99549269210691"><ele>9.0</ele><time>2026-04-25T13:32:36Z</time></trkpt><trkpt lat="14.557805060311146" lon="120.99549687872144"><ele>9.0</ele><time>2026-04-25T13:32:40Z</time></trkpt><trkpt lat="14.557741910426135" lon="120.99553634346896"><ele>9.0</ele><time>2026-04-25T13:32:43Z</time></trkpt><trkpt lat="14.557708522443203" lon="120.99562314328332"><ele>9.0</ele><time>2026-04-25T13:32:46Z</time></trkpt><trkpt lat="14.557747540639436" lon="120.99570666723815"><ele>9.000000000000002</ele><time>2026-04-25T13:32:49Z</time></trkpt><trkpt lat="14.557811551657595" lon="120.99573447825044"><ele>9.0</ele><time>2026-04-25T13:32:51Z</time></trkpt><trkpt lat="14.55787147701673" lon="120.9957121512715"><ele>9.0</ele><time>2026-04-25T13:32:53Z</time></trkpt><trkpt lat="14.557927995737609" lon="120.99563613025298"><ele>9.0</ele><time>2026-04-25T13:32:56Z</time></trkpt><trkpt lat="14.557917550019468" lon="120.99556825161257"><ele>9.0</ele><time>2026-04-25T13:32:58Z</time></trkpt><trkpt lat="14.557891187491773" lon="120.99550696605341"><ele>9.000000000000002</ele><time>2026-04-25T13:33:00Z</time></trkpt><trkpt lat="14.557828825510516" lon="120.99548604079091"><ele>9.0</ele><time>2026-04-25T13:33:03Z</time></trkpt><trkpt lat="14.557753412168921" lon="120.99552900979592"><ele>9.0</ele><time>2026-04-25T13:33:07Z</time></trkpt><trkpt lat="14.557713007992575" lon="120.99560556448971"><ele>9.0</ele><time>2026-04-25T13:33:10Z</time></trkpt><trkpt lat="14.557728624320832" lon="120.99567312690176"><ele>9.0</ele><time>2026-04-25T13:33:12Z</time></trkpt><trkpt lat="14.557793055005972" lon="120.9957306921828"><ele>9.0</ele><time>2026-04-25T13:33:15Z</time></trkpt><trkpt lat="14.557857561049468" lon="120.99572228338494"><ele>9.0</ele><time>2026-04-25T13:33:17Z</time></trkpt><trkpt lat="14.557927658153812" lon="120.99565798891608"><ele>9.0</ele><time>2026-04-25T13:33:20Z</time></trkpt><trkpt lat="14.557928886641744" lon="120.99558773327222"><ele>9.0</ele><time>2026-04-25T13:33:22Z</time></trkpt><trkpt lat="14.557903311335357" lon="120.99552054486256"><ele>9.0</ele><time>2026-04-25T13:33:24Z</time></trkpt><trkpt lat="14.55785048940387" lon="120.99548475560353"><ele>9.0</ele><time>2026-04-25T13:33:27Z</time></trkpt><trkpt lat="14.557788488560426" lon="120.9955105305695"><ele>9.0</ele><time>2026-04-25T13:33:31Z</time></trkpt><trkpt lat="14.557732756635435" lon="120.99556269239469"><ele>9.0</ele><time>2026-04-25T13:33:34Z</time></trkpt><trkpt lat="14.557724473808172" lon="120.99565685847617"><ele>9.0</ele><time>2026-04-25T13:33:37Z</time></trkpt><trkpt lat="14.55778364444039" lon="120.99572706793296"><ele>9.0</ele><time>2026-04-25T13:33:40Z</time></trkpt><trkpt lat="14.557865333283308" lon="120.99572178529709"><ele>9.0</ele><time>2026-04-25T13:33:43Z</time></trkpt><trkpt lat="14.558009502070652" lon="120.99571945903568"><ele>9.0</ele><time>2026-04-25T13:33:48Z</time></trkpt><trkpt lat="14.558099111673021" lon="120.99569874097969"><ele>9.0</ele><time>2026-04-25T13:33:51Z</time></trkpt><trkpt lat="14.558117454054614" lon="120.9956083898064"><ele>9.0</ele><time>2026-04-25T13:33:54Z</time></trkpt><trkpt lat="14.558087118379508" lon="120.99554841072661"><ele>9.0</ele><time>2026-04-25T13:33:56Z</time></trkpt><trkpt lat="14.558055211472585" lon="120.99548612784186"><ele>9.0</ele><time>2026-04-25T13:33:58Z</time></trkpt><trkpt lat="14.558025978477797" lon="120.99542005020571"><ele>9.0</ele><time>2026-04-25T13:34:00Z</time></trkpt><trkpt lat="14.558050849229499" lon="120.99533988448343"><ele>9.0</ele><time>2026-04-25T13:34:03Z</time></trkpt><trkpt lat="14.55814001741701" lon="120.99533011369131"><ele>9.0</ele><time>2026-04-25T13:34:06Z</time></trkpt><trkpt lat="14.558191093233098" lon="120.99537295704671"><ele>9.0</ele><time>2026-04-25T13:34:09Z</time></trkpt><trkpt lat="14.558381801774946" lon="120.99542410102362"><ele>9.0</ele><time>2026-04-25T13:35:37Z</time></trkpt><trkpt lat="14.55828610911945" lon="120.99543332462345"><ele>9.0</ele><time>2026-04-25T13:35:50Z</time></trkpt></trkseg></trk></gpx>